<?xml version="1.0"?>
<gpx xmlns="http://www.topografix.com/GPX/1/1" xmlns:xsi="http://www.w3.org/2001/XMLSchema-instance" xmlns:wptx1="http://www.garmin.com/xmlschemas/WaypointExtension/v1" xmlns:gpxtrx="http://www.garmin.com/xmlschemas/GpxExtensions/v3" xmlns:gpxtpx="http://www.garmin.com/xmlschemas/TrackPointExtension/v1" xmlns:gpxx="http://www.garmin.com/xmlschemas/GpxExtensions/v3" xmlns:trp="http://www.garmin.com/xmlschemas/TripExtensions/v1" xmlns:adv="http://www.garmin.com/xmlschemas/AdventuresExtensions/v1" xmlns:prs="http://www.garmin.com/xmlschemas/PressureExtension/v1" xmlns:tmd="http://www.garmin.com/xmlschemas/TripMetaDataExtensions/v1" xmlns:vptm="http://www.garmin.com/xmlschemas/ViaPointTransportationModeExtensions/v1" xmlns:ctx="http://www.garmin.com/xmlschemas/CreationTimeExtension/v1" xmlns:gpxacc="http://www.garmin.com/xmlschemas/AccelerationExtension/v1" xmlns:gpxpx="http://www.garmin.com/xmlschemas/PowerExtension/v1" xmlns:vidx1="http://www.garmin.com/xmlschemas/VideoExtension/v1" creator="Garmin Desktop App" version="1.1" xsi:schemaLocation="http://www.topografix.com/GPX/1/1 http://www.topografix.com/GPX/1/1/gpx.xsd http://www.garmin.com/xmlschemas/WaypointExtension/v1 http://www8.garmin.com/xmlschemas/WaypointExtensionv1.xsd http://www.garmin.com/xmlschemas/TrackPointExtension/v1 http://www.garmin.com/xmlschemas/TrackPointExtensionv1.xsd http://www.garmin.com/xmlschemas/GpxExtensions/v3 http://www8.garmin.com/xmlschemas/GpxExtensionsv3.xsd http://www.garmin.com/xmlschemas/ActivityExtension/v1 http://www8.garmin.com/xmlschemas/ActivityExtensionv1.xsd http://www.garmin.com/xmlschemas/AdventuresExtensions/v1 http://www8.garmin.com/xmlschemas/AdventuresExtensionv1.xsd http://www.garmin.com/xmlschemas/PressureExtension/v1 http://www.garmin.com/xmlschemas/PressureExtensionv1.xsd http://www.garmin.com/xmlschemas/TripExtensions/v1 http://www.garmin.com/xmlschemas/TripExtensionsv1.xsd http://www.garmin.com/xmlschemas/TripMetaDataExtensions/v1 http://www.garmin.com/xmlschemas/TripMetaDataExtensionsv1.xsd http://www.garmin.com/xmlschemas/ViaPointTransportationModeExtensions/v1 http://www.garmin.com/xmlschemas/ViaPointTransportationModeExtensionsv1.xsd http://www.garmin.com/xmlschemas/CreationTimeExtension/v1 http://www.garmin.com/xmlschemas/CreationTimeExtensionsv1.xsd http://www.garmin.com/xmlschemas/AccelerationExtension/v1 http://www.garmin.com/xmlschemas/AccelerationExtensionv1.xsd http://www.garmin.com/xmlschemas/PowerExtension/v1 http://www.garmin.com/xmlschemas/PowerExtensionv1.xsd http://www.garmin.com/xmlschemas/VideoExtension/v1 http://www.garmin.com/xmlschemas/VideoExtensionv1.xsd">

  <metadata>
    <link href="http://www.garmin.com">
      <text>Garmin International</text>
    </link>
    <time>2015-03-13T17:44:33Z</time>
    <bounds maxlat="47.376394271850586" maxlon="11.279076486825943" minlat="47.314258804544806" minlon="11.237976243719459"/>
  </metadata>

  <trk>
    <name>Eppzirler Scharte 2015.03.13</name>
    <extensions>
      <gpxx:TrackExtension>
        <gpxx:DisplayColor>Cyan</gpxx:DisplayColor>
      </gpxx:TrackExtension>
      <gpxtrkx:TrackStatsExtension xmlns:gpxtrkx="http://www.garmin.com/xmlschemas/TrackStatsExtension/v1">
        <gpxtrkx:Distance>20401</gpxtrkx:Distance>
        <gpxtrkx:TotalElapsedTime>31880</gpxtrkx:TotalElapsedTime>
        <gpxtrkx:MovingTime>15319</gpxtrkx:MovingTime>
        <gpxtrkx:StoppedTime>5975</gpxtrkx:StoppedTime>
        <gpxtrkx:MovingSpeed>1</gpxtrkx:MovingSpeed>
        <gpxtrkx:MaxSpeed>10</gpxtrkx:MaxSpeed>
        <gpxtrkx:MaxElevation>2180</gpxtrkx:MaxElevation>
        <gpxtrkx:MinElevation>488</gpxtrkx:MinElevation>
        <gpxtrkx:Ascent>1620</gpxtrkx:Ascent>
        <gpxtrkx:Descent>1611</gpxtrkx:Descent>
        <gpxtrkx:AvgAscentRate>0</gpxtrkx:AvgAscentRate>
        <gpxtrkx:MaxAscentRate>0</gpxtrkx:MaxAscentRate>
        <gpxtrkx:AvgDescentRate>0</gpxtrkx:AvgDescentRate>
        <gpxtrkx:MaxDescentRate>-4</gpxtrkx:MaxDescentRate>
      </gpxtrkx:TrackStatsExtension>
    </extensions>
    <trkseg>
      <trkpt lat="47.376393601298332" lon="11.238020751625299">
        <ele>1020.610000000000014</ele>
        <time>2015-03-13T08:22:54Z</time>
      </trkpt>
      <trkpt lat="47.376392427831888" lon="11.238006753847003">
        <ele>1019.990000000000009</ele>
        <time>2015-03-13T08:23:22Z</time>
      </trkpt>
      <trkpt lat="47.376394271850586" lon="11.237995689734817">
        <ele>1020.57000000000005</ele>
        <time>2015-03-13T08:23:41Z</time>
      </trkpt>
      <trkpt lat="47.376378932967782" lon="11.237992672249675">
        <ele>1020.460000000000036</ele>
        <time>2015-03-13T08:24:07Z</time>
      </trkpt>
      <trkpt lat="47.376354290172458" lon="11.237993258982897">
        <ele>1020.620000000000005</ele>
        <time>2015-03-13T08:24:29Z</time>
      </trkpt>
      <trkpt lat="47.376337191089988" lon="11.237987643107772">
        <ele>1021.159999999999968</ele>
        <time>2015-03-13T08:24:50Z</time>
      </trkpt>
      <trkpt lat="47.376348590478301" lon="11.237990241497755">
        <ele>1020.909999999999968</ele>
        <time>2015-03-13T08:25:23Z</time>
      </trkpt>
      <trkpt lat="47.376357307657599" lon="11.238000970333815">
        <ele>1020.549999999999955</ele>
        <time>2015-03-13T08:25:54Z</time>
      </trkpt>
      <trkpt lat="47.37635487690568" lon="11.237999880686402">
        <ele>1019.840000000000032</ele>
        <time>2015-03-13T08:26:30Z</time>
      </trkpt>
      <trkpt lat="47.376366276293993" lon="11.238005580380559">
        <ele>1020.779999999999973</ele>
        <time>2015-03-13T08:26:59Z</time>
      </trkpt>
      <trkpt lat="47.376325037330389" lon="11.238188808783889">
        <ele>1021.67999999999995</ele>
        <time>2015-03-13T08:27:16Z</time>
      </trkpt>
      <trkpt lat="47.376285307109356" lon="11.238346472382545">
        <ele>1022</ele>
        <time>2015-03-13T08:27:29Z</time>
      </trkpt>
      <trkpt lat="47.376235267147422" lon="11.238620895892382">
        <ele>1023.110000000000014</ele>
        <time>2015-03-13T08:27:48Z</time>
      </trkpt>
      <trkpt lat="47.376206517219543" lon="11.238874113187194">
        <ele>1024.450000000000045</ele>
        <time>2015-03-13T08:28:07Z</time>
      </trkpt>
      <trkpt lat="47.376195034012198" lon="11.238908059895039">
        <ele>1025.839999999999918</ele>
        <time>2015-03-13T08:28:32Z</time>
      </trkpt>
      <trkpt lat="47.376229483634233" lon="11.239222716540098">
        <ele>1027.049999999999955</ele>
        <time>2015-03-13T08:28:51Z</time>
      </trkpt>
      <trkpt lat="47.376247085630894" lon="11.239493452012539">
        <ele>1027.660000000000082</ele>
        <time>2015-03-13T08:29:08Z</time>
      </trkpt>
      <trkpt lat="47.376242643222213" lon="11.239712554961443">
        <ele>1029.480000000000018</ele>
        <time>2015-03-13T08:29:22Z</time>
      </trkpt>
      <trkpt lat="47.376222442835569" lon="11.239933501929045">
        <ele>1031.940000000000055</ele>
        <time>2015-03-13T08:29:37Z</time>
      </trkpt>
      <trkpt lat="47.376179695129395" lon="11.240138774737716">
        <ele>1034.039999999999964</ele>
        <time>2015-03-13T08:29:52Z</time>
      </trkpt>
      <trkpt lat="47.376152705401182" lon="11.240231059491634">
        <ele>1035.559999999999945</ele>
        <time>2015-03-13T08:29:59Z</time>
      </trkpt>
      <trkpt lat="47.376113394275308" lon="11.240387298166752">
        <ele>1037.3599999999999</ele>
        <time>2015-03-13T08:30:13Z</time>
      </trkpt>
      <trkpt lat="47.376088164746761" lon="11.240477655082941">
        <ele>1038.099999999999909</ele>
        <time>2015-03-13T08:30:47Z</time>
      </trkpt>
      <trkpt lat="47.37607098184526" lon="11.240507075563073">
        <ele>1038.180000000000064</ele>
        <time>2015-03-13T08:30:50Z</time>
      </trkpt>
      <trkpt lat="47.376058241352439" lon="11.240528449416161">
        <ele>1039.1099999999999</ele>
        <time>2015-03-13T08:30:52Z</time>
      </trkpt>
      <trkpt lat="47.376007027924061" lon="11.240611178800464">
        <ele>1040.700000000000045</ele>
        <time>2015-03-13T08:30:59Z</time>
      </trkpt>
      <trkpt lat="47.375969728454947" lon="11.240653172135353">
        <ele>1041.009999999999991</ele>
        <time>2015-03-13T08:31:03Z</time>
      </trkpt>
      <trkpt lat="47.375938296318054" lon="11.240694494917989">
        <ele>1041.319999999999936</ele>
        <time>2015-03-13T08:31:07Z</time>
      </trkpt>
      <trkpt lat="47.375825811177492" lon="11.240815613418818">
        <ele>1043.799999999999955</ele>
        <time>2015-03-13T08:31:21Z</time>
      </trkpt>
      <trkpt lat="47.375799072906375" lon="11.240844028070569">
        <ele>1045.049999999999955</ele>
        <time>2015-03-13T08:31:24Z</time>
      </trkpt>
      <trkpt lat="47.3756336979568" lon="11.241024993360043">
        <ele>1048.119999999999891</ele>
        <time>2015-03-13T08:31:42Z</time>
      </trkpt>
      <trkpt lat="47.375505203381181" lon="11.241126246750355">
        <ele>1049.960000000000036</ele>
        <time>2015-03-13T08:31:56Z</time>
      </trkpt>
      <trkpt lat="47.375481398776174" lon="11.241137646138668">
        <ele>1050.369999999999891</ele>
        <time>2015-03-13T08:31:59Z</time>
      </trkpt>
      <trkpt lat="47.375447871163487" lon="11.241154158487916">
        <ele>1051.490000000000009</ele>
        <time>2015-03-13T08:32:03Z</time>
      </trkpt>
      <trkpt lat="47.375281155109406" lon="11.241332190111279">
        <ele>1054.589999999999918</ele>
        <time>2015-03-13T08:32:23Z</time>
      </trkpt>
      <trkpt lat="47.375175459310412" lon="11.241503264755011">
        <ele>1057.349999999999909</ele>
        <time>2015-03-13T08:32:39Z</time>
      </trkpt>
      <trkpt lat="47.374999020248652" lon="11.241596806794405">
        <ele>1058.269999999999982</ele>
        <time>2015-03-13T08:32:57Z</time>
      </trkpt>
      <trkpt lat="47.374920314177871" lon="11.241619857028127">
        <ele>1058.599999999999909</ele>
        <time>2015-03-13T08:33:05Z</time>
      </trkpt>
      <trkpt lat="47.374817132949829" lon="11.241733515635133">
        <ele>1060.430000000000064</ele>
        <time>2015-03-13T08:33:19Z</time>
      </trkpt>
      <trkpt lat="47.374676316976547" lon="11.241830661892891">
        <ele>1061.410000000000082</ele>
        <time>2015-03-13T08:33:33Z</time>
      </trkpt>
      <trkpt lat="47.37457430921495" lon="11.241917666047812">
        <ele>1063.410000000000082</ele>
        <time>2015-03-13T08:33:44Z</time>
      </trkpt>
      <trkpt lat="47.374545643106103" lon="11.241953792050481">
        <ele>1063.6099999999999</ele>
        <time>2015-03-13T08:33:48Z</time>
      </trkpt>
      <trkpt lat="47.374434750527143" lon="11.242056638002396">
        <ele>1065.569999999999936</ele>
        <time>2015-03-13T08:34:00Z</time>
      </trkpt>
      <trkpt lat="47.37435101531446" lon="11.242150766775012">
        <ele>1067.130000000000109</ele>
        <time>2015-03-13T08:34:11Z</time>
      </trkpt>
      <trkpt lat="47.374229226261377" lon="11.242237603291869">
        <ele>1068.710000000000036</ele>
        <time>2015-03-13T08:34:24Z</time>
      </trkpt>
      <trkpt lat="47.374117076396942" lon="11.242314046248794">
        <ele>1070.059999999999945</ele>
        <time>2015-03-13T08:34:35Z</time>
      </trkpt>
      <trkpt lat="47.374028144404292" lon="11.242390992119908">
        <ele>1071.579999999999927</ele>
        <time>2015-03-13T08:34:44Z</time>
      </trkpt>
      <trkpt lat="47.373930579051375" lon="11.242449833080173">
        <ele>1072.230000000000018</ele>
        <time>2015-03-13T08:34:53Z</time>
      </trkpt>
      <trkpt lat="47.373789930716157" lon="11.242450168356299">
        <ele>1073.549999999999955</ele>
        <time>2015-03-13T08:35:05Z</time>
      </trkpt>
      <trkpt lat="47.373725976794958" lon="11.242478080093861">
        <ele>1073.730000000000018</ele>
        <time>2015-03-13T08:35:11Z</time>
      </trkpt>
      <trkpt lat="47.373578958213329" lon="11.242582099512219">
        <ele>1074.670000000000073</ele>
        <time>2015-03-13T08:35:24Z</time>
      </trkpt>
      <trkpt lat="47.373467730358243" lon="11.242685364559293">
        <ele>1075.839999999999918</ele>
        <time>2015-03-13T08:35:36Z</time>
      </trkpt>
      <trkpt lat="47.373444093391299" lon="11.242700451985002">
        <ele>1075.769999999999982</ele>
        <time>2015-03-13T08:35:38Z</time>
      </trkpt>
      <trkpt lat="47.373432777822018" lon="11.242701709270477">
        <ele>1075.680000000000064</ele>
        <time>2015-03-13T08:35:39Z</time>
      </trkpt>
      <trkpt lat="47.373397992923856" lon="11.242710929363966">
        <ele>1076.410000000000082</ele>
        <time>2015-03-13T08:35:42Z</time>
      </trkpt>
      <trkpt lat="47.373350551351905" lon="11.242749569937587">
        <ele>1075.5</ele>
        <time>2015-03-13T08:35:50Z</time>
      </trkpt>
      <trkpt lat="47.37319934181869" lon="11.242819223552942">
        <ele>1078.839999999999918</ele>
        <time>2015-03-13T08:36:04Z</time>
      </trkpt>
      <trkpt lat="47.373094316571951" lon="11.24289482831955">
        <ele>1079.529999999999973</ele>
        <time>2015-03-13T08:36:15Z</time>
      </trkpt>
      <trkpt lat="47.372981915250421" lon="11.243002954870462">
        <ele>1080.940000000000055</ele>
        <time>2015-03-13T08:36:26Z</time>
      </trkpt>
      <trkpt lat="47.372967833653092" lon="11.243018042296171">
        <ele>1080.779999999999973</ele>
        <time>2015-03-13T08:36:28Z</time>
      </trkpt>
      <trkpt lat="47.372958194464445" lon="11.243035644292831">
        <ele>1080.940000000000055</ele>
        <time>2015-03-13T08:36:30Z</time>
      </trkpt>
      <trkpt lat="47.37292961217463" lon="11.243076296523213">
        <ele>1081.470000000000027</ele>
        <time>2015-03-13T08:36:34Z</time>
      </trkpt>
      <trkpt lat="47.372920392081141" lon="11.243087276816368">
        <ele>1081.650000000000091</ele>
        <time>2015-03-13T08:36:35Z</time>
      </trkpt>
      <trkpt lat="47.3728172108531" lon="11.243174951523542">
        <ele>1083.1099999999999</ele>
        <time>2015-03-13T08:36:46Z</time>
      </trkpt>
      <trkpt lat="47.372716125100851" lon="11.243234211578965">
        <ele>1084.259999999999991</ele>
        <time>2015-03-13T08:36:57Z</time>
      </trkpt>
      <trkpt lat="47.372604729607701" lon="11.243289364501834">
        <ele>1084.440000000000055</ele>
        <time>2015-03-13T08:37:07Z</time>
      </trkpt>
      <trkpt lat="47.372503476217389" lon="11.243335632607341">
        <ele>1085.779999999999973</ele>
        <time>2015-03-13T08:37:17Z</time>
      </trkpt>
      <trkpt lat="47.372391996905208" lon="11.243361197412014">
        <ele>1087.150000000000091</ele>
        <time>2015-03-13T08:37:27Z</time>
      </trkpt>
      <trkpt lat="47.372258808463812" lon="11.243404699489474">
        <ele>1087.779999999999973</ele>
        <time>2015-03-13T08:37:39Z</time>
      </trkpt>
      <trkpt lat="47.372234249487519" lon="11.243423726409674">
        <ele>1087.579999999999927</ele>
        <time>2015-03-13T08:37:51Z</time>
      </trkpt>
      <trkpt lat="47.37222989089787" lon="11.243426827713847">
        <ele>1086.839999999999918</ele>
        <time>2015-03-13T08:37:56Z</time>
      </trkpt>
      <trkpt lat="47.372200973331928" lon="11.243428168818355">
        <ele>1091.630000000000109</ele>
        <time>2015-03-13T08:37:58Z</time>
      </trkpt>
      <trkpt lat="47.372190663591027" lon="11.243428587913513">
        <ele>1085.700000000000045</ele>
        <time>2015-03-13T08:37:59Z</time>
      </trkpt>
      <trkpt lat="47.372181862592697" lon="11.243429090827703">
        <ele>1093.410000000000082</ele>
        <time>2015-03-13T08:38:00Z</time>
      </trkpt>
      <trkpt lat="47.372174905613065" lon="11.243429090827703">
        <ele>1084.980000000000018</ele>
        <time>2015-03-13T08:38:01Z</time>
      </trkpt>
      <trkpt lat="47.372167780995369" lon="11.243429509922862">
        <ele>1091.029999999999973</ele>
        <time>2015-03-13T08:38:02Z</time>
      </trkpt>
      <trkpt lat="47.372073316946626" lon="11.243469910696149">
        <ele>1089.3900000000001</ele>
        <time>2015-03-13T08:38:11Z</time>
      </trkpt>
      <trkpt lat="47.371901990845799" lon="11.243564710021019">
        <ele>1091</ele>
        <time>2015-03-13T08:38:26Z</time>
      </trkpt>
      <trkpt lat="47.371772406622767" lon="11.243601925671101">
        <ele>1092.269999999999982</ele>
        <time>2015-03-13T08:38:39Z</time>
      </trkpt>
      <trkpt lat="47.371648941189051" lon="11.243665544316173">
        <ele>1092.839999999999918</ele>
        <time>2015-03-13T08:38:51Z</time>
      </trkpt>
      <trkpt lat="47.371542323380709" lon="11.243763277307153">
        <ele>1094.079999999999927</ele>
        <time>2015-03-13T08:39:03Z</time>
      </trkpt>
      <trkpt lat="47.371449368074536" lon="11.24385891482234">
        <ele>1094.259999999999991</ele>
        <time>2015-03-13T08:39:13Z</time>
      </trkpt>
      <trkpt lat="47.37143830396235" lon="11.243868889287114">
        <ele>1093.980000000000018</ele>
        <time>2015-03-13T08:39:14Z</time>
      </trkpt>
      <trkpt lat="47.371416259557009" lon="11.243889508768916">
        <ele>1094.279999999999973</ele>
        <time>2015-03-13T08:39:16Z</time>
      </trkpt>
      <trkpt lat="47.371403519064188" lon="11.243898896500468">
        <ele>1094.230000000000018</ele>
        <time>2015-03-13T08:39:17Z</time>
      </trkpt>
      <trkpt lat="47.371394634246826" lon="11.243910547345877">
        <ele>1094.769999999999982</ele>
        <time>2015-03-13T08:39:18Z</time>
      </trkpt>
      <trkpt lat="47.37138063646853" lon="11.243921276181936">
        <ele>1094.700000000000045</ele>
        <time>2015-03-13T08:39:19Z</time>
      </trkpt>
      <trkpt lat="47.371369656175375" lon="11.243930496275425">
        <ele>1094.6099999999999</ele>
        <time>2015-03-13T08:39:20Z</time>
      </trkpt>
      <trkpt lat="47.371360855177045" lon="11.243941560387611">
        <ele>1094.480000000000018</ele>
        <time>2015-03-13T08:39:21Z</time>
      </trkpt>
      <trkpt lat="47.371348366141319" lon="11.243952121585608">
        <ele>1094.289999999999964</ele>
        <time>2015-03-13T08:39:22Z</time>
      </trkpt>
      <trkpt lat="47.371340319514275" lon="11.243961844593287">
        <ele>1094.190000000000055</ele>
        <time>2015-03-13T08:39:23Z</time>
      </trkpt>
      <trkpt lat="47.371333781629801" lon="11.24397274106741">
        <ele>1094.700000000000045</ele>
        <time>2015-03-13T08:39:24Z</time>
      </trkpt>
      <trkpt lat="47.371286926791072" lon="11.244020098820329">
        <ele>1095.25</ele>
        <time>2015-03-13T08:39:29Z</time>
      </trkpt>
      <trkpt lat="47.371278125792742" lon="11.244030492380261">
        <ele>1095.660000000000082</ele>
        <time>2015-03-13T08:39:30Z</time>
      </trkpt>
      <trkpt lat="47.371267396956682" lon="11.244040634483099">
        <ele>1095.170000000000073</ele>
        <time>2015-03-13T08:39:31Z</time>
      </trkpt>
      <trkpt lat="47.371259434148669" lon="11.244052369147539">
        <ele>1095.470000000000027</ele>
        <time>2015-03-13T08:39:32Z</time>
      </trkpt>
      <trkpt lat="47.371250633150339" lon="11.244065361097455">
        <ele>1096.049999999999955</ele>
        <time>2015-03-13T08:39:33Z</time>
      </trkpt>
      <trkpt lat="47.371240323409438" lon="11.244078269228339">
        <ele>1095.210000000000036</ele>
        <time>2015-03-13T08:39:34Z</time>
      </trkpt>
      <trkpt lat="47.371137561276555" lon="11.244201986119151">
        <ele>1097.029999999999973</ele>
        <time>2015-03-13T08:39:45Z</time>
      </trkpt>
      <trkpt lat="47.37112264148891" lon="11.244224701076746">
        <ele>1096.900000000000091</ele>
        <time>2015-03-13T08:39:47Z</time>
      </trkpt>
      <trkpt lat="47.371124904602766" lon="11.244223108515143">
        <ele>1097.339999999999918</ele>
        <time>2015-03-13T08:39:48Z</time>
      </trkpt>
      <trkpt lat="47.371124569326639" lon="11.244229562580585">
        <ele>1097.220000000000027</ele>
        <time>2015-03-13T08:39:49Z</time>
      </trkpt>
      <trkpt lat="47.371125156059861" lon="11.244235765188932">
        <ele>1097.329999999999927</ele>
        <time>2015-03-13T08:39:50Z</time>
      </trkpt>
      <trkpt lat="47.371122976765037" lon="11.24424884095788">
        <ele>1096.6099999999999</ele>
        <time>2015-03-13T08:39:51Z</time>
      </trkpt>
      <trkpt lat="47.371075619012117" lon="11.244460735470057">
        <ele>1098.1400000000001</ele>
        <time>2015-03-13T08:40:03Z</time>
      </trkpt>
      <trkpt lat="47.371050138026476" lon="11.244517480954528">
        <ele>1098.839999999999918</ele>
        <time>2015-03-13T08:40:07Z</time>
      </trkpt>
      <trkpt lat="47.371040331199765" lon="11.244526701048017">
        <ele>1097.920000000000073</ele>
        <time>2015-03-13T08:40:08Z</time>
      </trkpt>
      <trkpt lat="47.371034882962704" lon="11.244537848979235">
        <ele>1098.6400000000001</ele>
        <time>2015-03-13T08:40:09Z</time>
      </trkpt>
      <trkpt lat="47.371030440554023" lon="11.244552098214626">
        <ele>1098.029999999999973</ele>
        <time>2015-03-13T08:40:10Z</time>
      </trkpt>
      <trkpt lat="47.371022393926978" lon="11.244565509259701">
        <ele>1098.440000000000055</ele>
        <time>2015-03-13T08:40:11Z</time>
      </trkpt>
      <trkpt lat="47.371015185490251" lon="11.244578752666712">
        <ele>1098.799999999999955</ele>
        <time>2015-03-13T08:40:12Z</time>
      </trkpt>
      <trkpt lat="47.371006216853857" lon="11.244593085721135">
        <ele>1098.789999999999964</ele>
        <time>2015-03-13T08:40:13Z</time>
      </trkpt>
      <trkpt lat="47.370996326208115" lon="11.244604988023639">
        <ele>1098.670000000000073</ele>
        <time>2015-03-13T08:40:14Z</time>
      </trkpt>
      <trkpt lat="47.370991632342339" lon="11.244616722688079">
        <ele>1099.289999999999964</ele>
        <time>2015-03-13T08:40:15Z</time>
      </trkpt>
      <trkpt lat="47.370979562401772" lon="11.244627870619297">
        <ele>1099.019999999999982</ele>
        <time>2015-03-13T08:40:16Z</time>
      </trkpt>
      <trkpt lat="47.370964558795094" lon="11.244639186188579">
        <ele>1100.220000000000027</ele>
        <time>2015-03-13T08:40:17Z</time>
      </trkpt>
      <trkpt lat="47.370836902409792" lon="11.24476826749742">
        <ele>1100.259999999999991</ele>
        <time>2015-03-13T08:40:31Z</time>
      </trkpt>
      <trkpt lat="47.37082994543016" lon="11.244777822867036">
        <ele>1100.480000000000018</ele>
        <time>2015-03-13T08:40:32Z</time>
      </trkpt>
      <trkpt lat="47.370752999559045" lon="11.244895085692406">
        <ele>1101.240000000000009</ele>
        <time>2015-03-13T08:40:42Z</time>
      </trkpt>
      <trkpt lat="47.370749060064554" lon="11.244912436231971">
        <ele>1101.180000000000064</ele>
        <time>2015-03-13T08:40:43Z</time>
      </trkpt>
      <trkpt lat="47.370699439197779" lon="11.245169257745147">
        <ele>1102.930000000000064</ele>
        <time>2015-03-13T08:40:58Z</time>
      </trkpt>
      <trkpt lat="47.370612099766731" lon="11.245312839746475">
        <ele>1104.490000000000009</ele>
        <time>2015-03-13T08:41:09Z</time>
      </trkpt>
      <trkpt lat="47.370601538568735" lon="11.245324490591884">
        <ele>1104.369999999999891</ele>
        <time>2015-03-13T08:41:10Z</time>
      </trkpt>
      <trkpt lat="47.370498524978757" lon="11.245454074814916">
        <ele>1105.470000000000027</ele>
        <time>2015-03-13T08:41:22Z</time>
      </trkpt>
      <trkpt lat="47.370395679026842" lon="11.245616683736444">
        <ele>1107.5</ele>
        <time>2015-03-13T08:41:35Z</time>
      </trkpt>
      <trkpt lat="47.370391488075256" lon="11.245631352066994">
        <ele>1107.470000000000027</ele>
        <time>2015-03-13T08:41:36Z</time>
      </trkpt>
      <trkpt lat="47.370359469205141" lon="11.245884653180838">
        <ele>1108.589999999999918</ele>
        <time>2015-03-13T08:41:51Z</time>
      </trkpt>
      <trkpt lat="47.37037262879312" lon="11.246194113045931">
        <ele>1110.430000000000064</ele>
        <time>2015-03-13T08:42:11Z</time>
      </trkpt>
      <trkpt lat="47.370373383164406" lon="11.246210038661957">
        <ele>1110.589999999999918</ele>
        <time>2015-03-13T08:42:12Z</time>
      </trkpt>
      <trkpt lat="47.370373299345374" lon="11.246226634830236">
        <ele>1110.8900000000001</ele>
        <time>2015-03-13T08:42:13Z</time>
      </trkpt>
      <trkpt lat="47.370369611307979" lon="11.246297545731068">
        <ele>1111.910000000000082</ele>
        <time>2015-03-13T08:42:17Z</time>
      </trkpt>
      <trkpt lat="47.370368437841535" lon="11.246315650641918">
        <ele>1111.420000000000073</ele>
        <time>2015-03-13T08:42:18Z</time>
      </trkpt>
      <trkpt lat="47.370367515832186" lon="11.246335096657276">
        <ele>1110.700000000000045</ele>
        <time>2015-03-13T08:42:19Z</time>
      </trkpt>
      <trkpt lat="47.37036625854671" lon="11.246352531015873">
        <ele>1111.579999999999927</ele>
        <time>2015-03-13T08:42:20Z</time>
      </trkpt>
      <trkpt lat="47.370367599651217" lon="11.246370635926723">
        <ele>1111.619999999999891</ele>
        <time>2015-03-13T08:42:21Z</time>
      </trkpt>
      <trkpt lat="47.370368605479598" lon="11.246389495208859">
        <ele>1110.869999999999891</ele>
        <time>2015-03-13T08:42:22Z</time>
      </trkpt>
      <trkpt lat="47.370364749804139" lon="11.246407013386488">
        <ele>1111.960000000000036</ele>
        <time>2015-03-13T08:42:23Z</time>
      </trkpt>
      <trkpt lat="47.370362151414156" lon="11.246425285935402">
        <ele>1110.940000000000055</ele>
        <time>2015-03-13T08:42:24Z</time>
      </trkpt>
      <trkpt lat="47.370361732318997" lon="11.246444312855601">
        <ele>1112.089999999999918</ele>
        <time>2015-03-13T08:42:25Z</time>
      </trkpt>
      <trkpt lat="47.370360307395458" lon="11.24646132811904">
        <ele>1111.839999999999918</ele>
        <time>2015-03-13T08:42:26Z</time>
      </trkpt>
      <trkpt lat="47.37034278921783" lon="11.246615638956428">
        <ele>1113.450000000000045</ele>
        <time>2015-03-13T08:42:35Z</time>
      </trkpt>
      <trkpt lat="47.370300209149718" lon="11.246833316981792">
        <ele>1114.900000000000091</ele>
        <time>2015-03-13T08:42:49Z</time>
      </trkpt>
      <trkpt lat="47.370216054841876" lon="11.247050743550062">
        <ele>1117.259999999999991</ele>
        <time>2015-03-13T08:43:04Z</time>
      </trkpt>
      <trkpt lat="47.370204739272594" lon="11.247061053290963">
        <ele>1117.190000000000055</ele>
        <time>2015-03-13T08:43:05Z</time>
      </trkpt>
      <trkpt lat="47.370094852522016" lon="11.247210083529353">
        <ele>1118.019999999999982</ele>
        <time>2015-03-13T08:43:17Z</time>
      </trkpt>
      <trkpt lat="47.370083536952734" lon="11.247218130156398">
        <ele>1119.279999999999973</ele>
        <time>2015-03-13T08:43:18Z</time>
      </trkpt>
      <trkpt lat="47.370077334344387" lon="11.247228775173426">
        <ele>1118.6099999999999</ele>
        <time>2015-03-13T08:43:19Z</time>
      </trkpt>
      <trkpt lat="47.370067024603486" lon="11.247240342199802">
        <ele>1118.529999999999973</ele>
        <time>2015-03-13T08:43:20Z</time>
      </trkpt>
      <trkpt lat="47.369957640767097" lon="11.247358024120331">
        <ele>1118.880000000000109</ele>
        <time>2015-03-13T08:43:31Z</time>
      </trkpt>
      <trkpt lat="47.369945822283626" lon="11.247370513156056">
        <ele>1118.319999999999936</ele>
        <time>2015-03-13T08:43:32Z</time>
      </trkpt>
      <trkpt lat="47.369806682690978" lon="11.247521052137017">
        <ele>1118.559999999999945</ele>
        <time>2015-03-13T08:43:45Z</time>
      </trkpt>
      <trkpt lat="47.369769467040896" lon="11.247573187574744">
        <ele>1119.650000000000091</ele>
        <time>2015-03-13T08:43:49Z</time>
      </trkpt>
      <trkpt lat="47.369757564738393" lon="11.247586263343692">
        <ele>1120.210000000000036</ele>
        <time>2015-03-13T08:43:50Z</time>
      </trkpt>
      <trkpt lat="47.369747338816524" lon="11.247598417103291">
        <ele>1119.970000000000027</ele>
        <time>2015-03-13T08:43:51Z</time>
      </trkpt>
      <trkpt lat="47.369741722941399" lon="11.247614677995443">
        <ele>1120.519999999999982</ele>
        <time>2015-03-13T08:43:52Z</time>
      </trkpt>
      <trkpt lat="47.369732586666942" lon="11.24762867577374">
        <ele>1119.6400000000001</ele>
        <time>2015-03-13T08:43:53Z</time>
      </trkpt>
      <trkpt lat="47.369724623858929" lon="11.247643763199449">
        <ele>1120.430000000000064</ele>
        <time>2015-03-13T08:43:54Z</time>
      </trkpt>
      <trkpt lat="47.369714733213186" lon="11.247658431529999">
        <ele>1120.599999999999909</ele>
        <time>2015-03-13T08:43:55Z</time>
      </trkpt>
      <trkpt lat="47.369704842567444" lon="11.247672429308295">
        <ele>1120.569999999999936</ele>
        <time>2015-03-13T08:43:56Z</time>
      </trkpt>
      <trkpt lat="47.369695957750082" lon="11.247690031304955">
        <ele>1120.230000000000018</ele>
        <time>2015-03-13T08:43:57Z</time>
      </trkpt>
      <trkpt lat="47.369680451229215" lon="11.247721128165722">
        <ele>1120.299999999999955</ele>
        <time>2015-03-13T08:43:59Z</time>
      </trkpt>
      <trkpt lat="47.369674332439899" lon="11.24773713760078">
        <ele>1120.059999999999945</ele>
        <time>2015-03-13T08:44:00Z</time>
      </trkpt>
      <trkpt lat="47.369665950536728" lon="11.24775180593133">
        <ele>1121</ele>
        <time>2015-03-13T08:44:01Z</time>
      </trkpt>
      <trkpt lat="47.369659245014191" lon="11.24776597134769">
        <ele>1120.210000000000036</ele>
        <time>2015-03-13T08:44:02Z</time>
      </trkpt>
      <trkpt lat="47.369654634967446" lon="11.24778114259243">
        <ele>1120.720000000000027</ele>
        <time>2015-03-13T08:44:03Z</time>
      </trkpt>
      <trkpt lat="47.369521781802177" lon="11.248038886114955">
        <ele>1122.190000000000055</ele>
        <time>2015-03-13T08:44:21Z</time>
      </trkpt>
      <trkpt lat="47.369465455412865" lon="11.248134775087237">
        <ele>1122.380000000000109</ele>
        <time>2015-03-13T08:44:28Z</time>
      </trkpt>
      <trkpt lat="47.369456486776471" lon="11.248148689046502">
        <ele>1122.779999999999973</ele>
        <time>2015-03-13T08:44:29Z</time>
      </trkpt>
      <trkpt lat="47.369450787082314" lon="11.248161094263196">
        <ele>1122.869999999999891</ele>
        <time>2015-03-13T08:44:30Z</time>
      </trkpt>
      <trkpt lat="47.369444416835904" lon="11.24817106872797">
        <ele>1123.420000000000073</ele>
        <time>2015-03-13T08:44:31Z</time>
      </trkpt>
      <trkpt lat="47.369342409074306" lon="11.248333845287561">
        <ele>1124.5</ele>
        <time>2015-03-13T08:44:44Z</time>
      </trkpt>
      <trkpt lat="47.36921408213675" lon="11.248473152518272">
        <ele>1126.400000000000091</ele>
        <time>2015-03-13T08:44:57Z</time>
      </trkpt>
      <trkpt lat="47.369062956422567" lon="11.248581865802407">
        <ele>1126.549999999999955</ele>
        <time>2015-03-13T08:45:09Z</time>
      </trkpt>
      <trkpt lat="47.368937898427248" lon="11.248702397570014">
        <ele>1127.5</ele>
        <time>2015-03-13T08:45:22Z</time>
      </trkpt>
      <trkpt lat="47.368860114365816" lon="11.248766519129276">
        <ele>1128.3900000000001</ele>
        <time>2015-03-13T08:45:29Z</time>
      </trkpt>
      <trkpt lat="47.368851313367486" lon="11.248777750879526">
        <ele>1128.759999999999991</ele>
        <time>2015-03-13T08:45:30Z</time>
      </trkpt>
      <trkpt lat="47.368839075788856" lon="11.248787306249142">
        <ele>1128.769999999999982</ele>
        <time>2015-03-13T08:45:31Z</time>
      </trkpt>
      <trkpt lat="47.368828849866986" lon="11.248797615990043">
        <ele>1128.960000000000036</ele>
        <time>2015-03-13T08:45:32Z</time>
      </trkpt>
      <trkpt lat="47.368820048868656" lon="11.248807925730944">
        <ele>1128.8900000000001</ele>
        <time>2015-03-13T08:45:33Z</time>
      </trkpt>
      <trkpt lat="47.368650399148464" lon="11.248941868543625">
        <ele>1130.069999999999936</ele>
        <time>2015-03-13T08:45:47Z</time>
      </trkpt>
      <trkpt lat="47.368518551811576" lon="11.249063657596707">
        <ele>1130.819999999999936</ele>
        <time>2015-03-13T08:46:00Z</time>
      </trkpt>
      <trkpt lat="47.368400450795889" lon="11.249224087223411">
        <ele>1133.019999999999982</ele>
        <time>2015-03-13T08:46:14Z</time>
      </trkpt>
      <trkpt lat="47.36821873113513" lon="11.249364148825407">
        <ele>1134.309999999999945</ele>
        <time>2015-03-13T08:46:30Z</time>
      </trkpt>
      <trkpt lat="47.36816936172545" lon="11.249389378353953">
        <ele>1134.490000000000009</ele>
        <time>2015-03-13T08:46:34Z</time>
      </trkpt>
      <trkpt lat="47.368157207965851" lon="11.249396419152617">
        <ele>1134.630000000000109</ele>
        <time>2015-03-13T08:46:35Z</time>
      </trkpt>
      <trkpt lat="47.367940451949835" lon="11.249507563188672">
        <ele>1136.319999999999936</ele>
        <time>2015-03-13T08:46:52Z</time>
      </trkpt>
      <trkpt lat="47.3678024020046" lon="11.249606134369969">
        <ele>1140.190000000000055</ele>
        <time>2015-03-13T08:47:06Z</time>
      </trkpt>
      <trkpt lat="47.367743728682399" lon="11.24965257011354">
        <ele>1137.079999999999927</ele>
        <time>2015-03-13T08:47:11Z</time>
      </trkpt>
      <trkpt lat="47.367732245475054" lon="11.249662628397346">
        <ele>1140.269999999999982</ele>
        <time>2015-03-13T08:47:12Z</time>
      </trkpt>
      <trkpt lat="47.367537198588252" lon="11.249859435483813">
        <ele>1140.029999999999973</ele>
        <time>2015-03-13T08:47:32Z</time>
      </trkpt>
      <trkpt lat="47.367424964904785" lon="11.249980805441737">
        <ele>1142.220000000000027</ele>
        <time>2015-03-13T08:47:45Z</time>
      </trkpt>
      <trkpt lat="47.367409374564886" lon="11.250001676380634">
        <ele>1142.589999999999918</ele>
        <time>2015-03-13T08:47:47Z</time>
      </trkpt>
      <trkpt lat="47.367399232462049" lon="11.250010645017028">
        <ele>1142.3900000000001</ele>
        <time>2015-03-13T08:47:48Z</time>
      </trkpt>
      <trkpt lat="47.367389257997274" lon="11.250021290034056">
        <ele>1142.450000000000045</ele>
        <time>2015-03-13T08:47:49Z</time>
      </trkpt>
      <trkpt lat="47.367380876094103" lon="11.250032354146242">
        <ele>1142.480000000000018</ele>
        <time>2015-03-13T08:47:50Z</time>
      </trkpt>
      <trkpt lat="47.367372745648026" lon="11.250043585896492">
        <ele>1142.970000000000027</ele>
        <time>2015-03-13T08:47:51Z</time>
      </trkpt>
      <trkpt lat="47.367274425923824" lon="11.250224635004997">
        <ele>1143.960000000000036</ele>
        <time>2015-03-13T08:48:05Z</time>
      </trkpt>
      <trkpt lat="47.367176860570908" lon="11.250453377142549">
        <ele>1145.089999999999918</ele>
        <time>2015-03-13T08:48:20Z</time>
      </trkpt>
      <trkpt lat="47.367128245532513" lon="11.250697877258062">
        <ele>1144.799999999999955</ele>
        <time>2015-03-13T08:48:34Z</time>
      </trkpt>
      <trkpt lat="47.366929678246379" lon="11.250861994922161">
        <ele>1146.630000000000109</ele>
        <time>2015-03-13T08:48:52Z</time>
      </trkpt>
      <trkpt lat="47.366740079596639" lon="11.250882279127836">
        <ele>1147.720000000000027</ele>
        <time>2015-03-13T08:49:07Z</time>
      </trkpt>
      <trkpt lat="47.366556348279119" lon="11.250917734578252">
        <ele>1147.240000000000009</ele>
        <time>2015-03-13T08:49:22Z</time>
      </trkpt>
      <trkpt lat="47.366365073248744" lon="11.251087551936507">
        <ele>1149.410000000000082</ele>
        <time>2015-03-13T08:49:39Z</time>
      </trkpt>
      <trkpt lat="47.366165164858103" lon="11.251297937706113">
        <ele>1150.940000000000055</ele>
        <time>2015-03-13T08:49:59Z</time>
      </trkpt>
      <trkpt lat="47.365973219275475" lon="11.251395083963871">
        <ele>1152.130000000000109</ele>
        <time>2015-03-13T08:50:15Z</time>
      </trkpt>
      <trkpt lat="47.365855034440756" lon="11.251457948237658">
        <ele>1153.8599999999999</ele>
        <time>2015-03-13T08:50:27Z</time>
      </trkpt>
      <trkpt lat="47.365815723314881" lon="11.251488626003265">
        <ele>1154.759999999999991</ele>
        <time>2015-03-13T08:50:31Z</time>
      </trkpt>
      <trkpt lat="47.365692174062133" lon="11.251674117520452">
        <ele>1156.349999999999909</ele>
        <time>2015-03-13T08:50:49Z</time>
      </trkpt>
      <trkpt lat="47.36568664200604" lon="11.251683253794909">
        <ele>1157.279999999999973</ele>
        <time>2015-03-13T08:50:50Z</time>
      </trkpt>
      <trkpt lat="47.365669962018728" lon="11.251703873276711">
        <ele>1156.460000000000036</ele>
        <time>2015-03-13T08:50:52Z</time>
      </trkpt>
      <trkpt lat="47.365567283704877" lon="11.251844689249992">
        <ele>1156.819999999999936</ele>
        <time>2015-03-13T08:51:03Z</time>
      </trkpt>
      <trkpt lat="47.365476759150624" lon="11.251954408362508">
        <ele>1158.220000000000027</ele>
        <time>2015-03-13T08:51:12Z</time>
      </trkpt>
      <trkpt lat="47.365413811057806" lon="11.252003777772188">
        <ele>1158.470000000000027</ele>
        <time>2015-03-13T08:51:18Z</time>
      </trkpt>
      <trkpt lat="47.365279281511903" lon="11.252106791362166">
        <ele>1159.3599999999999</ele>
        <time>2015-03-13T08:51:33Z</time>
      </trkpt>
      <trkpt lat="47.365281544625759" lon="11.252105617895722">
        <ele>1156.230000000000018</ele>
        <time>2015-03-13T08:51:34Z</time>
      </trkpt>
      <trkpt lat="47.365282634273171" lon="11.252104779705405">
        <ele>1161.170000000000073</ele>
        <time>2015-03-13T08:51:35Z</time>
      </trkpt>
      <trkpt lat="47.36528255045414" lon="11.252107378095388">
        <ele>1156.579999999999927</ele>
        <time>2015-03-13T08:51:55Z</time>
      </trkpt>
      <trkpt lat="47.365277018398046" lon="11.252104863524437">
        <ele>1160.490000000000009</ele>
        <time>2015-03-13T08:51:57Z</time>
      </trkpt>
      <trkpt lat="47.365273246541619" lon="11.252103857696056">
        <ele>1159.289999999999964</ele>
        <time>2015-03-13T08:51:58Z</time>
      </trkpt>
      <trkpt lat="47.365226978436112" lon="11.252145767211914">
        <ele>1159.130000000000109</ele>
        <time>2015-03-13T08:52:13Z</time>
      </trkpt>
      <trkpt lat="47.365199234336615" lon="11.252162614837289">
        <ele>1159.069999999999936</ele>
        <time>2015-03-13T08:52:16Z</time>
      </trkpt>
      <trkpt lat="47.364999828860164" lon="11.252311058342457">
        <ele>1160.980000000000018</ele>
        <time>2015-03-13T08:52:36Z</time>
      </trkpt>
      <trkpt lat="47.364796148613095" lon="11.252495879307389">
        <ele>1161.970000000000027</ele>
        <time>2015-03-13T08:52:55Z</time>
      </trkpt>
      <trkpt lat="47.364630941301584" lon="11.252654548734426">
        <ele>1164.130000000000109</ele>
        <time>2015-03-13T08:53:11Z</time>
      </trkpt>
      <trkpt lat="47.364478558301926" lon="11.252809278666973">
        <ele>1164.049999999999955</ele>
        <time>2015-03-13T08:53:25Z</time>
      </trkpt>
      <trkpt lat="47.364459363743663" lon="11.252829730510712">
        <ele>1164.5</ele>
        <time>2015-03-13T08:53:27Z</time>
      </trkpt>
      <trkpt lat="47.364407395943999" lon="11.252886224538088">
        <ele>1164.710000000000036</ele>
        <time>2015-03-13T08:53:32Z</time>
      </trkpt>
      <trkpt lat="47.364368252456188" lon="11.252949424088001">
        <ele>1165.319999999999936</ele>
        <time>2015-03-13T08:53:37Z</time>
      </trkpt>
      <trkpt lat="47.364227771759033" lon="11.253147656098008">
        <ele>1166.880000000000109</ele>
        <time>2015-03-13T08:53:53Z</time>
      </trkpt>
      <trkpt lat="47.364134816452861" lon="11.253272127360106">
        <ele>1167.380000000000109</ele>
        <time>2015-03-13T08:54:04Z</time>
      </trkpt>
      <trkpt lat="47.364069018512964" lon="11.253348151221871">
        <ele>1168.569999999999936</ele>
        <time>2015-03-13T08:54:12Z</time>
      </trkpt>
      <trkpt lat="47.363928453996778" lon="11.253530876711011">
        <ele>1170.450000000000045</ele>
        <time>2015-03-13T08:54:28Z</time>
      </trkpt>
      <trkpt lat="47.363919066265225" lon="11.253542611375451">
        <ele>1170.099999999999909</ele>
        <time>2015-03-13T08:54:29Z</time>
      </trkpt>
      <trkpt lat="47.363838851451874" lon="11.253648642450571">
        <ele>1171.190000000000055</ele>
        <time>2015-03-13T08:54:38Z</time>
      </trkpt>
      <trkpt lat="47.36361195333302" lon="11.253857603296638">
        <ele>1172.6400000000001</ele>
        <time>2015-03-13T08:55:00Z</time>
      </trkpt>
      <trkpt lat="47.363443141803145" lon="11.253986014053226">
        <ele>1174.269999999999982</ele>
        <time>2015-03-13T08:55:17Z</time>
      </trkpt>
      <trkpt lat="47.363269720226526" lon="11.254159938544035">
        <ele>1175.1400000000001</ele>
        <time>2015-03-13T08:55:36Z</time>
      </trkpt>
      <trkpt lat="47.363260416314006" lon="11.254171673208475">
        <ele>1176.740000000000009</ele>
        <time>2015-03-13T08:55:37Z</time>
      </trkpt>
      <trkpt lat="47.363170059397817" lon="11.254322463646531">
        <ele>1178.089999999999918</ele>
        <time>2015-03-13T08:55:49Z</time>
      </trkpt>
      <trkpt lat="47.363125886768103" lon="11.254403432831168">
        <ele>1178.619999999999891</ele>
        <time>2015-03-13T08:55:55Z</time>
      </trkpt>
      <trkpt lat="47.363072074949741" lon="11.254482641816139">
        <ele>1179.259999999999991</ele>
        <time>2015-03-13T08:56:01Z</time>
      </trkpt>
      <trkpt lat="47.363027734681964" lon="11.254540979862213">
        <ele>1179.450000000000045</ele>
        <time>2015-03-13T08:56:06Z</time>
      </trkpt>
      <trkpt lat="47.363011138513684" lon="11.254560090601444">
        <ele>1179.630000000000109</ele>
        <time>2015-03-13T08:56:08Z</time>
      </trkpt>
      <trkpt lat="47.36283746547997" lon="11.254661260172725">
        <ele>1180.8900000000001</ele>
        <time>2015-03-13T08:56:24Z</time>
      </trkpt>
      <trkpt lat="47.362646861001849" lon="11.254786150529981">
        <ele>1183.259999999999991</ele>
        <time>2015-03-13T08:56:41Z</time>
      </trkpt>
      <trkpt lat="47.362559186294675" lon="11.254853457212448">
        <ele>1184.440000000000055</ele>
        <time>2015-03-13T08:56:51Z</time>
      </trkpt>
      <trkpt lat="47.362378472462296" lon="11.254976587370038">
        <ele>1184.700000000000045</ele>
        <time>2015-03-13T08:57:08Z</time>
      </trkpt>
      <trkpt lat="47.362268837168813" lon="11.255042217671871">
        <ele>1185.200000000000045</ele>
        <time>2015-03-13T08:57:18Z</time>
      </trkpt>
      <trkpt lat="47.362235058099031" lon="11.255057640373707">
        <ele>1185.829999999999927</ele>
        <time>2015-03-13T08:57:21Z</time>
      </trkpt>
      <trkpt lat="47.362183341756463" lon="11.255079098045826">
        <ele>1186.210000000000036</ele>
        <time>2015-03-13T08:57:25Z</time>
      </trkpt>
      <trkpt lat="47.361964406445622" lon="11.255219914019108">
        <ele>1187.970000000000027</ele>
        <time>2015-03-13T08:57:45Z</time>
      </trkpt>
      <trkpt lat="47.361735496670008" lon="11.255309851840138">
        <ele>1189.150000000000091</ele>
        <time>2015-03-13T08:58:04Z</time>
      </trkpt>
      <trkpt lat="47.361544389277697" lon="11.255318904295564">
        <ele>1190.3900000000001</ele>
        <time>2015-03-13T08:58:20Z</time>
      </trkpt>
      <trkpt lat="47.361369961872697" lon="11.255357963964343">
        <ele>1191.289999999999964</ele>
        <time>2015-03-13T08:58:34Z</time>
      </trkpt>
      <trkpt lat="47.361174244433641" lon="11.255431808531284">
        <ele>1192.480000000000018</ele>
        <time>2015-03-13T08:58:49Z</time>
      </trkpt>
      <trkpt lat="47.360966959968209" lon="11.255498444661498">
        <ele>1195.470000000000027</ele>
        <time>2015-03-13T08:59:07Z</time>
      </trkpt>
      <trkpt lat="47.360826311632991" lon="11.255542449653149">
        <ele>1196.410000000000082</ele>
        <time>2015-03-13T08:59:22Z</time>
      </trkpt>
      <trkpt lat="47.360825892537832" lon="11.255543706938624">
        <ele>1196.579999999999927</ele>
        <time>2015-03-13T08:59:23Z</time>
      </trkpt>
      <trkpt lat="47.360814828425646" lon="11.255533397197723">
        <ele>1195.25</ele>
        <time>2015-03-13T08:59:56Z</time>
      </trkpt>
      <trkpt lat="47.360809296369553" lon="11.255522668361664">
        <ele>1194.549999999999955</ele>
        <time>2015-03-13T09:00:01Z</time>
      </trkpt>
      <trkpt lat="47.360776020213962" lon="11.255471287295222">
        <ele>1195.059999999999945</ele>
        <time>2015-03-13T09:00:30Z</time>
      </trkpt>
      <trkpt lat="47.360773338004947" lon="11.255464581772685">
        <ele>1194.829999999999927</ele>
        <time>2015-03-13T09:00:31Z</time>
      </trkpt>
      <trkpt lat="47.360787251964211" lon="11.255451422184706">
        <ele>1195.279999999999973</ele>
        <time>2015-03-13T09:01:02Z</time>
      </trkpt>
      <trkpt lat="47.360793370753527" lon="11.255496684461832">
        <ele>1195.910000000000082</ele>
        <time>2015-03-13T09:01:21Z</time>
      </trkpt>
      <trkpt lat="47.360762692987919" lon="11.255548652261496">
        <ele>1195.930000000000064</ele>
        <time>2015-03-13T09:01:36Z</time>
      </trkpt>
      <trkpt lat="47.360735200345516" lon="11.255599446594715">
        <ele>1195.589999999999918</ele>
        <time>2015-03-13T09:01:53Z</time>
      </trkpt>
      <trkpt lat="47.360653476789594" lon="11.255683014169335">
        <ele>1196.190000000000055</ele>
        <time>2015-03-13T09:02:01Z</time>
      </trkpt>
      <trkpt lat="47.360572842881083" lon="11.255737077444792">
        <ele>1195.559999999999945</ele>
        <time>2015-03-13T09:02:20Z</time>
      </trkpt>
      <trkpt lat="47.360569322481751" lon="11.255740011110902">
        <ele>1196.8599999999999</ele>
        <time>2015-03-13T09:02:21Z</time>
      </trkpt>
      <trkpt lat="47.360538728535175" lon="11.255758786574006">
        <ele>1195.710000000000036</ele>
        <time>2015-03-13T09:02:24Z</time>
      </trkpt>
      <trkpt lat="47.360467566177249" lon="11.255841013044119">
        <ele>1196.799999999999955</ele>
        <time>2015-03-13T09:02:31Z</time>
      </trkpt>
      <trkpt lat="47.360386261716485" lon="11.255962885916233">
        <ele>1197.410000000000082</ele>
        <time>2015-03-13T09:02:40Z</time>
      </trkpt>
      <trkpt lat="47.36032834276557" lon="11.256077215075493">
        <ele>1197.130000000000109</ele>
        <time>2015-03-13T09:02:47Z</time>
      </trkpt>
      <trkpt lat="47.360223568975925" lon="11.256291624158621">
        <ele>1198.289999999999964</ele>
        <time>2015-03-13T09:03:01Z</time>
      </trkpt>
      <trkpt lat="47.360204961150885" lon="11.256322888657451">
        <ele>1198.160000000000082</ele>
        <time>2015-03-13T09:03:03Z</time>
      </trkpt>
      <trkpt lat="47.360043525695801" lon="11.256487006321549">
        <ele>1199.009999999999991</ele>
        <time>2015-03-13T09:03:19Z</time>
      </trkpt>
      <trkpt lat="47.359887873753905" lon="11.25654031522572">
        <ele>1199.75</ele>
        <time>2015-03-13T09:03:33Z</time>
      </trkpt>
      <trkpt lat="47.359704980626702" lon="11.256584404036403">
        <ele>1200.119999999999891</ele>
        <time>2015-03-13T09:03:47Z</time>
      </trkpt>
      <trkpt lat="47.359517896547914" lon="11.256598150357604">
        <ele>1201.25</ele>
        <time>2015-03-13T09:04:02Z</time>
      </trkpt>
      <trkpt lat="47.359338356181979" lon="11.256526149809361">
        <ele>1202.410000000000082</ele>
        <time>2015-03-13T09:04:16Z</time>
      </trkpt>
      <trkpt lat="47.35915613360703" lon="11.256488682702184">
        <ele>1203.680000000000064</ele>
        <time>2015-03-13T09:04:30Z</time>
      </trkpt>
      <trkpt lat="47.358976928517222" lon="11.256537800654769">
        <ele>1203.259999999999991</ele>
        <time>2015-03-13T09:04:44Z</time>
      </trkpt>
      <trkpt lat="47.358857318758965" lon="11.256625726819038">
        <ele>1204.099999999999909</ele>
        <time>2015-03-13T09:04:55Z</time>
      </trkpt>
      <trkpt lat="47.358798310160637" lon="11.256672581657767">
        <ele>1204.119999999999891</ele>
        <time>2015-03-13T09:05:00Z</time>
      </trkpt>
      <trkpt lat="47.358644502237439" lon="11.256814319640398">
        <ele>1205.670000000000073</ele>
        <time>2015-03-13T09:05:15Z</time>
      </trkpt>
      <trkpt lat="47.358487928286195" lon="11.256776601076126">
        <ele>1207.430000000000064</ele>
        <time>2015-03-13T09:05:29Z</time>
      </trkpt>
      <trkpt lat="47.358339820057154" lon="11.256771655753255">
        <ele>1209.440000000000055</ele>
        <time>2015-03-13T09:05:42Z</time>
      </trkpt>
      <trkpt lat="47.358176540583372" lon="11.25677190721035">
        <ele>1211.3900000000001</ele>
        <time>2015-03-13T09:05:58Z</time>
      </trkpt>
      <trkpt lat="47.358145695179701" lon="11.256770398467779">
        <ele>1212.839999999999918</ele>
        <time>2015-03-13T09:06:02Z</time>
      </trkpt>
      <trkpt lat="47.358108060434461" lon="11.256761932745576">
        <ele>1213.720000000000027</ele>
        <time>2015-03-13T09:06:06Z</time>
      </trkpt>
      <trkpt lat="47.357933046296239" lon="11.256700996309519">
        <ele>1215.700000000000045</ele>
        <time>2015-03-13T09:06:24Z</time>
      </trkpt>
      <trkpt lat="47.357793990522623" lon="11.2566346116364">
        <ele>1217.680000000000064</ele>
        <time>2015-03-13T09:06:38Z</time>
      </trkpt>
      <trkpt lat="47.357640601694584" lon="11.25656328164041">
        <ele>1220.410000000000082</ele>
        <time>2015-03-13T09:06:53Z</time>
      </trkpt>
      <trkpt lat="47.357565332204103" lon="11.256526652723551">
        <ele>1221.920000000000073</ele>
        <time>2015-03-13T09:07:01Z</time>
      </trkpt>
      <trkpt lat="47.357411356642842" lon="11.256483234465122">
        <ele>1224.089999999999918</ele>
        <time>2015-03-13T09:07:17Z</time>
      </trkpt>
      <trkpt lat="47.357356874272227" lon="11.256469069048762">
        <ele>1226.349999999999909</ele>
        <time>2015-03-13T09:07:23Z</time>
      </trkpt>
      <trkpt lat="47.357230139896274" lon="11.256443168967962">
        <ele>1228.380000000000109</ele>
        <time>2015-03-13T09:07:35Z</time>
      </trkpt>
      <trkpt lat="47.357116565108299" lon="11.25642791390419">
        <ele>1229.990000000000009</ele>
        <time>2015-03-13T09:07:46Z</time>
      </trkpt>
      <trkpt lat="47.356987819075584" lon="11.256456412374973">
        <ele>1232.460000000000036</ele>
        <time>2015-03-13T09:07:59Z</time>
      </trkpt>
      <trkpt lat="47.356895115226507" lon="11.25647434964776">
        <ele>1233.599999999999909</ele>
        <time>2015-03-13T09:08:07Z</time>
      </trkpt>
      <trkpt lat="47.356758154928684" lon="11.256396314129233">
        <ele>1235.519999999999982</ele>
        <time>2015-03-13T09:08:21Z</time>
      </trkpt>
      <trkpt lat="47.356733931228518" lon="11.256363373249769">
        <ele>1236.970000000000027</ele>
        <time>2015-03-13T09:08:24Z</time>
      </trkpt>
      <trkpt lat="47.35666561871767" lon="11.256259102374315">
        <ele>1238.380000000000109</ele>
        <time>2015-03-13T09:08:33Z</time>
      </trkpt>
      <trkpt lat="47.356591941788793" lon="11.256159525364637">
        <ele>1239.470000000000027</ele>
        <time>2015-03-13T09:08:43Z</time>
      </trkpt>
      <trkpt lat="47.356450958177447" lon="11.256064139306545">
        <ele>1242.660000000000082</ele>
        <time>2015-03-13T09:08:58Z</time>
      </trkpt>
      <trkpt lat="47.356299916282296" lon="11.256070928648114">
        <ele>1244.660000000000082</ele>
        <time>2015-03-13T09:09:13Z</time>
      </trkpt>
      <trkpt lat="47.356223305687308" lon="11.256137229502201">
        <ele>1246.920000000000073</ele>
        <time>2015-03-13T09:09:23Z</time>
      </trkpt>
      <trkpt lat="47.356204614043236" lon="11.256147120147943">
        <ele>1246.950000000000045</ele>
        <time>2015-03-13T09:09:25Z</time>
      </trkpt>
      <trkpt lat="47.356062456965446" lon="11.256148209795356">
        <ele>1249.690000000000055</ele>
        <time>2015-03-13T09:09:39Z</time>
      </trkpt>
      <trkpt lat="47.355953995138407" lon="11.256139911711216">
        <ele>1250.8900000000001</ele>
        <time>2015-03-13T09:09:49Z</time>
      </trkpt>
      <trkpt lat="47.355906469747424" lon="11.256150472909212">
        <ele>1252.8900000000001</ele>
        <time>2015-03-13T09:09:54Z</time>
      </trkpt>
      <trkpt lat="47.355872942134738" lon="11.25615525059402">
        <ele>1253.450000000000045</ele>
        <time>2015-03-13T09:09:57Z</time>
      </trkpt>
      <trkpt lat="47.355802785605192" lon="11.25616162084043">
        <ele>1253.910000000000082</ele>
        <time>2015-03-13T09:10:03Z</time>
      </trkpt>
      <trkpt lat="47.355657527223229" lon="11.256143348291516">
        <ele>1255.779999999999973</ele>
        <time>2015-03-13T09:10:16Z</time>
      </trkpt>
      <trkpt lat="47.355648307129741" lon="11.256140246987343">
        <ele>1255.599999999999909</ele>
        <time>2015-03-13T09:10:17Z</time>
      </trkpt>
      <trkpt lat="47.355513777583838" lon="11.256091548129916">
        <ele>1257.8599999999999</ele>
        <time>2015-03-13T09:10:30Z</time>
      </trkpt>
      <trkpt lat="47.355351084843278" lon="11.256070844829082">
        <ele>1260.089999999999918</ele>
        <time>2015-03-13T09:10:46Z</time>
      </trkpt>
      <trkpt lat="47.355320993810892" lon="11.256083250045776">
        <ele>1260.730000000000018</ele>
        <time>2015-03-13T09:10:49Z</time>
      </trkpt>
      <trkpt lat="47.355207502841949" lon="11.256200009956956">
        <ele>1263.3599999999999</ele>
        <time>2015-03-13T09:11:03Z</time>
      </trkpt>
      <trkpt lat="47.355078170076013" lon="11.256312327459455">
        <ele>1265.480000000000018</ele>
        <time>2015-03-13T09:11:17Z</time>
      </trkpt>
      <trkpt lat="47.35494120977819" lon="11.256416095420718">
        <ele>1267.740000000000009</ele>
        <time>2015-03-13T09:11:33Z</time>
      </trkpt>
      <trkpt lat="47.354794694110751" lon="11.256471164524555">
        <ele>1269.210000000000036</ele>
        <time>2015-03-13T09:11:46Z</time>
      </trkpt>
      <trkpt lat="47.354616159573197" lon="11.256503602489829">
        <ele>1270.200000000000045</ele>
        <time>2015-03-13T09:12:01Z</time>
      </trkpt>
      <trkpt lat="47.354510379955173" lon="11.256507206708193">
        <ele>1271.799999999999955</ele>
        <time>2015-03-13T09:12:10Z</time>
      </trkpt>
      <trkpt lat="47.354351123794913" lon="11.256497651338577">
        <ele>1274.180000000000064</ele>
        <time>2015-03-13T09:12:24Z</time>
      </trkpt>
      <trkpt lat="47.354331845417619" lon="11.25649337656796">
        <ele>1274.240000000000009</ele>
        <time>2015-03-13T09:12:26Z</time>
      </trkpt>
      <trkpt lat="47.354192957282066" lon="11.256482312455773">
        <ele>1276</ele>
        <time>2015-03-13T09:12:39Z</time>
      </trkpt>
      <trkpt lat="47.354037556797266" lon="11.256458759307861">
        <ele>1278.799999999999955</ele>
        <time>2015-03-13T09:12:53Z</time>
      </trkpt>
      <trkpt lat="47.354027666151524" lon="11.256455322727561">
        <ele>1278.809999999999945</ele>
        <time>2015-03-13T09:12:54Z</time>
      </trkpt>
      <trkpt lat="47.35400796867907" lon="11.256444845348597">
        <ele>1278.690000000000055</ele>
        <time>2015-03-13T09:12:56Z</time>
      </trkpt>
      <trkpt lat="47.353857848793268" lon="11.256405366584659">
        <ele>1281.8900000000001</ele>
        <time>2015-03-13T09:13:10Z</time>
      </trkpt>
      <trkpt lat="47.353716446086764" lon="11.2563756108284">
        <ele>1283.299999999999955</ele>
        <time>2015-03-13T09:13:23Z</time>
      </trkpt>
      <trkpt lat="47.353532379493117" lon="11.256330013275146">
        <ele>1284.220000000000027</ele>
        <time>2015-03-13T09:13:38Z</time>
      </trkpt>
      <trkpt lat="47.353345798328519" lon="11.256274776533246">
        <ele>1285.460000000000036</ele>
        <time>2015-03-13T09:13:53Z</time>
      </trkpt>
      <trkpt lat="47.353215711191297" lon="11.256216438487172">
        <ele>1285.950000000000045</ele>
        <time>2015-03-13T09:14:05Z</time>
      </trkpt>
      <trkpt lat="47.353058969601989" lon="11.256138402968645">
        <ele>1287.839999999999918</ele>
        <time>2015-03-13T09:14:19Z</time>
      </trkpt>
      <trkpt lat="47.353027202188969" lon="11.256123818457127">
        <ele>1288.1099999999999</ele>
        <time>2015-03-13T09:14:22Z</time>
      </trkpt>
      <trkpt lat="47.353008594363928" lon="11.256105545908213">
        <ele>1287.990000000000009</ele>
        <time>2015-03-13T09:14:24Z</time>
      </trkpt>
      <trkpt lat="47.352866102010012" lon="11.256022062152624">
        <ele>1288.779999999999973</ele>
        <time>2015-03-13T09:14:37Z</time>
      </trkpt>
      <trkpt lat="47.352828467264771" lon="11.255990043282509">
        <ele>1288.980000000000018</ele>
        <time>2015-03-13T09:14:41Z</time>
      </trkpt>
      <trkpt lat="47.35267055220902" lon="11.255922317504883">
        <ele>1290.660000000000082</ele>
        <time>2015-03-13T09:14:54Z</time>
      </trkpt>
      <trkpt lat="47.352559491991997" lon="11.255883257836103">
        <ele>1290.460000000000036</ele>
        <time>2015-03-13T09:15:03Z</time>
      </trkpt>
      <trkpt lat="47.352395625784993" lon="11.255849897861481">
        <ele>1292.029999999999973</ele>
        <time>2015-03-13T09:15:17Z</time>
      </trkpt>
      <trkpt lat="47.352226143702865" lon="11.255836319178343">
        <ele>1293.700000000000045</ele>
        <time>2015-03-13T09:15:31Z</time>
      </trkpt>
      <trkpt lat="47.352063283324242" lon="11.255817711353302">
        <ele>1295.839999999999918</ele>
        <time>2015-03-13T09:15:45Z</time>
      </trkpt>
      <trkpt lat="47.35205146484077" lon="11.255814610049129">
        <ele>1295.049999999999955</ele>
        <time>2015-03-13T09:15:46Z</time>
      </trkpt>
      <trkpt lat="47.351945266127586" lon="11.255807736888528">
        <ele>1296.119999999999891</ele>
        <time>2015-03-13T09:15:56Z</time>
      </trkpt>
      <trkpt lat="47.351833702996373" lon="11.255792984738946">
        <ele>1297.470000000000027</ele>
        <time>2015-03-13T09:16:06Z</time>
      </trkpt>
      <trkpt lat="47.351682409644127" lon="11.255834894254804">
        <ele>1299.230000000000018</ele>
        <time>2015-03-13T09:16:20Z</time>
      </trkpt>
      <trkpt lat="47.351589621976018" lon="11.255860459059477">
        <ele>1300.740000000000009</ele>
        <time>2015-03-13T09:16:29Z</time>
      </trkpt>
      <trkpt lat="47.351484345272183" lon="11.255853502079844">
        <ele>1301.6099999999999</ele>
        <time>2015-03-13T09:16:39Z</time>
      </trkpt>
      <trkpt lat="47.351324586197734" lon="11.255816034972668">
        <ele>1302.6400000000001</ele>
        <time>2015-03-13T09:16:52Z</time>
      </trkpt>
      <trkpt lat="47.35116658732295" lon="11.255787201225758">
        <ele>1303.380000000000109</ele>
        <time>2015-03-13T09:17:05Z</time>
      </trkpt>
      <trkpt lat="47.351124845445156" lon="11.255783680826426">
        <ele>1302.700000000000045</ele>
        <time>2015-03-13T09:17:08Z</time>
      </trkpt>
      <trkpt lat="47.351075140759349" lon="11.255779657512903">
        <ele>1303.329999999999927</ele>
        <time>2015-03-13T09:17:12Z</time>
      </trkpt>
      <trkpt lat="47.350866347551346" lon="11.255815615877509">
        <ele>1305.170000000000073</ele>
        <time>2015-03-13T09:17:29Z</time>
      </trkpt>
      <trkpt lat="47.350703654810786" lon="11.255893064662814">
        <ele>1306.75</ele>
        <time>2015-03-13T09:17:44Z</time>
      </trkpt>
      <trkpt lat="47.350573316216469" lon="11.255961963906884">
        <ele>1306.75</ele>
        <time>2015-03-13T09:17:56Z</time>
      </trkpt>
      <trkpt lat="47.35041506588459" lon="11.255994653329253">
        <ele>1307.690000000000055</ele>
        <time>2015-03-13T09:18:09Z</time>
      </trkpt>
      <trkpt lat="47.350277015939355" lon="11.256003705784678">
        <ele>1308.930000000000064</ele>
        <time>2015-03-13T09:18:20Z</time>
      </trkpt>
      <trkpt lat="47.35025480389595" lon="11.255995659157634">
        <ele>1308.259999999999991</ele>
        <time>2015-03-13T09:18:38Z</time>
      </trkpt>
      <trkpt lat="47.350235609337687" lon="11.255999263375998">
        <ele>1308.119999999999891</ele>
        <time>2015-03-13T09:18:41Z</time>
      </trkpt>
      <trkpt lat="47.350214906036854" lon="11.255997167900205">
        <ele>1308.809999999999945</ele>
        <time>2015-03-13T09:18:43Z</time>
      </trkpt>
      <trkpt lat="47.350019607692957" lon="11.255985097959638">
        <ele>1306.3900000000001</ele>
        <time>2015-03-13T09:18:58Z</time>
      </trkpt>
      <trkpt lat="47.349826823920012" lon="11.256037401035428">
        <ele>1306.720000000000027</ele>
        <time>2015-03-13T09:19:12Z</time>
      </trkpt>
      <trkpt lat="47.349673435091972" lon="11.25610638409853">
        <ele>1306.049999999999955</ele>
        <time>2015-03-13T09:19:27Z</time>
      </trkpt>
      <trkpt lat="47.349637225270271" lon="11.256126249209046">
        <ele>1305.849999999999909</ele>
        <time>2015-03-13T09:19:56Z</time>
      </trkpt>
      <trkpt lat="47.349612498655915" lon="11.256132703274488">
        <ele>1305.880000000000109</ele>
        <time>2015-03-13T09:19:58Z</time>
      </trkpt>
      <trkpt lat="47.349441591650248" lon="11.256190035492182">
        <ele>1306.369999999999891</ele>
        <time>2015-03-13T09:20:12Z</time>
      </trkpt>
      <trkpt lat="47.349249729886651" lon="11.256277291104198">
        <ele>1305.970000000000027</ele>
        <time>2015-03-13T09:20:28Z</time>
      </trkpt>
      <trkpt lat="47.349068261682987" lon="11.256401930004358">
        <ele>1305.730000000000018</ele>
        <time>2015-03-13T09:20:43Z</time>
      </trkpt>
      <trkpt lat="47.348879417404532" lon="11.256504105404019">
        <ele>1307.1400000000001</ele>
        <time>2015-03-13T09:20:59Z</time>
      </trkpt>
      <trkpt lat="47.348751341924071" lon="11.25662337988615">
        <ele>1306.440000000000055</ele>
        <time>2015-03-13T09:21:10Z</time>
      </trkpt>
      <trkpt lat="47.348692081868649" lon="11.256746845319867">
        <ele>1306.329999999999927</ele>
        <time>2015-03-13T09:21:18Z</time>
      </trkpt>
      <trkpt lat="47.348548332229257" lon="11.256982041522861">
        <ele>1306.809999999999945</ele>
        <time>2015-03-13T09:21:35Z</time>
      </trkpt>
      <trkpt lat="47.348436852917075" lon="11.257163342088461">
        <ele>1305.809999999999945</ele>
        <time>2015-03-13T09:21:48Z</time>
      </trkpt>
      <trkpt lat="47.348397290334105" lon="11.257222769781947">
        <ele>1305.75</ele>
        <time>2015-03-13T09:21:52Z</time>
      </trkpt>
      <trkpt lat="47.348267203196883" lon="11.257399627938867">
        <ele>1304.210000000000036</ele>
        <time>2015-03-13T09:22:07Z</time>
      </trkpt>
      <trkpt lat="47.348140720278025" lon="11.257495936006308">
        <ele>1305.069999999999936</ele>
        <time>2015-03-13T09:22:18Z</time>
      </trkpt>
      <trkpt lat="47.348003759980202" lon="11.25758302398026">
        <ele>1305.799999999999955</ele>
        <time>2015-03-13T09:22:31Z</time>
      </trkpt>
      <trkpt lat="47.347909966483712" lon="11.25770959071815">
        <ele>1305.190000000000055</ele>
        <time>2015-03-13T09:22:42Z</time>
      </trkpt>
      <trkpt lat="47.347812233492732" lon="11.257987953722477">
        <ele>1305.450000000000045</ele>
        <time>2015-03-13T09:22:59Z</time>
      </trkpt>
      <trkpt lat="47.347815753892064" lon="11.258052410557866">
        <ele>1304.75</ele>
        <time>2015-03-13T09:23:02Z</time>
      </trkpt>
      <trkpt lat="47.347769737243652" lon="11.258328091353178">
        <ele>1304.730000000000018</ele>
        <time>2015-03-13T09:23:17Z</time>
      </trkpt>
      <trkpt lat="47.347669070586562" lon="11.258447282016277">
        <ele>1304.299999999999955</ele>
        <time>2015-03-13T09:23:28Z</time>
      </trkpt>
      <trkpt lat="47.347518783062696" lon="11.25852070748806">
        <ele>1304.039999999999964</ele>
        <time>2015-03-13T09:23:40Z</time>
      </trkpt>
      <trkpt lat="47.347416440024972" lon="11.25852020457387">
        <ele>1303.539999999999964</ele>
        <time>2015-03-13T09:23:47Z</time>
      </trkpt>
      <trkpt lat="47.347216363996267" lon="11.258497657254338">
        <ele>1303.339999999999918</ele>
        <time>2015-03-13T09:24:01Z</time>
      </trkpt>
      <trkpt lat="47.347039757296443" lon="11.258462369441986">
        <ele>1303.549999999999955</ele>
        <time>2015-03-13T09:24:15Z</time>
      </trkpt>
      <trkpt lat="47.346897181123495" lon="11.258430602028966">
        <ele>1303.380000000000109</ele>
        <time>2015-03-13T09:24:26Z</time>
      </trkpt>
      <trkpt lat="47.346864324063063" lon="11.258418867364526">
        <ele>1303.230000000000018</ele>
        <time>2015-03-13T09:24:29Z</time>
      </trkpt>
      <trkpt lat="47.346660140901804" lon="11.258441833779216">
        <ele>1303.089999999999918</ele>
        <time>2015-03-13T09:24:46Z</time>
      </trkpt>
      <trkpt lat="47.346464339643717" lon="11.258497992530465">
        <ele>1302.1099999999999</ele>
        <time>2015-03-13T09:25:01Z</time>
      </trkpt>
      <trkpt lat="47.346259150654078" lon="11.258534956723452">
        <ele>1302.660000000000082</ele>
        <time>2015-03-13T09:25:16Z</time>
      </trkpt>
      <trkpt lat="47.346066199243069" lon="11.258524814620614">
        <ele>1302.019999999999982</ele>
        <time>2015-03-13T09:25:31Z</time>
      </trkpt>
      <trkpt lat="47.34599101357162" lon="11.258504530414939">
        <ele>1302.190000000000055</ele>
        <time>2015-03-13T09:25:44Z</time>
      </trkpt>
      <trkpt lat="47.345981039106846" lon="11.258513247594237">
        <ele>1301.740000000000009</ele>
        <time>2015-03-13T09:26:20Z</time>
      </trkpt>
      <trkpt lat="47.345973327755928" lon="11.258513582870364">
        <ele>1301.240000000000009</ele>
        <time>2015-03-13T09:26:53Z</time>
      </trkpt>
      <trkpt lat="47.346014818176627" lon="11.25851777382195">
        <ele>1301.349999999999909</ele>
        <time>2015-03-13T09:27:28Z</time>
      </trkpt>
      <trkpt lat="47.345965784043074" lon="11.258529843762517">
        <ele>1300.789999999999964</ele>
        <time>2015-03-13T09:27:49Z</time>
      </trkpt>
      <trkpt lat="47.345919013023376" lon="11.25854367390275">
        <ele>1300.809999999999945</ele>
        <time>2015-03-13T09:27:54Z</time>
      </trkpt>
      <trkpt lat="47.345864865928888" lon="11.258574854582548">
        <ele>1301.019999999999982</ele>
        <time>2015-03-13T09:28:09Z</time>
      </trkpt>
      <trkpt lat="47.345825470983982" lon="11.258593378588557">
        <ele>1301.3599999999999</ele>
        <time>2015-03-13T09:28:13Z</time>
      </trkpt>
      <trkpt lat="47.345583150163293" lon="11.258689351379871">
        <ele>1300.849999999999909</ele>
        <time>2015-03-13T09:28:33Z</time>
      </trkpt>
      <trkpt lat="47.345465049147606" lon="11.258746096864343">
        <ele>1301.720000000000027</ele>
        <time>2015-03-13T09:28:47Z</time>
      </trkpt>
      <trkpt lat="47.345451302826405" lon="11.258745258674026">
        <ele>1301.720000000000027</ele>
        <time>2015-03-13T09:28:55Z</time>
      </trkpt>
      <trkpt lat="47.345416601747274" lon="11.258756155148149">
        <ele>1301.019999999999982</ele>
        <time>2015-03-13T09:28:58Z</time>
      </trkpt>
      <trkpt lat="47.345152320340276" lon="11.258860174566507">
        <ele>1301.259999999999991</ele>
        <time>2015-03-13T09:29:19Z</time>
      </trkpt>
      <trkpt lat="47.344984514638782" lon="11.258929409086704">
        <ele>1301.940000000000055</ele>
        <time>2015-03-13T09:29:33Z</time>
      </trkpt>
      <trkpt lat="47.344747055321932" lon="11.259035607799888">
        <ele>1301.5</ele>
        <time>2015-03-13T09:29:53Z</time>
      </trkpt>
      <trkpt lat="47.344532394781709" lon="11.259142560884356">
        <ele>1302.279999999999973</ele>
        <time>2015-03-13T09:30:11Z</time>
      </trkpt>
      <trkpt lat="47.3443135432899" lon="11.259338613599539">
        <ele>1302.680000000000064</ele>
        <time>2015-03-13T09:30:31Z</time>
      </trkpt>
      <trkpt lat="47.344145905226469" lon="11.259466772899032">
        <ele>1302.3900000000001</ele>
        <time>2015-03-13T09:30:47Z</time>
      </trkpt>
      <trkpt lat="47.344008861109614" lon="11.259541204199195">
        <ele>1303.920000000000073</ele>
        <time>2015-03-13T09:30:59Z</time>
      </trkpt>
      <trkpt lat="47.343844575807452" lon="11.259709428995848">
        <ele>1306.329999999999927</ele>
        <time>2015-03-13T09:31:16Z</time>
      </trkpt>
      <trkpt lat="47.343686493113637" lon="11.259838929399848">
        <ele>1307.759999999999991</ele>
        <time>2015-03-13T09:31:32Z</time>
      </trkpt>
      <trkpt lat="47.343506449833512" lon="11.25991621054709">
        <ele>1307.779999999999973</ele>
        <time>2015-03-13T09:31:47Z</time>
      </trkpt>
      <trkpt lat="47.343336632475257" lon="11.259935321286321">
        <ele>1306.910000000000082</ele>
        <time>2015-03-13T09:32:00Z</time>
      </trkpt>
      <trkpt lat="47.343138651922345" lon="11.25992308370769">
        <ele>1309.769999999999982</ele>
        <time>2015-03-13T09:32:16Z</time>
      </trkpt>
      <trkpt lat="47.342966990545392" lon="11.259893160313368">
        <ele>1311.660000000000082</ele>
        <time>2015-03-13T09:32:31Z</time>
      </trkpt>
      <trkpt lat="47.342892391607165" lon="11.259872205555439">
        <ele>1311.420000000000073</ele>
        <time>2015-03-13T09:32:37Z</time>
      </trkpt>
      <trkpt lat="47.342818966135383" lon="11.259843120351434">
        <ele>1312.059999999999945</ele>
        <time>2015-03-13T09:32:43Z</time>
      </trkpt>
      <trkpt lat="47.342670941725373" lon="11.259767599403858">
        <ele>1311.990000000000009</ele>
        <time>2015-03-13T09:32:56Z</time>
      </trkpt>
      <trkpt lat="47.342480169609189" lon="11.259771790355444">
        <ele>1313.25</ele>
        <time>2015-03-13T09:33:12Z</time>
      </trkpt>
      <trkpt lat="47.342299204319715" lon="11.25975988805294">
        <ele>1314.019999999999982</ele>
        <time>2015-03-13T09:33:27Z</time>
      </trkpt>
      <trkpt lat="47.342200046405196" lon="11.25981948338449">
        <ele>1314.950000000000045</ele>
        <time>2015-03-13T09:33:36Z</time>
      </trkpt>
      <trkpt lat="47.342059649527073" lon="11.259973542764783">
        <ele>1314.920000000000073</ele>
        <time>2015-03-13T09:33:50Z</time>
      </trkpt>
      <trkpt lat="47.34189335256815" lon="11.260045543313026">
        <ele>1316.690000000000055</ele>
        <time>2015-03-13T09:34:05Z</time>
      </trkpt>
      <trkpt lat="47.341682044789195" lon="11.260138414800167">
        <ele>1317.319999999999936</ele>
        <time>2015-03-13T09:34:22Z</time>
      </trkpt>
      <trkpt lat="47.341506611555815" lon="11.260206727311015">
        <ele>1317.690000000000055</ele>
        <time>2015-03-13T09:34:36Z</time>
      </trkpt>
      <trkpt lat="47.341388259083033" lon="11.260177977383137">
        <ele>1317.119999999999891</ele>
        <time>2015-03-13T09:34:54Z</time>
      </trkpt>
      <trkpt lat="47.341270241886377" lon="11.260127434507012">
        <ele>1315.990000000000009</ele>
        <time>2015-03-13T09:35:08Z</time>
      </trkpt>
      <trkpt lat="47.341261524707079" lon="11.260131038725376">
        <ele>1316.1099999999999</ele>
        <time>2015-03-13T09:35:29Z</time>
      </trkpt>
      <trkpt lat="47.341276193037629" lon="11.260111844167113">
        <ele>1316.150000000000091</ele>
        <time>2015-03-13T09:36:11Z</time>
      </trkpt>
      <trkpt lat="47.341271163895726" lon="11.260136906057596">
        <ele>1315.980000000000018</ele>
        <time>2015-03-13T09:36:50Z</time>
      </trkpt>
      <trkpt lat="47.3412777017802" lon="11.260143276304007">
        <ele>1316.279999999999973</ele>
        <time>2015-03-13T09:37:24Z</time>
      </trkpt>
      <trkpt lat="47.341265296563506" lon="11.26014000736177">
        <ele>1316.809999999999945</ele>
        <time>2015-03-13T09:37:43Z</time>
      </trkpt>
      <trkpt lat="47.341259261593223" lon="11.260151825845242">
        <ele>1315.539999999999964</ele>
        <time>2015-03-13T09:38:04Z</time>
      </trkpt>
      <trkpt lat="47.341238474473357" lon="11.26015174202621">
        <ele>1316.25</ele>
        <time>2015-03-13T09:38:17Z</time>
      </trkpt>
      <trkpt lat="47.341208551079035" lon="11.260134894400835">
        <ele>1316.089999999999918</ele>
        <time>2015-03-13T09:38:20Z</time>
      </trkpt>
      <trkpt lat="47.341129509732127" lon="11.260086447000504">
        <ele>1316.589999999999918</ele>
        <time>2015-03-13T09:38:33Z</time>
      </trkpt>
      <trkpt lat="47.341137304902077" lon="11.260097594931722">
        <ele>1315.480000000000018</ele>
        <time>2015-03-13T09:38:58Z</time>
      </trkpt>
      <trkpt lat="47.341114087030292" lon="11.260091224685311">
        <ele>1315.980000000000018</ele>
        <time>2015-03-13T09:39:14Z</time>
      </trkpt>
      <trkpt lat="47.341005876660347" lon="11.260032635182142">
        <ele>1316.420000000000073</ele>
        <time>2015-03-13T09:39:30Z</time>
      </trkpt>
      <trkpt lat="47.340922309085727" lon="11.259984439238906">
        <ele>1316.430000000000064</ele>
        <time>2015-03-13T09:39:46Z</time>
      </trkpt>
      <trkpt lat="47.34091417863965" lon="11.259979996830225">
        <ele>1317.349999999999909</ele>
        <time>2015-03-13T09:39:47Z</time>
      </trkpt>
      <trkpt lat="47.340873442590237" lon="11.259955689311028">
        <ele>1316.730000000000018</ele>
        <time>2015-03-13T09:39:51Z</time>
      </trkpt>
      <trkpt lat="47.340821726247668" lon="11.259914869442582">
        <ele>1317.299999999999955</ele>
        <time>2015-03-13T09:40:02Z</time>
      </trkpt>
      <trkpt lat="47.340785097330809" lon="11.259897770360112">
        <ele>1317.319999999999936</ele>
        <time>2015-03-13T09:40:05Z</time>
      </trkpt>
      <trkpt lat="47.340646460652351" lon="11.259844629094005">
        <ele>1317.079999999999927</ele>
        <time>2015-03-13T09:40:17Z</time>
      </trkpt>
      <trkpt lat="47.34062341041863" lon="11.259843539446592">
        <ele>1317.339999999999918</ele>
        <time>2015-03-13T09:40:19Z</time>
      </trkpt>
      <trkpt lat="47.340443367138505" lon="11.259910678490996">
        <ele>1318.8599999999999</ele>
        <time>2015-03-13T09:40:36Z</time>
      </trkpt>
      <trkpt lat="47.340231221169233" lon="11.2600520811975">
        <ele>1320.039999999999964</ele>
        <time>2015-03-13T09:40:56Z</time>
      </trkpt>
      <trkpt lat="47.340052183717489" lon="11.260152328759432">
        <ele>1321.519999999999982</ele>
        <time>2015-03-13T09:41:14Z</time>
      </trkpt>
      <trkpt lat="47.339857555925846" lon="11.260282248258591">
        <ele>1324.220000000000027</ele>
        <time>2015-03-13T09:41:33Z</time>
      </trkpt>
      <trkpt lat="47.339670052751899" lon="11.260382160544395">
        <ele>1326.1400000000001</ele>
        <time>2015-03-13T09:41:51Z</time>
      </trkpt>
      <trkpt lat="47.339648511260748" lon="11.260385429486632">
        <ele>1326.990000000000009</ele>
        <time>2015-03-13T09:41:53Z</time>
      </trkpt>
      <trkpt lat="47.339453967288136" lon="11.260324912145734">
        <ele>1328.329999999999927</ele>
        <time>2015-03-13T09:42:11Z</time>
      </trkpt>
      <trkpt lat="47.339436700567603" lon="11.260316362604499">
        <ele>1328.940000000000055</ele>
        <time>2015-03-13T09:42:13Z</time>
      </trkpt>
      <trkpt lat="47.339416919276118" lon="11.260305382311344">
        <ele>1328.559999999999945</ele>
        <time>2015-03-13T09:42:15Z</time>
      </trkpt>
      <trkpt lat="47.339306864887476" lon="11.260242434218526">
        <ele>1330.480000000000018</ele>
        <time>2015-03-13T09:42:26Z</time>
      </trkpt>
      <trkpt lat="47.339284066110849" lon="11.260232040658593">
        <ele>1330.569999999999936</ele>
        <time>2015-03-13T09:42:28Z</time>
      </trkpt>
      <trkpt lat="47.339086756110191" lon="11.26007161103189">
        <ele>1333.240000000000009</ele>
        <time>2015-03-13T09:42:48Z</time>
      </trkpt>
      <trkpt lat="47.338988520205021" lon="11.259990725666285">
        <ele>1333.420000000000073</ele>
        <time>2015-03-13T09:43:07Z</time>
      </trkpt>
      <trkpt lat="47.338990196585655" lon="11.259988211095333">
        <ele>1333.650000000000091</ele>
        <time>2015-03-13T09:43:11Z</time>
      </trkpt>
      <trkpt lat="47.338967565447092" lon="11.259984774515033">
        <ele>1333.420000000000073</ele>
        <time>2015-03-13T09:43:33Z</time>
      </trkpt>
      <trkpt lat="47.338945856317878" lon="11.259976392611861">
        <ele>1333.440000000000055</ele>
        <time>2015-03-13T09:43:35Z</time>
      </trkpt>
      <trkpt lat="47.338789366185665" lon="11.259921323508024">
        <ele>1333.700000000000045</ele>
        <time>2015-03-13T09:43:50Z</time>
      </trkpt>
      <trkpt lat="47.338585183024406" lon="11.25988251529634">
        <ele>1334.1400000000001</ele>
        <time>2015-03-13T09:44:08Z</time>
      </trkpt>
      <trkpt lat="47.338411007076502" lon="11.25989374704659">
        <ele>1335.210000000000036</ele>
        <time>2015-03-13T09:44:24Z</time>
      </trkpt>
      <trkpt lat="47.338242447003722" lon="11.259912606328726">
        <ele>1336.789999999999964</ele>
        <time>2015-03-13T09:44:40Z</time>
      </trkpt>
      <trkpt lat="47.338080257177353" lon="11.259948648512363">
        <ele>1337.700000000000045</ele>
        <time>2015-03-13T09:44:56Z</time>
      </trkpt>
      <trkpt lat="47.337941117584705" lon="11.260018553584814">
        <ele>1339.269999999999982</ele>
        <time>2015-03-13T09:45:11Z</time>
      </trkpt>
      <trkpt lat="47.337780687958002" lon="11.260098181664944">
        <ele>1342.279999999999973</ele>
        <time>2015-03-13T09:45:28Z</time>
      </trkpt>
      <trkpt lat="47.337620509788394" lon="11.260178396478295">
        <ele>1343.950000000000045</ele>
        <time>2015-03-13T09:45:45Z</time>
      </trkpt>
      <trkpt lat="47.337503330782056" lon="11.260254923254251">
        <ele>1344.549999999999955</ele>
        <time>2015-03-13T09:46:00Z</time>
      </trkpt>
      <trkpt lat="47.337484220042825" lon="11.260267999023199">
        <ele>1345.3599999999999</ele>
        <time>2015-03-13T09:46:02Z</time>
      </trkpt>
      <trkpt lat="47.337352959439158" lon="11.260375622659922">
        <ele>1348.119999999999891</ele>
        <time>2015-03-13T09:46:16Z</time>
      </trkpt>
      <trkpt lat="47.337196217849851" lon="11.260479055345058">
        <ele>1349.519999999999982</ele>
        <time>2015-03-13T09:46:33Z</time>
      </trkpt>
      <trkpt lat="47.337053222581744" lon="11.260589025914669">
        <ele>1353.269999999999982</ele>
        <time>2015-03-13T09:46:50Z</time>
      </trkpt>
      <trkpt lat="47.336907628923655" lon="11.260759430006146">
        <ele>1355.259999999999991</ele>
        <time>2015-03-13T09:47:09Z</time>
      </trkpt>
      <trkpt lat="47.336779134348035" lon="11.260937545448542">
        <ele>1356.650000000000091</ele>
        <time>2015-03-13T09:47:27Z</time>
      </trkpt>
      <trkpt lat="47.336644772440195" lon="11.261103674769402">
        <ele>1359.25</ele>
        <time>2015-03-13T09:47:44Z</time>
      </trkpt>
      <trkpt lat="47.336497586220503" lon="11.261248011142015">
        <ele>1361.009999999999991</ele>
        <time>2015-03-13T09:48:02Z</time>
      </trkpt>
      <trkpt lat="47.3363630566746" lon="11.261364854872227">
        <ele>1364.089999999999918</ele>
        <time>2015-03-13T09:48:17Z</time>
      </trkpt>
      <trkpt lat="47.336217043921351" lon="11.261519081890583">
        <ele>1366.400000000000091</ele>
        <time>2015-03-13T09:48:35Z</time>
      </trkpt>
      <trkpt lat="47.336133476346731" lon="11.261629303917289">
        <ele>1369.029999999999973</ele>
        <time>2015-03-13T09:48:48Z</time>
      </trkpt>
      <trkpt lat="47.336030127480626" lon="11.261781854555011">
        <ele>1371.740000000000009</ele>
        <time>2015-03-13T09:49:05Z</time>
      </trkpt>
      <trkpt lat="47.335906997323036" lon="11.261957958340645">
        <ele>1373.680000000000064</ele>
        <time>2015-03-13T09:49:22Z</time>
      </trkpt>
      <trkpt lat="47.335795685648918" lon="11.262118136510253">
        <ele>1376.819999999999936</ele>
        <time>2015-03-13T09:49:39Z</time>
      </trkpt>
      <trkpt lat="47.335712118074298" lon="11.262245457619429">
        <ele>1378.940000000000055</ele>
        <time>2015-03-13T09:49:53Z</time>
      </trkpt>
      <trkpt lat="47.335601896047592" lon="11.262356601655483">
        <ele>1381.299999999999955</ele>
        <time>2015-03-13T09:50:08Z</time>
      </trkpt>
      <trkpt lat="47.335439790040255" lon="11.262497752904892">
        <ele>1383.980000000000018</ele>
        <time>2015-03-13T09:50:27Z</time>
      </trkpt>
      <trkpt lat="47.335409531369805" lon="11.262530442327261">
        <ele>1383.170000000000073</ele>
        <time>2015-03-13T09:50:46Z</time>
      </trkpt>
      <trkpt lat="47.33536577783525" lon="11.26259246841073">
        <ele>1384.3900000000001</ele>
        <time>2015-03-13T09:51:06Z</time>
      </trkpt>
      <trkpt lat="47.335292687639594" lon="11.262705624103546">
        <ele>1387.059999999999945</ele>
        <time>2015-03-13T09:51:19Z</time>
      </trkpt>
      <trkpt lat="47.335182800889015" lon="11.262864544987679">
        <ele>1388.349999999999909</ele>
        <time>2015-03-13T09:51:36Z</time>
      </trkpt>
      <trkpt lat="47.335056569427252" lon="11.263007204979658">
        <ele>1391.720000000000027</ele>
        <time>2015-03-13T09:51:52Z</time>
      </trkpt>
      <trkpt lat="47.334942240267992" lon="11.263161096721888">
        <ele>1393.940000000000055</ele>
        <time>2015-03-13T09:52:09Z</time>
      </trkpt>
      <trkpt lat="47.334829922765493" lon="11.263298643752933">
        <ele>1396.509999999999991</ele>
        <time>2015-03-13T09:52:25Z</time>
      </trkpt>
      <trkpt lat="47.334712240844965" lon="11.263421606272459">
        <ele>1399.150000000000091</ele>
        <time>2015-03-13T09:52:39Z</time>
      </trkpt>
      <trkpt lat="47.334586679935455" lon="11.263533504679799">
        <ele>1399.519999999999982</ele>
        <time>2015-03-13T09:52:53Z</time>
      </trkpt>
      <trkpt lat="47.334412420168519" lon="11.263660490512848">
        <ele>1402.950000000000045</ele>
        <time>2015-03-13T09:53:11Z</time>
      </trkpt>
      <trkpt lat="47.334289457648993" lon="11.263801557943225">
        <ele>1403.980000000000018</ele>
        <time>2015-03-13T09:53:25Z</time>
      </trkpt>
      <trkpt lat="47.334178481251001" lon="11.263955784961581">
        <ele>1405.920000000000073</ele>
        <time>2015-03-13T09:53:40Z</time>
      </trkpt>
      <trkpt lat="47.334064235910773" lon="11.264102887362242">
        <ele>1408.220000000000027</ele>
        <time>2015-03-13T09:53:55Z</time>
      </trkpt>
      <trkpt lat="47.333937417715788" lon="11.26423523761332">
        <ele>1410.240000000000009</ele>
        <time>2015-03-13T09:54:10Z</time>
      </trkpt>
      <trkpt lat="47.333859214559197" lon="11.264341184869409">
        <ele>1411.8900000000001</ele>
        <time>2015-03-13T09:54:20Z</time>
      </trkpt>
      <trkpt lat="47.333736252039671" lon="11.264490718021989">
        <ele>1414.809999999999945</ele>
        <time>2015-03-13T09:54:36Z</time>
      </trkpt>
      <trkpt lat="47.33364530839026" lon="11.264621894806623">
        <ele>1416.759999999999991</ele>
        <time>2015-03-13T09:54:49Z</time>
      </trkpt>
      <trkpt lat="47.333511281758547" lon="11.26473069190979">
        <ele>1418.549999999999955</ele>
        <time>2015-03-13T09:55:04Z</time>
      </trkpt>
      <trkpt lat="47.333374992012978" lon="11.264855246990919">
        <ele>1421.210000000000036</ele>
        <time>2015-03-13T09:55:20Z</time>
      </trkpt>
      <trkpt lat="47.333260327577591" lon="11.264966810122132">
        <ele>1422.980000000000018</ele>
        <time>2015-03-13T09:55:34Z</time>
      </trkpt>
      <trkpt lat="47.333120768889785" lon="11.265122042968869">
        <ele>1426.130000000000109</ele>
        <time>2015-03-13T09:55:51Z</time>
      </trkpt>
      <trkpt lat="47.333009038120508" lon="11.265236623585224">
        <ele>1428.839999999999918</ele>
        <time>2015-03-13T09:56:04Z</time>
      </trkpt>
      <trkpt lat="47.332883812487125" lon="11.265384815633297">
        <ele>1431.150000000000091</ele>
        <time>2015-03-13T09:56:21Z</time>
      </trkpt>
      <trkpt lat="47.332835281267762" lon="11.265429658815265">
        <ele>1434.230000000000018</ele>
        <time>2015-03-13T09:56:31Z</time>
      </trkpt>
      <trkpt lat="47.33281172811985" lon="11.265410464257002">
        <ele>1432.210000000000036</ele>
        <time>2015-03-13T09:57:10Z</time>
      </trkpt>
      <trkpt lat="47.332813153043389" lon="11.265422869473696">
        <ele>1432.509999999999991</ele>
        <time>2015-03-13T09:57:43Z</time>
      </trkpt>
      <trkpt lat="47.332816338166595" lon="11.265423623844981">
        <ele>1432.3900000000001</ele>
        <time>2015-03-13T09:58:19Z</time>
      </trkpt>
      <trkpt lat="47.332786833867431" lon="11.26545681618154">
        <ele>1433.6400000000001</ele>
        <time>2015-03-13T09:58:25Z</time>
      </trkpt>
      <trkpt lat="47.332753976806998" lon="11.265500653535128">
        <ele>1433.599999999999909</ele>
        <time>2015-03-13T09:58:30Z</time>
      </trkpt>
      <trkpt lat="47.332642748951912" lon="11.26564297825098">
        <ele>1436.160000000000082</ele>
        <time>2015-03-13T09:58:46Z</time>
      </trkpt>
      <trkpt lat="47.332502352073789" lon="11.265804916620255">
        <ele>1439.509999999999991</ele>
        <time>2015-03-13T09:59:04Z</time>
      </trkpt>
      <trkpt lat="47.332388609647751" lon="11.265939781442285">
        <ele>1441.369999999999891</ele>
        <time>2015-03-13T09:59:20Z</time>
      </trkpt>
      <trkpt lat="47.332290709018707" lon="11.26608470454812">
        <ele>1444.509999999999991</ele>
        <time>2015-03-13T09:59:34Z</time>
      </trkpt>
      <trkpt lat="47.33215844258666" lon="11.266276314854622">
        <ele>1446.170000000000073</ele>
        <time>2015-03-13T09:59:53Z</time>
      </trkpt>
      <trkpt lat="47.332013687118888" lon="11.266434984281659">
        <ele>1448.5</ele>
        <time>2015-03-13T10:00:11Z</time>
      </trkpt>
      <trkpt lat="47.331973956897855" lon="11.266479911282659">
        <ele>1450.089999999999918</ele>
        <time>2015-03-13T10:00:16Z</time>
      </trkpt>
      <trkpt lat="47.331809336319566" lon="11.266605472192168">
        <ele>1452.279999999999973</ele>
        <time>2015-03-13T10:00:33Z</time>
      </trkpt>
      <trkpt lat="47.331680171191692" lon="11.266738828271627">
        <ele>1453.900000000000091</ele>
        <time>2015-03-13T10:00:49Z</time>
      </trkpt>
      <trkpt lat="47.331650415435433" lon="11.266777804121375">
        <ele>1454.8900000000001</ele>
        <time>2015-03-13T10:01:05Z</time>
      </trkpt>
      <trkpt lat="47.331649828702211" lon="11.266789538785815">
        <ele>1454.329999999999927</ele>
        <time>2015-03-13T10:01:20Z</time>
      </trkpt>
      <trkpt lat="47.331648319959641" lon="11.266797836869955">
        <ele>1452.960000000000036</ele>
        <time>2015-03-13T10:01:25Z</time>
      </trkpt>
      <trkpt lat="47.331651672720909" lon="11.266802363097668">
        <ele>1455.069999999999936</ele>
        <time>2015-03-13T10:01:27Z</time>
      </trkpt>
      <trkpt lat="47.331574726849794" lon="11.266799680888653">
        <ele>1455.930000000000064</ele>
        <time>2015-03-13T10:01:40Z</time>
      </trkpt>
      <trkpt lat="47.331542288884521" lon="11.266825497150421">
        <ele>1456.259999999999991</ele>
        <time>2015-03-13T10:01:44Z</time>
      </trkpt>
      <trkpt lat="47.331415805965662" lon="11.266954075545073">
        <ele>1459.470000000000027</ele>
        <time>2015-03-13T10:02:00Z</time>
      </trkpt>
      <trkpt lat="47.331407926976681" lon="11.266960445791483">
        <ele>1459.720000000000027</ele>
        <time>2015-03-13T10:02:01Z</time>
      </trkpt>
      <trkpt lat="47.331301560625434" lon="11.267019705846906">
        <ele>1460.930000000000064</ele>
        <time>2015-03-13T10:02:13Z</time>
      </trkpt>
      <trkpt lat="47.331284210085869" lon="11.267037307843566">
        <ele>1461.029999999999973</ele>
        <time>2015-03-13T10:02:15Z</time>
      </trkpt>
      <trkpt lat="47.331176586449146" lon="11.267088521271944">
        <ele>1463.3599999999999</ele>
        <time>2015-03-13T10:02:30Z</time>
      </trkpt>
      <trkpt lat="47.331203576177359" lon="11.267120959237218">
        <ele>1463.210000000000036</ele>
        <time>2015-03-13T10:02:49Z</time>
      </trkpt>
      <trkpt lat="47.33116652816534" lon="11.267094891518354">
        <ele>1462.960000000000036</ele>
        <time>2015-03-13T10:03:14Z</time>
      </trkpt>
      <trkpt lat="47.331148087978363" lon="11.267094975337386">
        <ele>1462.720000000000027</ele>
        <time>2015-03-13T10:03:16Z</time>
      </trkpt>
      <trkpt lat="47.331085139885545" lon="11.267039990052581">
        <ele>1463.130000000000109</ele>
        <time>2015-03-13T10:03:30Z</time>
      </trkpt>
      <trkpt lat="47.331084385514259" lon="11.267036637291312">
        <ele>1463.180000000000064</ele>
        <time>2015-03-13T10:03:45Z</time>
      </trkpt>
      <trkpt lat="47.331074997782707" lon="11.267024483531713">
        <ele>1463.559999999999945</ele>
        <time>2015-03-13T10:04:00Z</time>
      </trkpt>
      <trkpt lat="47.331086397171021" lon="11.266988944262266">
        <ele>1462.559999999999945</ele>
        <time>2015-03-13T10:04:16Z</time>
      </trkpt>
      <trkpt lat="47.331089163199067" lon="11.266916859894991">
        <ele>1461.980000000000018</ele>
        <time>2015-03-13T10:04:35Z</time>
      </trkpt>
      <trkpt lat="47.331079356372356" lon="11.266883248463273">
        <ele>1461.579999999999927</ele>
        <time>2015-03-13T10:04:56Z</time>
      </trkpt>
      <trkpt lat="47.331078685820103" lon="11.266934964805841">
        <ele>1461.1400000000001</ele>
        <time>2015-03-13T10:05:20Z</time>
      </trkpt>
      <trkpt lat="47.331080362200737" lon="11.266977628692985">
        <ele>1461.150000000000091</ele>
        <time>2015-03-13T10:06:09Z</time>
      </trkpt>
      <trkpt lat="47.331088576465845" lon="11.266968660056591">
        <ele>1460.730000000000018</ele>
        <time>2015-03-13T10:06:57Z</time>
      </trkpt>
      <trkpt lat="47.331085978075862" lon="11.26697301864624">
        <ele>1461.019999999999982</ele>
        <time>2015-03-13T10:07:38Z</time>
      </trkpt>
      <trkpt lat="47.331083044409752" lon="11.26696371473372">
        <ele>1460.710000000000036</ele>
        <time>2015-03-13T10:08:28Z</time>
      </trkpt>
      <trkpt lat="47.331078518182039" lon="11.26696614548564">
        <ele>1460.900000000000091</ele>
        <time>2015-03-13T10:09:06Z</time>
      </trkpt>
      <trkpt lat="47.331056473776698" lon="11.266963128000498">
        <ele>1460.440000000000055</ele>
        <time>2015-03-13T10:09:54Z</time>
      </trkpt>
      <trkpt lat="47.331061586737633" lon="11.266957176849246">
        <ele>1460.660000000000082</ele>
        <time>2015-03-13T10:10:38Z</time>
      </trkpt>
      <trkpt lat="47.331060329452157" lon="11.266960529610515">
        <ele>1460.230000000000018</ele>
        <time>2015-03-13T10:11:20Z</time>
      </trkpt>
      <trkpt lat="47.331056892871857" lon="11.266962289810181">
        <ele>1460.190000000000055</ele>
        <time>2015-03-13T10:12:06Z</time>
      </trkpt>
      <trkpt lat="47.331050019711256" lon="11.26696907915175">
        <ele>1459.650000000000091</ele>
        <time>2015-03-13T10:12:51Z</time>
      </trkpt>
      <trkpt lat="47.331047002226114" lon="11.266972348093987">
        <ele>1459.720000000000027</ele>
        <time>2015-03-13T10:13:30Z</time>
      </trkpt>
      <trkpt lat="47.331058150157332" lon="11.266968157142401">
        <ele>1459.230000000000018</ele>
        <time>2015-03-13T10:14:13Z</time>
      </trkpt>
      <trkpt lat="47.331078015267849" lon="11.266957009211183">
        <ele>1458.930000000000064</ele>
        <time>2015-03-13T10:14:53Z</time>
      </trkpt>
      <trkpt lat="47.331073740497231" lon="11.26696321181953">
        <ele>1459.190000000000055</ele>
        <time>2015-03-13T10:15:36Z</time>
      </trkpt>
      <trkpt lat="47.331074830144644" lon="11.26696958206594">
        <ele>1459.220000000000027</ele>
        <time>2015-03-13T10:16:19Z</time>
      </trkpt>
      <trkpt lat="47.331077931448817" lon="11.266959691420197">
        <ele>1458.650000000000091</ele>
        <time>2015-03-13T10:17:07Z</time>
      </trkpt>
      <trkpt lat="47.331066448241472" lon="11.266962960362434">
        <ele>1458.279999999999973</ele>
        <time>2015-03-13T10:17:46Z</time>
      </trkpt>
      <trkpt lat="47.331068711355329" lon="11.266948040574789">
        <ele>1458</ele>
        <time>2015-03-13T10:18:18Z</time>
      </trkpt>
      <trkpt lat="47.331048594787717" lon="11.266940999776125">
        <ele>1457.8599999999999</ele>
        <time>2015-03-13T10:18:46Z</time>
      </trkpt>
      <trkpt lat="47.331074997782707" lon="11.266937311738729">
        <ele>1459.089999999999918</ele>
        <time>2015-03-13T10:19:06Z</time>
      </trkpt>
      <trkpt lat="47.331076841801405" lon="11.266949130222201">
        <ele>1460.789999999999964</ele>
        <time>2015-03-13T10:19:32Z</time>
      </trkpt>
      <trkpt lat="47.331081703305244" lon="11.266964888200164">
        <ele>1459.440000000000055</ele>
        <time>2015-03-13T10:19:54Z</time>
      </trkpt>
      <trkpt lat="47.331084385514259" lon="11.266977712512016">
        <ele>1459.410000000000082</ele>
        <time>2015-03-13T10:20:16Z</time>
      </trkpt>
      <trkpt lat="47.331078685820103" lon="11.266965055838227">
        <ele>1458.980000000000018</ele>
        <time>2015-03-13T10:20:36Z</time>
      </trkpt>
      <trkpt lat="47.331014312803745" lon="11.266954410821199">
        <ele>1460.269999999999982</ele>
        <time>2015-03-13T10:20:57Z</time>
      </trkpt>
      <trkpt lat="47.330976175144315" lon="11.267015766352415">
        <ele>1461.630000000000109</ele>
        <time>2015-03-13T10:21:04Z</time>
      </trkpt>
      <trkpt lat="47.330861929804087" lon="11.267199162393808">
        <ele>1463.369999999999891</ele>
        <time>2015-03-13T10:21:22Z</time>
      </trkpt>
      <trkpt lat="47.330729831010103" lon="11.267399322241545">
        <ele>1465.059999999999945</ele>
        <time>2015-03-13T10:21:41Z</time>
      </trkpt>
      <trkpt lat="47.330619608983397" lon="11.267558913677931">
        <ele>1468.230000000000018</ele>
        <time>2015-03-13T10:21:57Z</time>
      </trkpt>
      <trkpt lat="47.330515002831817" lon="11.267722276970744">
        <ele>1470.259999999999991</ele>
        <time>2015-03-13T10:22:14Z</time>
      </trkpt>
      <trkpt lat="47.330417186021805" lon="11.267874324694276">
        <ele>1473.210000000000036</ele>
        <time>2015-03-13T10:22:30Z</time>
      </trkpt>
      <trkpt lat="47.330306880176067" lon="11.268013129010797">
        <ele>1475.880000000000109</ele>
        <time>2015-03-13T10:22:47Z</time>
      </trkpt>
      <trkpt lat="47.330150306224823" lon="11.268089739605784">
        <ele>1477.279999999999973</ele>
        <time>2015-03-13T10:23:03Z</time>
      </trkpt>
      <trkpt lat="47.330063050612807" lon="11.268126955255866">
        <ele>1479.1099999999999</ele>
        <time>2015-03-13T10:23:11Z</time>
      </trkpt>
      <trkpt lat="47.329907901585102" lon="11.268200045451522">
        <ele>1480.210000000000036</ele>
        <time>2015-03-13T10:23:27Z</time>
      </trkpt>
      <trkpt lat="47.329802708700299" lon="11.268293671309948">
        <ele>1482.25</ele>
        <time>2015-03-13T10:23:41Z</time>
      </trkpt>
      <trkpt lat="47.329661138355732" lon="11.268384279683232">
        <ele>1484.789999999999964</ele>
        <time>2015-03-13T10:23:56Z</time>
      </trkpt>
      <trkpt lat="47.329624593257904" lon="11.268414789810777">
        <ele>1484.970000000000027</ele>
        <time>2015-03-13T10:24:06Z</time>
      </trkpt>
      <trkpt lat="47.329567428678274" lon="11.268486957997084">
        <ele>1486.269999999999982</ele>
        <time>2015-03-13T10:24:14Z</time>
      </trkpt>
      <trkpt lat="47.32952568680048" lon="11.268534483388066">
        <ele>1487.559999999999945</ele>
        <time>2015-03-13T10:24:20Z</time>
      </trkpt>
      <trkpt lat="47.329508336260915" lon="11.268543284386396">
        <ele>1488.420000000000073</ele>
        <time>2015-03-13T10:24:22Z</time>
      </trkpt>
      <trkpt lat="47.329456452280283" lon="11.268585277721286">
        <ele>1488.720000000000027</ele>
        <time>2015-03-13T10:24:28Z</time>
      </trkpt>
      <trkpt lat="47.32934245839715" lon="11.268694493919611">
        <ele>1491.690000000000055</ele>
        <time>2015-03-13T10:24:43Z</time>
      </trkpt>
      <trkpt lat="47.329225111752748" lon="11.268829694017768">
        <ele>1494.029999999999973</ele>
        <time>2015-03-13T10:24:59Z</time>
      </trkpt>
      <trkpt lat="47.32913232408464" lon="11.268949639052153">
        <ele>1496</ele>
        <time>2015-03-13T10:25:12Z</time>
      </trkpt>
      <trkpt lat="47.329023946076632" lon="11.269080312922597">
        <ele>1499.420000000000073</ele>
        <time>2015-03-13T10:25:27Z</time>
      </trkpt>
      <trkpt lat="47.328910119831562" lon="11.269220123067498">
        <ele>1501.660000000000082</ele>
        <time>2015-03-13T10:25:43Z</time>
      </trkpt>
      <trkpt lat="47.328845243901014" lon="11.269290866330266">
        <ele>1503.130000000000109</ele>
        <time>2015-03-13T10:25:51Z</time>
      </trkpt>
      <trkpt lat="47.328721107915044" lon="11.269423719495535">
        <ele>1504.619999999999891</ele>
        <time>2015-03-13T10:26:06Z</time>
      </trkpt>
      <trkpt lat="47.328602420166135" lon="11.269486416131258">
        <ele>1506.549999999999955</ele>
        <time>2015-03-13T10:26:19Z</time>
      </trkpt>
      <trkpt lat="47.32856503687799" lon="11.269510891288519">
        <ele>1507.039999999999964</ele>
        <time>2015-03-13T10:26:27Z</time>
      </trkpt>
      <trkpt lat="47.328549278900027" lon="11.269526397809386">
        <ele>1507.420000000000073</ele>
        <time>2015-03-13T10:26:29Z</time>
      </trkpt>
      <trkpt lat="47.328401086851954" lon="11.269694119691849">
        <ele>1509.289999999999964</ele>
        <time>2015-03-13T10:26:46Z</time>
      </trkpt>
      <trkpt lat="47.328281393274665" lon="11.269821189343929">
        <ele>1511.369999999999891</ele>
        <time>2015-03-13T10:27:01Z</time>
      </trkpt>
      <trkpt lat="47.328162370249629" lon="11.269889418035746">
        <ele>1513.619999999999891</ele>
        <time>2015-03-13T10:27:14Z</time>
      </trkpt>
      <trkpt lat="47.328095231205225" lon="11.269938116893172">
        <ele>1516.75</ele>
        <time>2015-03-13T10:27:23Z</time>
      </trkpt>
      <trkpt lat="47.328049801290035" lon="11.26999469473958">
        <ele>1517.039999999999964</ele>
        <time>2015-03-13T10:27:30Z</time>
      </trkpt>
      <trkpt lat="47.328013256192207" lon="11.27004942856729">
        <ele>1517.8599999999999</ele>
        <time>2015-03-13T10:27:49Z</time>
      </trkpt>
      <trkpt lat="47.328015854582191" lon="11.2700523622334">
        <ele>1512.3900000000001</ele>
        <time>2015-03-13T10:27:59Z</time>
      </trkpt>
      <trkpt lat="47.328016106039286" lon="11.270051524043083">
        <ele>1518.059999999999945</ele>
        <time>2015-03-13T10:28:00Z</time>
      </trkpt>
      <trkpt lat="47.328016441315413" lon="11.270048674196005">
        <ele>1518.980000000000018</ele>
        <time>2015-03-13T10:28:02Z</time>
      </trkpt>
      <trkpt lat="47.328013004735112" lon="11.270049260929227">
        <ele>1517.720000000000027</ele>
        <time>2015-03-13T10:28:33Z</time>
      </trkpt>
      <trkpt lat="47.327918289229274" lon="11.270185383036733">
        <ele>1519.230000000000018</ele>
        <time>2015-03-13T10:28:46Z</time>
      </trkpt>
      <trkpt lat="47.327752662822604" lon="11.270302981138229">
        <ele>1520.170000000000073</ele>
        <time>2015-03-13T10:29:04Z</time>
      </trkpt>
      <trkpt lat="47.327728271484375" lon="11.270302981138229">
        <ele>1522.6400000000001</ele>
        <time>2015-03-13T10:29:06Z</time>
      </trkpt>
      <trkpt lat="47.327717542648315" lon="11.270303316414356">
        <ele>1519.430000000000064</ele>
        <time>2015-03-13T10:29:07Z</time>
      </trkpt>
      <trkpt lat="47.32770019210875" lon="11.270293761044741">
        <ele>1520.430000000000064</ele>
        <time>2015-03-13T10:29:09Z</time>
      </trkpt>
      <trkpt lat="47.327573373913765" lon="11.270105503499508">
        <ele>1520.789999999999964</ele>
        <time>2015-03-13T10:29:27Z</time>
      </trkpt>
      <trkpt lat="47.327452087774873" lon="11.270043225958943">
        <ele>1522.160000000000082</ele>
        <time>2015-03-13T10:29:41Z</time>
      </trkpt>
      <trkpt lat="47.327339351177216" lon="11.270038783550262">
        <ele>1524.75</ele>
        <time>2015-03-13T10:29:53Z</time>
      </trkpt>
      <trkpt lat="47.327204067260027" lon="11.27003425732255">
        <ele>1526.019999999999982</ele>
        <time>2015-03-13T10:30:06Z</time>
      </trkpt>
      <trkpt lat="47.327063251286745" lon="11.270045740529895">
        <ele>1527.519999999999982</ele>
        <time>2015-03-13T10:30:19Z</time>
      </trkpt>
      <trkpt lat="47.326943138614297" lon="11.270086141303182">
        <ele>1527.970000000000027</ele>
        <time>2015-03-13T10:30:31Z</time>
      </trkpt>
      <trkpt lat="47.326863929629326" lon="11.270148670300841">
        <ele>1531.3599999999999</ele>
        <time>2015-03-13T10:30:40Z</time>
      </trkpt>
      <trkpt lat="47.326718419790268" lon="11.270227208733559">
        <ele>1533.940000000000055</ele>
        <time>2015-03-13T10:30:57Z</time>
      </trkpt>
      <trkpt lat="47.326662596315145" lon="11.270215138792992">
        <ele>1535.069999999999936</ele>
        <time>2015-03-13T10:31:03Z</time>
      </trkpt>
      <trkpt lat="47.326574251055717" lon="11.270186472684145">
        <ele>1537.450000000000045</ele>
        <time>2015-03-13T10:31:12Z</time>
      </trkpt>
      <trkpt lat="47.326421532779932" lon="11.270272890105844">
        <ele>1538.240000000000009</ele>
        <time>2015-03-13T10:31:27Z</time>
      </trkpt>
      <trkpt lat="47.326288092881441" lon="11.270387889817357">
        <ele>1539.75</ele>
        <time>2015-03-13T10:31:42Z</time>
      </trkpt>
      <trkpt lat="47.32616345398128" lon="11.270483275875449">
        <ele>1542.490000000000009</ele>
        <time>2015-03-13T10:31:56Z</time>
      </trkpt>
      <trkpt lat="47.326035462319851" lon="11.27057371661067">
        <ele>1544.690000000000055</ele>
        <time>2015-03-13T10:32:09Z</time>
      </trkpt>
      <trkpt lat="47.325909901410341" lon="11.27067731693387">
        <ele>1545.430000000000064</ele>
        <time>2015-03-13T10:32:23Z</time>
      </trkpt>
      <trkpt lat="47.325795320793986" lon="11.270760465413332">
        <ele>1546.910000000000082</ele>
        <time>2015-03-13T10:32:35Z</time>
      </trkpt>
      <trkpt lat="47.325739078223705" lon="11.270792819559574">
        <ele>1547.690000000000055</ele>
        <time>2015-03-13T10:32:42Z</time>
      </trkpt>
      <trkpt lat="47.325723487883806" lon="11.270803799852729">
        <ele>1548.869999999999891</ele>
        <time>2015-03-13T10:32:44Z</time>
      </trkpt>
      <trkpt lat="47.325600693002343" lon="11.27090010792017">
        <ele>1551.240000000000009</ele>
        <time>2015-03-13T10:32:59Z</time>
      </trkpt>
      <trkpt lat="47.325534056872129" lon="11.270956937223673">
        <ele>1553.089999999999918</ele>
        <time>2015-03-13T10:33:08Z</time>
      </trkpt>
      <trkpt lat="47.325513856485486" lon="11.270965822041035">
        <ele>1556.130000000000109</ele>
        <time>2015-03-13T10:33:23Z</time>
      </trkpt>
      <trkpt lat="47.325492901727557" lon="11.270977724343538">
        <ele>1555.059999999999945</ele>
        <time>2015-03-13T10:33:34Z</time>
      </trkpt>
      <trkpt lat="47.325402963906527" lon="11.270974706858397">
        <ele>1557.809999999999945</ele>
        <time>2015-03-13T10:33:47Z</time>
      </trkpt>
      <trkpt lat="47.325316127389669" lon="11.270979987457395">
        <ele>1561.3599999999999</ele>
        <time>2015-03-13T10:34:03Z</time>
      </trkpt>
      <trkpt lat="47.325269524008036" lon="11.271080318838358">
        <ele>1563.160000000000082</ele>
        <time>2015-03-13T10:34:14Z</time>
      </trkpt>
      <trkpt lat="47.325238008052111" lon="11.271106889471412">
        <ele>1566.849999999999909</ele>
        <time>2015-03-13T10:34:26Z</time>
      </trkpt>
      <trkpt lat="47.325235158205032" lon="11.271104291081429">
        <ele>1566.150000000000091</ele>
        <time>2015-03-13T10:34:27Z</time>
      </trkpt>
      <trkpt lat="47.325203223153949" lon="11.27105500549078">
        <ele>1567.789999999999964</ele>
        <time>2015-03-13T10:34:35Z</time>
      </trkpt>
      <trkpt lat="47.325138011947274" lon="11.270967246964574">
        <ele>1569.690000000000055</ele>
        <time>2015-03-13T10:34:46Z</time>
      </trkpt>
      <trkpt lat="47.325107166543603" lon="11.270918799564242">
        <ele>1570.960000000000036</ele>
        <time>2015-03-13T10:34:53Z</time>
      </trkpt>
      <trkpt lat="47.325079757720232" lon="11.270883847028017">
        <ele>1572.549999999999955</ele>
        <time>2015-03-13T10:35:00Z</time>
      </trkpt>
      <trkpt lat="47.325052013620734" lon="11.270839339122176">
        <ele>1575.599999999999909</ele>
        <time>2015-03-13T10:35:15Z</time>
      </trkpt>
      <trkpt lat="47.325049415230751" lon="11.270836656913161">
        <ele>1573.579999999999927</ele>
        <time>2015-03-13T10:35:18Z</time>
      </trkpt>
      <trkpt lat="47.324992166832089" lon="11.270893486216664">
        <ele>1575.3599999999999</ele>
        <time>2015-03-13T10:35:35Z</time>
      </trkpt>
      <trkpt lat="47.324990658089519" lon="11.270905556157231">
        <ele>1576.5</ele>
        <time>2015-03-13T10:35:37Z</time>
      </trkpt>
      <trkpt lat="47.324984036386013" lon="11.270944699645042">
        <ele>1577.6400000000001</ele>
        <time>2015-03-13T10:35:51Z</time>
      </trkpt>
      <trkpt lat="47.324954867362976" lon="11.271011251956224">
        <ele>1579.369999999999891</ele>
        <time>2015-03-13T10:36:05Z</time>
      </trkpt>
      <trkpt lat="47.32492133975029" lon="11.271042181178927">
        <ele>1582.119999999999891</ele>
        <time>2015-03-13T10:36:12Z</time>
      </trkpt>
      <trkpt lat="47.324925614520907" lon="11.271050730720162">
        <ele>1582.900000000000091</ele>
        <time>2015-03-13T10:36:22Z</time>
      </trkpt>
      <trkpt lat="47.324917484074831" lon="11.271026004105806">
        <ele>1582.1400000000001</ele>
        <time>2015-03-13T10:36:36Z</time>
      </trkpt>
      <trkpt lat="47.324918238446116" lon="11.271033547818661">
        <ele>1582.220000000000027</ele>
        <time>2015-03-13T10:36:52Z</time>
      </trkpt>
      <trkpt lat="47.324924608692527" lon="11.271027931943536">
        <ele>1581.930000000000064</ele>
        <time>2015-03-13T10:37:04Z</time>
      </trkpt>
      <trkpt lat="47.324917651712894" lon="11.271023321896791">
        <ele>1578.730000000000018</ele>
        <time>2015-03-13T10:37:11Z</time>
      </trkpt>
      <trkpt lat="47.324916645884514" lon="11.271020472049713">
        <ele>1582.039999999999964</ele>
        <time>2015-03-13T10:37:12Z</time>
      </trkpt>
      <trkpt lat="47.324915556237102" lon="11.271009324118495">
        <ele>1583.930000000000064</ele>
        <time>2015-03-13T10:37:14Z</time>
      </trkpt>
      <trkpt lat="47.324896026402712" lon="11.270972946658731">
        <ele>1583.660000000000082</ele>
        <time>2015-03-13T10:37:33Z</time>
      </trkpt>
      <trkpt lat="47.324869958683848" lon="11.27087663859129">
        <ele>1586.549999999999955</ele>
        <time>2015-03-13T10:37:45Z</time>
      </trkpt>
      <trkpt lat="47.324831401929259" lon="11.270773289725184">
        <ele>1589.230000000000018</ele>
        <time>2015-03-13T10:37:58Z</time>
      </trkpt>
      <trkpt lat="47.324797036126256" lon="11.27070028334856">
        <ele>1590.279999999999973</ele>
        <time>2015-03-13T10:38:09Z</time>
      </trkpt>
      <trkpt lat="47.324776584282517" lon="11.270654601976275">
        <ele>1592.440000000000055</ele>
        <time>2015-03-13T10:38:21Z</time>
      </trkpt>
      <trkpt lat="47.32475571334362" lon="11.270686537027359">
        <ele>1592.619999999999891</ele>
        <time>2015-03-13T10:38:38Z</time>
      </trkpt>
      <trkpt lat="47.324727633967996" lon="11.270798938348889">
        <ele>1596.299999999999955</ele>
        <time>2015-03-13T10:38:52Z</time>
      </trkpt>
      <trkpt lat="47.324697123840451" lon="11.270883763208985">
        <ele>1596.990000000000009</ele>
        <time>2015-03-13T10:39:05Z</time>
      </trkpt>
      <trkpt lat="47.324704919010401" lon="11.270874962210655">
        <ele>1600.25</ele>
        <time>2015-03-13T10:39:15Z</time>
      </trkpt>
      <trkpt lat="47.3247014824301" lon="11.27086934633553">
        <ele>1596.720000000000027</ele>
        <time>2015-03-13T10:39:16Z</time>
      </trkpt>
      <trkpt lat="47.324699135497212" lon="11.270862808451056">
        <ele>1599.519999999999982</ele>
        <time>2015-03-13T10:39:17Z</time>
      </trkpt>
      <trkpt lat="47.324676001444459" lon="11.27077748067677">
        <ele>1600.6099999999999</ele>
        <time>2015-03-13T10:39:28Z</time>
      </trkpt>
      <trkpt lat="47.324647922068834" lon="11.270691733807325">
        <ele>1602.5</ele>
        <time>2015-03-13T10:39:39Z</time>
      </trkpt>
      <trkpt lat="47.324614562094212" lon="11.270588301122189">
        <ele>1604.75</ele>
        <time>2015-03-13T10:39:52Z</time>
      </trkpt>
      <trkpt lat="47.324612885713577" lon="11.270597856491804">
        <ele>1603.8900000000001</ele>
        <time>2015-03-13T10:39:59Z</time>
      </trkpt>
      <trkpt lat="47.324568713083863" lon="11.270680837333202">
        <ele>1607.339999999999918</ele>
        <time>2015-03-13T10:40:16Z</time>
      </trkpt>
      <trkpt lat="47.324536694213748" lon="11.27077647484839">
        <ele>1610.720000000000027</ele>
        <time>2015-03-13T10:40:27Z</time>
      </trkpt>
      <trkpt lat="47.324541220441461" lon="11.270811930298805">
        <ele>1611.289999999999964</ele>
        <time>2015-03-13T10:40:46Z</time>
      </trkpt>
      <trkpt lat="47.324515990912914" lon="11.270741187036037">
        <ele>1612.440000000000055</ele>
        <time>2015-03-13T10:40:59Z</time>
      </trkpt>
      <trkpt lat="47.324484726414084" lon="11.270652841776609">
        <ele>1615.630000000000109</ele>
        <time>2015-03-13T10:41:11Z</time>
      </trkpt>
      <trkpt lat="47.32448061928153" lon="11.27058008685708">
        <ele>1616.049999999999955</ele>
        <time>2015-03-13T10:41:25Z</time>
      </trkpt>
      <trkpt lat="47.324468549340963" lon="11.270614871755242">
        <ele>1617.410000000000082</ele>
        <time>2015-03-13T10:41:37Z</time>
      </trkpt>
      <trkpt lat="47.324410965666175" lon="11.270692991092801">
        <ele>1620.240000000000009</ele>
        <time>2015-03-13T10:41:50Z</time>
      </trkpt>
      <trkpt lat="47.324376096948981" lon="11.27079751342535">
        <ele>1623.769999999999982</ele>
        <time>2015-03-13T10:42:04Z</time>
      </trkpt>
      <trkpt lat="47.324302336201072" lon="11.270814025774598">
        <ele>1623.180000000000064</ele>
        <time>2015-03-13T10:42:18Z</time>
      </trkpt>
      <trkpt lat="47.324307197704911" lon="11.270814193412662">
        <ele>1626.349999999999909</ele>
        <time>2015-03-13T10:42:19Z</time>
      </trkpt>
      <trkpt lat="47.324306862428784" lon="11.270813858136535">
        <ele>1626.200000000000045</ele>
        <time>2015-03-13T10:42:20Z</time>
      </trkpt>
      <trkpt lat="47.32430862262845" lon="11.270817378535867">
        <ele>1623.6099999999999</ele>
        <time>2015-03-13T10:42:23Z</time>
      </trkpt>
      <trkpt lat="47.324310969561338" lon="11.270820060744882">
        <ele>1628.430000000000064</ele>
        <time>2015-03-13T10:42:24Z</time>
      </trkpt>
      <trkpt lat="47.324315160512924" lon="11.270818635821342">
        <ele>1622.980000000000018</ele>
        <time>2015-03-13T10:42:25Z</time>
      </trkpt>
      <trkpt lat="47.324311137199402" lon="11.270775301381946">
        <ele>1621.799999999999955</ele>
        <time>2015-03-13T10:42:47Z</time>
      </trkpt>
      <trkpt lat="47.324307281523943" lon="11.270797681063414">
        <ele>1622.490000000000009</ele>
        <time>2015-03-13T10:43:14Z</time>
      </trkpt>
      <trkpt lat="47.324312226846814" lon="11.270806146785617">
        <ele>1620.829999999999927</ele>
        <time>2015-03-13T10:43:18Z</time>
      </trkpt>
      <trkpt lat="47.324323710054159" lon="11.27081704325974">
        <ele>1624.3900000000001</ele>
        <time>2015-03-13T10:43:21Z</time>
      </trkpt>
      <trkpt lat="47.324333600699902" lon="11.270834309980273">
        <ele>1620.329999999999927</ele>
        <time>2015-03-13T10:43:29Z</time>
      </trkpt>
      <trkpt lat="47.324321530759335" lon="11.270771026611328">
        <ele>1622.700000000000045</ele>
        <time>2015-03-13T10:43:46Z</time>
      </trkpt>
      <trkpt lat="47.324316501617432" lon="11.270785694941878">
        <ele>1622.410000000000082</ele>
        <time>2015-03-13T10:44:01Z</time>
      </trkpt>
      <trkpt lat="47.324304766952991" lon="11.270789131522179">
        <ele>1622.829999999999927</ele>
        <time>2015-03-13T10:44:16Z</time>
      </trkpt>
      <trkpt lat="47.324294038116932" lon="11.27074621617794">
        <ele>1624.369999999999891</ele>
        <time>2015-03-13T10:44:23Z</time>
      </trkpt>
      <trkpt lat="47.324294121935964" lon="11.270756274461746">
        <ele>1622.740000000000009</ele>
        <time>2015-03-13T10:44:35Z</time>
      </trkpt>
      <trkpt lat="47.324295211583376" lon="11.27077211625874">
        <ele>1625.329999999999927</ele>
        <time>2015-03-13T10:44:38Z</time>
      </trkpt>
      <trkpt lat="47.324308454990387" lon="11.270794244483113">
        <ele>1624.049999999999955</ele>
        <time>2015-03-13T10:44:57Z</time>
      </trkpt>
      <trkpt lat="47.324249027296901" lon="11.270780749619007">
        <ele>1625.170000000000073</ele>
        <time>2015-03-13T10:45:12Z</time>
      </trkpt>
      <trkpt lat="47.324155820533633" lon="11.270797178149223">
        <ele>1628.180000000000064</ele>
        <time>2015-03-13T10:45:25Z</time>
      </trkpt>
      <trkpt lat="47.324053812772036" lon="11.27084587700665">
        <ele>1628.539999999999964</ele>
        <time>2015-03-13T10:45:36Z</time>
      </trkpt>
      <trkpt lat="47.324036126956344" lon="11.270854091271758">
        <ele>1630.210000000000036</ele>
        <time>2015-03-13T10:45:38Z</time>
      </trkpt>
      <trkpt lat="47.32397586107254" lon="11.270877979695797">
        <ele>1631.6099999999999</ele>
        <time>2015-03-13T10:45:44Z</time>
      </trkpt>
      <trkpt lat="47.323932275176048" lon="11.270891223102808">
        <ele>1632.150000000000091</ele>
        <time>2015-03-13T10:45:58Z</time>
      </trkpt>
      <trkpt lat="47.32387226074934" lon="11.270922822877765">
        <ele>1634.75</ele>
        <time>2015-03-13T10:46:19Z</time>
      </trkpt>
      <trkpt lat="47.323832279071212" lon="11.270975712686777">
        <ele>1634.710000000000036</ele>
        <time>2015-03-13T10:46:27Z</time>
      </trkpt>
      <trkpt lat="47.323805037885904" lon="11.270989878103137">
        <ele>1636.819999999999936</ele>
        <time>2015-03-13T10:46:30Z</time>
      </trkpt>
      <trkpt lat="47.323784334585071" lon="11.270995493978262">
        <ele>1636.740000000000009</ele>
        <time>2015-03-13T10:46:33Z</time>
      </trkpt>
      <trkpt lat="47.323709148913622" lon="11.271020388230681">
        <ele>1640.3599999999999</ele>
        <time>2015-03-13T10:46:46Z</time>
      </trkpt>
      <trkpt lat="47.323700683191419" lon="11.271018292754889">
        <ele>1641.200000000000045</ele>
        <time>2015-03-13T10:46:47Z</time>
      </trkpt>
      <trkpt lat="47.323592808097601" lon="11.271053412929177">
        <ele>1644.3900000000001</ele>
        <time>2015-03-13T10:47:02Z</time>
      </trkpt>
      <trkpt lat="47.323498511686921" lon="11.271084845066071">
        <ele>1645.789999999999964</ele>
        <time>2015-03-13T10:47:14Z</time>
      </trkpt>
      <trkpt lat="47.323451405391097" lon="11.271105716004968">
        <ele>1648.549999999999955</ele>
        <time>2015-03-13T10:47:21Z</time>
      </trkpt>
      <trkpt lat="47.323407651856542" lon="11.27111024223268">
        <ele>1648.960000000000036</ele>
        <time>2015-03-13T10:47:27Z</time>
      </trkpt>
      <trkpt lat="47.323309751227498" lon="11.27113220281899">
        <ele>1652.049999999999955</ele>
        <time>2015-03-13T10:47:41Z</time>
      </trkpt>
      <trkpt lat="47.323257867246866" lon="11.271137651056051">
        <ele>1654.480000000000018</ele>
        <time>2015-03-13T10:47:49Z</time>
      </trkpt>
      <trkpt lat="47.323198523372412" lon="11.271136309951544">
        <ele>1655.190000000000055</ele>
        <time>2015-03-13T10:47:58Z</time>
      </trkpt>
      <trkpt lat="47.323114452883601" lon="11.271136645227671">
        <ele>1659.25</ele>
        <time>2015-03-13T10:48:09Z</time>
      </trkpt>
      <trkpt lat="47.323043206706643" lon="11.271209735423326">
        <ele>1661.269999999999982</ele>
        <time>2015-03-13T10:48:22Z</time>
      </trkpt>
      <trkpt lat="47.323009259998798" lon="11.271244352683425">
        <ele>1663.1099999999999</ele>
        <time>2015-03-13T10:48:40Z</time>
      </trkpt>
      <trkpt lat="47.322972463443875" lon="11.271285591647029">
        <ele>1665.240000000000009</ele>
        <time>2015-03-13T10:48:50Z</time>
      </trkpt>
      <trkpt lat="47.322924602776766" lon="11.271400507539511">
        <ele>1668.319999999999936</ele>
        <time>2015-03-13T10:49:03Z</time>
      </trkpt>
      <trkpt lat="47.322825947776437" lon="11.271425988525152">
        <ele>1671.799999999999955</ele>
        <time>2015-03-13T10:49:18Z</time>
      </trkpt>
      <trkpt lat="47.322718994691968" lon="11.27140729688108">
        <ele>1675.190000000000055</ele>
        <time>2015-03-13T10:49:33Z</time>
      </trkpt>
      <trkpt lat="47.322692424058914" lon="11.271407380700111">
        <ele>1675.769999999999982</ele>
        <time>2015-03-13T10:49:37Z</time>
      </trkpt>
      <trkpt lat="47.322652526199818" lon="11.271381312981248">
        <ele>1678.119999999999891</ele>
        <time>2015-03-13T10:49:46Z</time>
      </trkpt>
      <trkpt lat="47.322598043829203" lon="11.27126706764102">
        <ele>1680.720000000000027</ele>
        <time>2015-03-13T10:49:59Z</time>
      </trkpt>
      <trkpt lat="47.322583459317684" lon="11.271251644939184">
        <ele>1682.1400000000001</ele>
        <time>2015-03-13T10:50:02Z</time>
      </trkpt>
      <trkpt lat="47.322532162070274" lon="11.271297074854374">
        <ele>1685.6400000000001</ele>
        <time>2015-03-13T10:50:14Z</time>
      </trkpt>
      <trkpt lat="47.322431495413184" lon="11.271335715427995">
        <ele>1687.269999999999982</ele>
        <time>2015-03-13T10:50:26Z</time>
      </trkpt>
      <trkpt lat="47.322336696088314" lon="11.271342001855373">
        <ele>1689.650000000000091</ele>
        <time>2015-03-13T10:50:38Z</time>
      </trkpt>
      <trkpt lat="47.32223141938448" lon="11.271361699327826">
        <ele>1693.329999999999927</ele>
        <time>2015-03-13T10:50:52Z</time>
      </trkpt>
      <trkpt lat="47.322193868458271" lon="11.271378379315138">
        <ele>1693.920000000000073</ele>
        <time>2015-03-13T10:50:57Z</time>
      </trkpt>
      <trkpt lat="47.322104517370462" lon="11.271395143121481">
        <ele>1696.930000000000064</ele>
        <time>2015-03-13T10:51:10Z</time>
      </trkpt>
      <trkpt lat="47.322102254256606" lon="11.271403273567557">
        <ele>1697.170000000000073</ele>
        <time>2015-03-13T10:51:14Z</time>
      </trkpt>
      <trkpt lat="47.322123544290662" lon="11.271407883614302">
        <ele>1695.8599999999999</ele>
        <time>2015-03-13T10:51:37Z</time>
      </trkpt>
      <trkpt lat="47.322120610624552" lon="11.271408051252365">
        <ele>1696.490000000000009</ele>
        <time>2015-03-13T10:51:58Z</time>
      </trkpt>
      <trkpt lat="47.322116922587156" lon="11.271396735683084">
        <ele>1695.869999999999891</ele>
        <time>2015-03-13T10:52:24Z</time>
      </trkpt>
      <trkpt lat="47.322115581482649" lon="11.271394304931164">
        <ele>1696.299999999999955</ele>
        <time>2015-03-13T10:52:29Z</time>
      </trkpt>
      <trkpt lat="47.32209806330502" lon="11.271365052089095">
        <ele>1691.569999999999936</ele>
        <time>2015-03-13T10:52:43Z</time>
      </trkpt>
      <trkpt lat="47.322096219286323" lon="11.271363710984588">
        <ele>1697.480000000000018</ele>
        <time>2015-03-13T10:52:44Z</time>
      </trkpt>
      <trkpt lat="47.322090687230229" lon="11.27137703821063">
        <ele>1696.25</ele>
        <time>2015-03-13T10:53:00Z</time>
      </trkpt>
      <trkpt lat="47.322053471580148" lon="11.271392293274403">
        <ele>1697.420000000000073</ele>
        <time>2015-03-13T10:53:05Z</time>
      </trkpt>
      <trkpt lat="47.321989350020885" lon="11.271409979090095">
        <ele>1699.519999999999982</ele>
        <time>2015-03-13T10:53:13Z</time>
      </trkpt>
      <trkpt lat="47.321960600093007" lon="11.271430011838675">
        <ele>1699.740000000000009</ele>
        <time>2015-03-13T10:53:17Z</time>
      </trkpt>
      <trkpt lat="47.321919864043593" lon="11.27148013561964">
        <ele>1701.400000000000091</ele>
        <time>2015-03-13T10:53:33Z</time>
      </trkpt>
      <trkpt lat="47.321916846558452" lon="11.271484913304448">
        <ele>1699.849999999999909</ele>
        <time>2015-03-13T10:53:35Z</time>
      </trkpt>
      <trkpt lat="47.321925312280655" lon="11.27148449420929">
        <ele>1702.900000000000091</ele>
        <time>2015-03-13T10:53:41Z</time>
      </trkpt>
      <trkpt lat="47.321923635900021" lon="11.271487846970558">
        <ele>1702.3599999999999</ele>
        <time>2015-03-13T10:53:42Z</time>
      </trkpt>
      <trkpt lat="47.321874769404531" lon="11.271523470059037">
        <ele>1702.180000000000064</ele>
        <time>2015-03-13T10:53:49Z</time>
      </trkpt>
      <trkpt lat="47.321831686422229" lon="11.27156755886972">
        <ele>1703.569999999999936</ele>
        <time>2015-03-13T10:54:01Z</time>
      </trkpt>
      <trkpt lat="47.321759015321732" lon="11.271652802824974">
        <ele>1706.970000000000027</ele>
        <time>2015-03-13T10:54:14Z</time>
      </trkpt>
      <trkpt lat="47.321718949824572" lon="11.271780291572213">
        <ele>1710.210000000000036</ele>
        <time>2015-03-13T10:54:30Z</time>
      </trkpt>
      <trkpt lat="47.3216587677598" lon="11.271870983764529">
        <ele>1713.3900000000001</ele>
        <time>2015-03-13T10:54:42Z</time>
      </trkpt>
      <trkpt lat="47.32162993401289" lon="11.27192722633481">
        <ele>1713.8900000000001</ele>
        <time>2015-03-13T10:54:49Z</time>
      </trkpt>
      <trkpt lat="47.321581989526749" lon="11.271965112537146">
        <ele>1717.220000000000027</ele>
        <time>2015-03-13T10:54:57Z</time>
      </trkpt>
      <trkpt lat="47.32148190960288" lon="11.272011548280716">
        <ele>1719.519999999999982</ele>
        <time>2015-03-13T10:55:11Z</time>
      </trkpt>
      <trkpt lat="47.321373280137777" lon="11.272054212167859">
        <ele>1723.579999999999927</ele>
        <time>2015-03-13T10:55:27Z</time>
      </trkpt>
      <trkpt lat="47.321329107508063" lon="11.272083967924118">
        <ele>1725.5</ele>
        <time>2015-03-13T10:55:46Z</time>
      </trkpt>
      <trkpt lat="47.321266578510404" lon="11.272111795842648">
        <ele>1726.8900000000001</ele>
        <time>2015-03-13T10:56:00Z</time>
      </trkpt>
      <trkpt lat="47.321207318454981" lon="11.272149765864015">
        <ele>1729.950000000000045</ele>
        <time>2015-03-13T10:56:10Z</time>
      </trkpt>
      <trkpt lat="47.321127187460661" lon="11.272195195779204">
        <ele>1732.740000000000009</ele>
        <time>2015-03-13T10:56:26Z</time>
      </trkpt>
      <trkpt lat="47.321120230481029" lon="11.272199302911758">
        <ele>1732.799999999999955</ele>
        <time>2015-03-13T10:56:27Z</time>
      </trkpt>
      <trkpt lat="47.321080416440964" lon="11.27222528681159">
        <ele>1734.950000000000045</ele>
        <time>2015-03-13T10:56:44Z</time>
      </trkpt>
      <trkpt lat="47.321081925183535" lon="11.27223014831543">
        <ele>1731.769999999999982</ele>
        <time>2015-03-13T10:57:00Z</time>
      </trkpt>
      <trkpt lat="47.321077734231949" lon="11.272221514955163">
        <ele>1732.240000000000009</ele>
        <time>2015-03-13T10:57:30Z</time>
      </trkpt>
      <trkpt lat="47.321080500259995" lon="11.272228052839637">
        <ele>1732.539999999999964</ele>
        <time>2015-03-13T10:58:02Z</time>
      </trkpt>
      <trkpt lat="47.32109634205699" lon="11.272234339267015">
        <ele>1733.069999999999936</ele>
        <time>2015-03-13T10:58:36Z</time>
      </trkpt>
      <trkpt lat="47.321083601564169" lon="11.27223601564765">
        <ele>1733.829999999999927</ele>
        <time>2015-03-13T10:58:54Z</time>
      </trkpt>
      <trkpt lat="47.321067256852984" lon="11.272248756140471">
        <ele>1729.849999999999909</ele>
        <time>2015-03-13T10:59:11Z</time>
      </trkpt>
      <trkpt lat="47.321065412834287" lon="11.272251773625612">
        <ele>1735.430000000000064</ele>
        <time>2015-03-13T10:59:12Z</time>
      </trkpt>
      <trkpt lat="47.321066502481699" lon="11.272254539653659">
        <ele>1735.170000000000073</ele>
        <time>2015-03-13T10:59:13Z</time>
      </trkpt>
      <trkpt lat="47.32101671397686" lon="11.272272476926446">
        <ele>1735.039999999999964</ele>
        <time>2015-03-13T10:59:37Z</time>
      </trkpt>
      <trkpt lat="47.32096147723496" lon="11.272292677313089">
        <ele>1738.240000000000009</ele>
        <time>2015-03-13T10:59:44Z</time>
      </trkpt>
      <trkpt lat="47.320891655981541" lon="11.272318577393889">
        <ele>1741.619999999999891</ele>
        <time>2015-03-13T10:59:54Z</time>
      </trkpt>
      <trkpt lat="47.320849411189556" lon="11.272343723103404">
        <ele>1742.279999999999973</ele>
        <time>2015-03-13T11:00:01Z</time>
      </trkpt>
      <trkpt lat="47.320814961567521" lon="11.272364594042301">
        <ele>1743.089999999999918</ele>
        <time>2015-03-13T11:00:21Z</time>
      </trkpt>
      <trkpt lat="47.320767771452665" lon="11.272378675639629">
        <ele>1746.240000000000009</ele>
        <time>2015-03-13T11:00:29Z</time>
      </trkpt>
      <trkpt lat="47.320697363466024" lon="11.272427542135119">
        <ele>1747.1400000000001</ele>
        <time>2015-03-13T11:00:47Z</time>
      </trkpt>
      <trkpt lat="47.320697531104088" lon="11.272421842440963">
        <ele>1751.210000000000036</ele>
        <time>2015-03-13T11:00:48Z</time>
      </trkpt>
      <trkpt lat="47.320698704570532" lon="11.27241731621325">
        <ele>1750.180000000000064</ele>
        <time>2015-03-13T11:00:49Z</time>
      </trkpt>
      <trkpt lat="47.320699626579881" lon="11.272412287071347">
        <ele>1749.009999999999991</ele>
        <time>2015-03-13T11:00:51Z</time>
      </trkpt>
      <trkpt lat="47.320698788389564" lon="11.272413292899728">
        <ele>1749.769999999999982</ele>
        <time>2015-03-13T11:00:58Z</time>
      </trkpt>
      <trkpt lat="47.320672553032637" lon="11.272518569603562">
        <ele>1751.470000000000027</ele>
        <time>2015-03-13T11:01:13Z</time>
      </trkpt>
      <trkpt lat="47.320671631023288" lon="11.272637424990535">
        <ele>1754.529999999999973</ele>
        <time>2015-03-13T11:01:26Z</time>
      </trkpt>
      <trkpt lat="47.320674480870366" lon="11.272772960364819">
        <ele>1758.589999999999918</ele>
        <time>2015-03-13T11:01:40Z</time>
      </trkpt>
      <trkpt lat="47.320667775347829" lon="11.272906400263309">
        <ele>1761.670000000000073</ele>
        <time>2015-03-13T11:01:55Z</time>
      </trkpt>
      <trkpt lat="47.32067565433681" lon="11.273005558177829">
        <ele>1763.329999999999927</ele>
        <time>2015-03-13T11:02:14Z</time>
      </trkpt>
      <trkpt lat="47.320662243291736" lon="11.273103039711714">
        <ele>1766.960000000000036</ele>
        <time>2015-03-13T11:02:25Z</time>
      </trkpt>
      <trkpt lat="47.320661908015609" lon="11.273151570931077">
        <ele>1768.529999999999973</ele>
        <time>2015-03-13T11:02:30Z</time>
      </trkpt>
      <trkpt lat="47.320663165301085" lon="11.273279814049602">
        <ele>1772.380000000000109</ele>
        <time>2015-03-13T11:02:44Z</time>
      </trkpt>
      <trkpt lat="47.320703733712435" lon="11.273443764075637">
        <ele>1775.150000000000091</ele>
        <time>2015-03-13T11:03:01Z</time>
      </trkpt>
      <trkpt lat="47.320750169456005" lon="11.273567313328385">
        <ele>1778.3900000000001</ele>
        <time>2015-03-13T11:03:14Z</time>
      </trkpt>
      <trkpt lat="47.320770118385553" lon="11.273621125146747">
        <ele>1779.230000000000018</ele>
        <time>2015-03-13T11:03:20Z</time>
      </trkpt>
      <trkpt lat="47.320799957960844" lon="11.273719780147076">
        <ele>1781.529999999999973</ele>
        <time>2015-03-13T11:03:37Z</time>
      </trkpt>
      <trkpt lat="47.320790318772197" lon="11.273742830380797">
        <ele>1783.329999999999927</ele>
        <time>2015-03-13T11:03:53Z</time>
      </trkpt>
      <trkpt lat="47.320728292688727" lon="11.273772083222866">
        <ele>1786.509999999999991</ele>
        <time>2015-03-13T11:04:05Z</time>
      </trkpt>
      <trkpt lat="47.320723682641983" lon="11.273774513974786">
        <ele>1786.3599999999999</ele>
        <time>2015-03-13T11:04:06Z</time>
      </trkpt>
      <trkpt lat="47.320673726499081" lon="11.273807790130377">
        <ele>1789.369999999999891</ele>
        <time>2015-03-13T11:04:15Z</time>
      </trkpt>
      <trkpt lat="47.320622345432639" lon="11.273878617212176">
        <ele>1792.329999999999927</ele>
        <time>2015-03-13T11:04:31Z</time>
      </trkpt>
      <trkpt lat="47.320660902187228" lon="11.274003591388464">
        <ele>1794.789999999999964</ele>
        <time>2015-03-13T11:04:44Z</time>
      </trkpt>
      <trkpt lat="47.320690071210265" lon="11.274102246388793">
        <ele>1799.3900000000001</ele>
        <time>2015-03-13T11:05:00Z</time>
      </trkpt>
      <trkpt lat="47.320685964077711" lon="11.274103671312332">
        <ele>1795.599999999999909</ele>
        <time>2015-03-13T11:05:01Z</time>
      </trkpt>
      <trkpt lat="47.32067909091711" lon="11.274109622463584">
        <ele>1800.230000000000018</ele>
        <time>2015-03-13T11:05:04Z</time>
      </trkpt>
      <trkpt lat="47.320675738155842" lon="11.274113561958075">
        <ele>1797.180000000000064</ele>
        <time>2015-03-13T11:05:05Z</time>
      </trkpt>
      <trkpt lat="47.320670960471034" lon="11.274117082357407">
        <ele>1799.210000000000036</ele>
        <time>2015-03-13T11:05:06Z</time>
      </trkpt>
      <trkpt lat="47.320655537769198" lon="11.274127308279276">
        <ele>1799.900000000000091</ele>
        <time>2015-03-13T11:05:08Z</time>
      </trkpt>
      <trkpt lat="47.320602815598249" lon="11.274166032671928">
        <ele>1802.380000000000109</ele>
        <time>2015-03-13T11:05:26Z</time>
      </trkpt>
      <trkpt lat="47.320582866668701" lon="11.274190004914999">
        <ele>1803.3599999999999</ele>
        <time>2015-03-13T11:05:30Z</time>
      </trkpt>
      <trkpt lat="47.320537436753511" lon="11.274238619953394">
        <ele>1805.309999999999945</ele>
        <time>2015-03-13T11:05:39Z</time>
      </trkpt>
      <trkpt lat="47.320474488660693" lon="11.274289330467582">
        <ele>1809.410000000000082</ele>
        <time>2015-03-13T11:05:58Z</time>
      </trkpt>
      <trkpt lat="47.320415982976556" lon="11.274339789524674">
        <ele>1812.069999999999936</ele>
        <time>2015-03-13T11:06:14Z</time>
      </trkpt>
      <trkpt lat="47.320390501990914" lon="11.274359906092286">
        <ele>1813.740000000000009</ele>
        <time>2015-03-13T11:06:23Z</time>
      </trkpt>
      <trkpt lat="47.320395112037659" lon="11.274397540837526">
        <ele>1812.980000000000018</ele>
        <time>2015-03-13T11:06:38Z</time>
      </trkpt>
      <trkpt lat="47.320396704599261" lon="11.27439821138978">
        <ele>1814.720000000000027</ele>
        <time>2015-03-13T11:06:40Z</time>
      </trkpt>
      <trkpt lat="47.320396453142166" lon="11.274399049580097">
        <ele>1812.089999999999918</ele>
        <time>2015-03-13T11:06:42Z</time>
      </trkpt>
      <trkpt lat="47.320394441485405" lon="11.274393433704972">
        <ele>1814.3599999999999</ele>
        <time>2015-03-13T11:06:45Z</time>
      </trkpt>
      <trkpt lat="47.320427130907774" lon="11.274516228586435">
        <ele>1817.380000000000109</ele>
        <time>2015-03-13T11:07:00Z</time>
      </trkpt>
      <trkpt lat="47.32043769210577" lon="11.274549840018153">
        <ele>1817.480000000000018</ele>
        <time>2015-03-13T11:07:04Z</time>
      </trkpt>
      <trkpt lat="47.320460742339492" lon="11.274630893021822">
        <ele>1820.960000000000036</ele>
        <time>2015-03-13T11:07:14Z</time>
      </trkpt>
      <trkpt lat="47.320477170869708" lon="11.274709347635508">
        <ele>1824.309999999999945</ele>
        <time>2015-03-13T11:07:30Z</time>
      </trkpt>
      <trkpt lat="47.320473901927471" lon="11.27470993436873">
        <ele>1824.069999999999936</ele>
        <time>2015-03-13T11:07:31Z</time>
      </trkpt>
      <trkpt lat="47.320407936349511" lon="11.274751173332334">
        <ele>1827.410000000000082</ele>
        <time>2015-03-13T11:07:47Z</time>
      </trkpt>
      <trkpt lat="47.320372899994254" lon="11.274773385375738">
        <ele>1828.769999999999982</ele>
        <time>2015-03-13T11:07:53Z</time>
      </trkpt>
      <trkpt lat="47.320326967164874" lon="11.274789730086923">
        <ele>1829.720000000000027</ele>
        <time>2015-03-13T11:08:13Z</time>
      </trkpt>
      <trkpt lat="47.320322524756193" lon="11.274793837219477">
        <ele>1830.599999999999909</ele>
        <time>2015-03-13T11:08:21Z</time>
      </trkpt>
      <trkpt lat="47.320323865860701" lon="11.274794843047857">
        <ele>1829.700000000000045</ele>
        <time>2015-03-13T11:08:23Z</time>
      </trkpt>
      <trkpt lat="47.320325961336493" lon="11.27479886636138">
        <ele>1831.259999999999991</ele>
        <time>2015-03-13T11:08:33Z</time>
      </trkpt>
      <trkpt lat="47.320321267470717" lon="11.274799033999443">
        <ele>1830.6099999999999</ele>
        <time>2015-03-13T11:08:35Z</time>
      </trkpt>
      <trkpt lat="47.320247339084744" lon="11.274847062304616">
        <ele>1834.089999999999918</ele>
        <time>2015-03-13T11:08:50Z</time>
      </trkpt>
      <trkpt lat="47.320239460095763" lon="11.274854354560375">
        <ele>1834.829999999999927</ele>
        <time>2015-03-13T11:08:52Z</time>
      </trkpt>
      <trkpt lat="47.320234933868051" lon="11.274933982640505">
        <ele>1838.400000000000091</ele>
        <time>2015-03-13T11:09:05Z</time>
      </trkpt>
      <trkpt lat="47.32027399353683" lon="11.275028446689248">
        <ele>1840.680000000000064</ele>
        <time>2015-03-13T11:09:17Z</time>
      </trkpt>
      <trkpt lat="47.320267455652356" lon="11.275023920461535">
        <ele>1841.1099999999999</ele>
        <time>2015-03-13T11:09:24Z</time>
      </trkpt>
      <trkpt lat="47.320206435397267" lon="11.275076391175389">
        <ele>1841.8900000000001</ele>
        <time>2015-03-13T11:09:40Z</time>
      </trkpt>
      <trkpt lat="47.320193275809288" lon="11.275089550763369">
        <ele>1845.5</ele>
        <time>2015-03-13T11:09:43Z</time>
      </trkpt>
      <trkpt lat="47.320153210312128" lon="11.275134813040495">
        <ele>1847.75</ele>
        <time>2015-03-13T11:10:00Z</time>
      </trkpt>
      <trkpt lat="47.320108702406287" lon="11.275177309289575">
        <ele>1850.910000000000082</ele>
        <time>2015-03-13T11:10:24Z</time>
      </trkpt>
      <trkpt lat="47.320041647180915" lon="11.275247298181057">
        <ele>1855.269999999999982</ele>
        <time>2015-03-13T11:10:39Z</time>
      </trkpt>
      <trkpt lat="47.319974508136511" lon="11.275322400033474">
        <ele>1857.8900000000001</ele>
        <time>2015-03-13T11:10:54Z</time>
      </trkpt>
      <trkpt lat="47.319957157596946" lon="11.27535056322813">
        <ele>1859.630000000000109</ele>
        <time>2015-03-13T11:11:00Z</time>
      </trkpt>
      <trkpt lat="47.319908794015646" lon="11.275416780263186">
        <ele>1864.809999999999945</ele>
        <time>2015-03-13T11:11:12Z</time>
      </trkpt>
      <trkpt lat="47.319905776530504" lon="11.275418540462852">
        <ele>1864.130000000000109</ele>
        <time>2015-03-13T11:11:13Z</time>
      </trkpt>
      <trkpt lat="47.319908542558551" lon="11.275419127196074">
        <ele>1863.230000000000018</ele>
        <time>2015-03-13T11:11:15Z</time>
      </trkpt>
      <trkpt lat="47.319890940561891" lon="11.27544485963881">
        <ele>1864.470000000000027</ele>
        <time>2015-03-13T11:11:21Z</time>
      </trkpt>
      <trkpt lat="47.319871326908469" lon="11.275474280118942">
        <ele>1866.259999999999991</ele>
        <time>2015-03-13T11:11:26Z</time>
      </trkpt>
      <trkpt lat="47.319870656356215" lon="11.275474531576037">
        <ele>1866</ele>
        <time>2015-03-13T11:11:31Z</time>
      </trkpt>
      <trkpt lat="47.319888006895781" lon="11.275495151057839">
        <ele>1866.1400000000001</ele>
        <time>2015-03-13T11:12:01Z</time>
      </trkpt>
      <trkpt lat="47.319883145391941" lon="11.275501940399408">
        <ele>1866.430000000000064</ele>
        <time>2015-03-13T11:12:02Z</time>
      </trkpt>
      <trkpt lat="47.319846013560891" lon="11.27554845996201">
        <ele>1869.950000000000045</ele>
        <time>2015-03-13T11:12:13Z</time>
      </trkpt>
      <trkpt lat="47.319897813722491" lon="11.275614676997066">
        <ele>1871.490000000000009</ele>
        <time>2015-03-13T11:12:24Z</time>
      </trkpt>
      <trkpt lat="47.319938046857715" lon="11.275672344490886">
        <ele>1874.670000000000073</ele>
        <time>2015-03-13T11:12:33Z</time>
      </trkpt>
      <trkpt lat="47.319942992180586" lon="11.275676870718598">
        <ele>1874.670000000000073</ele>
        <time>2015-03-13T11:12:34Z</time>
      </trkpt>
      <trkpt lat="47.31999353505671" lon="11.275736801326275">
        <ele>1876.700000000000045</ele>
        <time>2015-03-13T11:12:44Z</time>
      </trkpt>
      <trkpt lat="47.320034774020314" lon="11.275782650336623">
        <ele>1878.730000000000018</ele>
        <time>2015-03-13T11:13:00Z</time>
      </trkpt>
      <trkpt lat="47.320043491199613" lon="11.2757976539433">
        <ele>1878.920000000000073</ele>
        <time>2015-03-13T11:13:06Z</time>
      </trkpt>
      <trkpt lat="47.320049442350864" lon="11.275803688913584">
        <ele>1875.769999999999982</ele>
        <time>2015-03-13T11:13:14Z</time>
      </trkpt>
      <trkpt lat="47.320048101246357" lon="11.275794385001063">
        <ele>1881.880000000000109</ele>
        <time>2015-03-13T11:13:18Z</time>
      </trkpt>
      <trkpt lat="47.320048771798611" lon="11.275796061381698">
        <ele>1879.849999999999909</ele>
        <time>2015-03-13T11:13:19Z</time>
      </trkpt>
      <trkpt lat="47.320050448179245" lon="11.275787511840463">
        <ele>1879.940000000000055</ele>
        <time>2015-03-13T11:13:48Z</time>
      </trkpt>
      <trkpt lat="47.320116413757205" lon="11.275879377499223">
        <ele>1881.700000000000045</ele>
        <time>2015-03-13T11:14:04Z</time>
      </trkpt>
      <trkpt lat="47.320120856165886" lon="11.275913156569004">
        <ele>1882.599999999999909</ele>
        <time>2015-03-13T11:14:14Z</time>
      </trkpt>
      <trkpt lat="47.320043826475739" lon="11.275957245379686">
        <ele>1886.589999999999918</ele>
        <time>2015-03-13T11:14:26Z</time>
      </trkpt>
      <trkpt lat="47.319962522014976" lon="11.276000328361988">
        <ele>1890.1400000000001</ele>
        <time>2015-03-13T11:14:40Z</time>
      </trkpt>
      <trkpt lat="47.31988750398159" lon="11.276050200685859">
        <ele>1891.990000000000009</ele>
        <time>2015-03-13T11:14:57Z</time>
      </trkpt>
      <trkpt lat="47.319834027439356" lon="11.276095462962985">
        <ele>1895.329999999999927</ele>
        <time>2015-03-13T11:15:08Z</time>
      </trkpt>
      <trkpt lat="47.319760099053383" lon="11.276152040809393">
        <ele>1898.990000000000009</ele>
        <time>2015-03-13T11:15:21Z</time>
      </trkpt>
      <trkpt lat="47.319685751572251" lon="11.276205265894532">
        <ele>1900.960000000000036</ele>
        <time>2015-03-13T11:15:37Z</time>
      </trkpt>
      <trkpt lat="47.319628922268748" lon="11.2762466724962">
        <ele>1904.410000000000082</ele>
        <time>2015-03-13T11:15:47Z</time>
      </trkpt>
      <trkpt lat="47.319605872035027" lon="11.276275757700205">
        <ele>1903.230000000000018</ele>
        <time>2015-03-13T11:16:10Z</time>
      </trkpt>
      <trkpt lat="47.319556754082441" lon="11.276307189837098">
        <ele>1906.950000000000045</ele>
        <time>2015-03-13T11:16:17Z</time>
      </trkpt>
      <trkpt lat="47.319455333054066" lon="11.276369467377663">
        <ele>1910.180000000000064</ele>
        <time>2015-03-13T11:16:32Z</time>
      </trkpt>
      <trkpt lat="47.319376124069095" lon="11.27641431055963">
        <ele>1913.799999999999955</ele>
        <time>2015-03-13T11:16:45Z</time>
      </trkpt>
      <trkpt lat="47.31929331086576" lon="11.276437025517225">
        <ele>1915.6099999999999</ele>
        <time>2015-03-13T11:17:04Z</time>
      </trkpt>
      <trkpt lat="47.319289455190301" lon="11.276435432955623">
        <ele>1916.759999999999991</ele>
        <time>2015-03-13T11:17:11Z</time>
      </trkpt>
      <trkpt lat="47.319269422441721" lon="11.276449682191014">
        <ele>1917.450000000000045</ele>
        <time>2015-03-13T11:17:34Z</time>
      </trkpt>
      <trkpt lat="47.319195158779621" lon="11.276474995538592">
        <ele>1920.680000000000064</ele>
        <time>2015-03-13T11:17:46Z</time>
      </trkpt>
      <trkpt lat="47.319130953401327" lon="11.276503913104534">
        <ele>1923.690000000000055</ele>
        <time>2015-03-13T11:17:57Z</time>
      </trkpt>
      <trkpt lat="47.319061467424035" lon="11.276525957509875">
        <ele>1926.8900000000001</ele>
        <time>2015-03-13T11:18:10Z</time>
      </trkpt>
      <trkpt lat="47.319044284522533" lon="11.276518581435084">
        <ele>1930.869999999999891</ele>
        <time>2015-03-13T11:18:17Z</time>
      </trkpt>
      <trkpt lat="47.31904411688447" lon="11.276516821235418">
        <ele>1925.480000000000018</ele>
        <time>2015-03-13T11:18:18Z</time>
      </trkpt>
      <trkpt lat="47.319043781608343" lon="11.27651690505445">
        <ele>1929.460000000000036</ele>
        <time>2015-03-13T11:18:22Z</time>
      </trkpt>
      <trkpt lat="47.319045457988977" lon="11.27652034163475">
        <ele>1929.430000000000064</ele>
        <time>2015-03-13T11:18:23Z</time>
      </trkpt>
      <trkpt lat="47.319045038893819" lon="11.276519084349275">
        <ele>1926.430000000000064</ele>
        <time>2015-03-13T11:18:25Z</time>
      </trkpt>
      <trkpt lat="47.31904654763639" lon="11.276522018015385">
        <ele>1929.589999999999918</ele>
        <time>2015-03-13T11:18:26Z</time>
      </trkpt>
      <trkpt lat="47.319073285907507" lon="11.276617739349604">
        <ele>1929.619999999999891</ele>
        <time>2015-03-13T11:18:40Z</time>
      </trkpt>
      <trkpt lat="47.319081667810678" lon="11.276657301932573">
        <ele>1933.309999999999945</ele>
        <time>2015-03-13T11:18:48Z</time>
      </trkpt>
      <trkpt lat="47.319103796035051" lon="11.276722429320216">
        <ele>1933.440000000000055</ele>
        <time>2015-03-13T11:18:56Z</time>
      </trkpt>
      <trkpt lat="47.31914528645575" lon="11.276821671053767">
        <ele>1936.700000000000045</ele>
        <time>2015-03-13T11:19:08Z</time>
      </trkpt>
      <trkpt lat="47.319174706935883" lon="11.276877243071795">
        <ele>1939.150000000000091</ele>
        <time>2015-03-13T11:19:23Z</time>
      </trkpt>
      <trkpt lat="47.319230698049068" lon="11.276957541704178">
        <ele>1940.410000000000082</ele>
        <time>2015-03-13T11:19:39Z</time>
      </trkpt>
      <trkpt lat="47.319274451583624" lon="11.277004899457097">
        <ele>1943.470000000000027</ele>
        <time>2015-03-13T11:19:47Z</time>
      </trkpt>
      <trkpt lat="47.319292724132538" lon="11.27702753059566">
        <ele>1944.299999999999955</ele>
        <time>2015-03-13T11:20:01Z</time>
      </trkpt>
      <trkpt lat="47.319281073287129" lon="11.277035074308515">
        <ele>1944.039999999999964</ele>
        <time>2015-03-13T11:20:10Z</time>
      </trkpt>
      <trkpt lat="47.319282665848732" lon="11.277035912498832">
        <ele>1948.450000000000045</ele>
        <time>2015-03-13T11:20:16Z</time>
      </trkpt>
      <trkpt lat="47.319281324744225" lon="11.277036583051085">
        <ele>1945.079999999999927</ele>
        <time>2015-03-13T11:20:18Z</time>
      </trkpt>
      <trkpt lat="47.319192225113511" lon="11.277088886126876">
        <ele>1948.289999999999964</ele>
        <time>2015-03-13T11:20:33Z</time>
      </trkpt>
      <trkpt lat="47.319109076634049" lon="11.277115289121866">
        <ele>1951.3599999999999</ele>
        <time>2015-03-13T11:20:46Z</time>
      </trkpt>
      <trkpt lat="47.319034645333886" lon="11.277125515043736">
        <ele>1954.730000000000018</ele>
        <time>2015-03-13T11:20:58Z</time>
      </trkpt>
      <trkpt lat="47.318943785503507" lon="11.277136579155922">
        <ele>1956.690000000000055</ele>
        <time>2015-03-13T11:21:13Z</time>
      </trkpt>
      <trkpt lat="47.318938923999667" lon="11.277136662974954">
        <ele>1958.579999999999927</ele>
        <time>2015-03-13T11:21:15Z</time>
      </trkpt>
      <trkpt lat="47.318926937878132" lon="11.277131550014019">
        <ele>1958.670000000000073</ele>
        <time>2015-03-13T11:21:31Z</time>
      </trkpt>
      <trkpt lat="47.318899277597666" lon="11.277134399861097">
        <ele>1959.259999999999991</ele>
        <time>2015-03-13T11:21:35Z</time>
      </trkpt>
      <trkpt lat="47.318868096917868" lon="11.277139093726873">
        <ele>1961.059999999999945</ele>
        <time>2015-03-13T11:21:52Z</time>
      </trkpt>
      <trkpt lat="47.318799113854766" lon="11.277147391811013">
        <ele>1963.160000000000082</ele>
        <time>2015-03-13T11:22:07Z</time>
      </trkpt>
      <trkpt lat="47.318822164088488" lon="11.277173710986972">
        <ele>1963.529999999999973</ele>
        <time>2015-03-13T11:22:24Z</time>
      </trkpt>
      <trkpt lat="47.318865582346916" lon="11.277275467291474">
        <ele>1966.869999999999891</ele>
        <time>2015-03-13T11:22:39Z</time>
      </trkpt>
      <trkpt lat="47.318896343931556" lon="11.277340762317181">
        <ele>1968.019999999999982</ele>
        <time>2015-03-13T11:22:57Z</time>
      </trkpt>
      <trkpt lat="47.318924758583307" lon="11.277396837249398">
        <ele>1971.289999999999964</ele>
        <time>2015-03-13T11:23:05Z</time>
      </trkpt>
      <trkpt lat="47.318968595936894" lon="11.277496162801981">
        <ele>1974.3900000000001</ele>
        <time>2015-03-13T11:23:18Z</time>
      </trkpt>
      <trkpt lat="47.319014612585306" lon="11.277574449777603">
        <ele>1974.960000000000036</ele>
        <time>2015-03-13T11:23:33Z</time>
      </trkpt>
      <trkpt lat="47.318976307287812" lon="11.277579814195633">
        <ele>1978.549999999999955</ele>
        <time>2015-03-13T11:23:48Z</time>
      </trkpt>
      <trkpt lat="47.318883771076798" lon="11.277595572173595">
        <ele>1980.950000000000045</ele>
        <time>2015-03-13T11:24:02Z</time>
      </trkpt>
      <trkpt lat="47.318832641467452" lon="11.277604540809989">
        <ele>1983.470000000000027</ele>
        <time>2015-03-13T11:24:19Z</time>
      </trkpt>
      <trkpt lat="47.318780170753598" lon="11.277624573558569">
        <ele>1987.299999999999955</ele>
        <time>2015-03-13T11:24:32Z</time>
      </trkpt>
      <trkpt lat="47.318775057792664" lon="11.277624741196632">
        <ele>1987.019999999999982</ele>
        <time>2015-03-13T11:24:33Z</time>
      </trkpt>
      <trkpt lat="47.318709762766957" lon="11.277613844722509">
        <ele>1989.210000000000036</ele>
        <time>2015-03-13T11:24:50Z</time>
      </trkpt>
      <trkpt lat="47.318637678399682" lon="11.277628345414996">
        <ele>1992</ele>
        <time>2015-03-13T11:25:10Z</time>
      </trkpt>
      <trkpt lat="47.318554278463125" lon="11.277639660984278">
        <ele>1995.849999999999909</ele>
        <time>2015-03-13T11:25:22Z</time>
      </trkpt>
      <trkpt lat="47.318527791649103" lon="11.277641337364912">
        <ele>1997.089999999999918</ele>
        <time>2015-03-13T11:25:26Z</time>
      </trkpt>
      <trkpt lat="47.318518571555614" lon="11.277636727318168">
        <ele>1995.869999999999891</ele>
        <time>2015-03-13T11:25:31Z</time>
      </trkpt>
      <trkpt lat="47.31855109333992" lon="11.277715601027012">
        <ele>1999.220000000000027</ele>
        <time>2015-03-13T11:25:47Z</time>
      </trkpt>
      <trkpt lat="47.318587889894843" lon="11.277778213843703">
        <ele>1999.710000000000036</ele>
        <time>2015-03-13T11:26:08Z</time>
      </trkpt>
      <trkpt lat="47.318561151623726" lon="11.277790116146207">
        <ele>2002.3900000000001</ele>
        <time>2015-03-13T11:26:19Z</time>
      </trkpt>
      <trkpt lat="47.318478422239423" lon="11.277803191915154">
        <ele>2005.690000000000055</ele>
        <time>2015-03-13T11:26:31Z</time>
      </trkpt>
      <trkpt lat="47.318466939032078" lon="11.2777990847826">
        <ele>2006.509999999999991</ele>
        <time>2015-03-13T11:26:33Z</time>
      </trkpt>
      <trkpt lat="47.318424442782998" lon="11.27780050970614">
        <ele>2008.559999999999945</ele>
        <time>2015-03-13T11:26:40Z</time>
      </trkpt>
      <trkpt lat="47.318356717005372" lon="11.277793636545539">
        <ele>2011.660000000000082</ele>
        <time>2015-03-13T11:26:52Z</time>
      </trkpt>
      <trkpt lat="47.318278765305877" lon="11.277763294056058">
        <ele>2013.680000000000064</ele>
        <time>2015-03-13T11:27:04Z</time>
      </trkpt>
      <trkpt lat="47.318260576575994" lon="11.277770418673754">
        <ele>2013.920000000000073</ele>
        <time>2015-03-13T11:27:15Z</time>
      </trkpt>
      <trkpt lat="47.318255631253123" lon="11.277767736464739">
        <ele>2011.460000000000036</ele>
        <time>2015-03-13T11:27:49Z</time>
      </trkpt>
      <trkpt lat="47.318262169137597" lon="11.277768658474088">
        <ele>2014.779999999999973</ele>
        <time>2015-03-13T11:28:00Z</time>
      </trkpt>
      <trkpt lat="47.318160245195031" lon="11.277732197195292">
        <ele>2017.900000000000091</ele>
        <time>2015-03-13T11:28:17Z</time>
      </trkpt>
      <trkpt lat="47.318084640428424" lon="11.277690036222339">
        <ele>2020.339999999999918</ele>
        <time>2015-03-13T11:28:28Z</time>
      </trkpt>
      <trkpt lat="47.318015489727259" lon="11.277647959068418">
        <ele>2023.8599999999999</ele>
        <time>2015-03-13T11:28:42Z</time>
      </trkpt>
      <trkpt lat="47.318005850538611" lon="11.277639828622341">
        <ele>2023.980000000000018</ele>
        <time>2015-03-13T11:28:50Z</time>
      </trkpt>
      <trkpt lat="47.317928401753306" lon="11.277589704841375">
        <ele>2025.930000000000064</ele>
        <time>2015-03-13T11:29:06Z</time>
      </trkpt>
      <trkpt lat="47.317906524986029" lon="11.277570677921176">
        <ele>2026.619999999999891</ele>
        <time>2015-03-13T11:29:20Z</time>
      </trkpt>
      <trkpt lat="47.317898478358984" lon="11.277624908834696">
        <ele>2029.349999999999909</ele>
        <time>2015-03-13T11:29:36Z</time>
      </trkpt>
      <trkpt lat="47.317904345691204" lon="11.277732783928514">
        <ele>2032.569999999999936</ele>
        <time>2015-03-13T11:29:51Z</time>
      </trkpt>
      <trkpt lat="47.317855479195714" lon="11.277701016515493">
        <ele>2034.900000000000091</ele>
        <time>2015-03-13T11:30:04Z</time>
      </trkpt>
      <trkpt lat="47.31777903623879" lon="11.277623400092125">
        <ele>2038.150000000000091</ele>
        <time>2015-03-13T11:30:19Z</time>
      </trkpt>
      <trkpt lat="47.317754980176687" lon="11.277580903843045">
        <ele>2039.829999999999927</ele>
        <time>2015-03-13T11:30:34Z</time>
      </trkpt>
      <trkpt lat="47.317737797275186" lon="11.277674194425344">
        <ele>2040.8900000000001</ele>
        <time>2015-03-13T11:30:52Z</time>
      </trkpt>
      <trkpt lat="47.317731427028775" lon="11.277748206630349">
        <ele>2044.730000000000018</ele>
        <time>2015-03-13T11:31:00Z</time>
      </trkpt>
      <trkpt lat="47.317729499191046" lon="11.277788439765573">
        <ele>2044.180000000000064</ele>
        <time>2015-03-13T11:31:04Z</time>
      </trkpt>
      <trkpt lat="47.31773410923779" lon="11.277846023440361">
        <ele>2047.329999999999927</ele>
        <time>2015-03-13T11:31:13Z</time>
      </trkpt>
      <trkpt lat="47.317730337381363" lon="11.277843927964568">
        <ele>2046.539999999999964</ele>
        <time>2015-03-13T11:31:14Z</time>
      </trkpt>
      <trkpt lat="47.317727822810411" lon="11.277839401736856">
        <ele>2045.450000000000045</ele>
        <time>2015-03-13T11:31:16Z</time>
      </trkpt>
      <trkpt lat="47.317676777020097" lon="11.277800593525171">
        <ele>2048.480000000000018</ele>
        <time>2015-03-13T11:31:28Z</time>
      </trkpt>
      <trkpt lat="47.317612990736961" lon="11.277723731473088">
        <ele>2052.349999999999909</ele>
        <time>2015-03-13T11:31:43Z</time>
      </trkpt>
      <trkpt lat="47.317606788128614" lon="11.277777627110481">
        <ele>2052.659999999999854</ele>
        <time>2015-03-13T11:31:58Z</time>
      </trkpt>
      <trkpt lat="47.317599160596728" lon="11.277875611558557">
        <ele>2055.099999999999909</ele>
        <time>2015-03-13T11:32:14Z</time>
      </trkpt>
      <trkpt lat="47.317592119798064" lon="11.27796228043735">
        <ele>2058.800000000000182</ele>
        <time>2015-03-13T11:32:24Z</time>
      </trkpt>
      <trkpt lat="47.317585917189717" lon="11.278032856062055">
        <ele>2062.039999999999964</ele>
        <time>2015-03-13T11:32:36Z</time>
      </trkpt>
      <trkpt lat="47.317585917189717" lon="11.27803067676723">
        <ele>2061.210000000000036</ele>
        <time>2015-03-13T11:32:37Z</time>
      </trkpt>
      <trkpt lat="47.317581977695227" lon="11.278026066720486">
        <ele>2060.449999999999818</ele>
        <time>2015-03-13T11:32:39Z</time>
      </trkpt>
      <trkpt lat="47.317509893327951" lon="11.277961861342192">
        <ele>2064.340000000000146</ele>
        <time>2015-03-13T11:32:53Z</time>
      </trkpt>
      <trkpt lat="47.317442670464516" lon="11.277890363708138">
        <ele>2064.889999999999873</ele>
        <time>2015-03-13T11:33:11Z</time>
      </trkpt>
      <trkpt lat="47.317443508654833" lon="11.277891620993614">
        <ele>2069</ele>
        <time>2015-03-13T11:33:12Z</time>
      </trkpt>
      <trkpt lat="47.317442838102579" lon="11.277895728126168">
        <ele>2066.550000000000182</ele>
        <time>2015-03-13T11:33:13Z</time>
      </trkpt>
      <trkpt lat="47.317424565553665" lon="11.278010392561555">
        <ele>2068.980000000000018</ele>
        <time>2015-03-13T11:33:26Z</time>
      </trkpt>
      <trkpt lat="47.317428924143314" lon="11.278064707294106">
        <ele>2072.010000000000218</ele>
        <time>2015-03-13T11:33:35Z</time>
      </trkpt>
      <trkpt lat="47.317436216399074" lon="11.278166631236672">
        <ele>2072.579999999999927</ele>
        <time>2015-03-13T11:33:49Z</time>
      </trkpt>
      <trkpt lat="47.317435210570693" lon="11.27816210500896">
        <ele>2075.690000000000055</ele>
        <time>2015-03-13T11:33:51Z</time>
      </trkpt>
      <trkpt lat="47.317431187257171" lon="11.278159925714135">
        <ele>2071.489999999999782</ele>
        <time>2015-03-13T11:33:53Z</time>
      </trkpt>
      <trkpt lat="47.317430516704917" lon="11.278156405314803">
        <ele>2074.769999999999982</ele>
        <time>2015-03-13T11:33:54Z</time>
      </trkpt>
      <trkpt lat="47.317432193085551" lon="11.278151962906122">
        <ele>2073.230000000000018</ele>
        <time>2015-03-13T11:34:16Z</time>
      </trkpt>
      <trkpt lat="47.317421799525619" lon="11.278142407536507">
        <ele>2074.920000000000073</ele>
        <time>2015-03-13T11:34:33Z</time>
      </trkpt>
      <trkpt lat="47.317433953285217" lon="11.278167385607958">
        <ele>2071.739999999999782</ele>
        <time>2015-03-13T11:34:59Z</time>
      </trkpt>
      <trkpt lat="47.317433282732964" lon="11.278166798874736">
        <ele>2072.809999999999945</ele>
        <time>2015-03-13T11:35:00Z</time>
      </trkpt>
      <trkpt lat="47.317432695999742" lon="11.278165122494102">
        <ele>2079.7199999999998</ele>
        <time>2015-03-13T11:35:01Z</time>
      </trkpt>
      <trkpt lat="47.317429091781378" lon="11.27816311083734">
        <ele>2074.9699999999998</ele>
        <time>2015-03-13T11:35:02Z</time>
      </trkpt>
      <trkpt lat="47.317347200587392" lon="11.27809077501297">
        <ele>2078.599999999999909</ele>
        <time>2015-03-13T11:35:14Z</time>
      </trkpt>
      <trkpt lat="47.317322809249163" lon="11.278068227693439">
        <ele>2079.869999999999891</ele>
        <time>2015-03-13T11:35:18Z</time>
      </trkpt>
      <trkpt lat="47.317254329100251" lon="11.277991952374578">
        <ele>2083.019999999999982</ele>
        <time>2015-03-13T11:35:33Z</time>
      </trkpt>
      <trkpt lat="47.317253071814775" lon="11.277989773079753">
        <ele>2083.309999999999945</ele>
        <time>2015-03-13T11:35:34Z</time>
      </trkpt>
      <trkpt lat="47.317233039066195" lon="11.278047692030668">
        <ele>2083.409999999999854</ele>
        <time>2015-03-13T11:35:52Z</time>
      </trkpt>
      <trkpt lat="47.317236559465528" lon="11.278143581002951">
        <ele>2086.5300000000002</ele>
        <time>2015-03-13T11:36:02Z</time>
      </trkpt>
      <trkpt lat="47.317240415140986" lon="11.278272913768888">
        <ele>2090.179999999999836</ele>
        <time>2015-03-13T11:36:16Z</time>
      </trkpt>
      <trkpt lat="47.31723815202713" lon="11.278279116377234">
        <ele>2089.940000000000055</ele>
        <time>2015-03-13T11:36:17Z</time>
      </trkpt>
      <trkpt lat="47.317235385999084" lon="11.278389422222972">
        <ele>2091.019999999999982</ele>
        <time>2015-03-13T11:36:30Z</time>
      </trkpt>
      <trkpt lat="47.317245109006763" lon="11.278453879058361">
        <ele>2093.329999999999927</ele>
        <time>2015-03-13T11:36:48Z</time>
      </trkpt>
      <trkpt lat="47.317258520051837" lon="11.278536440804601">
        <ele>2096.360000000000127</ele>
        <time>2015-03-13T11:36:57Z</time>
      </trkpt>
      <trkpt lat="47.317260699346662" lon="11.278542978689075">
        <ele>2096.179999999999836</ele>
        <time>2015-03-13T11:36:58Z</time>
      </trkpt>
      <trkpt lat="47.317264722660184" lon="11.27863509580493">
        <ele>2100.360000000000127</ele>
        <time>2015-03-13T11:37:13Z</time>
      </trkpt>
      <trkpt lat="47.317248210310936" lon="11.278639202937484">
        <ele>2099.769999999999982</ele>
        <time>2015-03-13T11:37:18Z</time>
      </trkpt>
      <trkpt lat="47.317190710455179" lon="11.278594946488738">
        <ele>2102.309999999999945</ele>
        <time>2015-03-13T11:37:30Z</time>
      </trkpt>
      <trkpt lat="47.317165061831474" lon="11.278545828536153">
        <ele>2101.440000000000055</ele>
        <time>2015-03-13T11:37:45Z</time>
      </trkpt>
      <trkpt lat="47.317162463441491" lon="11.278549013659358">
        <ele>2099.340000000000146</ele>
        <time>2015-03-13T11:37:55Z</time>
      </trkpt>
      <trkpt lat="47.317162128165364" lon="11.278549265116453">
        <ele>2103.840000000000146</ele>
        <time>2015-03-13T11:37:57Z</time>
      </trkpt>
      <trkpt lat="47.31716288253665" lon="11.278550857678056">
        <ele>2102.739999999999782</ele>
        <time>2015-03-13T11:37:58Z</time>
      </trkpt>
      <trkpt lat="47.317163133993745" lon="11.278559239581227">
        <ele>2102.300000000000182</ele>
        <time>2015-03-13T11:38:03Z</time>
      </trkpt>
      <trkpt lat="47.317143939435482" lon="11.278661917895079">
        <ele>2105.340000000000146</ele>
        <time>2015-03-13T11:38:19Z</time>
      </trkpt>
      <trkpt lat="47.317145867273211" lon="11.278743473812938">
        <ele>2108.679999999999836</ele>
        <time>2015-03-13T11:38:28Z</time>
      </trkpt>
      <trkpt lat="47.317152740433812" lon="11.278777336701751">
        <ele>2109.059999999999945</ele>
        <time>2015-03-13T11:38:32Z</time>
      </trkpt>
      <trkpt lat="47.317145615816116" lon="11.278834752738476">
        <ele>2110.440000000000055</ele>
        <time>2015-03-13T11:38:48Z</time>
      </trkpt>
      <trkpt lat="47.317144442349672" lon="11.278847074136138">
        <ele>2110.420000000000073</ele>
        <time>2015-03-13T11:38:53Z</time>
      </trkpt>
      <trkpt lat="47.317099012434483" lon="11.278888396918774">
        <ele>2110.340000000000146</ele>
        <time>2015-03-13T11:39:18Z</time>
      </trkpt>
      <trkpt lat="47.317094318568707" lon="11.278955871239305">
        <ele>2113.440000000000055</ele>
        <time>2015-03-13T11:39:27Z</time>
      </trkpt>
      <trkpt lat="47.317133545875549" lon="11.279009180143476">
        <ele>2113.550000000000182</ele>
        <time>2015-03-13T11:39:42Z</time>
      </trkpt>
      <trkpt lat="47.31714678928256" lon="11.279025189578533">
        <ele>2114.2199999999998</ele>
        <time>2015-03-13T11:40:02Z</time>
      </trkpt>
      <trkpt lat="47.317136563360691" lon="11.279013538733125">
        <ele>2113.559999999999945</ele>
        <time>2015-03-13T11:40:42Z</time>
      </trkpt>
      <trkpt lat="47.317155757918954" lon="11.279040528461337">
        <ele>2111.2199999999998</ele>
        <time>2015-03-13T11:40:59Z</time>
      </trkpt>
      <trkpt lat="47.317159362137318" lon="11.279046479612589">
        <ele>2116.739999999999782</ele>
        <time>2015-03-13T11:41:03Z</time>
      </trkpt>
      <trkpt lat="47.317160535603762" lon="11.279045809060335">
        <ele>2116.599999999999909</ele>
        <time>2015-03-13T11:41:04Z</time>
      </trkpt>
      <trkpt lat="47.317164558917284" lon="11.279049916192889">
        <ele>2114.550000000000182</ele>
        <time>2015-03-13T11:41:06Z</time>
      </trkpt>
      <trkpt lat="47.31716925278306" lon="11.279057208448648">
        <ele>2113.2199999999998</ele>
        <time>2015-03-13T11:41:08Z</time>
      </trkpt>
      <trkpt lat="47.317172521725297" lon="11.279072714969516">
        <ele>2117.349999999999909</ele>
        <time>2015-03-13T11:41:15Z</time>
      </trkpt>
      <trkpt lat="47.317172521725297" lon="11.279071206226945">
        <ele>2112.769999999999982</ele>
        <time>2015-03-13T11:41:16Z</time>
      </trkpt>
      <trkpt lat="47.317173276096582" lon="11.279060142114758">
        <ele>2112.510000000000218</ele>
        <time>2015-03-13T11:41:45Z</time>
      </trkpt>
      <trkpt lat="47.317147711291909" lon="11.279042540118098">
        <ele>2108.449999999999818</ele>
        <time>2015-03-13T11:42:06Z</time>
      </trkpt>
      <trkpt lat="47.317141676321626" lon="11.279038265347481">
        <ele>2111.860000000000127</ele>
        <time>2015-03-13T11:42:07Z</time>
      </trkpt>
      <trkpt lat="47.317133964970708" lon="11.279037091881037">
        <ele>2113.269999999999982</ele>
        <time>2015-03-13T11:42:16Z</time>
      </trkpt>
      <trkpt lat="47.317133797332644" lon="11.279038097709417">
        <ele>2109.329999999999927</ele>
        <time>2015-03-13T11:42:17Z</time>
      </trkpt>
      <trkpt lat="47.317134719341993" lon="11.279035918414593">
        <ele>2112.289999999999964</ele>
        <time>2015-03-13T11:42:18Z</time>
      </trkpt>
      <trkpt lat="47.31714628636837" lon="11.279009934514761">
        <ele>2112.070000000000164</ele>
        <time>2015-03-13T11:42:42Z</time>
      </trkpt>
      <trkpt lat="47.317161122336984" lon="11.279000965878367">
        <ele>2111.860000000000127</ele>
        <time>2015-03-13T11:42:49Z</time>
      </trkpt>
      <trkpt lat="47.317166402935982" lon="11.279035247862339">
        <ele>2111.639999999999873</ele>
        <time>2015-03-13T11:43:23Z</time>
      </trkpt>
      <trkpt lat="47.317146956920624" lon="11.278984704986215">
        <ele>2111.260000000000218</ele>
        <time>2015-03-13T11:43:58Z</time>
      </trkpt>
      <trkpt lat="47.317147292196751" lon="11.27897028811276">
        <ele>2110.989999999999782</ele>
        <time>2015-03-13T11:44:21Z</time>
      </trkpt>
      <trkpt lat="47.317151818424463" lon="11.278959391638637">
        <ele>2110.599999999999909</ele>
        <time>2015-03-13T11:44:41Z</time>
      </trkpt>
      <trkpt lat="47.317151818424463" lon="11.278966851532459">
        <ele>2110.829999999999927</ele>
        <time>2015-03-13T11:45:01Z</time>
      </trkpt>
      <trkpt lat="47.317156009376049" lon="11.278955284506083">
        <ele>2110.929999999999836</ele>
        <time>2015-03-13T11:45:19Z</time>
      </trkpt>
      <trkpt lat="47.317175203934312" lon="11.278952602297068">
        <ele>2111.170000000000073</ele>
        <time>2015-03-13T11:45:38Z</time>
      </trkpt>
      <trkpt lat="47.317168414592743" lon="11.278921002522111">
        <ele>2110.739999999999782</ele>
        <time>2015-03-13T11:45:55Z</time>
      </trkpt>
      <trkpt lat="47.317191381007433" lon="11.278943549841642">
        <ele>2110.809999999999945</ele>
        <time>2015-03-13T11:46:11Z</time>
      </trkpt>
      <trkpt lat="47.317184004932642" lon="11.278964672237635">
        <ele>2110.599999999999909</ele>
        <time>2015-03-13T11:46:27Z</time>
      </trkpt>
      <trkpt lat="47.317179562523961" lon="11.278985710814595">
        <ele>2110.730000000000018</ele>
        <time>2015-03-13T11:46:43Z</time>
      </trkpt>
      <trkpt lat="47.317173611372709" lon="11.278992332518101">
        <ele>2110.070000000000164</ele>
        <time>2015-03-13T11:47:02Z</time>
      </trkpt>
      <trkpt lat="47.317169168964028" lon="11.278983112424612">
        <ele>2109.7800000000002</ele>
        <time>2015-03-13T11:47:17Z</time>
      </trkpt>
      <trkpt lat="47.317160870879889" lon="11.278966180980206">
        <ele>2109.809999999999945</ele>
        <time>2015-03-13T11:47:34Z</time>
      </trkpt>
      <trkpt lat="47.317147459834814" lon="11.278952015563846">
        <ele>2109.710000000000036</ele>
        <time>2015-03-13T11:47:50Z</time>
      </trkpt>
      <trkpt lat="47.317141173407435" lon="11.278960900381207">
        <ele>2109.5300000000002</ele>
        <time>2015-03-13T11:48:13Z</time>
      </trkpt>
      <trkpt lat="47.3171550873667" lon="11.278975736349821">
        <ele>2108.949999999999818</ele>
        <time>2015-03-13T11:48:37Z</time>
      </trkpt>
      <trkpt lat="47.317170929163694" lon="11.278968444094062">
        <ele>2109.090000000000146</ele>
        <time>2015-03-13T11:49:00Z</time>
      </trkpt>
      <trkpt lat="47.317164056003094" lon="11.278967605903745">
        <ele>2109.260000000000218</ele>
        <time>2015-03-13T11:49:22Z</time>
      </trkpt>
      <trkpt lat="47.317161876708269" lon="11.278965258970857">
        <ele>2109.010000000000218</ele>
        <time>2015-03-13T11:49:46Z</time>
      </trkpt>
      <trkpt lat="47.317140670493245" lon="11.278957379981875">
        <ele>2109.489999999999782</ele>
        <time>2015-03-13T11:50:07Z</time>
      </trkpt>
      <trkpt lat="47.317122146487236" lon="11.278939694166183">
        <ele>2109.739999999999782</ele>
        <time>2015-03-13T11:50:35Z</time>
      </trkpt>
      <trkpt lat="47.31711988337338" lon="11.278933826833963">
        <ele>2109.510000000000218</ele>
        <time>2015-03-13T11:51:01Z</time>
      </trkpt>
      <trkpt lat="47.317123152315617" lon="11.278932569548488">
        <ele>2108.539999999999964</ele>
        <time>2015-03-13T11:51:27Z</time>
      </trkpt>
      <trkpt lat="47.317127007991076" lon="11.278936006128788">
        <ele>2108.909999999999854</ele>
        <time>2015-03-13T11:51:52Z</time>
      </trkpt>
      <trkpt lat="47.317134970799088" lon="11.278955535963178">
        <ele>2109.5300000000002</ele>
        <time>2015-03-13T11:52:23Z</time>
      </trkpt>
      <trkpt lat="47.317144358530641" lon="11.278946315869689">
        <ele>2109.829999999999927</ele>
        <time>2015-03-13T11:52:52Z</time>
      </trkpt>
      <trkpt lat="47.317145448178053" lon="11.278974730521441">
        <ele>2110.699999999999818</ele>
        <time>2015-03-13T11:53:18Z</time>
      </trkpt>
      <trkpt lat="47.317144526168704" lon="11.278971377760172">
        <ele>2106.699999999999818</ele>
        <time>2015-03-13T11:53:22Z</time>
      </trkpt>
      <trkpt lat="47.317143436521292" lon="11.278979256749153">
        <ele>2111.210000000000036</ele>
        <time>2015-03-13T11:53:23Z</time>
      </trkpt>
      <trkpt lat="47.317163720726967" lon="11.279044467955828">
        <ele>2109.880000000000109</ele>
        <time>2015-03-13T11:53:46Z</time>
      </trkpt>
      <trkpt lat="47.317158523947001" lon="11.279011610895395">
        <ele>2111.320000000000164</ele>
        <time>2015-03-13T11:54:14Z</time>
      </trkpt>
      <trkpt lat="47.317135473713279" lon="11.279012700542808">
        <ele>2109.7800000000002</ele>
        <time>2015-03-13T11:54:43Z</time>
      </trkpt>
      <trkpt lat="47.317132204771042" lon="11.27899912185967">
        <ele>2110.159999999999854</ele>
        <time>2015-03-13T11:55:09Z</time>
      </trkpt>
      <trkpt lat="47.317139329388738" lon="11.278994344174862">
        <ele>2110.059999999999945</ele>
        <time>2015-03-13T11:55:39Z</time>
      </trkpt>
      <trkpt lat="47.317122397944331" lon="11.279013706371188">
        <ele>2109.809999999999945</ele>
        <time>2015-03-13T11:56:10Z</time>
      </trkpt>
      <trkpt lat="47.317146370187402" lon="11.279028793796897">
        <ele>2110.059999999999945</ele>
        <time>2015-03-13T11:56:43Z</time>
      </trkpt>
      <trkpt lat="47.317204959690571" lon="11.279067518189549">
        <ele>2109.809999999999945</ele>
        <time>2015-03-13T11:57:15Z</time>
      </trkpt>
      <trkpt lat="47.317231195047498" lon="11.279076486825943">
        <ele>2110.230000000000018</ele>
        <time>2015-03-13T11:57:47Z</time>
      </trkpt>
      <trkpt lat="47.317212000489235" lon="11.279060896486044">
        <ele>2109.670000000000073</ele>
        <time>2015-03-13T11:58:21Z</time>
      </trkpt>
      <trkpt lat="47.317207474261522" lon="11.27904555760324">
        <ele>2109.9699999999998</ele>
        <time>2015-03-13T11:58:31Z</time>
      </trkpt>
      <trkpt lat="47.317195739597082" lon="11.279039354994893">
        <ele>2111.630000000000109</ele>
        <time>2015-03-13T11:58:53Z</time>
      </trkpt>
      <trkpt lat="47.317201104015112" lon="11.279052598401904">
        <ele>2110.550000000000182</ele>
        <time>2015-03-13T11:59:17Z</time>
      </trkpt>
      <trkpt lat="47.317189369350672" lon="11.279042791575193">
        <ele>2110.760000000000218</ele>
        <time>2015-03-13T11:59:38Z</time>
      </trkpt>
      <trkpt lat="47.31716682203114" lon="11.279025608673692">
        <ele>2109.949999999999818</ele>
        <time>2015-03-13T12:00:00Z</time>
      </trkpt>
      <trkpt lat="47.317166067659855" lon="11.27902602776885">
        <ele>2110.139999999999873</ele>
        <time>2015-03-13T12:00:20Z</time>
      </trkpt>
      <trkpt lat="47.317165397107601" lon="11.279028626158834">
        <ele>2110.050000000000182</ele>
        <time>2015-03-13T12:00:43Z</time>
      </trkpt>
      <trkpt lat="47.317156763747334" lon="11.279012616723776">
        <ele>2110.2199999999998</ele>
        <time>2015-03-13T12:00:47Z</time>
      </trkpt>
      <trkpt lat="47.317110830917954" lon="11.278883954510093">
        <ele>2107.800000000000182</ele>
        <time>2015-03-13T12:00:51Z</time>
      </trkpt>
      <trkpt lat="47.317129857838154" lon="11.27883986569941">
        <ele>2106.050000000000182</ele>
        <time>2015-03-13T12:00:53Z</time>
      </trkpt>
      <trkpt lat="47.317156512290239" lon="11.278718495741487">
        <ele>2104.309999999999945</ele>
        <time>2015-03-13T12:00:56Z</time>
      </trkpt>
      <trkpt lat="47.3171516507864" lon="11.278654122725129">
        <ele>2101.699999999999818</ele>
        <time>2015-03-13T12:00:57Z</time>
      </trkpt>
      <trkpt lat="47.317145448178053" lon="11.278619337826967">
        <ele>2100.610000000000127</ele>
        <time>2015-03-13T12:00:58Z</time>
      </trkpt>
      <trkpt lat="47.317143687978387" lon="11.278611542657018">
        <ele>2100.460000000000036</ele>
        <time>2015-03-13T12:00:59Z</time>
      </trkpt>
      <trkpt lat="47.317150309681892" lon="11.278565609827638">
        <ele>2099.559999999999945</ele>
        <time>2015-03-13T12:01:03Z</time>
      </trkpt>
      <trkpt lat="47.317167827859521" lon="11.278553288429976">
        <ele>2098.840000000000146</ele>
        <time>2015-03-13T12:01:04Z</time>
      </trkpt>
      <trkpt lat="47.317184759303927" lon="11.278532333672047">
        <ele>2098.329999999999927</ele>
        <time>2015-03-13T12:01:05Z</time>
      </trkpt>
      <trkpt lat="47.317211329936981" lon="11.278514228761196">
        <ele>2095.099999999999909</ele>
        <time>2015-03-13T12:01:06Z</time>
      </trkpt>
      <trkpt lat="47.317243767902255" lon="11.278514144942164">
        <ele>2094.550000000000182</ele>
        <time>2015-03-13T12:01:07Z</time>
      </trkpt>
      <trkpt lat="47.317279977723956" lon="11.278496040031314">
        <ele>2090.429999999999836</ele>
        <time>2015-03-13T12:01:09Z</time>
      </trkpt>
      <trkpt lat="47.317301016300917" lon="11.278449771925807">
        <ele>2089.849999999999909</ele>
        <time>2015-03-13T12:01:18Z</time>
      </trkpt>
      <trkpt lat="47.317304033786058" lon="11.278425296768546">
        <ele>2088.809999999999945</ele>
        <time>2015-03-13T12:01:19Z</time>
      </trkpt>
      <trkpt lat="47.317312248051167" lon="11.278391098603606">
        <ele>2088.579999999999927</ele>
        <time>2015-03-13T12:01:21Z</time>
      </trkpt>
      <trkpt lat="47.317316355183721" lon="11.278373831883073">
        <ele>2087.559999999999945</ele>
        <time>2015-03-13T12:01:22Z</time>
      </trkpt>
      <trkpt lat="47.317321635782719" lon="11.278350446373224">
        <ele>2087.570000000000164</ele>
        <time>2015-03-13T12:01:23Z</time>
      </trkpt>
      <trkpt lat="47.317333789542317" lon="11.278321361169219">
        <ele>2085.619999999999891</ele>
        <time>2015-03-13T12:01:24Z</time>
      </trkpt>
      <trkpt lat="47.317348206415772" lon="11.278305854648352">
        <ele>2083.760000000000218</ele>
        <time>2015-03-13T12:01:25Z</time>
      </trkpt>
      <trkpt lat="47.317368406802416" lon="11.278308117762208">
        <ele>2083.880000000000109</ele>
        <time>2015-03-13T12:01:26Z</time>
      </trkpt>
      <trkpt lat="47.317387852817774" lon="11.278293365612626">
        <ele>2080.5</ele>
        <time>2015-03-13T12:01:28Z</time>
      </trkpt>
      <trkpt lat="47.317387768998742" lon="11.278262520208955">
        <ele>2080.409999999999854</ele>
        <time>2015-03-13T12:01:29Z</time>
      </trkpt>
      <trkpt lat="47.31738718226552" lon="11.278232512995601">
        <ele>2078.820000000000164</ele>
        <time>2015-03-13T12:01:30Z</time>
      </trkpt>
      <trkpt lat="47.317400509491563" lon="11.278225220739841">
        <ele>2076.670000000000073</ele>
        <time>2015-03-13T12:01:31Z</time>
      </trkpt>
      <trkpt lat="47.317425236105919" lon="11.278244750574231">
        <ele>2075.2800000000002</ele>
        <time>2015-03-13T12:01:32Z</time>
      </trkpt>
      <trkpt lat="47.317449208348989" lon="11.278258245438337">
        <ele>2074.179999999999836</ele>
        <time>2015-03-13T12:01:33Z</time>
      </trkpt>
      <trkpt lat="47.317458344623446" lon="11.278236201032996">
        <ele>2071.340000000000146</ele>
        <time>2015-03-13T12:01:34Z</time>
      </trkpt>
      <trkpt lat="47.317455662414432" lon="11.278192531317472">
        <ele>2069.869999999999891</ele>
        <time>2015-03-13T12:01:35Z</time>
      </trkpt>
      <trkpt lat="47.317462367936969" lon="11.278091026470065">
        <ele>2066.849999999999909</ele>
        <time>2015-03-13T12:01:38Z</time>
      </trkpt>
      <trkpt lat="47.31748390942812" lon="11.278085494413972">
        <ele>2065.050000000000182</ele>
        <time>2015-03-13T12:01:39Z</time>
      </trkpt>
      <trkpt lat="47.317514587193727" lon="11.278087925165892">
        <ele>2063.659999999999854</ele>
        <time>2015-03-13T12:01:40Z</time>
      </trkpt>
      <trkpt lat="47.317527998238802" lon="11.278057498857379">
        <ele>2060.800000000000182</ele>
        <time>2015-03-13T12:01:41Z</time>
      </trkpt>
      <trkpt lat="47.31752741150558" lon="11.278020450845361">
        <ele>2060.190000000000055</ele>
        <time>2015-03-13T12:01:42Z</time>
      </trkpt>
      <trkpt lat="47.317550713196397" lon="11.277982480823994">
        <ele>2056.5</ele>
        <time>2015-03-13T12:01:44Z</time>
      </trkpt>
      <trkpt lat="47.317578541114926" lon="11.277933698147535">
        <ele>2053.199999999999818</ele>
        <time>2015-03-13T12:01:46Z</time>
      </trkpt>
      <trkpt lat="47.31757971458137" lon="11.277892710641026">
        <ele>2051.849999999999909</ele>
        <time>2015-03-13T12:01:47Z</time>
      </trkpt>
      <trkpt lat="47.31757870875299" lon="11.277849711477757">
        <ele>2050.9699999999998</ele>
        <time>2015-03-13T12:01:48Z</time>
      </trkpt>
      <trkpt lat="47.31761927716434" lon="11.277808807790279">
        <ele>2046.3900000000001</ele>
        <time>2015-03-13T12:01:51Z</time>
      </trkpt>
      <trkpt lat="47.317643249407411" lon="11.277794642373919">
        <ele>2045.089999999999918</ele>
        <time>2015-03-13T12:01:52Z</time>
      </trkpt>
      <trkpt lat="47.317664455622435" lon="11.277717277407646">
        <ele>2041.509999999999991</ele>
        <time>2015-03-13T12:01:54Z</time>
      </trkpt>
      <trkpt lat="47.317671999335289" lon="11.277685509994626">
        <ele>2041.160000000000082</ele>
        <time>2015-03-13T12:01:55Z</time>
      </trkpt>
      <trkpt lat="47.317693373188376" lon="11.277681654319167">
        <ele>2038.3900000000001</ele>
        <time>2015-03-13T12:01:56Z</time>
      </trkpt>
      <trkpt lat="47.31771994382143" lon="11.277705375105143">
        <ele>2036.829999999999927</ele>
        <time>2015-03-13T12:01:57Z</time>
      </trkpt>
      <trkpt lat="47.317748945206404" lon="11.277718869969249">
        <ele>2036.130000000000109</ele>
        <time>2015-03-13T12:01:58Z</time>
      </trkpt>
      <trkpt lat="47.317765206098557" lon="11.27771895378828">
        <ele>2033.789999999999964</ele>
        <time>2015-03-13T12:01:59Z</time>
      </trkpt>
      <trkpt lat="47.317768977954984" lon="11.277689030393958">
        <ele>2032.789999999999964</ele>
        <time>2015-03-13T12:02:00Z</time>
      </trkpt>
      <trkpt lat="47.317775851115584" lon="11.277644690126181">
        <ele>2031.720000000000027</ele>
        <time>2015-03-13T12:02:01Z</time>
      </trkpt>
      <trkpt lat="47.317788675427437" lon="11.27760655246675">
        <ele>2030.329999999999927</ele>
        <time>2015-03-13T12:02:02Z</time>
      </trkpt>
      <trkpt lat="47.317811055108905" lon="11.277595907449722">
        <ele>2027.440000000000055</ele>
        <time>2015-03-13T12:02:03Z</time>
      </trkpt>
      <trkpt lat="47.317828321829438" lon="11.277633709833026">
        <ele>2026.930000000000064</ele>
        <time>2015-03-13T12:02:04Z</time>
      </trkpt>
      <trkpt lat="47.317880038172007" lon="11.277671679854393">
        <ele>2026.730000000000018</ele>
        <time>2015-03-13T12:02:17Z</time>
      </trkpt>
      <trkpt lat="47.317946758121252" lon="11.277656508609653">
        <ele>2025.930000000000064</ele>
        <time>2015-03-13T12:02:33Z</time>
      </trkpt>
      <trkpt lat="47.317978274077177" lon="11.277663633227348">
        <ele>2024.940000000000055</ele>
        <time>2015-03-13T12:02:34Z</time>
      </trkpt>
      <trkpt lat="47.318014986813068" lon="11.277676122263074">
        <ele>2024.369999999999891</ele>
        <time>2015-03-13T12:02:35Z</time>
      </trkpt>
      <trkpt lat="47.318123364821076" lon="11.277722725644708">
        <ele>2020.670000000000073</ele>
        <time>2015-03-13T12:02:38Z</time>
      </trkpt>
      <trkpt lat="47.318223947659135" lon="11.277809897437692">
        <ele>2018.259999999999991</ele>
        <time>2015-03-13T12:02:42Z</time>
      </trkpt>
      <trkpt lat="47.318283123895526" lon="11.277865385636687">
        <ele>2016.529999999999973</ele>
        <time>2015-03-13T12:02:45Z</time>
      </trkpt>
      <trkpt lat="47.318305335938931" lon="11.277869325131178">
        <ele>2016.059999999999945</ele>
        <time>2015-03-13T12:02:46Z</time>
      </trkpt>
      <trkpt lat="47.318331571295857" lon="11.277863709256053">
        <ele>2015.460000000000036</ele>
        <time>2015-03-13T12:02:47Z</time>
      </trkpt>
      <trkpt lat="47.318344647064805" lon="11.27781861461699">
        <ele>2012.980000000000018</ele>
        <time>2015-03-13T12:02:48Z</time>
      </trkpt>
      <trkpt lat="47.318409187719226" lon="11.277742339298129">
        <ele>2008</ele>
        <time>2015-03-13T12:02:50Z</time>
      </trkpt>
      <trkpt lat="47.318449588492513" lon="11.277751391753554">
        <ele>2005.700000000000045</ele>
        <time>2015-03-13T12:02:51Z</time>
      </trkpt>
      <trkpt lat="47.318491414189339" lon="11.277772597968578">
        <ele>2004.630000000000109</ele>
        <time>2015-03-13T12:02:52Z</time>
      </trkpt>
      <trkpt lat="47.318533156067133" lon="11.277795983478427">
        <ele>2003.539999999999964</ele>
        <time>2015-03-13T12:02:53Z</time>
      </trkpt>
      <trkpt lat="47.318575149402022" lon="11.277806963771582">
        <ele>2002.680000000000064</ele>
        <time>2015-03-13T12:02:54Z</time>
      </trkpt>
      <trkpt lat="47.318609012290835" lon="11.277787517756224">
        <ele>2000.319999999999936</ele>
        <time>2015-03-13T12:02:55Z</time>
      </trkpt>
      <trkpt lat="47.318605072796345" lon="11.277738735079765">
        <ele>1998.210000000000036</ele>
        <time>2015-03-13T12:02:56Z</time>
      </trkpt>
      <trkpt lat="47.318599205464125" lon="11.277687354013324">
        <ele>1995.630000000000109</ele>
        <time>2015-03-13T12:02:57Z</time>
      </trkpt>
      <trkpt lat="47.318661063909531" lon="11.277619376778603">
        <ele>1991.880000000000109</ele>
        <time>2015-03-13T12:02:59Z</time>
      </trkpt>
      <trkpt lat="47.318697441369295" lon="11.277596242725849">
        <ele>1989.410000000000082</ele>
        <time>2015-03-13T12:03:00Z</time>
      </trkpt>
      <trkpt lat="47.318711439147592" lon="11.277554836124182">
        <ele>1986.75</ele>
        <time>2015-03-13T12:03:01Z</time>
      </trkpt>
      <trkpt lat="47.31871428899467" lon="11.277511669322848">
        <ele>1984.660000000000082</ele>
        <time>2015-03-13T12:03:02Z</time>
      </trkpt>
      <trkpt lat="47.318737506866455" lon="11.277485266327858">
        <ele>1982.3900000000001</ele>
        <time>2015-03-13T12:03:03Z</time>
      </trkpt>
      <trkpt lat="47.318774638697505" lon="11.277482248842716">
        <ele>1980.730000000000018</ele>
        <time>2015-03-13T12:03:04Z</time>
      </trkpt>
      <trkpt lat="47.318802634254098" lon="11.277458360418677">
        <ele>1979.549999999999955</ele>
        <time>2015-03-13T12:03:05Z</time>
      </trkpt>
      <trkpt lat="47.318805316463113" lon="11.277406644076109">
        <ele>1975.990000000000009</ele>
        <time>2015-03-13T12:03:06Z</time>
      </trkpt>
      <trkpt lat="47.318803640082479" lon="11.277347048744559">
        <ele>1974.240000000000009</ele>
        <time>2015-03-13T12:03:07Z</time>
      </trkpt>
      <trkpt lat="47.318821493536234" lon="11.277291644364595">
        <ele>1971.039999999999964</ele>
        <time>2015-03-13T12:03:08Z</time>
      </trkpt>
      <trkpt lat="47.31887748464942" lon="11.277209417894483">
        <ele>1965.710000000000036</ele>
        <time>2015-03-13T12:03:10Z</time>
      </trkpt>
      <trkpt lat="47.318918220698833" lon="11.277109505608678">
        <ele>1959.970000000000027</ele>
        <time>2015-03-13T12:03:12Z</time>
      </trkpt>
      <trkpt lat="47.318990640342236" lon="11.27702945843339">
        <ele>1955.5</ele>
        <time>2015-03-13T12:03:14Z</time>
      </trkpt>
      <trkpt lat="47.319035148248076" lon="11.276936754584312">
        <ele>1951.099999999999909</ele>
        <time>2015-03-13T12:03:16Z</time>
      </trkpt>
      <trkpt lat="47.319050151854753" lon="11.276888893917203">
        <ele>1948.029999999999973</ele>
        <time>2015-03-13T12:03:17Z</time>
      </trkpt>
      <trkpt lat="47.319088708609343" lon="11.276869364082813">
        <ele>1944.019999999999982</ele>
        <time>2015-03-13T12:03:18Z</time>
      </trkpt>
      <trkpt lat="47.319117290899158" lon="11.276877075433731">
        <ele>1942.430000000000064</ele>
        <time>2015-03-13T12:03:19Z</time>
      </trkpt>
      <trkpt lat="47.31911888346076" lon="11.276870369911194">
        <ele>1940.819999999999936</ele>
        <time>2015-03-13T12:03:20Z</time>
      </trkpt>
      <trkpt lat="47.319138497114182" lon="11.276813037693501">
        <ele>1936.319999999999936</ele>
        <time>2015-03-13T12:03:21Z</time>
      </trkpt>
      <trkpt lat="47.319173449650407" lon="11.276783784851432">
        <ele>1934.6400000000001</ele>
        <time>2015-03-13T12:03:22Z</time>
      </trkpt>
      <trkpt lat="47.319203205406666" lon="11.276762997731566">
        <ele>1931.420000000000073</ele>
        <time>2015-03-13T12:03:23Z</time>
      </trkpt>
      <trkpt lat="47.319209491834044" lon="11.276713879778981">
        <ele>1928.380000000000109</ele>
        <time>2015-03-13T12:03:24Z</time>
      </trkpt>
      <trkpt lat="47.319189794361591" lon="11.276659481227398">
        <ele>1926.460000000000036</ele>
        <time>2015-03-13T12:03:25Z</time>
      </trkpt>
      <trkpt lat="47.319199852645397" lon="11.276608183979988">
        <ele>1923.730000000000018</ele>
        <time>2015-03-13T12:03:26Z</time>
      </trkpt>
      <trkpt lat="47.319232206791639" lon="11.276564178988338">
        <ele>1921.519999999999982</ele>
        <time>2015-03-13T12:03:27Z</time>
      </trkpt>
      <trkpt lat="47.319257687777281" lon="11.276419591158628">
        <ele>1913.460000000000036</ele>
        <time>2015-03-13T12:03:30Z</time>
      </trkpt>
      <trkpt lat="47.319275792688131" lon="11.276370389387012">
        <ele>1910.099999999999909</ele>
        <time>2015-03-13T12:03:31Z</time>
      </trkpt>
      <trkpt lat="47.319274870678782" lon="11.276328479871154">
        <ele>1907.460000000000036</ele>
        <time>2015-03-13T12:03:32Z</time>
      </trkpt>
      <trkpt lat="47.319299932569265" lon="11.276247510686517">
        <ele>1902.920000000000073</ele>
        <time>2015-03-13T12:03:34Z</time>
      </trkpt>
      <trkpt lat="47.319347122684121" lon="11.276179365813732">
        <ele>1898.480000000000018</ele>
        <time>2015-03-13T12:03:36Z</time>
      </trkpt>
      <trkpt lat="47.319403365254402" lon="11.276088757440448">
        <ele>1893.440000000000055</ele>
        <time>2015-03-13T12:03:38Z</time>
      </trkpt>
      <trkpt lat="47.319434881210327" lon="11.275995299220085">
        <ele>1888.289999999999964</ele>
        <time>2015-03-13T12:03:40Z</time>
      </trkpt>
      <trkpt lat="47.319424403831363" lon="11.275925310328603">
        <ele>1886.079999999999927</ele>
        <time>2015-03-13T12:03:41Z</time>
      </trkpt>
      <trkpt lat="47.319457679986954" lon="11.275798408314586">
        <ele>1880.990000000000009</ele>
        <time>2015-03-13T12:03:43Z</time>
      </trkpt>
      <trkpt lat="47.319476120173931" lon="11.275760689750314">
        <ele>1879.160000000000082</ele>
        <time>2015-03-13T12:03:44Z</time>
      </trkpt>
      <trkpt lat="47.319493386894464" lon="11.275664297863841">
        <ele>1875.789999999999964</ele>
        <time>2015-03-13T12:03:46Z</time>
      </trkpt>
      <trkpt lat="47.319532865658402" lon="11.275638481602073">
        <ele>1873.490000000000009</ele>
        <time>2015-03-13T12:03:47Z</time>
      </trkpt>
      <trkpt lat="47.319575781002641" lon="11.275624316185713">
        <ele>1871.599999999999909</ele>
        <time>2015-03-13T12:03:48Z</time>
      </trkpt>
      <trkpt lat="47.319614589214325" lon="11.275580059736967">
        <ele>1868.380000000000109</ele>
        <time>2015-03-13T12:03:49Z</time>
      </trkpt>
      <trkpt lat="47.319616600871086" lon="11.275508310645819">
        <ele>1865.210000000000036</ele>
        <time>2015-03-13T12:03:50Z</time>
      </trkpt>
      <trkpt lat="47.319621127098799" lon="11.275436310097575">
        <ele>1862.349999999999909</ele>
        <time>2015-03-13T12:03:51Z</time>
      </trkpt>
      <trkpt lat="47.319648452103138" lon="11.275385934859514">
        <ele>1859.990000000000009</ele>
        <time>2015-03-13T12:03:52Z</time>
      </trkpt>
      <trkpt lat="47.319670412689447" lon="11.27533195540309">
        <ele>1856.789999999999964</ele>
        <time>2015-03-13T12:03:53Z</time>
      </trkpt>
      <trkpt lat="47.319679884240031" lon="11.275258781388402">
        <ele>1854.8900000000001</ele>
        <time>2015-03-13T12:03:54Z</time>
      </trkpt>
      <trkpt lat="47.319696899503469" lon="11.275194240733981">
        <ele>1852.589999999999918</ele>
        <time>2015-03-13T12:03:55Z</time>
      </trkpt>
      <trkpt lat="47.31972087174654" lon="11.275133388116956">
        <ele>1850.019999999999982</ele>
        <time>2015-03-13T12:03:56Z</time>
      </trkpt>
      <trkpt lat="47.319727158173919" lon="11.275055268779397">
        <ele>1846.869999999999891</ele>
        <time>2015-03-13T12:03:57Z</time>
      </trkpt>
      <trkpt lat="47.319711232557893" lon="11.274969941005111">
        <ele>1843.509999999999991</ele>
        <time>2015-03-13T12:03:58Z</time>
      </trkpt>
      <trkpt lat="47.319705449044704" lon="11.274890983477235">
        <ele>1841.210000000000036</ele>
        <time>2015-03-13T12:03:59Z</time>
      </trkpt>
      <trkpt lat="47.319715591147542" lon="11.274850163608789">
        <ele>1837.809999999999945</ele>
        <time>2015-03-13T12:04:00Z</time>
      </trkpt>
      <trkpt lat="47.319728331640363" lon="11.274839602410793">
        <ele>1837.660000000000082</ele>
        <time>2015-03-13T12:04:01Z</time>
      </trkpt>
      <trkpt lat="47.319759009405971" lon="11.274835579097271">
        <ele>1836.619999999999891</ele>
        <time>2015-03-13T12:04:03Z</time>
      </trkpt>
      <trkpt lat="47.319768564775586" lon="11.274804649874568">
        <ele>1834.880000000000109</ele>
        <time>2015-03-13T12:04:04Z</time>
      </trkpt>
      <trkpt lat="47.319760601967573" lon="11.274761650711298">
        <ele>1833.200000000000045</ele>
        <time>2015-03-13T12:04:05Z</time>
      </trkpt>
      <trkpt lat="47.319745179265738" lon="11.274723093956709">
        <ele>1833.619999999999891</ele>
        <time>2015-03-13T12:04:06Z</time>
      </trkpt>
      <trkpt lat="47.319739982485771" lon="11.274682525545359">
        <ele>1831.670000000000073</ele>
        <time>2015-03-13T12:04:07Z</time>
      </trkpt>
      <trkpt lat="47.319757333025336" lon="11.274641370400786">
        <ele>1829.460000000000036</ele>
        <time>2015-03-13T12:04:08Z</time>
      </trkpt>
      <trkpt lat="47.319800080731511" lon="11.274622930213809">
        <ele>1827.960000000000036</ele>
        <time>2015-03-13T12:04:09Z</time>
      </trkpt>
      <trkpt lat="47.319821454584599" lon="11.274591078981757">
        <ele>1825.799999999999955</ele>
        <time>2015-03-13T12:04:10Z</time>
      </trkpt>
      <trkpt lat="47.31984450481832" lon="11.27454187721014">
        <ele>1823.039999999999964</ele>
        <time>2015-03-13T12:04:11Z</time>
      </trkpt>
      <trkpt lat="47.31987476348877" lon="11.274498710408807">
        <ele>1820.650000000000091</ele>
        <time>2015-03-13T12:04:12Z</time>
      </trkpt>
      <trkpt lat="47.319906279444695" lon="11.274463087320328">
        <ele>1819.529999999999973</ele>
        <time>2015-03-13T12:04:13Z</time>
      </trkpt>
      <trkpt lat="47.319928742945194" lon="11.274403827264905">
        <ele>1817.3900000000001</ele>
        <time>2015-03-13T12:04:14Z</time>
      </trkpt>
      <trkpt lat="47.31995590031147" lon="11.274314057081938">
        <ele>1813.509999999999991</ele>
        <time>2015-03-13T12:04:15Z</time>
      </trkpt>
      <trkpt lat="47.319998815655708" lon="11.274224789813161">
        <ele>1808.940000000000055</ele>
        <time>2015-03-13T12:04:16Z</time>
      </trkpt>
      <trkpt lat="47.320035863667727" lon="11.274204924702644">
        <ele>1807.329999999999927</ele>
        <time>2015-03-13T12:04:17Z</time>
      </trkpt>
      <trkpt lat="47.320052962750196" lon="11.274202074855566">
        <ele>1807.829999999999927</ele>
        <time>2015-03-13T12:04:18Z</time>
      </trkpt>
      <trkpt lat="47.320066625252366" lon="11.274203499779105">
        <ele>1807.019999999999982</ele>
        <time>2015-03-13T12:04:20Z</time>
      </trkpt>
      <trkpt lat="47.320077605545521" lon="11.274183634668589">
        <ele>1806.059999999999945</ele>
        <time>2015-03-13T12:04:21Z</time>
      </trkpt>
      <trkpt lat="47.32008196413517" lon="11.274140635505319">
        <ele>1803.980000000000018</ele>
        <time>2015-03-13T12:04:22Z</time>
      </trkpt>
      <trkpt lat="47.320071570575237" lon="11.27403317950666">
        <ele>1800.75</ele>
        <time>2015-03-13T12:04:24Z</time>
      </trkpt>
      <trkpt lat="47.320104008540511" lon="11.273987917229533">
        <ele>1798.849999999999909</ele>
        <time>2015-03-13T12:04:25Z</time>
      </trkpt>
      <trkpt lat="47.320146840065718" lon="11.273969979956746">
        <ele>1796.990000000000009</ele>
        <time>2015-03-13T12:04:26Z</time>
      </trkpt>
      <trkpt lat="47.32017726637423" lon="11.273946426808834">
        <ele>1795.079999999999927</ele>
        <time>2015-03-13T12:04:27Z</time>
      </trkpt>
      <trkpt lat="47.320194197818637" lon="11.27389881759882">
        <ele>1793.329999999999927</ele>
        <time>2015-03-13T12:04:28Z</time>
      </trkpt>
      <trkpt lat="47.320219008252025" lon="11.273843413218856">
        <ele>1791.630000000000109</ele>
        <time>2015-03-13T12:04:29Z</time>
      </trkpt>
      <trkpt lat="47.320261504501104" lon="11.273806616663933">
        <ele>1789.119999999999891</ele>
        <time>2015-03-13T12:04:30Z</time>
      </trkpt>
      <trkpt lat="47.320288829505444" lon="11.273760097101331">
        <ele>1787.269999999999982</ele>
        <time>2015-03-13T12:04:31Z</time>
      </trkpt>
      <trkpt lat="47.320296205580235" lon="11.273697484284639">
        <ele>1784.559999999999945</ele>
        <time>2015-03-13T12:04:32Z</time>
      </trkpt>
      <trkpt lat="47.320312969386578" lon="11.273637218400836">
        <ele>1782.940000000000055</ele>
        <time>2015-03-13T12:04:33Z</time>
      </trkpt>
      <trkpt lat="47.32034926302731" lon="11.273596230894327">
        <ele>1782.089999999999918</ele>
        <time>2015-03-13T12:04:34Z</time>
      </trkpt>
      <trkpt lat="47.320377845317125" lon="11.273552644997835">
        <ele>1779.1099999999999</ele>
        <time>2015-03-13T12:04:35Z</time>
      </trkpt>
      <trkpt lat="47.320395866408944" lon="11.273491960018873">
        <ele>1776.970000000000027</ele>
        <time>2015-03-13T12:04:36Z</time>
      </trkpt>
      <trkpt lat="47.320423191413283" lon="11.273435046896338">
        <ele>1774.569999999999936</ele>
        <time>2015-03-13T12:04:37Z</time>
      </trkpt>
      <trkpt lat="47.32046065852046" lon="11.27340679988265">
        <ele>1773.269999999999982</ele>
        <time>2015-03-13T12:04:38Z</time>
      </trkpt>
      <trkpt lat="47.320481697097421" lon="11.273360112681985">
        <ele>1770.170000000000073</ele>
        <time>2015-03-13T12:04:39Z</time>
      </trkpt>
      <trkpt lat="47.320495862513781" lon="11.273304708302021">
        <ele>1768.309999999999945</ele>
        <time>2015-03-13T12:04:40Z</time>
      </trkpt>
      <trkpt lat="47.32052612118423" lon="11.273253494873643">
        <ele>1765.150000000000091</ele>
        <time>2015-03-13T12:04:41Z</time>
      </trkpt>
      <trkpt lat="47.320569539442658" lon="11.273221727460623">
        <ele>1763.380000000000109</ele>
        <time>2015-03-13T12:04:42Z</time>
      </trkpt>
      <trkpt lat="47.320604659616947" lon="11.273178560659289">
        <ele>1760.519999999999982</ele>
        <time>2015-03-13T12:04:43Z</time>
      </trkpt>
      <trkpt lat="47.320631481707096" lon="11.273121312260628">
        <ele>1758.450000000000045</ele>
        <time>2015-03-13T12:04:44Z</time>
      </trkpt>
      <trkpt lat="47.320671379566193" lon="11.273067919537425">
        <ele>1755.029999999999973</ele>
        <time>2015-03-13T12:04:45Z</time>
      </trkpt>
      <trkpt lat="47.320724856108427" lon="11.273035146296024">
        <ele>1753.75</ele>
        <time>2015-03-13T12:04:46Z</time>
      </trkpt>
      <trkpt lat="47.320768861100078" lon="11.272990638390183">
        <ele>1750.460000000000036</ele>
        <time>2015-03-13T12:04:47Z</time>
      </trkpt>
      <trkpt lat="47.320812866091728" lon="11.27292500808835">
        <ele>1748.349999999999909</ele>
        <time>2015-03-13T12:04:48Z</time>
      </trkpt>
      <trkpt lat="47.320868354290724" lon="11.272872956469655">
        <ele>1744.970000000000027</ele>
        <time>2015-03-13T12:04:49Z</time>
      </trkpt>
      <trkpt lat="47.320912191644311" lon="11.272817049175501">
        <ele>1742.430000000000064</ele>
        <time>2015-03-13T12:04:50Z</time>
      </trkpt>
      <trkpt lat="47.320947898551822" lon="11.272738259285688">
        <ele>1739.670000000000073</ele>
        <time>2015-03-13T12:04:51Z</time>
      </trkpt>
      <trkpt lat="47.32099961489439" lon="11.272673886269331">
        <ele>1736.849999999999909</ele>
        <time>2015-03-13T12:04:52Z</time>
      </trkpt>
      <trkpt lat="47.321058372035623" lon="11.272628707811236">
        <ele>1734.269999999999982</ele>
        <time>2015-03-13T12:04:53Z</time>
      </trkpt>
      <trkpt lat="47.321094330400229" lon="11.272571459412575">
        <ele>1730.799999999999955</ele>
        <time>2015-03-13T12:04:54Z</time>
      </trkpt>
      <trkpt lat="47.321123499423265" lon="11.272500548511744">
        <ele>1728.779999999999973</ele>
        <time>2015-03-13T12:04:55Z</time>
      </trkpt>
      <trkpt lat="47.321167755872011" lon="11.27245394513011">
        <ele>1725.339999999999918</ele>
        <time>2015-03-13T12:04:56Z</time>
      </trkpt>
      <trkpt lat="47.321201283484697" lon="11.272409604862332">
        <ele>1724.240000000000009</ele>
        <time>2015-03-13T12:04:57Z</time>
      </trkpt>
      <trkpt lat="47.321228021755815" lon="11.272335927933455">
        <ele>1721.920000000000073</ele>
        <time>2015-03-13T12:04:58Z</time>
      </trkpt>
      <trkpt lat="47.321263309568167" lon="11.272264765575528">
        <ele>1719.920000000000073</ele>
        <time>2015-03-13T12:04:59Z</time>
      </trkpt>
      <trkpt lat="47.321302620694041" lon="11.272194273769855">
        <ele>1717.519999999999982</ele>
        <time>2015-03-13T12:05:00Z</time>
      </trkpt>
      <trkpt lat="47.321323407813907" lon="11.272130822762847">
        <ele>1716.420000000000073</ele>
        <time>2015-03-13T12:05:01Z</time>
      </trkpt>
      <trkpt lat="47.321318965405226" lon="11.272099474444985">
        <ele>1715.599999999999909</ele>
        <time>2015-03-13T12:05:09Z</time>
      </trkpt>
      <trkpt lat="47.321313600987196" lon="11.272103246301413">
        <ele>1715.519999999999982</ele>
        <time>2015-03-13T12:05:28Z</time>
      </trkpt>
      <trkpt lat="47.321290047839284" lon="11.272138198837638">
        <ele>1715.819999999999936</ele>
        <time>2015-03-13T12:05:50Z</time>
      </trkpt>
      <trkpt lat="47.321275547146797" lon="11.272098803892732">
        <ele>1715.059999999999945</ele>
        <time>2015-03-13T12:06:07Z</time>
      </trkpt>
      <trkpt lat="47.321284851059318" lon="11.272072652354836">
        <ele>1714.589999999999918</ele>
        <time>2015-03-13T12:06:08Z</time>
      </trkpt>
      <trkpt lat="47.321313600987196" lon="11.272043818607926">
        <ele>1713.440000000000055</ele>
        <time>2015-03-13T12:06:09Z</time>
      </trkpt>
      <trkpt lat="47.321352073922753" lon="11.272005680948496">
        <ele>1712.420000000000073</ele>
        <time>2015-03-13T12:06:10Z</time>
      </trkpt>
      <trkpt lat="47.32139197178185" lon="11.271957317367196">
        <ele>1710.650000000000091</ele>
        <time>2015-03-13T12:06:11Z</time>
      </trkpt>
      <trkpt lat="47.321482077240944" lon="11.271857405081391">
        <ele>1705.75</ele>
        <time>2015-03-13T12:06:13Z</time>
      </trkpt>
      <trkpt lat="47.3215327039361" lon="11.271803006529808">
        <ele>1703.490000000000009</ele>
        <time>2015-03-13T12:06:14Z</time>
      </trkpt>
      <trkpt lat="47.321657426655293" lon="11.271711140871048">
        <ele>1699.470000000000027</ele>
        <time>2015-03-13T12:06:16Z</time>
      </trkpt>
      <trkpt lat="47.321718279272318" lon="11.271677948534489">
        <ele>1696.740000000000009</ele>
        <time>2015-03-13T12:06:17Z</time>
      </trkpt>
      <trkpt lat="47.321777371689677" lon="11.271648611873388">
        <ele>1695.470000000000027</ele>
        <time>2015-03-13T12:06:18Z</time>
      </trkpt>
      <trkpt lat="47.321828249841928" lon="11.271610306575894">
        <ele>1693.460000000000036</ele>
        <time>2015-03-13T12:06:19Z</time>
      </trkpt>
      <trkpt lat="47.321875272318721" lon="11.271568313241005">
        <ele>1692.160000000000082</ele>
        <time>2015-03-13T12:06:20Z</time>
      </trkpt>
      <trkpt lat="47.321926737204194" lon="11.271533193066716">
        <ele>1691.019999999999982</ele>
        <time>2015-03-13T12:06:21Z</time>
      </trkpt>
      <trkpt lat="47.321970406919718" lon="11.271482398733497">
        <ele>1689.680000000000064</ele>
        <time>2015-03-13T12:06:22Z</time>
      </trkpt>
      <trkpt lat="47.322007035836577" lon="11.271425988525152">
        <ele>1688.009999999999991</ele>
        <time>2015-03-13T12:06:23Z</time>
      </trkpt>
      <trkpt lat="47.322043580934405" lon="11.271369578316808">
        <ele>1686.279999999999973</ele>
        <time>2015-03-13T12:06:24Z</time>
      </trkpt>
      <trkpt lat="47.322047268971801" lon="11.271285926923156">
        <ele>1685.630000000000109</ele>
        <time>2015-03-13T12:06:26Z</time>
      </trkpt>
      <trkpt lat="47.32203209772706" lon="11.271246615797281">
        <ele>1686.380000000000109</ele>
        <time>2015-03-13T12:06:37Z</time>
      </trkpt>
      <trkpt lat="47.322023967280984" lon="11.271215518936515">
        <ele>1686.910000000000082</ele>
        <time>2015-03-13T12:06:52Z</time>
      </trkpt>
      <trkpt lat="47.322016591206193" lon="11.271273773163557">
        <ele>1686.789999999999964</ele>
        <time>2015-03-13T12:07:13Z</time>
      </trkpt>
      <trkpt lat="47.32201742939651" lon="11.27125097438693">
        <ele>1682.759999999999991</ele>
        <time>2015-03-13T12:07:18Z</time>
      </trkpt>
      <trkpt lat="47.322022207081318" lon="11.271227840334177">
        <ele>1685.990000000000009</ele>
        <time>2015-03-13T12:07:28Z</time>
      </trkpt>
      <trkpt lat="47.322025978937745" lon="11.271188696846366">
        <ele>1685.599999999999909</ele>
        <time>2015-03-13T12:07:50Z</time>
      </trkpt>
      <trkpt lat="47.322012316435575" lon="11.271159695461392">
        <ele>1686.6400000000001</ele>
        <time>2015-03-13T12:08:10Z</time>
      </trkpt>
      <trkpt lat="47.322022374719381" lon="11.271136226132512">
        <ele>1685.849999999999909</ele>
        <time>2015-03-13T12:08:25Z</time>
      </trkpt>
      <trkpt lat="47.322024470195174" lon="11.271123485639691">
        <ele>1686.420000000000073</ele>
        <time>2015-03-13T12:08:50Z</time>
      </trkpt>
      <trkpt lat="47.322025978937745" lon="11.271114349365234">
        <ele>1685.779999999999973</ele>
        <time>2015-03-13T12:09:15Z</time>
      </trkpt>
      <trkpt lat="47.322036037221551" lon="11.271139578893781">
        <ele>1686.349999999999909</ele>
        <time>2015-03-13T12:09:36Z</time>
      </trkpt>
      <trkpt lat="47.322034947574139" lon="11.271179225295782">
        <ele>1686.240000000000009</ele>
        <time>2015-03-13T12:10:08Z</time>
      </trkpt>
      <trkpt lat="47.322027236223221" lon="11.271191462874413">
        <ele>1686.130000000000109</ele>
        <time>2015-03-13T12:10:42Z</time>
      </trkpt>
      <trkpt lat="47.322020782157779" lon="11.271182829514146">
        <ele>1686.099999999999909</ele>
        <time>2015-03-13T12:11:09Z</time>
      </trkpt>
      <trkpt lat="47.322031678631902" lon="11.271182158961892">
        <ele>1686.509999999999991</ele>
        <time>2015-03-13T12:11:34Z</time>
      </trkpt>
      <trkpt lat="47.322046179324389" lon="11.271178806200624">
        <ele>1686.269999999999982</ele>
        <time>2015-03-13T12:12:01Z</time>
      </trkpt>
      <trkpt lat="47.322045676410198" lon="11.271169083192945">
        <ele>1686.910000000000082</ele>
        <time>2015-03-13T12:12:30Z</time>
      </trkpt>
      <trkpt lat="47.322035953402519" lon="11.271162545308471">
        <ele>1686.579999999999927</ele>
        <time>2015-03-13T12:12:59Z</time>
      </trkpt>
      <trkpt lat="47.322031259536743" lon="11.271165646612644">
        <ele>1686.700000000000045</ele>
        <time>2015-03-13T12:13:32Z</time>
      </trkpt>
      <trkpt lat="47.322030672803521" lon="11.271165898069739">
        <ele>1686.910000000000082</ele>
        <time>2015-03-13T12:13:59Z</time>
      </trkpt>
      <trkpt lat="47.322025811299682" lon="11.271166987717152">
        <ele>1686.730000000000018</ele>
        <time>2015-03-13T12:14:28Z</time>
      </trkpt>
      <trkpt lat="47.322019776329398" lon="11.271158857271075">
        <ele>1686.220000000000027</ele>
        <time>2015-03-13T12:14:57Z</time>
      </trkpt>
      <trkpt lat="47.322019524872303" lon="11.271176291629672">
        <ele>1686.259999999999991</ele>
        <time>2015-03-13T12:15:32Z</time>
      </trkpt>
      <trkpt lat="47.322022542357445" lon="11.271155755966902">
        <ele>1686.430000000000064</ele>
        <time>2015-03-13T12:16:03Z</time>
      </trkpt>
      <trkpt lat="47.322036204859614" lon="11.271142093464732">
        <ele>1686.309999999999945</ele>
        <time>2015-03-13T12:16:28Z</time>
      </trkpt>
      <trkpt lat="47.322028242051601" lon="11.271121641620994">
        <ele>1686.059999999999945</ele>
        <time>2015-03-13T12:16:53Z</time>
      </trkpt>
      <trkpt lat="47.322027571499348" lon="11.271117702126503">
        <ele>1685.3900000000001</ele>
        <time>2015-03-13T12:17:20Z</time>
      </trkpt>
      <trkpt lat="47.322015585377812" lon="11.27111460082233">
        <ele>1685.519999999999982</ele>
        <time>2015-03-13T12:17:44Z</time>
      </trkpt>
      <trkpt lat="47.322017094120383" lon="11.271114768460393">
        <ele>1685.730000000000018</ele>
        <time>2015-03-13T12:18:10Z</time>
      </trkpt>
      <trkpt lat="47.322000078856945" lon="11.271120216697454">
        <ele>1686.299999999999955</ele>
        <time>2015-03-13T12:18:35Z</time>
      </trkpt>
      <trkpt lat="47.321987170726061" lon="11.271118205040693">
        <ele>1685.759999999999991</ele>
        <time>2015-03-13T12:19:01Z</time>
      </trkpt>
      <trkpt lat="47.321990272030234" lon="11.2711575999856">
        <ele>1686.150000000000091</ele>
        <time>2015-03-13T12:19:28Z</time>
      </trkpt>
      <trkpt lat="47.32199345715344" lon="11.271176710724831">
        <ele>1685.869999999999891</ele>
        <time>2015-03-13T12:19:56Z</time>
      </trkpt>
      <trkpt lat="47.322001671418548" lon="11.271171011030674">
        <ele>1685.450000000000045</ele>
        <time>2015-03-13T12:20:24Z</time>
      </trkpt>
      <trkpt lat="47.322029583156109" lon="11.271150140091777">
        <ele>1687.170000000000073</ele>
        <time>2015-03-13T12:20:48Z</time>
      </trkpt>
      <trkpt lat="47.322027990594506" lon="11.271154582500458">
        <ele>1686.980000000000018</ele>
        <time>2015-03-13T12:21:08Z</time>
      </trkpt>
      <trkpt lat="47.322029834613204" lon="11.271169250831008">
        <ele>1687.6099999999999</ele>
        <time>2015-03-13T12:21:28Z</time>
      </trkpt>
      <trkpt lat="47.322028577327728" lon="11.271152151748538">
        <ele>1686.930000000000064</ele>
        <time>2015-03-13T12:21:57Z</time>
      </trkpt>
      <trkpt lat="47.322000497952104" lon="11.271167155355215">
        <ele>1687.990000000000009</ele>
        <time>2015-03-13T12:22:16Z</time>
      </trkpt>
      <trkpt lat="47.321984404698014" lon="11.271176291629672">
        <ele>1688.470000000000027</ele>
        <time>2015-03-13T12:22:34Z</time>
      </trkpt>
      <trkpt lat="47.321975352242589" lon="11.271173441782594">
        <ele>1688.5</ele>
        <time>2015-03-13T12:22:51Z</time>
      </trkpt>
      <trkpt lat="47.321946686133742" lon="11.271162712946534">
        <ele>1688.589999999999918</ele>
        <time>2015-03-13T12:23:05Z</time>
      </trkpt>
      <trkpt lat="47.321916092187166" lon="11.271147625520825">
        <ele>1689.75</ele>
        <time>2015-03-13T12:23:29Z</time>
      </trkpt>
      <trkpt lat="47.321830680593848" lon="11.271140249446034">
        <ele>1691.420000000000073</ele>
        <time>2015-03-13T12:23:48Z</time>
      </trkpt>
      <trkpt lat="47.321707801893353" lon="11.271127089858055">
        <ele>1693.829999999999927</ele>
        <time>2015-03-13T12:24:05Z</time>
      </trkpt>
      <trkpt lat="47.321606716141105" lon="11.271112840622663">
        <ele>1695.680000000000064</ele>
        <time>2015-03-13T12:24:23Z</time>
      </trkpt>
      <trkpt lat="47.321582240983844" lon="11.271118121221662">
        <ele>1696.160000000000082</ele>
        <time>2015-03-13T12:24:49Z</time>
      </trkpt>
      <trkpt lat="47.32149314135313" lon="11.271113846451044">
        <ele>1698.700000000000045</ele>
        <time>2015-03-13T12:25:05Z</time>
      </trkpt>
      <trkpt lat="47.321414267644286" lon="11.27109213732183">
        <ele>1701.990000000000009</ele>
        <time>2015-03-13T12:25:19Z</time>
      </trkpt>
      <trkpt lat="47.321358695626259" lon="11.271091466769576">
        <ele>1703.329999999999927</ele>
        <time>2015-03-13T12:25:34Z</time>
      </trkpt>
      <trkpt lat="47.321287281811237" lon="11.271104207262397">
        <ele>1706.319999999999936</ele>
        <time>2015-03-13T12:25:48Z</time>
      </trkpt>
      <trkpt lat="47.321238666772842" lon="11.271122563630342">
        <ele>1709.400000000000091</ele>
        <time>2015-03-13T12:25:58Z</time>
      </trkpt>
      <trkpt lat="47.321170940995216" lon="11.271204287186265">
        <ele>1712.75</ele>
        <time>2015-03-13T12:26:14Z</time>
      </trkpt>
      <trkpt lat="47.321136156097054" lon="11.271317526698112">
        <ele>1714.259999999999991</ele>
        <time>2015-03-13T12:26:31Z</time>
      </trkpt>
      <trkpt lat="47.321100533008575" lon="11.271358262747526">
        <ele>1717.289999999999964</ele>
        <time>2015-03-13T12:26:43Z</time>
      </trkpt>
      <trkpt lat="47.321052756160498" lon="11.271280311048031">
        <ele>1718.990000000000009</ele>
        <time>2015-03-13T12:27:07Z</time>
      </trkpt>
      <trkpt lat="47.320971367880702" lon="11.271320711821318">
        <ele>1722.529999999999973</ele>
        <time>2015-03-13T12:27:21Z</time>
      </trkpt>
      <trkpt lat="47.320873467251658" lon="11.271371338516474">
        <ele>1725.349999999999909</ele>
        <time>2015-03-13T12:27:38Z</time>
      </trkpt>
      <trkpt lat="47.320823678746819" lon="11.271404279395938">
        <ele>1728.369999999999891</ele>
        <time>2015-03-13T12:27:49Z</time>
      </trkpt>
      <trkpt lat="47.320790067315102" lon="11.271444763988256">
        <ele>1728.960000000000036</ele>
        <time>2015-03-13T12:28:06Z</time>
      </trkpt>
      <trkpt lat="47.320775147527456" lon="11.271460186690092">
        <ele>1730.240000000000009</ele>
        <time>2015-03-13T12:28:09Z</time>
      </trkpt>
      <trkpt lat="47.320723347365856" lon="11.271505113691092">
        <ele>1733.25</ele>
        <time>2015-03-13T12:28:20Z</time>
      </trkpt>
      <trkpt lat="47.320654280483723" lon="11.271572755649686">
        <ele>1736.210000000000036</ele>
        <time>2015-03-13T12:28:34Z</time>
      </trkpt>
      <trkpt lat="47.320621339604259" lon="11.271616844460368">
        <ele>1737.869999999999891</ele>
        <time>2015-03-13T12:28:42Z</time>
      </trkpt>
      <trkpt lat="47.320611029863358" lon="11.271645510569215">
        <ele>1738.779999999999973</ele>
        <time>2015-03-13T12:28:59Z</time>
      </trkpt>
      <trkpt lat="47.320558475330472" lon="11.271705022081733">
        <ele>1741.960000000000036</ele>
        <time>2015-03-13T12:29:22Z</time>
      </trkpt>
      <trkpt lat="47.320484630763531" lon="11.271780710667372">
        <ele>1745.279999999999973</ele>
        <time>2015-03-13T12:29:36Z</time>
      </trkpt>
      <trkpt lat="47.32045479118824" lon="11.271831253543496">
        <ele>1746.869999999999891</ele>
        <time>2015-03-13T12:29:51Z</time>
      </trkpt>
      <trkpt lat="47.320393100380898" lon="11.27188129350543">
        <ele>1750.1400000000001</ele>
        <time>2015-03-13T12:30:02Z</time>
      </trkpt>
      <trkpt lat="47.320320177823305" lon="11.271922700107098">
        <ele>1752.210000000000036</ele>
        <time>2015-03-13T12:30:15Z</time>
      </trkpt>
      <trkpt lat="47.32025153003633" lon="11.271945498883724">
        <ele>1755.319999999999936</ele>
        <time>2015-03-13T12:30:28Z</time>
      </trkpt>
      <trkpt lat="47.320183720439672" lon="11.27196628600359">
        <ele>1758.690000000000055</ele>
        <time>2015-03-13T12:30:41Z</time>
      </trkpt>
      <trkpt lat="47.320169890299439" lon="11.271979445591569">
        <ele>1759.049999999999955</ele>
        <time>2015-03-13T12:30:58Z</time>
      </trkpt>
      <trkpt lat="47.320158574730158" lon="11.271996879950166">
        <ele>1759.650000000000091</ele>
        <time>2015-03-13T12:31:40Z</time>
      </trkpt>
      <trkpt lat="47.320092190057039" lon="11.272029150277376">
        <ele>1762.779999999999973</ele>
        <time>2015-03-13T12:31:55Z</time>
      </trkpt>
      <trkpt lat="47.320061093196273" lon="11.272057984024286">
        <ele>1764.630000000000109</ele>
        <time>2015-03-13T12:32:09Z</time>
      </trkpt>
      <trkpt lat="47.320008119568229" lon="11.272101737558842">
        <ele>1767.059999999999945</ele>
        <time>2015-03-13T12:32:26Z</time>
      </trkpt>
      <trkpt lat="47.319930084049702" lon="11.272163763642311">
        <ele>1770.25</ele>
        <time>2015-03-13T12:32:41Z</time>
      </trkpt>
      <trkpt lat="47.319862609729171" lon="11.272223023697734">
        <ele>1773.450000000000045</ele>
        <time>2015-03-13T12:32:54Z</time>
      </trkpt>
      <trkpt lat="47.319803517311811" lon="11.272269291803241">
        <ele>1776.619999999999891</ele>
        <time>2015-03-13T12:33:06Z</time>
      </trkpt>
      <trkpt lat="47.319749537855387" lon="11.272213719785213">
        <ele>1779.420000000000073</ele>
        <time>2015-03-13T12:33:21Z</time>
      </trkpt>
      <trkpt lat="47.319691115990281" lon="11.272112969309092">
        <ele>1782.789999999999964</ele>
        <time>2015-03-13T12:33:35Z</time>
      </trkpt>
      <trkpt lat="47.319615762680769" lon="11.272069215774536">
        <ele>1786.130000000000109</ele>
        <time>2015-03-13T12:33:48Z</time>
      </trkpt>
      <trkpt lat="47.319556837901473" lon="11.272129062563181">
        <ele>1789.170000000000073</ele>
        <time>2015-03-13T12:34:00Z</time>
      </trkpt>
      <trkpt lat="47.319486429914832" lon="11.272156806662679">
        <ele>1792.529999999999973</ele>
        <time>2015-03-13T12:34:13Z</time>
      </trkpt>
      <trkpt lat="47.319432701915503" lon="11.272058570757508">
        <ele>1794.980000000000018</ele>
        <time>2015-03-13T12:34:28Z</time>
      </trkpt>
      <trkpt lat="47.319425493478775" lon="11.272034011781216">
        <ele>1796.279999999999973</ele>
        <time>2015-03-13T12:34:31Z</time>
      </trkpt>
      <trkpt lat="47.319407807663083" lon="11.271976511925459">
        <ele>1797.799999999999955</ele>
        <time>2015-03-13T12:34:38Z</time>
      </trkpt>
      <trkpt lat="47.319349218159914" lon="11.271982798352838">
        <ele>1800.630000000000109</ele>
        <time>2015-03-13T12:34:54Z</time>
      </trkpt>
      <trkpt lat="47.319281995296478" lon="11.2720210198313">
        <ele>1803.75</ele>
        <time>2015-03-13T12:35:06Z</time>
      </trkpt>
      <trkpt lat="47.319260286167264" lon="11.272037448361516">
        <ele>1804.450000000000045</ele>
        <time>2015-03-13T12:35:21Z</time>
      </trkpt>
      <trkpt lat="47.319261208176613" lon="11.272033592686057">
        <ele>1805.259999999999991</ele>
        <time>2015-03-13T12:35:37Z</time>
      </trkpt>
      <trkpt lat="47.319252574816346" lon="11.272026216611266">
        <ele>1805.470000000000027</ele>
        <time>2015-03-13T12:35:59Z</time>
      </trkpt>
      <trkpt lat="47.319221310317516" lon="11.271934183314443">
        <ele>1808.509999999999991</ele>
        <time>2015-03-13T12:36:12Z</time>
      </trkpt>
      <trkpt lat="47.319204797968268" lon="11.271842401474714">
        <ele>1811.3900000000001</ele>
        <time>2015-03-13T12:36:23Z</time>
      </trkpt>
      <trkpt lat="47.319188117980957" lon="11.271740226075053">
        <ele>1814.410000000000082</ele>
        <time>2015-03-13T12:36:35Z</time>
      </trkpt>
      <trkpt lat="47.319167414680123" lon="11.271665459498763">
        <ele>1816.720000000000027</ele>
        <time>2015-03-13T12:36:52Z</time>
      </trkpt>
      <trkpt lat="47.319155680015683" lon="11.271539563313127">
        <ele>1819.769999999999982</ele>
        <time>2015-03-13T12:37:05Z</time>
      </trkpt>
      <trkpt lat="47.319135898724198" lon="11.271417019888759">
        <ele>1823.240000000000009</ele>
        <time>2015-03-13T12:37:18Z</time>
      </trkpt>
      <trkpt lat="47.319117793813348" lon="11.271305792033672">
        <ele>1826.420000000000073</ele>
        <time>2015-03-13T12:37:31Z</time>
      </trkpt>
      <trkpt lat="47.319090384989977" lon="11.271190540865064">
        <ele>1829.930000000000064</ele>
        <time>2015-03-13T12:37:44Z</time>
      </trkpt>
      <trkpt lat="47.319055600091815" lon="11.271094400435686">
        <ele>1832.869999999999891</ele>
        <time>2015-03-13T12:37:56Z</time>
      </trkpt>
      <trkpt lat="47.319019557908177" lon="11.271003624424338">
        <ele>1835.960000000000036</ele>
        <time>2015-03-13T12:38:09Z</time>
      </trkpt>
      <trkpt lat="47.319012600928545" lon="11.271022483706474">
        <ele>1836.200000000000045</ele>
        <time>2015-03-13T12:38:24Z</time>
      </trkpt>
      <trkpt lat="47.318962141871452" lon="11.271093478426337">
        <ele>1839.839999999999918</ele>
        <time>2015-03-13T12:38:37Z</time>
      </trkpt>
      <trkpt lat="47.318892404437065" lon="11.271154414862394">
        <ele>1843.619999999999891</ele>
        <time>2015-03-13T12:38:51Z</time>
      </trkpt>
      <trkpt lat="47.318856110796332" lon="11.271183248609304">
        <ele>1845.380000000000109</ele>
        <time>2015-03-13T12:38:58Z</time>
      </trkpt>
      <trkpt lat="47.318827193230391" lon="11.27121870405972">
        <ele>1846.690000000000055</ele>
        <time>2015-03-13T12:39:18Z</time>
      </trkpt>
      <trkpt lat="47.318769777193666" lon="11.271272264420986">
        <ele>1849.980000000000018</ele>
        <time>2015-03-13T12:39:30Z</time>
      </trkpt>
      <trkpt lat="47.318705655634403" lon="11.271340576931834">
        <ele>1853.519999999999982</ele>
        <time>2015-03-13T12:39:45Z</time>
      </trkpt>
      <trkpt lat="47.318669613450766" lon="11.27137117087841">
        <ele>1854.950000000000045</ele>
        <time>2015-03-13T12:39:58Z</time>
      </trkpt>
      <trkpt lat="47.318662237375975" lon="11.271297661587596">
        <ele>1855.849999999999909</ele>
        <time>2015-03-13T12:40:13Z</time>
      </trkpt>
      <trkpt lat="47.318639857694507" lon="11.271207388490438">
        <ele>1859.130000000000109</ele>
        <time>2015-03-13T12:40:24Z</time>
      </trkpt>
      <trkpt lat="47.318607838824391" lon="11.271102111786604">
        <ele>1862.440000000000055</ele>
        <time>2015-03-13T12:40:36Z</time>
      </trkpt>
      <trkpt lat="47.318588644266129" lon="11.271035140380263">
        <ele>1864.400000000000091</ele>
        <time>2015-03-13T12:40:55Z</time>
      </trkpt>
      <trkpt lat="47.31855746358633" lon="11.27095190808177">
        <ele>1867.940000000000055</ele>
        <time>2015-03-13T12:41:05Z</time>
      </trkpt>
      <trkpt lat="47.318513374775648" lon="11.27086641266942">
        <ele>1871.180000000000064</ele>
        <time>2015-03-13T12:41:19Z</time>
      </trkpt>
      <trkpt lat="47.318463921546936" lon="11.270778151229024">
        <ele>1874.180000000000064</ele>
        <time>2015-03-13T12:41:32Z</time>
      </trkpt>
      <trkpt lat="47.318436093628407" lon="11.27072811126709">
        <ele>1876.630000000000109</ele>
        <time>2015-03-13T12:41:48Z</time>
      </trkpt>
      <trkpt lat="47.31839963234961" lon="11.270622750744224">
        <ele>1879.670000000000073</ele>
        <time>2015-03-13T12:42:01Z</time>
      </trkpt>
      <trkpt lat="47.318385969847441" lon="11.270563825964928">
        <ele>1881.309999999999945</ele>
        <time>2015-03-13T12:42:16Z</time>
      </trkpt>
      <trkpt lat="47.318332912400365" lon="11.270610010251403">
        <ele>1884.450000000000045</ele>
        <time>2015-03-13T12:42:29Z</time>
      </trkpt>
      <trkpt lat="47.318286309018731" lon="11.27068854868412">
        <ele>1888.180000000000064</ele>
        <time>2015-03-13T12:42:42Z</time>
      </trkpt>
      <trkpt lat="47.318262169137597" lon="11.270739510655403">
        <ele>1889.900000000000091</ele>
        <time>2015-03-13T12:42:59Z</time>
      </trkpt>
      <trkpt lat="47.318220930173993" lon="11.270626606419683">
        <ele>1891.210000000000036</ele>
        <time>2015-03-13T12:43:12Z</time>
      </trkpt>
      <trkpt lat="47.318181451410055" lon="11.270522167906165">
        <ele>1894.589999999999918</ele>
        <time>2015-03-13T12:43:24Z</time>
      </trkpt>
      <trkpt lat="47.318137530237436" lon="11.270428793504834">
        <ele>1897.950000000000045</ele>
        <time>2015-03-13T12:43:40Z</time>
      </trkpt>
      <trkpt lat="47.318075839430094" lon="11.270307004451752">
        <ele>1901.220000000000027</ele>
        <time>2015-03-13T12:43:56Z</time>
      </trkpt>
      <trkpt lat="47.318023536354303" lon="11.270213294774294">
        <ele>1904.339999999999918</ele>
        <time>2015-03-13T12:44:08Z</time>
      </trkpt>
      <trkpt lat="47.317954385653138" lon="11.270139869302511">
        <ele>1907.3900000000001</ele>
        <time>2015-03-13T12:44:21Z</time>
      </trkpt>
      <trkpt lat="47.317885905504227" lon="11.270068706944585">
        <ele>1911.019999999999982</ele>
        <time>2015-03-13T12:44:33Z</time>
      </trkpt>
      <trkpt lat="47.317844750359654" lon="11.270052278414369">
        <ele>1911.950000000000045</ele>
        <time>2015-03-13T12:44:51Z</time>
      </trkpt>
      <trkpt lat="47.317795967683196" lon="11.270013302564621">
        <ele>1913.950000000000045</ele>
        <time>2015-03-13T12:45:30Z</time>
      </trkpt>
      <trkpt lat="47.317745005711913" lon="11.269967034459114">
        <ele>1917.099999999999909</ele>
        <time>2015-03-13T12:45:40Z</time>
      </trkpt>
      <trkpt lat="47.31773997657001" lon="11.269961167126894">
        <ele>1916.920000000000073</ele>
        <time>2015-03-13T12:45:41Z</time>
      </trkpt>
      <trkpt lat="47.317675100639462" lon="11.269876593723893">
        <ele>1920.170000000000073</ele>
        <time>2015-03-13T12:45:53Z</time>
      </trkpt>
      <trkpt lat="47.317627826705575" lon="11.269797468557954">
        <ele>1923.190000000000055</ele>
        <time>2015-03-13T12:46:03Z</time>
      </trkpt>
      <trkpt lat="47.317601088434458" lon="11.269761258736253">
        <ele>1924.650000000000091</ele>
        <time>2015-03-13T12:46:21Z</time>
      </trkpt>
      <trkpt lat="47.317546103149652" lon="11.269671320915222">
        <ele>1927.690000000000055</ele>
        <time>2015-03-13T12:46:35Z</time>
      </trkpt>
      <trkpt lat="47.3174814786762" lon="11.269599739462137">
        <ele>1931.059999999999945</ele>
        <time>2015-03-13T12:46:48Z</time>
      </trkpt>
      <trkpt lat="47.317450633272529" lon="11.269511729478836">
        <ele>1933.869999999999891</ele>
        <time>2015-03-13T12:47:08Z</time>
      </trkpt>
      <trkpt lat="47.317426074296236" lon="11.269356077536941">
        <ele>1937.059999999999945</ele>
        <time>2015-03-13T12:47:23Z</time>
      </trkpt>
      <trkpt lat="47.317410903051496" lon="11.269266558811069">
        <ele>1939.809999999999945</ele>
        <time>2015-03-13T12:47:40Z</time>
      </trkpt>
      <trkpt lat="47.317405957728624" lon="11.269290111958981">
        <ele>1939.509999999999991</ele>
        <time>2015-03-13T12:47:54Z</time>
      </trkpt>
      <trkpt lat="47.317408807575703" lon="11.269301427528262">
        <ele>1939.549999999999955</ele>
        <time>2015-03-13T12:48:11Z</time>
      </trkpt>
      <trkpt lat="47.317400593310595" lon="11.269310563802719">
        <ele>1939.619999999999891</ele>
        <time>2015-03-13T12:48:29Z</time>
      </trkpt>
      <trkpt lat="47.317430265247822" lon="11.269331937655807">
        <ele>1939.329999999999927</ele>
        <time>2015-03-13T12:48:46Z</time>
      </trkpt>
      <trkpt lat="47.31741894967854" lon="11.269278125837445">
        <ele>1939.900000000000091</ele>
        <time>2015-03-13T12:49:03Z</time>
      </trkpt>
      <trkpt lat="47.317422302439809" lon="11.269263876602054">
        <ele>1941.119999999999891</ele>
        <time>2015-03-13T12:49:18Z</time>
      </trkpt>
      <trkpt lat="47.317419201135635" lon="11.269253063946962">
        <ele>1941.410000000000082</ele>
        <time>2015-03-13T12:49:19Z</time>
      </trkpt>
      <trkpt lat="47.317395312711596" lon="11.269082995131612">
        <ele>1944.710000000000036</ele>
        <time>2015-03-13T12:49:34Z</time>
      </trkpt>
      <trkpt lat="47.317396905273199" lon="11.269028512760997">
        <ele>1945.160000000000082</ele>
        <time>2015-03-13T12:49:50Z</time>
      </trkpt>
      <trkpt lat="47.317386260256171" lon="11.268918542191386">
        <ele>1947.319999999999936</ele>
        <time>2015-03-13T12:50:07Z</time>
      </trkpt>
      <trkpt lat="47.317391457036138" lon="11.26880681142211">
        <ele>1950.519999999999982</ele>
        <time>2015-03-13T12:50:18Z</time>
      </trkpt>
      <trkpt lat="47.317395815625787" lon="11.268691308796406">
        <ele>1953.829999999999927</ele>
        <time>2015-03-13T12:50:30Z</time>
      </trkpt>
      <trkpt lat="47.31739791110158" lon="11.268549151718616">
        <ele>1957.1400000000001</ele>
        <time>2015-03-13T12:50:44Z</time>
      </trkpt>
      <trkpt lat="47.317415177822113" lon="11.268419567495584">
        <ele>1960.230000000000018</ele>
        <time>2015-03-13T12:50:59Z</time>
      </trkpt>
      <trkpt lat="47.317380644381046" lon="11.268418813124299">
        <ele>1961.089999999999918</ele>
        <time>2015-03-13T12:51:12Z</time>
      </trkpt>
      <trkpt lat="47.317344769835472" lon="11.268433816730976">
        <ele>1962.910000000000082</ele>
        <time>2015-03-13T12:51:31Z</time>
      </trkpt>
      <trkpt lat="47.317342925816774" lon="11.268430463969707">
        <ele>1962.849999999999909</ele>
        <time>2015-03-13T12:51:56Z</time>
      </trkpt>
      <trkpt lat="47.317256424576044" lon="11.268470780923963">
        <ele>1966</ele>
        <time>2015-03-13T12:52:10Z</time>
      </trkpt>
      <trkpt lat="47.317167241126299" lon="11.268534064292908">
        <ele>1969.519999999999982</ele>
        <time>2015-03-13T12:52:24Z</time>
      </trkpt>
      <trkpt lat="47.317095324397087" lon="11.268573123961687">
        <ele>1972.630000000000109</ele>
        <time>2015-03-13T12:52:36Z</time>
      </trkpt>
      <trkpt lat="47.31702365912497" lon="11.268610171973705">
        <ele>1975.849999999999909</ele>
        <time>2015-03-13T12:52:47Z</time>
      </trkpt>
      <trkpt lat="47.316928943619132" lon="11.268667420372367">
        <ele>1978.950000000000045</ele>
        <time>2015-03-13T12:53:02Z</time>
      </trkpt>
      <trkpt lat="47.316882591694593" lon="11.268719891086221">
        <ele>1980.839999999999918</ele>
        <time>2015-03-13T12:53:21Z</time>
      </trkpt>
      <trkpt lat="47.316818051040173" lon="11.268815025687218">
        <ele>1984.079999999999927</ele>
        <time>2015-03-13T12:53:36Z</time>
      </trkpt>
      <trkpt lat="47.316757030785084" lon="11.268892306834459">
        <ele>1987.470000000000027</ele>
        <time>2015-03-13T12:53:48Z</time>
      </trkpt>
      <trkpt lat="47.316687796264887" lon="11.268990794196725">
        <ele>1990.779999999999973</ele>
        <time>2015-03-13T12:54:02Z</time>
      </trkpt>
      <trkpt lat="47.316678743809462" lon="11.269002528861165">
        <ele>1991.529999999999973</ele>
        <time>2015-03-13T12:54:04Z</time>
      </trkpt>
      <trkpt lat="47.316625770181417" lon="11.269090119749308">
        <ele>1994.150000000000091</ele>
        <time>2015-03-13T12:54:20Z</time>
      </trkpt>
      <trkpt lat="47.316620573401451" lon="11.269056340679526">
        <ele>1994.839999999999918</ele>
        <time>2015-03-13T12:54:34Z</time>
      </trkpt>
      <trkpt lat="47.316594002768397" lon="11.268936982378364">
        <ele>1997.990000000000009</ele>
        <time>2015-03-13T12:54:47Z</time>
      </trkpt>
      <trkpt lat="47.31656433083117" lon="11.268811086192727">
        <ele>2001.1400000000001</ele>
        <time>2015-03-13T12:55:02Z</time>
      </trkpt>
      <trkpt lat="47.316524097695947" lon="11.268680077046156">
        <ele>2004.430000000000064</ele>
        <time>2015-03-13T12:55:16Z</time>
      </trkpt>
      <trkpt lat="47.316503310576081" lon="11.268576728180051">
        <ele>2007.569999999999936</ele>
        <time>2015-03-13T12:55:27Z</time>
      </trkpt>
      <trkpt lat="47.316486714407802" lon="11.268500620499253">
        <ele>2009</ele>
        <time>2015-03-13T12:55:46Z</time>
      </trkpt>
      <trkpt lat="47.316469280049205" lon="11.268406827002764">
        <ele>2012</ele>
        <time>2015-03-13T12:55:55Z</time>
      </trkpt>
      <trkpt lat="47.316457042470574" lon="11.26829082146287">
        <ele>2015.299999999999955</ele>
        <time>2015-03-13T12:56:07Z</time>
      </trkpt>
      <trkpt lat="47.316435165703297" lon="11.268187221139669">
        <ele>2018.339999999999918</ele>
        <time>2015-03-13T12:56:18Z</time>
      </trkpt>
      <trkpt lat="47.316442206501961" lon="11.268171295523643">
        <ele>2017.509999999999991</ele>
        <time>2015-03-13T12:56:45Z</time>
      </trkpt>
      <trkpt lat="47.316437847912312" lon="11.268133576959372">
        <ele>2018.539999999999964</ele>
        <time>2015-03-13T12:56:54Z</time>
      </trkpt>
      <trkpt lat="47.316425191238523" lon="11.268005752936006">
        <ele>2021.700000000000045</ele>
        <time>2015-03-13T12:57:08Z</time>
      </trkpt>
      <trkpt lat="47.316419910639524" lon="11.26793953590095">
        <ele>2023.200000000000045</ele>
        <time>2015-03-13T12:57:26Z</time>
      </trkpt>
      <trkpt lat="47.316425107419491" lon="11.267827553674579">
        <ele>2026.25</ele>
        <time>2015-03-13T12:57:37Z</time>
      </trkpt>
      <trkpt lat="47.31643290258944" lon="11.267748009413481">
        <ele>2027.960000000000036</ele>
        <time>2015-03-13T12:57:50Z</time>
      </trkpt>
      <trkpt lat="47.316370876505971" lon="11.267784470692277">
        <ele>2029.779999999999973</ele>
        <time>2015-03-13T12:58:03Z</time>
      </trkpt>
      <trkpt lat="47.316333493217826" lon="11.267815735191107">
        <ele>2031.789999999999964</ele>
        <time>2015-03-13T12:58:10Z</time>
      </trkpt>
      <trkpt lat="47.316271383315325" lon="11.267890082672238">
        <ele>2034.789999999999964</ele>
        <time>2015-03-13T12:58:23Z</time>
      </trkpt>
      <trkpt lat="47.316215727478266" lon="11.26794682815671">
        <ele>2037.819999999999936</ele>
        <time>2015-03-13T12:58:34Z</time>
      </trkpt>
      <trkpt lat="47.316193599253893" lon="11.267978511750698">
        <ele>2038.769999999999982</ele>
        <time>2015-03-13T12:58:39Z</time>
      </trkpt>
      <trkpt lat="47.316136434674263" lon="11.268050512298942">
        <ele>2041.950000000000045</ele>
        <time>2015-03-13T12:58:51Z</time>
      </trkpt>
      <trkpt lat="47.316096369177103" lon="11.268111616373062">
        <ele>2043.630000000000109</ele>
        <time>2015-03-13T12:59:10Z</time>
      </trkpt>
      <trkpt lat="47.316042641177773" lon="11.268199207261205">
        <ele>2047.069999999999936</ele>
        <time>2015-03-13T12:59:24Z</time>
      </trkpt>
      <trkpt lat="47.315974747762084" lon="11.268309177830815">
        <ele>2050.110000000000127</ele>
        <time>2015-03-13T12:59:40Z</time>
      </trkpt>
      <trkpt lat="47.315921606495976" lon="11.268435074016452">
        <ele>2053.550000000000182</ele>
        <time>2015-03-13T12:59:53Z</time>
      </trkpt>
      <trkpt lat="47.31589637696743" lon="11.268485616892576">
        <ele>2053.829999999999927</ele>
        <time>2015-03-13T13:00:12Z</time>
      </trkpt>
      <trkpt lat="47.315869471058249" lon="11.26857572235167">
        <ele>2056.070000000000164</ele>
        <time>2015-03-13T13:00:30Z</time>
      </trkpt>
      <trkpt lat="47.315851952880621" lon="11.26863045617938">
        <ele>2058.5</ele>
        <time>2015-03-13T13:00:45Z</time>
      </trkpt>
      <trkpt lat="47.315837703645229" lon="11.268650069832802">
        <ele>2059.019999999999982</ele>
        <time>2015-03-13T13:00:49Z</time>
      </trkpt>
      <trkpt lat="47.315829740837216" lon="11.268626097589731">
        <ele>2058.909999999999854</ele>
        <time>2015-03-13T13:01:01Z</time>
      </trkpt>
      <trkpt lat="47.315811133012176" lon="11.268556611612439">
        <ele>2060.869999999999891</ele>
        <time>2015-03-13T13:01:26Z</time>
      </trkpt>
      <trkpt lat="47.315779533237219" lon="11.268457621335983">
        <ele>2063.940000000000055</ele>
        <time>2015-03-13T13:01:36Z</time>
      </trkpt>
      <trkpt lat="47.315741311758757" lon="11.268355278298259">
        <ele>2067.4699999999998</ele>
        <time>2015-03-13T13:01:50Z</time>
      </trkpt>
      <trkpt lat="47.315709041431546" lon="11.268251677975059">
        <ele>2071.099999999999909</ele>
        <time>2015-03-13T13:02:05Z</time>
      </trkpt>
      <trkpt lat="47.315695462748408" lon="11.268123099580407">
        <ele>2074.190000000000055</ele>
        <time>2015-03-13T13:02:21Z</time>
      </trkpt>
      <trkpt lat="47.315669395029545" lon="11.268080100417137">
        <ele>2075.630000000000109</ele>
        <time>2015-03-13T13:02:36Z</time>
      </trkpt>
      <trkpt lat="47.315624970942736" lon="11.26814866438508">
        <ele>2078.730000000000018</ele>
        <time>2015-03-13T13:02:48Z</time>
      </trkpt>
      <trkpt lat="47.315576774999499" lon="11.268241871148348">
        <ele>2081.5</ele>
        <time>2015-03-13T13:03:01Z</time>
      </trkpt>
      <trkpt lat="47.315545175224543" lon="11.268322924152017">
        <ele>2084.289999999999964</ele>
        <time>2015-03-13T13:03:18Z</time>
      </trkpt>
      <trkpt lat="47.315501589328051" lon="11.268388386815786">
        <ele>2087.400000000000091</ele>
        <time>2015-03-13T13:03:34Z</time>
      </trkpt>
      <trkpt lat="47.31544828042388" lon="11.268484527245164">
        <ele>2090.5300000000002</ele>
        <time>2015-03-13T13:03:48Z</time>
      </trkpt>
      <trkpt lat="47.315419027581811" lon="11.268563736230135">
        <ele>2092.630000000000109</ele>
        <time>2015-03-13T13:04:02Z</time>
      </trkpt>
      <trkpt lat="47.315414752811193" lon="11.268606735393405">
        <ele>2093.2800000000002</ele>
        <time>2015-03-13T13:04:18Z</time>
      </trkpt>
      <trkpt lat="47.315393798053265" lon="11.268578823655844">
        <ele>2094.9699999999998</ele>
        <time>2015-03-13T13:04:33Z</time>
      </trkpt>
      <trkpt lat="47.315343171358109" lon="11.268480336293578">
        <ele>2098.099999999999909</ele>
        <time>2015-03-13T13:04:47Z</time>
      </trkpt>
      <trkpt lat="47.31531492434442" lon="11.268399199470878">
        <ele>2100.519999999999982</ele>
        <time>2015-03-13T13:05:03Z</time>
      </trkpt>
      <trkpt lat="47.315286509692669" lon="11.268312698230147">
        <ele>2103.25</ele>
        <time>2015-03-13T13:05:19Z</time>
      </trkpt>
      <trkpt lat="47.315267315134406" lon="11.26821605488658">
        <ele>2106.349999999999909</ele>
        <time>2015-03-13T13:05:31Z</time>
      </trkpt>
      <trkpt lat="47.315272092819214" lon="11.268203984946012">
        <ele>2106.650000000000091</ele>
        <time>2015-03-13T13:05:45Z</time>
      </trkpt>
      <trkpt lat="47.315257927402854" lon="11.268217479810119">
        <ele>2107.139999999999873</ele>
        <time>2015-03-13T13:06:04Z</time>
      </trkpt>
      <trkpt lat="47.315225321799517" lon="11.268297778442502">
        <ele>2109.619999999999891</ele>
        <time>2015-03-13T13:06:19Z</time>
      </trkpt>
      <trkpt lat="47.315191878005862" lon="11.268374975770712">
        <ele>2112.730000000000018</ele>
        <time>2015-03-13T13:06:31Z</time>
      </trkpt>
      <trkpt lat="47.315153740346432" lon="11.268456531688571">
        <ele>2115.400000000000091</ele>
        <time>2015-03-13T13:06:44Z</time>
      </trkpt>
      <trkpt lat="47.315117279067636" lon="11.268536914139986">
        <ele>2117.75</ele>
        <time>2015-03-13T13:06:59Z</time>
      </trkpt>
      <trkpt lat="47.315080482512712" lon="11.26863531768322">
        <ele>2121.179999999999836</ele>
        <time>2015-03-13T13:07:12Z</time>
      </trkpt>
      <trkpt lat="47.315062880516052" lon="11.268675550818443">
        <ele>2122.039999999999964</ele>
        <time>2015-03-13T13:07:21Z</time>
      </trkpt>
      <trkpt lat="47.315022731199861" lon="11.268785689026117">
        <ele>2125.230000000000018</ele>
        <time>2015-03-13T13:07:34Z</time>
      </trkpt>
      <trkpt lat="47.315005632117391" lon="11.268899934366345">
        <ele>2127.360000000000127</ele>
        <time>2015-03-13T13:07:51Z</time>
      </trkpt>
      <trkpt lat="47.314976463094354" lon="11.268868250772357">
        <ele>2128.869999999999891</ele>
        <time>2015-03-13T13:08:06Z</time>
      </trkpt>
      <trkpt lat="47.314905887469649" lon="11.268756184726954">
        <ele>2132.159999999999854</ele>
        <time>2015-03-13T13:08:20Z</time>
      </trkpt>
      <trkpt lat="47.314888620749116" lon="11.268721148371696">
        <ele>2133.010000000000218</ele>
        <time>2015-03-13T13:08:37Z</time>
      </trkpt>
      <trkpt lat="47.314881831407547" lon="11.268677562475204">
        <ele>2134.150000000000091</ele>
        <time>2015-03-13T13:09:03Z</time>
      </trkpt>
      <trkpt lat="47.314862553030252" lon="11.268565244972706">
        <ele>2137.650000000000091</ele>
        <time>2015-03-13T13:09:17Z</time>
      </trkpt>
      <trkpt lat="47.314847465604544" lon="11.268459213897586">
        <ele>2140.920000000000073</ele>
        <time>2015-03-13T13:09:31Z</time>
      </trkpt>
      <trkpt lat="47.314832545816898" lon="11.268356116488576">
        <ele>2144.130000000000109</ele>
        <time>2015-03-13T13:09:43Z</time>
      </trkpt>
      <trkpt lat="47.314813854172826" lon="11.268306998535991">
        <ele>2143.559999999999945</ele>
        <time>2015-03-13T13:10:02Z</time>
      </trkpt>
      <trkpt lat="47.314774291589856" lon="11.268333988264203">
        <ele>2145.960000000000036</ele>
        <time>2015-03-13T13:10:18Z</time>
      </trkpt>
      <trkpt lat="47.314713019877672" lon="11.268458794802427">
        <ele>2149.409999999999854</ele>
        <time>2015-03-13T13:10:33Z</time>
      </trkpt>
      <trkpt lat="47.314656525850296" lon="11.268542027100921">
        <ele>2152.619999999999891</ele>
        <time>2015-03-13T13:10:45Z</time>
      </trkpt>
      <trkpt lat="47.314605982974172" lon="11.268614865839481">
        <ele>2155.800000000000182</ele>
        <time>2015-03-13T13:10:57Z</time>
      </trkpt>
      <trkpt lat="47.314548566937447" lon="11.268684519454837">
        <ele>2157.400000000000091</ele>
        <time>2015-03-13T13:11:14Z</time>
      </trkpt>
      <trkpt lat="47.314512440934777" lon="11.268803458660841">
        <ele>2160.800000000000182</ele>
        <time>2015-03-13T13:11:29Z</time>
      </trkpt>
      <trkpt lat="47.314496096223593" lon="11.268882919102907">
        <ele>2162.539999999999964</ele>
        <time>2015-03-13T13:11:45Z</time>
      </trkpt>
      <trkpt lat="47.314487211406231" lon="11.268941340968013">
        <ele>2164.269999999999982</ele>
        <time>2015-03-13T13:12:00Z</time>
      </trkpt>
      <trkpt lat="47.314484445378184" lon="11.268964810296893">
        <ele>2164.769999999999982</ele>
        <time>2015-03-13T13:12:22Z</time>
      </trkpt>
      <trkpt lat="47.31442267075181" lon="11.268891803920269">
        <ele>2165.960000000000036</ele>
        <time>2015-03-13T13:12:42Z</time>
      </trkpt>
      <trkpt lat="47.314390148967505" lon="11.268869088962674">
        <ele>2168.849999999999909</ele>
        <time>2015-03-13T13:12:56Z</time>
      </trkpt>
      <trkpt lat="47.314360896125436" lon="11.268935305997729">
        <ele>2171.2800000000002</ele>
        <time>2015-03-13T13:13:08Z</time>
      </trkpt>
      <trkpt lat="47.31432250700891" lon="11.269035637378693">
        <ele>2174.260000000000218</ele>
        <time>2015-03-13T13:13:23Z</time>
      </trkpt>
      <trkpt lat="47.314289985224605" lon="11.269077295437455">
        <ele>2176.940000000000055</ele>
        <time>2015-03-13T13:13:41Z</time>
      </trkpt>
      <trkpt lat="47.314291577786207" lon="11.269099256023765">
        <ele>2177.039999999999964</ele>
        <time>2015-03-13T13:14:01Z</time>
      </trkpt>
      <trkpt lat="47.314294511452317" lon="11.269099423661828">
        <ele>2173.829999999999927</ele>
        <time>2015-03-13T13:14:19Z</time>
      </trkpt>
      <trkpt lat="47.314295265823603" lon="11.269097412005067">
        <ele>2175.110000000000127</ele>
        <time>2015-03-13T13:14:20Z</time>
      </trkpt>
      <trkpt lat="47.314282190054655" lon="11.269090790301561">
        <ele>2175.900000000000091</ele>
        <time>2015-03-13T13:14:53Z</time>
      </trkpt>
      <trkpt lat="47.314290991052985" lon="11.269133454188704">
        <ele>2175.619999999999891</ele>
        <time>2015-03-13T13:15:24Z</time>
      </trkpt>
      <trkpt lat="47.31430197134614" lon="11.269133118912578">
        <ele>2175.989999999999782</ele>
        <time>2015-03-13T13:16:19Z</time>
      </trkpt>
      <trkpt lat="47.314298702403903" lon="11.269109565764666">
        <ele>2176.340000000000146</ele>
        <time>2015-03-13T13:17:02Z</time>
      </trkpt>
      <trkpt lat="47.314304737374187" lon="11.269124569371343">
        <ele>2175.730000000000018</ele>
        <time>2015-03-13T13:17:53Z</time>
      </trkpt>
      <trkpt lat="47.314294427633286" lon="11.269109649583697">
        <ele>2175.690000000000055</ele>
        <time>2015-03-13T13:18:24Z</time>
      </trkpt>
      <trkpt lat="47.314305827021599" lon="11.269076624885201">
        <ele>2175.730000000000018</ele>
        <time>2015-03-13T13:19:06Z</time>
      </trkpt>
      <trkpt lat="47.314304653555155" lon="11.269089952111244">
        <ele>2175.940000000000055</ele>
        <time>2015-03-13T13:19:47Z</time>
      </trkpt>
      <trkpt lat="47.314296942204237" lon="11.269103530794382">
        <ele>2176.079999999999927</ele>
        <time>2015-03-13T13:20:27Z</time>
      </trkpt>
      <trkpt lat="47.314287722110748" lon="11.269117528572679">
        <ele>2176.2800000000002</ele>
        <time>2015-03-13T13:21:07Z</time>
      </trkpt>
      <trkpt lat="47.314294762909412" lon="11.269113505259156">
        <ele>2176.289999999999964</ele>
        <time>2015-03-13T13:21:33Z</time>
      </trkpt>
      <trkpt lat="47.314309598878026" lon="11.269126497209072">
        <ele>2176.5300000000002</ele>
        <time>2015-03-13T13:22:09Z</time>
      </trkpt>
      <trkpt lat="47.314308928325772" lon="11.26916354522109">
        <ele>2176.260000000000218</ele>
        <time>2015-03-13T13:22:38Z</time>
      </trkpt>
      <trkpt lat="47.314318902790546" lon="11.269201766699553">
        <ele>2177.010000000000218</ele>
        <time>2015-03-13T13:23:14Z</time>
      </trkpt>
      <trkpt lat="47.31431907042861" lon="11.269191708415747">
        <ele>2176.980000000000018</ele>
        <time>2015-03-13T13:23:54Z</time>
      </trkpt>
      <trkpt lat="47.314322423189878" lon="11.269164383411407">
        <ele>2177.099999999999909</ele>
        <time>2015-03-13T13:24:20Z</time>
      </trkpt>
      <trkpt lat="47.3142902366817" lon="11.269119288772345">
        <ele>2177.559999999999945</ele>
        <time>2015-03-13T13:24:43Z</time>
      </trkpt>
      <trkpt lat="47.314258804544806" lon="11.269061453640461">
        <ele>2177.630000000000109</ele>
        <time>2015-03-13T13:25:19Z</time>
      </trkpt>
      <trkpt lat="47.314261151477695" lon="11.269063968211412">
        <ele>2177.5300000000002</ele>
        <time>2015-03-13T13:25:56Z</time>
      </trkpt>
      <trkpt lat="47.31427313759923" lon="11.269083498045802">
        <ele>2178.329999999999927</ele>
        <time>2015-03-13T13:26:21Z</time>
      </trkpt>
      <trkpt lat="47.314277747645974" lon="11.269084084779024">
        <ele>2178.360000000000127</ele>
        <time>2015-03-13T13:26:45Z</time>
      </trkpt>
      <trkpt lat="47.314279759302735" lon="11.269075032323599">
        <ele>2178.599999999999909</ele>
        <time>2015-03-13T13:27:06Z</time>
      </trkpt>
      <trkpt lat="47.31428193859756" lon="11.269083246588707">
        <ele>2177.949999999999818</ele>
        <time>2015-03-13T13:27:38Z</time>
      </trkpt>
      <trkpt lat="47.314280094578862" lon="11.269078468903899">
        <ele>2177.440000000000055</ele>
        <time>2015-03-13T13:27:58Z</time>
      </trkpt>
      <trkpt lat="47.314276322722435" lon="11.269066818058491">
        <ele>2177.440000000000055</ele>
        <time>2015-03-13T13:28:39Z</time>
      </trkpt>
      <trkpt lat="47.314269030466676" lon="11.26906581223011">
        <ele>2177.400000000000091</ele>
        <time>2015-03-13T13:29:04Z</time>
      </trkpt>
      <trkpt lat="47.314275233075023" lon="11.269081737846136">
        <ele>2177.139999999999873</ele>
        <time>2015-03-13T13:29:31Z</time>
      </trkpt>
      <trkpt lat="47.314276657998562" lon="11.269073691219091">
        <ele>2177.800000000000182</ele>
        <time>2015-03-13T13:30:08Z</time>
      </trkpt>
      <trkpt lat="47.314285207539797" lon="11.269109733402729">
        <ele>2177.5</ele>
        <time>2015-03-13T13:30:46Z</time>
      </trkpt>
      <trkpt lat="47.314293086528778" lon="11.269102776423097">
        <ele>2177.590000000000146</ele>
        <time>2015-03-13T13:31:33Z</time>
      </trkpt>
      <trkpt lat="47.314283531159163" lon="11.269067572429776">
        <ele>2177.099999999999909</ele>
        <time>2015-03-13T13:31:56Z</time>
      </trkpt>
      <trkpt lat="47.314293757081032" lon="11.268988698720932">
        <ele>2176.369999999999891</ele>
        <time>2015-03-13T13:32:00Z</time>
      </trkpt>
      <trkpt lat="47.31431026943028" lon="11.268942262977362">
        <ele>2175.25</ele>
        <time>2015-03-13T13:32:01Z</time>
      </trkpt>
      <trkpt lat="47.314317980781198" lon="11.268888115882874">
        <ele>2174.179999999999836</ele>
        <time>2015-03-13T13:32:02Z</time>
      </trkpt>
      <trkpt lat="47.314316555857658" lon="11.268841847777367">
        <ele>2173.860000000000127</ele>
        <time>2015-03-13T13:32:03Z</time>
      </trkpt>
      <trkpt lat="47.314314376562834" lon="11.268794490024447">
        <ele>2173.239999999999782</ele>
        <time>2015-03-13T13:32:04Z</time>
      </trkpt>
      <trkpt lat="47.314318986609578" lon="11.268744114786386">
        <ele>2171.909999999999854</ele>
        <time>2015-03-13T13:32:05Z</time>
      </trkpt>
      <trkpt lat="47.314353436231613" lon="11.268715364858508">
        <ele>2169.440000000000055</ele>
        <time>2015-03-13T13:32:08Z</time>
      </trkpt>
      <trkpt lat="47.314361818134785" lon="11.268727602437139">
        <ele>2169.639999999999873</ele>
        <time>2015-03-13T13:32:26Z</time>
      </trkpt>
      <trkpt lat="47.31442459858954" lon="11.268702289089561">
        <ele>2165.340000000000146</ele>
        <time>2015-03-13T13:32:29Z</time>
      </trkpt>
      <trkpt lat="47.314458796754479" lon="11.26864948309958">
        <ele>2163.849999999999909</ele>
        <time>2015-03-13T13:32:31Z</time>
      </trkpt>
      <trkpt lat="47.314533982425928" lon="11.268684267997742">
        <ele>2158.769999999999982</ele>
        <time>2015-03-13T13:32:34Z</time>
      </trkpt>
      <trkpt lat="47.314635654911399" lon="11.268737157806754">
        <ele>2153.800000000000182</ele>
        <time>2015-03-13T13:32:37Z</time>
      </trkpt>
      <trkpt lat="47.314710924401879" lon="11.268695164471865">
        <ele>2147.789999999999964</ele>
        <time>2015-03-13T13:32:40Z</time>
      </trkpt>
      <trkpt lat="47.314782589673996" lon="11.268685860559344">
        <ele>2143.389999999999873</ele>
        <time>2015-03-13T13:32:42Z</time>
      </trkpt>
      <trkpt lat="47.314874539151788" lon="11.268687704578042">
        <ele>2137.2800000000002</ele>
        <time>2015-03-13T13:32:44Z</time>
      </trkpt>
      <trkpt lat="47.314959950745106" lon="11.268659206107259">
        <ele>2131.519999999999982</ele>
        <time>2015-03-13T13:32:46Z</time>
      </trkpt>
      <trkpt lat="47.31506816111505" lon="11.268567675724626">
        <ele>2125.710000000000036</ele>
        <time>2015-03-13T13:32:49Z</time>
      </trkpt>
      <trkpt lat="47.31510822661221" lon="11.268617548048496">
        <ele>2121.849999999999909</ele>
        <time>2015-03-13T13:32:51Z</time>
      </trkpt>
      <trkpt lat="47.315139826387167" lon="11.268597347661853">
        <ele>2118.7800000000002</ele>
        <time>2015-03-13T13:32:53Z</time>
      </trkpt>
      <trkpt lat="47.315195733681321" lon="11.268590055406094">
        <ele>2114.849999999999909</ele>
        <time>2015-03-13T13:32:55Z</time>
      </trkpt>
      <trkpt lat="47.315209396183491" lon="11.268603298813105">
        <ele>2112.900000000000091</ele>
        <time>2015-03-13T13:32:56Z</time>
      </trkpt>
      <trkpt lat="47.315253233537078" lon="11.268602460622787">
        <ele>2109.269999999999982</ele>
        <time>2015-03-13T13:32:59Z</time>
      </trkpt>
      <trkpt lat="47.315323809161782" lon="11.268602795898914">
        <ele>2105.369999999999891</ele>
        <time>2015-03-13T13:33:01Z</time>
      </trkpt>
      <trkpt lat="47.315358091145754" lon="11.268587205559015">
        <ele>2102.309999999999945</ele>
        <time>2015-03-13T13:33:02Z</time>
      </trkpt>
      <trkpt lat="47.31542581692338" lon="11.268595838919282">
        <ele>2098.429999999999836</ele>
        <time>2015-03-13T13:33:04Z</time>
      </trkpt>
      <trkpt lat="47.315495302900672" lon="11.268612015992403">
        <ele>2094.309999999999945</ele>
        <time>2015-03-13T13:33:06Z</time>
      </trkpt>
      <trkpt lat="47.315556909888983" lon="11.268520737066865">
        <ele>2092.329999999999927</ele>
        <time>2015-03-13T13:33:09Z</time>
      </trkpt>
      <trkpt lat="47.315547773614526" lon="11.268519395962358">
        <ele>2094</ele>
        <time>2015-03-13T13:33:19Z</time>
      </trkpt>
      <trkpt lat="47.315613403916359" lon="11.268529035151005">
        <ele>2094.519999999999982</ele>
        <time>2015-03-13T13:33:45Z</time>
      </trkpt>
      <trkpt lat="47.315632849931717" lon="11.268533309921622">
        <ele>2094.5</ele>
        <time>2015-03-13T13:33:51Z</time>
      </trkpt>
      <trkpt lat="47.315692864358425" lon="11.268569519743323">
        <ele>2088.429999999999836</ele>
        <time>2015-03-13T13:33:54Z</time>
      </trkpt>
      <trkpt lat="47.315692529082298" lon="11.268573626875877">
        <ele>2087.5</ele>
        <time>2015-03-13T13:33:56Z</time>
      </trkpt>
      <trkpt lat="47.315697306767106" lon="11.268552504479885">
        <ele>2087.289999999999964</ele>
        <time>2015-03-13T13:34:00Z</time>
      </trkpt>
      <trkpt lat="47.315755896270275" lon="11.26856641843915">
        <ele>2081.599999999999909</ele>
        <time>2015-03-13T13:34:02Z</time>
      </trkpt>
      <trkpt lat="47.31579327955842" lon="11.268569268286228">
        <ele>2078.119999999999891</ele>
        <time>2015-03-13T13:34:04Z</time>
      </trkpt>
      <trkpt lat="47.315900819376111" lon="11.268560048192739">
        <ele>2072.320000000000164</ele>
        <time>2015-03-13T13:34:06Z</time>
      </trkpt>
      <trkpt lat="47.316002575680614" lon="11.268584607169032">
        <ele>2067.050000000000182</ele>
        <time>2015-03-13T13:34:09Z</time>
      </trkpt>
      <trkpt lat="47.316097961738706" lon="11.268648728728294">
        <ele>2059.099999999999909</ele>
        <time>2015-03-13T13:34:12Z</time>
      </trkpt>
      <trkpt lat="47.316195359453559" lon="11.268648058176041">
        <ele>2054.150000000000091</ele>
        <time>2015-03-13T13:34:14Z</time>
      </trkpt>
      <trkpt lat="47.316240202635527" lon="11.268665576353669">
        <ele>2050.480000000000018</ele>
        <time>2015-03-13T13:34:15Z</time>
      </trkpt>
      <trkpt lat="47.316277753561735" lon="11.26867001876235">
        <ele>2047.190000000000055</ele>
        <time>2015-03-13T13:34:16Z</time>
      </trkpt>
      <trkpt lat="47.316311784088612" lon="11.268696840852499">
        <ele>2044.509999999999991</ele>
        <time>2015-03-13T13:34:19Z</time>
      </trkpt>
      <trkpt lat="47.31631999835372" lon="11.268684435635805">
        <ele>2044.289999999999964</ele>
        <time>2015-03-13T13:34:20Z</time>
      </trkpt>
      <trkpt lat="47.3163693677634" lon="11.268690470606089">
        <ele>2036.769999999999982</ele>
        <time>2015-03-13T13:34:23Z</time>
      </trkpt>
      <trkpt lat="47.316453270614147" lon="11.268705558031797">
        <ele>2030.079999999999927</ele>
        <time>2015-03-13T13:34:25Z</time>
      </trkpt>
      <trkpt lat="47.316497359424829" lon="11.268762806430459">
        <ele>2025.710000000000036</ele>
        <time>2015-03-13T13:34:26Z</time>
      </trkpt>
      <trkpt lat="47.316602468490601" lon="11.268777726218104">
        <ele>2019.509999999999991</ele>
        <time>2015-03-13T13:34:28Z</time>
      </trkpt>
      <trkpt lat="47.316646808758378" lon="11.268810834735632">
        <ele>2016.819999999999936</ele>
        <time>2015-03-13T13:34:29Z</time>
      </trkpt>
      <trkpt lat="47.316751750186086" lon="11.268854252994061">
        <ele>2006.309999999999945</ele>
        <time>2015-03-13T13:34:32Z</time>
      </trkpt>
      <trkpt lat="47.316837916150689" lon="11.268910747021437">
        <ele>1999.730000000000018</ele>
        <time>2015-03-13T13:34:34Z</time>
      </trkpt>
      <trkpt lat="47.316932799294591" lon="11.268914686515927">
        <ele>1993.049999999999955</ele>
        <time>2015-03-13T13:34:36Z</time>
      </trkpt>
      <trkpt lat="47.317061461508274" lon="11.268998505547643">
        <ele>1986.559999999999945</ele>
        <time>2015-03-13T13:34:38Z</time>
      </trkpt>
      <trkpt lat="47.317185513675213" lon="11.268993057310581">
        <ele>1980.299999999999955</ele>
        <time>2015-03-13T13:34:40Z</time>
      </trkpt>
      <trkpt lat="47.317307805642486" lon="11.269088191911578">
        <ele>1972.710000000000036</ele>
        <time>2015-03-13T13:34:42Z</time>
      </trkpt>
      <trkpt lat="47.317494554445148" lon="11.269279969856143">
        <ele>1959.319999999999936</ele>
        <time>2015-03-13T13:34:46Z</time>
      </trkpt>
      <trkpt lat="47.317594047635794" lon="11.269337218254805">
        <ele>1952.420000000000073</ele>
        <time>2015-03-13T13:34:48Z</time>
      </trkpt>
      <trkpt lat="47.31769647449255" lon="11.269424306228757">
        <ele>1946.839999999999918</ele>
        <time>2015-03-13T13:34:50Z</time>
      </trkpt>
      <trkpt lat="47.317751040682197" lon="11.269450038671494">
        <ele>1943.5</ele>
        <time>2015-03-13T13:34:51Z</time>
      </trkpt>
      <trkpt lat="47.317803595215082" lon="11.269482979550958">
        <ele>1939.220000000000027</ele>
        <time>2015-03-13T13:34:52Z</time>
      </trkpt>
      <trkpt lat="47.317954385653138" lon="11.269480297341943">
        <ele>1931.349999999999909</ele>
        <time>2015-03-13T13:34:54Z</time>
      </trkpt>
      <trkpt lat="47.318028984591365" lon="11.269504856318235">
        <ele>1927.630000000000109</ele>
        <time>2015-03-13T13:34:55Z</time>
      </trkpt>
      <trkpt lat="47.318111881613731" lon="11.269663525745273">
        <ele>1923.009999999999991</ele>
        <time>2015-03-13T13:34:57Z</time>
      </trkpt>
      <trkpt lat="47.318156221881509" lon="11.269689174368978">
        <ele>1919.579999999999927</ele>
        <time>2015-03-13T13:34:58Z</time>
      </trkpt>
      <trkpt lat="47.318291170522571" lon="11.269714487716556">
        <ele>1914.259999999999991</ele>
        <time>2015-03-13T13:35:00Z</time>
      </trkpt>
      <trkpt lat="47.318347245454788" lon="11.26987986266613">
        <ele>1909.509999999999991</ele>
        <time>2015-03-13T13:35:02Z</time>
      </trkpt>
      <trkpt lat="47.318436093628407" lon="11.269979691132903">
        <ele>1904.950000000000045</ele>
        <time>2015-03-13T13:35:04Z</time>
      </trkpt>
      <trkpt lat="47.318486385047436" lon="11.27005722373724">
        <ele>1902.720000000000027</ele>
        <time>2015-03-13T13:35:06Z</time>
      </trkpt>
      <trkpt lat="47.318491833284497" lon="11.27006116323173">
        <ele>1903.160000000000082</ele>
        <time>2015-03-13T13:35:07Z</time>
      </trkpt>
      <trkpt lat="47.318534580990672" lon="11.270094439387321">
        <ele>1905.210000000000036</ele>
        <time>2015-03-13T13:35:17Z</time>
      </trkpt>
      <trkpt lat="47.318534078076482" lon="11.270154621452093">
        <ele>1906.430000000000064</ele>
        <time>2015-03-13T13:35:40Z</time>
      </trkpt>
      <trkpt lat="47.318466352298856" lon="11.270185383036733">
        <ele>1907.700000000000045</ele>
        <time>2015-03-13T13:36:09Z</time>
      </trkpt>
      <trkpt lat="47.318376833572984" lon="11.2702492531389">
        <ele>1908.940000000000055</ele>
        <time>2015-03-13T13:36:34Z</time>
      </trkpt>
      <trkpt lat="47.31839619576931" lon="11.270262245088816">
        <ele>1909.630000000000109</ele>
        <time>2015-03-13T13:36:49Z</time>
      </trkpt>
      <trkpt lat="47.318442966789007" lon="11.270298035815358">
        <ele>1908.289999999999964</ele>
        <time>2015-03-13T13:36:51Z</time>
      </trkpt>
      <trkpt lat="47.318513877689838" lon="11.270328797399998">
        <ele>1907.180000000000064</ele>
        <time>2015-03-13T13:36:53Z</time>
      </trkpt>
      <trkpt lat="47.318579256534576" lon="11.270390069112182">
        <ele>1905.690000000000055</ele>
        <time>2015-03-13T13:36:55Z</time>
      </trkpt>
      <trkpt lat="47.318656453862786" lon="11.270654266700149">
        <ele>1899.829999999999927</ele>
        <time>2015-03-13T13:37:00Z</time>
      </trkpt>
      <trkpt lat="47.3187006264925" lon="11.270759627223015">
        <ele>1896.410000000000082</ele>
        <time>2015-03-13T13:37:02Z</time>
      </trkpt>
      <trkpt lat="47.318705068901181" lon="11.270887199789286">
        <ele>1892.730000000000018</ele>
        <time>2015-03-13T13:37:04Z</time>
      </trkpt>
      <trkpt lat="47.318713450804353" lon="11.27109163440764">
        <ele>1888.029999999999973</ele>
        <time>2015-03-13T13:37:07Z</time>
      </trkpt>
      <trkpt lat="47.31877438724041" lon="11.271152570843697">
        <ele>1882.279999999999973</ele>
        <time>2015-03-13T13:37:09Z</time>
      </trkpt>
      <trkpt lat="47.318830294534564" lon="11.271247956901789">
        <ele>1876.670000000000073</ele>
        <time>2015-03-13T13:37:11Z</time>
      </trkpt>
      <trkpt lat="47.318883016705513" lon="11.271268492564559">
        <ele>1871.819999999999936</ele>
        <time>2015-03-13T13:37:13Z</time>
      </trkpt>
      <trkpt lat="47.318947305902839" lon="11.271311491727829">
        <ele>1866.579999999999927</ele>
        <time>2015-03-13T13:37:15Z</time>
      </trkpt>
      <trkpt lat="47.319023162126541" lon="11.271305624395609">
        <ele>1860.539999999999964</ele>
        <time>2015-03-13T13:37:17Z</time>
      </trkpt>
      <trkpt lat="47.319199182093143" lon="11.271229349076748">
        <ele>1849.319999999999936</ele>
        <time>2015-03-13T13:37:21Z</time>
      </trkpt>
      <trkpt lat="47.319280738011003" lon="11.271244855597615">
        <ele>1843.440000000000055</ele>
        <time>2015-03-13T13:37:23Z</time>
      </trkpt>
      <trkpt lat="47.31937738135457" lon="11.27127586863935">
        <ele>1838.269999999999982</ele>
        <time>2015-03-13T13:37:25Z</time>
      </trkpt>
      <trkpt lat="47.319423565641046" lon="11.271294141188264">
        <ele>1834.730000000000018</ele>
        <time>2015-03-13T13:37:26Z</time>
      </trkpt>
      <trkpt lat="47.319528590887785" lon="11.271310904994607">
        <ele>1828.339999999999918</ele>
        <time>2015-03-13T13:37:28Z</time>
      </trkpt>
      <trkpt lat="47.319667311385274" lon="11.271319705992937">
        <ele>1820.970000000000027</ele>
        <time>2015-03-13T13:37:31Z</time>
      </trkpt>
      <trkpt lat="47.319760182872415" lon="11.271354742348194">
        <ele>1815.8599999999999</ele>
        <time>2015-03-13T13:37:33Z</time>
      </trkpt>
      <trkpt lat="47.319857077673078" lon="11.271315095946193">
        <ele>1811.289999999999964</ele>
        <time>2015-03-13T13:37:35Z</time>
      </trkpt>
      <trkpt lat="47.31990753673017" lon="11.271328004077077">
        <ele>1809.079999999999927</ele>
        <time>2015-03-13T13:37:36Z</time>
      </trkpt>
      <trkpt lat="47.320021111518145" lon="11.271364716812968">
        <ele>1803.430000000000064</ele>
        <time>2015-03-13T13:37:38Z</time>
      </trkpt>
      <trkpt lat="47.320173159241676" lon="11.271438812837005">
        <ele>1793.490000000000009</ele>
        <time>2015-03-13T13:37:41Z</time>
      </trkpt>
      <trkpt lat="47.32022319920361" lon="11.271399753168225">
        <ele>1790.440000000000055</ele>
        <time>2015-03-13T13:37:42Z</time>
      </trkpt>
      <trkpt lat="47.320360410958529" lon="11.271431101486087">
        <ele>1784.920000000000073</ele>
        <time>2015-03-13T13:37:46Z</time>
      </trkpt>
      <trkpt lat="47.320442805066705" lon="11.271468652412295">
        <ele>1780.660000000000082</ele>
        <time>2015-03-13T13:37:48Z</time>
      </trkpt>
      <trkpt lat="47.3204914201051" lon="11.271510478109121">
        <ele>1775.700000000000045</ele>
        <time>2015-03-13T13:37:50Z</time>
      </trkpt>
      <trkpt lat="47.320580268278718" lon="11.271509220823646">
        <ele>1771.150000000000091</ele>
        <time>2015-03-13T13:37:52Z</time>
      </trkpt>
      <trkpt lat="47.320671798661351" lon="11.271608378738165">
        <ele>1764.519999999999982</ele>
        <time>2015-03-13T13:37:55Z</time>
      </trkpt>
      <trkpt lat="47.320780009031296" lon="11.271626148372889">
        <ele>1759.650000000000091</ele>
        <time>2015-03-13T13:37:57Z</time>
      </trkpt>
      <trkpt lat="47.320863995701075" lon="11.271646851673722">
        <ele>1755.349999999999909</ele>
        <time>2015-03-13T13:37:59Z</time>
      </trkpt>
      <trkpt lat="47.320921327918768" lon="11.271646181121469">
        <ele>1752.470000000000027</ele>
        <time>2015-03-13T13:38:00Z</time>
      </trkpt>
      <trkpt lat="47.321146801114082" lon="11.271647103130817">
        <ele>1739.130000000000109</ele>
        <time>2015-03-13T13:38:04Z</time>
      </trkpt>
      <trkpt lat="47.321201032027602" lon="11.271635619923472">
        <ele>1735.650000000000091</ele>
        <time>2015-03-13T13:38:05Z</time>
      </trkpt>
      <trkpt lat="47.32130010612309" lon="11.271675769239664">
        <ele>1729.980000000000018</ele>
        <time>2015-03-13T13:38:07Z</time>
      </trkpt>
      <trkpt lat="47.321342183277011" lon="11.271652719005942">
        <ele>1728.549999999999955</ele>
        <time>2015-03-13T13:38:08Z</time>
      </trkpt>
      <trkpt lat="47.321395492181182" lon="11.271671326830983">
        <ele>1726.299999999999955</ele>
        <time>2015-03-13T13:38:09Z</time>
      </trkpt>
      <trkpt lat="47.321455925703049" lon="11.271669985726476">
        <ele>1723.019999999999982</ele>
        <time>2015-03-13T13:38:10Z</time>
      </trkpt>
      <trkpt lat="47.321504792198539" lon="11.271631764248013">
        <ele>1720.1400000000001</ele>
        <time>2015-03-13T13:38:11Z</time>
      </trkpt>
      <trkpt lat="47.321567069739103" lon="11.271618353202939">
        <ele>1718.259999999999991</ele>
        <time>2015-03-13T13:38:12Z</time>
      </trkpt>
      <trkpt lat="47.321643847972155" lon="11.271634446457028">
        <ele>1715.279999999999973</ele>
        <time>2015-03-13T13:38:13Z</time>
      </trkpt>
      <trkpt lat="47.321719285100698" lon="11.271613240242004">
        <ele>1711.759999999999991</ele>
        <time>2015-03-13T13:38:14Z</time>
      </trkpt>
      <trkpt lat="47.321784077212214" lon="11.271532103419304">
        <ele>1709.759999999999991</ele>
        <time>2015-03-13T13:38:15Z</time>
      </trkpt>
      <trkpt lat="47.32184593565762" lon="11.271447110921144">
        <ele>1708.450000000000045</ele>
        <time>2015-03-13T13:38:16Z</time>
      </trkpt>
      <trkpt lat="47.321923468261957" lon="11.27137846313417">
        <ele>1705.480000000000018</ele>
        <time>2015-03-13T13:38:17Z</time>
      </trkpt>
      <trkpt lat="47.321999995037913" lon="11.27137603238225">
        <ele>1702.799999999999955</ele>
        <time>2015-03-13T13:38:18Z</time>
      </trkpt>
      <trkpt lat="47.322036037221551" lon="11.271412661299109">
        <ele>1701.299999999999955</ele>
        <time>2015-03-13T13:38:19Z</time>
      </trkpt>
      <trkpt lat="47.322042575106025" lon="11.271454822272062">
        <ele>1702.519999999999982</ele>
        <time>2015-03-13T13:38:26Z</time>
      </trkpt>
      <trkpt lat="47.322040563449264" lon="11.271455576643348">
        <ele>1702.589999999999918</ele>
        <time>2015-03-13T13:38:27Z</time>
      </trkpt>
      <trkpt lat="47.322063781321049" lon="11.27151726745069">
        <ele>1703.680000000000064</ele>
        <time>2015-03-13T13:38:52Z</time>
      </trkpt>
      <trkpt lat="47.322059758007526" lon="11.271518943831325">
        <ele>1704.990000000000009</ele>
        <time>2015-03-13T13:39:16Z</time>
      </trkpt>
      <trkpt lat="47.322069481015205" lon="11.271521709859371">
        <ele>1704.839999999999918</ele>
        <time>2015-03-13T13:39:18Z</time>
      </trkpt>
      <trkpt lat="47.322118347510695" lon="11.271515674889088">
        <ele>1703.799999999999955</ele>
        <time>2015-03-13T13:39:21Z</time>
      </trkpt>
      <trkpt lat="47.322145672515035" lon="11.271504862233996">
        <ele>1703.910000000000082</ele>
        <time>2015-03-13T13:39:22Z</time>
      </trkpt>
      <trkpt lat="47.322180289775133" lon="11.271489523351192">
        <ele>1702.6400000000001</ele>
        <time>2015-03-13T13:39:23Z</time>
      </trkpt>
      <trkpt lat="47.322214907035232" lon="11.271475693210959">
        <ele>1702.539999999999964</ele>
        <time>2015-03-13T13:39:24Z</time>
      </trkpt>
      <trkpt lat="47.322255140170455" lon="11.271470244973898">
        <ele>1700.950000000000045</ele>
        <time>2015-03-13T13:39:25Z</time>
      </trkpt>
      <trkpt lat="47.322336947545409" lon="11.271448284387589">
        <ele>1699.119999999999891</ele>
        <time>2015-03-13T13:39:27Z</time>
      </trkpt>
      <trkpt lat="47.32238145545125" lon="11.271446440368891">
        <ele>1698.069999999999936</ele>
        <time>2015-03-13T13:39:28Z</time>
      </trkpt>
      <trkpt lat="47.322480781003833" lon="11.271465718746185">
        <ele>1695.740000000000009</ele>
        <time>2015-03-13T13:39:30Z</time>
      </trkpt>
      <trkpt lat="47.322532581165433" lon="11.271465048193932">
        <ele>1694.25</ele>
        <time>2015-03-13T13:39:31Z</time>
      </trkpt>
      <trkpt lat="47.322644060477614" lon="11.271439231932163">
        <ele>1691.259999999999991</ele>
        <time>2015-03-13T13:39:33Z</time>
      </trkpt>
      <trkpt lat="47.322741206735373" lon="11.271389443427324">
        <ele>1688.089999999999918</ele>
        <time>2015-03-13T13:39:35Z</time>
      </trkpt>
      <trkpt lat="47.322787726297975" lon="11.271358011290431">
        <ele>1686.769999999999982</ele>
        <time>2015-03-13T13:39:36Z</time>
      </trkpt>
      <trkpt lat="47.322843130677938" lon="11.271327584981918">
        <ele>1684.900000000000091</ele>
        <time>2015-03-13T13:39:37Z</time>
      </trkpt>
      <trkpt lat="47.322895098477602" lon="11.271295817568898">
        <ele>1683.839999999999918</ele>
        <time>2015-03-13T13:39:38Z</time>
      </trkpt>
      <trkpt lat="47.322934828698635" lon="11.271267486736178">
        <ele>1681.509999999999991</ele>
        <time>2015-03-13T13:39:39Z</time>
      </trkpt>
      <trkpt lat="47.322969948872924" lon="11.271246615797281">
        <ele>1680.430000000000064</ele>
        <time>2015-03-13T13:39:40Z</time>
      </trkpt>
      <trkpt lat="47.323006661608815" lon="11.271223733201623">
        <ele>1679.380000000000109</ele>
        <time>2015-03-13T13:39:41Z</time>
      </trkpt>
      <trkpt lat="47.323060389608145" lon="11.271226163953543">
        <ele>1676.730000000000018</ele>
        <time>2015-03-13T13:39:42Z</time>
      </trkpt>
      <trkpt lat="47.323112692683935" lon="11.271210992708802">
        <ele>1674.240000000000009</ele>
        <time>2015-03-13T13:39:43Z</time>
      </trkpt>
      <trkpt lat="47.323159798979759" lon="11.271183164790273">
        <ele>1672.319999999999936</ele>
        <time>2015-03-13T13:39:44Z</time>
      </trkpt>
      <trkpt lat="47.323202211409807" lon="11.271171933040023">
        <ele>1670.490000000000009</ele>
        <time>2015-03-13T13:39:45Z</time>
      </trkpt>
      <trkpt lat="47.323246132582426" lon="11.271165562793612">
        <ele>1668.119999999999891</ele>
        <time>2015-03-13T13:39:46Z</time>
      </trkpt>
      <trkpt lat="47.323294412344694" lon="11.271130358800292">
        <ele>1667.349999999999909</ele>
        <time>2015-03-13T13:39:47Z</time>
      </trkpt>
      <trkpt lat="47.32334403321147" lon="11.271081659942865">
        <ele>1666.019999999999982</ele>
        <time>2015-03-13T13:39:48Z</time>
      </trkpt>
      <trkpt lat="47.323386948555708" lon="11.271038493141532">
        <ele>1663.400000000000091</ele>
        <time>2015-03-13T13:39:49Z</time>
      </trkpt>
      <trkpt lat="47.323433719575405" lon="11.271014017984271">
        <ele>1660.470000000000027</ele>
        <time>2015-03-13T13:39:50Z</time>
      </trkpt>
      <trkpt lat="47.323479987680912" lon="11.271002199500799">
        <ele>1658.200000000000045</ele>
        <time>2015-03-13T13:39:51Z</time>
      </trkpt>
      <trkpt lat="47.3235341347754" lon="11.271018041297793">
        <ele>1657.6400000000001</ele>
        <time>2015-03-13T13:39:52Z</time>
      </trkpt>
      <trkpt lat="47.323593478649855" lon="11.271050814539194">
        <ele>1654.1099999999999</ele>
        <time>2015-03-13T13:39:53Z</time>
      </trkpt>
      <trkpt lat="47.323633292689919" lon="11.271044947206974">
        <ele>1653.1099999999999</ele>
        <time>2015-03-13T13:39:54Z</time>
      </trkpt>
      <trkpt lat="47.323667826130986" lon="11.271001361310482">
        <ele>1651.910000000000082</ele>
        <time>2015-03-13T13:39:55Z</time>
      </trkpt>
      <trkpt lat="47.323710154742002" lon="11.270981999114156">
        <ele>1651.599999999999909</ele>
        <time>2015-03-13T13:39:56Z</time>
      </trkpt>
      <trkpt lat="47.323805959895253" lon="11.270985854789615">
        <ele>1648.549999999999955</ele>
        <time>2015-03-13T13:39:58Z</time>
      </trkpt>
      <trkpt lat="47.323853988200426" lon="11.270990297198296">
        <ele>1646.789999999999964</ele>
        <time>2015-03-13T13:39:59Z</time>
      </trkpt>
      <trkpt lat="47.323896400630474" lon="11.270983507856727">
        <ele>1646.420000000000073</ele>
        <time>2015-03-13T13:40:00Z</time>
      </trkpt>
      <trkpt lat="47.323905704542994" lon="11.270959619432688">
        <ele>1645.8900000000001</ele>
        <time>2015-03-13T13:40:01Z</time>
      </trkpt>
      <trkpt lat="47.323917774483562" lon="11.270943777635694">
        <ele>1645.400000000000091</ele>
        <time>2015-03-13T13:40:03Z</time>
      </trkpt>
      <trkpt lat="47.32393235899508" lon="11.270951740443707">
        <ele>1645.1099999999999</ele>
        <time>2015-03-13T13:40:04Z</time>
      </trkpt>
      <trkpt lat="47.323951050639153" lon="11.270948052406311">
        <ele>1645.150000000000091</ele>
        <time>2015-03-13T13:40:05Z</time>
      </trkpt>
      <trkpt lat="47.323976196348667" lon="11.270930785685778">
        <ele>1644.569999999999936</ele>
        <time>2015-03-13T13:40:06Z</time>
      </trkpt>
      <trkpt lat="47.324000922963023" lon="11.270898263901472">
        <ele>1643.990000000000009</ele>
        <time>2015-03-13T13:40:07Z</time>
      </trkpt>
      <trkpt lat="47.324022129178047" lon="11.270850487053394">
        <ele>1644.069999999999936</ele>
        <time>2015-03-13T13:40:08Z</time>
      </trkpt>
      <trkpt lat="47.324046352878213" lon="11.270814025774598">
        <ele>1641.960000000000036</ele>
        <time>2015-03-13T13:40:09Z</time>
      </trkpt>
      <trkpt lat="47.324071750044823" lon="11.270784772932529">
        <ele>1641.490000000000009</ele>
        <time>2015-03-13T13:40:10Z</time>
      </trkpt>
      <trkpt lat="47.324093207716942" lon="11.270747222006321">
        <ele>1641.309999999999945</ele>
        <time>2015-03-13T13:40:11Z</time>
      </trkpt>
      <trkpt lat="47.32411902397871" lon="11.27070807851851">
        <ele>1639.849999999999909</ele>
        <time>2015-03-13T13:40:12Z</time>
      </trkpt>
      <trkpt lat="47.324145007878542" lon="11.270678322762251">
        <ele>1639.910000000000082</ele>
        <time>2015-03-13T13:40:13Z</time>
      </trkpt>
      <trkpt lat="47.324199406430125" lon="11.27061570994556">
        <ele>1638.259999999999991</ele>
        <time>2015-03-13T13:40:15Z</time>
      </trkpt>
      <trkpt lat="47.324258079752326" lon="11.270602131262422">
        <ele>1635.779999999999973</ele>
        <time>2015-03-13T13:40:16Z</time>
      </trkpt>
      <trkpt lat="47.324316585436463" lon="11.270582852885127">
        <ele>1634.8599999999999</ele>
        <time>2015-03-13T13:40:17Z</time>
      </trkpt>
      <trkpt lat="47.324345167726278" lon="11.27055418677628">
        <ele>1635.490000000000009</ele>
        <time>2015-03-13T13:40:18Z</time>
      </trkpt>
      <trkpt lat="47.324363021180034" lon="11.270522167906165">
        <ele>1635.25</ele>
        <time>2015-03-13T13:40:19Z</time>
      </trkpt>
      <trkpt lat="47.324375677853823" lon="11.270496435463428">
        <ele>1634.490000000000009</ele>
        <time>2015-03-13T13:40:20Z</time>
      </trkpt>
      <trkpt lat="47.324371738359332" lon="11.270485706627369">
        <ele>1635.259999999999991</ele>
        <time>2015-03-13T13:40:30Z</time>
      </trkpt>
      <trkpt lat="47.324409037828445" lon="11.270474307239056">
        <ele>1635.259999999999991</ele>
        <time>2015-03-13T13:40:53Z</time>
      </trkpt>
      <trkpt lat="47.324429405853152" lon="11.270480258390307">
        <ele>1634.150000000000091</ele>
        <time>2015-03-13T13:40:54Z</time>
      </trkpt>
      <trkpt lat="47.324441643431783" lon="11.270504482090473">
        <ele>1633.759999999999991</ele>
        <time>2015-03-13T13:40:55Z</time>
      </trkpt>
      <trkpt lat="47.324455305933952" lon="11.270526358857751">
        <ele>1632.779999999999973</ele>
        <time>2015-03-13T13:40:56Z</time>
      </trkpt>
      <trkpt lat="47.324479445815086" lon="11.270546559244394">
        <ele>1632.099999999999909</ele>
        <time>2015-03-13T13:40:57Z</time>
      </trkpt>
      <trkpt lat="47.324523702263832" lon="11.270573381334543">
        <ele>1631.5</ele>
        <time>2015-03-13T13:40:58Z</time>
      </trkpt>
      <trkpt lat="47.324574999511242" lon="11.270591570064425">
        <ele>1629.720000000000027</ele>
        <time>2015-03-13T13:40:59Z</time>
      </trkpt>
      <trkpt lat="47.324622189626098" lon="11.270573800429702">
        <ele>1627.380000000000109</ele>
        <time>2015-03-13T13:41:00Z</time>
      </trkpt>
      <trkpt lat="47.324652699753642" lon="11.270539434626698">
        <ele>1626.490000000000009</ele>
        <time>2015-03-13T13:41:01Z</time>
      </trkpt>
      <trkpt lat="47.324672313407063" lon="11.270506829023361">
        <ele>1625.549999999999955</ele>
        <time>2015-03-13T13:41:02Z</time>
      </trkpt>
      <trkpt lat="47.324686395004392" lon="11.270487802103162">
        <ele>1625.690000000000055</ele>
        <time>2015-03-13T13:41:03Z</time>
      </trkpt>
      <trkpt lat="47.324691843241453" lon="11.270452011376619">
        <ele>1623.670000000000073</ele>
        <time>2015-03-13T13:41:11Z</time>
      </trkpt>
      <trkpt lat="47.324700644239783" lon="11.270422674715519">
        <ele>1623.809999999999945</ele>
        <time>2015-03-13T13:41:12Z</time>
      </trkpt>
      <trkpt lat="47.324721850454807" lon="11.270403899252415">
        <ele>1620.950000000000045</ele>
        <time>2015-03-13T13:41:13Z</time>
      </trkpt>
      <trkpt lat="47.324745403602719" lon="11.270398870110512">
        <ele>1619.960000000000036</ele>
        <time>2015-03-13T13:41:14Z</time>
      </trkpt>
      <trkpt lat="47.324756216257811" lon="11.270423512905836">
        <ele>1619.059999999999945</ele>
        <time>2015-03-13T13:41:15Z</time>
      </trkpt>
      <trkpt lat="47.324760910123587" lon="11.270455364137888">
        <ele>1618.670000000000073</ele>
        <time>2015-03-13T13:41:16Z</time>
      </trkpt>
      <trkpt lat="47.324771974235773" lon="11.270490735769272">
        <ele>1618.5</ele>
        <time>2015-03-13T13:41:17Z</time>
      </trkpt>
      <trkpt lat="47.324780020862818" lon="11.270541362464428">
        <ele>1617.170000000000073</ele>
        <time>2015-03-13T13:41:18Z</time>
      </trkpt>
      <trkpt lat="47.324779601767659" lon="11.270598275586963">
        <ele>1616.519999999999982</ele>
        <time>2015-03-13T13:41:19Z</time>
      </trkpt>
      <trkpt lat="47.324784714728594" lon="11.270657368004322">
        <ele>1616</ele>
        <time>2015-03-13T13:41:20Z</time>
      </trkpt>
      <trkpt lat="47.324790833517909" lon="11.270707240328193">
        <ele>1615.509999999999991</ele>
        <time>2015-03-13T13:41:21Z</time>
      </trkpt>
      <trkpt lat="47.324795443564653" lon="11.270742444321513">
        <ele>1612.930000000000064</ele>
        <time>2015-03-13T13:41:22Z</time>
      </trkpt>
      <trkpt lat="47.32481480576098" lon="11.270708665251732">
        <ele>1610.940000000000055</ele>
        <time>2015-03-13T13:41:23Z</time>
      </trkpt>
      <trkpt lat="47.32483777217567" lon="11.270698606967926">
        <ele>1608.369999999999891</ele>
        <time>2015-03-13T13:41:24Z</time>
      </trkpt>
      <trkpt lat="47.324858978390694" lon="11.270723082125187">
        <ele>1606.539999999999964</ele>
        <time>2015-03-13T13:41:25Z</time>
      </trkpt>
      <trkpt lat="47.324877753853798" lon="11.270763734355569">
        <ele>1605.670000000000073</ele>
        <time>2015-03-13T13:41:26Z</time>
      </trkpt>
      <trkpt lat="47.324895272031426" lon="11.270776055753231">
        <ele>1602.430000000000064</ele>
        <time>2015-03-13T13:41:27Z</time>
      </trkpt>
      <trkpt lat="47.324879430234432" lon="11.270724842324853">
        <ele>1600.880000000000109</ele>
        <time>2015-03-13T13:41:32Z</time>
      </trkpt>
      <trkpt lat="47.324924357235432" lon="11.27068905159831">
        <ele>1598.490000000000009</ele>
        <time>2015-03-13T13:41:34Z</time>
      </trkpt>
      <trkpt lat="47.324936762452126" lon="11.270688129588962">
        <ele>1596.420000000000073</ele>
        <time>2015-03-13T13:41:35Z</time>
      </trkpt>
      <trkpt lat="47.324943384155631" lon="11.270701959729195">
        <ele>1596.470000000000027</ele>
        <time>2015-03-13T13:41:36Z</time>
      </trkpt>
      <trkpt lat="47.324945479631424" lon="11.270708749070764">
        <ele>1596.549999999999955</ele>
        <time>2015-03-13T13:41:48Z</time>
      </trkpt>
      <trkpt lat="47.324957549571991" lon="11.270733224228024">
        <ele>1596.410000000000082</ele>
        <time>2015-03-13T13:41:50Z</time>
      </trkpt>
      <trkpt lat="47.324971882626414" lon="11.270783264189959">
        <ele>1595.539999999999964</ele>
        <time>2015-03-13T13:41:52Z</time>
      </trkpt>
      <trkpt lat="47.32497850432992" lon="11.270832633599639">
        <ele>1595.549999999999955</ele>
        <time>2015-03-13T13:41:55Z</time>
      </trkpt>
      <trkpt lat="47.325009685009718" lon="11.270893067121506">
        <ele>1592.950000000000045</ele>
        <time>2015-03-13T13:41:57Z</time>
      </trkpt>
      <trkpt lat="47.325020832940936" lon="11.270940927788615">
        <ele>1592.630000000000109</ele>
        <time>2015-03-13T13:41:58Z</time>
      </trkpt>
      <trkpt lat="47.32502737082541" lon="11.27098023891449">
        <ele>1591.75</ele>
        <time>2015-03-13T13:41:59Z</time>
      </trkpt>
      <trkpt lat="47.325044721364975" lon="11.270984513685107">
        <ele>1589.680000000000064</ele>
        <time>2015-03-13T13:42:00Z</time>
      </trkpt>
      <trkpt lat="47.32506793923676" lon="11.270970683544874">
        <ele>1588.6099999999999</ele>
        <time>2015-03-13T13:42:01Z</time>
      </trkpt>
      <trkpt lat="47.325078751891851" lon="11.270947214215994">
        <ele>1588.960000000000036</ele>
        <time>2015-03-13T13:42:02Z</time>
      </trkpt>
      <trkpt lat="47.325088642537594" lon="11.270920056849718">
        <ele>1587.6099999999999</ele>
        <time>2015-03-13T13:42:03Z</time>
      </trkpt>
      <trkpt lat="47.325124433264136" lon="11.270857192575932">
        <ele>1586.589999999999918</ele>
        <time>2015-03-13T13:42:05Z</time>
      </trkpt>
      <trkpt lat="47.325141280889511" lon="11.270836237818003">
        <ele>1584.990000000000009</ele>
        <time>2015-03-13T13:42:06Z</time>
      </trkpt>
      <trkpt lat="47.325140442699194" lon="11.270848643034697">
        <ele>1584.950000000000045</ele>
        <time>2015-03-13T13:42:07Z</time>
      </trkpt>
      <trkpt lat="47.325120661407709" lon="11.27095140516758">
        <ele>1582.730000000000018</ele>
        <time>2015-03-13T13:42:11Z</time>
      </trkpt>
      <trkpt lat="47.325135581195354" lon="11.271013934165239">
        <ele>1581.220000000000027</ele>
        <time>2015-03-13T13:42:13Z</time>
      </trkpt>
      <trkpt lat="47.325162068009377" lon="11.271023154258728">
        <ele>1578.75</ele>
        <time>2015-03-13T13:42:14Z</time>
      </trkpt>
      <trkpt lat="47.32518469914794" lon="11.271037068217993">
        <ele>1576.869999999999891</ele>
        <time>2015-03-13T13:42:15Z</time>
      </trkpt>
      <trkpt lat="47.325217640027404" lon="11.271049808710814">
        <ele>1575.539999999999964</ele>
        <time>2015-03-13T13:42:16Z</time>
      </trkpt>
      <trkpt lat="47.325255107134581" lon="11.271079899743199">
        <ele>1572.150000000000091</ele>
        <time>2015-03-13T13:42:17Z</time>
      </trkpt>
      <trkpt lat="47.325294250622392" lon="11.271138908341527">
        <ele>1571.910000000000082</ele>
        <time>2015-03-13T13:42:19Z</time>
      </trkpt>
      <trkpt lat="47.325324509292841" lon="11.271113259717822">
        <ele>1569.730000000000018</ele>
        <time>2015-03-13T13:42:20Z</time>
      </trkpt>
      <trkpt lat="47.325355773791671" lon="11.271071098744869">
        <ele>1568.730000000000018</ele>
        <time>2015-03-13T13:42:21Z</time>
      </trkpt>
      <trkpt lat="47.32536356896162" lon="11.271035894751549">
        <ele>1568.6400000000001</ele>
        <time>2015-03-13T13:42:22Z</time>
      </trkpt>
      <trkpt lat="47.325392821803689" lon="11.271008653566241">
        <ele>1567.5</ele>
        <time>2015-03-13T13:42:23Z</time>
      </trkpt>
      <trkpt lat="47.325415033847094" lon="11.270990800112486">
        <ele>1565.579999999999927</ele>
        <time>2015-03-13T13:42:24Z</time>
      </trkpt>
      <trkpt lat="47.325450573116541" lon="11.270995745435357">
        <ele>1564.930000000000064</ele>
        <time>2015-03-13T13:42:25Z</time>
      </trkpt>
      <trkpt lat="47.325482591986656" lon="11.271000104025006">
        <ele>1563.990000000000009</ele>
        <time>2015-03-13T13:42:26Z</time>
      </trkpt>
      <trkpt lat="47.325526345521212" lon="11.270990967750549">
        <ele>1561.269999999999982</ele>
        <time>2015-03-13T13:42:27Z</time>
      </trkpt>
      <trkpt lat="47.325574709102511" lon="11.270990129560232">
        <ele>1559.5</ele>
        <time>2015-03-13T13:42:28Z</time>
      </trkpt>
      <trkpt lat="47.325634136795998" lon="11.270973114296794">
        <ele>1557.970000000000027</ele>
        <time>2015-03-13T13:42:29Z</time>
      </trkpt>
      <trkpt lat="47.325690044090152" lon="11.270947465673089">
        <ele>1557.170000000000073</ele>
        <time>2015-03-13T13:42:30Z</time>
      </trkpt>
      <trkpt lat="47.325742011889815" lon="11.270912429317832">
        <ele>1556.130000000000109</ele>
        <time>2015-03-13T13:42:31Z</time>
      </trkpt>
      <trkpt lat="47.325793728232384" lon="11.27088057808578">
        <ele>1554.690000000000055</ele>
        <time>2015-03-13T13:42:32Z</time>
      </trkpt>
      <trkpt lat="47.325848042964935" lon="11.270845709368587">
        <ele>1553.910000000000082</ele>
        <time>2015-03-13T13:42:33Z</time>
      </trkpt>
      <trkpt lat="47.325902609154582" lon="11.270801201462746">
        <ele>1552.569999999999936</ele>
        <time>2015-03-13T13:42:34Z</time>
      </trkpt>
      <trkpt lat="47.326131854206324" lon="11.270641358569264">
        <ele>1549.880000000000109</ele>
        <time>2015-03-13T13:42:38Z</time>
      </trkpt>
      <trkpt lat="47.326187342405319" lon="11.270594084635377">
        <ele>1548.8900000000001</ele>
        <time>2015-03-13T13:42:39Z</time>
      </trkpt>
      <trkpt lat="47.326393956318498" lon="11.27040364779532">
        <ele>1545.559999999999945</ele>
        <time>2015-03-13T13:42:43Z</time>
      </trkpt>
      <trkpt lat="47.32651524245739" lon="11.270323935896158">
        <ele>1542.900000000000091</ele>
        <time>2015-03-13T13:42:45Z</time>
      </trkpt>
      <trkpt lat="47.326560253277421" lon="11.270262748003006">
        <ele>1542.1099999999999</ele>
        <time>2015-03-13T13:42:46Z</time>
      </trkpt>
      <trkpt lat="47.326602498069406" lon="11.270209522917867">
        <ele>1541.75</ele>
        <time>2015-03-13T13:42:47Z</time>
      </trkpt>
      <trkpt lat="47.326633930206299" lon="11.270191334187984">
        <ele>1540.970000000000027</ele>
        <time>2015-03-13T13:42:48Z</time>
      </trkpt>
      <trkpt lat="47.326627559959888" lon="11.270176079124212">
        <ele>1540.670000000000073</ele>
        <time>2015-03-13T13:42:56Z</time>
      </trkpt>
      <trkpt lat="47.326660584658384" lon="11.270169541239738">
        <ele>1540.160000000000082</ele>
        <time>2015-03-13T13:42:58Z</time>
      </trkpt>
      <trkpt lat="47.326728561893106" lon="11.270190412178636">
        <ele>1539.8900000000001</ele>
        <time>2015-03-13T13:43:00Z</time>
      </trkpt>
      <trkpt lat="47.326769465580583" lon="11.270199716091156">
        <ele>1539.329999999999927</ele>
        <time>2015-03-13T13:43:01Z</time>
      </trkpt>
      <trkpt lat="47.326816571876407" lon="11.2701974529773">
        <ele>1537.940000000000055</ele>
        <time>2015-03-13T13:43:02Z</time>
      </trkpt>
      <trkpt lat="47.32686803676188" lon="11.270172642543912">
        <ele>1538.049999999999955</ele>
        <time>2015-03-13T13:43:03Z</time>
      </trkpt>
      <trkpt lat="47.326915981248021" lon="11.270123524591327">
        <ele>1536.759999999999991</ele>
        <time>2015-03-13T13:43:04Z</time>
      </trkpt>
      <trkpt lat="47.326966188848019" lon="11.270072311162949">
        <ele>1536.299999999999955</ele>
        <time>2015-03-13T13:43:05Z</time>
      </trkpt>
      <trkpt lat="47.327018324285746" lon="11.270036436617374">
        <ele>1535.329999999999927</ele>
        <time>2015-03-13T13:43:06Z</time>
      </trkpt>
      <trkpt lat="47.327072219923139" lon="11.270010117441416">
        <ele>1534.230000000000018</ele>
        <time>2015-03-13T13:43:07Z</time>
      </trkpt>
      <trkpt lat="47.327128378674388" lon="11.269995784386992">
        <ele>1533.849999999999909</ele>
        <time>2015-03-13T13:43:08Z</time>
      </trkpt>
      <trkpt lat="47.327188979834318" lon="11.269992683082819">
        <ele>1533.009999999999991</ele>
        <time>2015-03-13T13:43:09Z</time>
      </trkpt>
      <trkpt lat="47.32725016772747" lon="11.270001651719213">
        <ele>1532.049999999999955</ele>
        <time>2015-03-13T13:43:10Z</time>
      </trkpt>
      <trkpt lat="47.327302973717451" lon="11.270026126876473">
        <ele>1531.8599999999999</ele>
        <time>2015-03-13T13:43:11Z</time>
      </trkpt>
      <trkpt lat="47.327547473832965" lon="11.270089913159609">
        <ele>1528.130000000000109</ele>
        <time>2015-03-13T13:43:16Z</time>
      </trkpt>
      <trkpt lat="47.32762542553246" lon="11.27008262090385">
        <ele>1526.039999999999964</ele>
        <time>2015-03-13T13:43:19Z</time>
      </trkpt>
      <trkpt lat="47.327664317563176" lon="11.270122099667788">
        <ele>1527.3599999999999</ele>
        <time>2015-03-13T13:43:27Z</time>
      </trkpt>
      <trkpt lat="47.327770348638296" lon="11.270266938954592">
        <ele>1525.420000000000073</ele>
        <time>2015-03-13T13:43:33Z</time>
      </trkpt>
      <trkpt lat="47.327801026403904" lon="11.270274985581636">
        <ele>1525.329999999999927</ele>
        <time>2015-03-13T13:43:34Z</time>
      </trkpt>
      <trkpt lat="47.328082406893373" lon="11.270023277029395">
        <ele>1523.599999999999909</ele>
        <time>2015-03-13T13:43:46Z</time>
      </trkpt>
      <trkpt lat="47.328113839030266" lon="11.269977511838078">
        <ele>1522.700000000000045</ele>
        <time>2015-03-13T13:43:47Z</time>
      </trkpt>
      <trkpt lat="47.328146612271667" lon="11.26991406083107">
        <ele>1522.279999999999973</ele>
        <time>2015-03-13T13:43:48Z</time>
      </trkpt>
      <trkpt lat="47.328180894255638" lon="11.269852202385664">
        <ele>1520.509999999999991</ele>
        <time>2015-03-13T13:43:49Z</time>
      </trkpt>
      <trkpt lat="47.32822691090405" lon="11.269807862117887">
        <ele>1519.660000000000082</ele>
        <time>2015-03-13T13:43:50Z</time>
      </trkpt>
      <trkpt lat="47.328276783227921" lon="11.26979386433959">
        <ele>1518.980000000000018</ele>
        <time>2015-03-13T13:43:51Z</time>
      </trkpt>
      <trkpt lat="47.328328248113394" lon="11.269786069169641">
        <ele>1518.049999999999955</ele>
        <time>2015-03-13T13:43:52Z</time>
      </trkpt>
      <trkpt lat="47.328380215913057" lon="11.269753966480494">
        <ele>1517.779999999999973</ele>
        <time>2015-03-13T13:43:53Z</time>
      </trkpt>
      <trkpt lat="47.32843017205596" lon="11.269703507423401">
        <ele>1516.930000000000064</ele>
        <time>2015-03-13T13:43:54Z</time>
      </trkpt>
      <trkpt lat="47.328480128198862" lon="11.26963603310287">
        <ele>1515.710000000000036</ele>
        <time>2015-03-13T13:43:55Z</time>
      </trkpt>
      <trkpt lat="47.328532515093684" lon="11.269566463306546">
        <ele>1514.990000000000009</ele>
        <time>2015-03-13T13:43:56Z</time>
      </trkpt>
      <trkpt lat="47.328586578369141" lon="11.269504437223077">
        <ele>1514.3599999999999</ele>
        <time>2015-03-13T13:43:57Z</time>
      </trkpt>
      <trkpt lat="47.32864617370069" lon="11.269456576555967">
        <ele>1513.549999999999955</ele>
        <time>2015-03-13T13:43:58Z</time>
      </trkpt>
      <trkpt lat="47.328714318573475" lon="11.269421959295869">
        <ele>1512.319999999999936</ele>
        <time>2015-03-13T13:43:59Z</time>
      </trkpt>
      <trkpt lat="47.328784558922052" lon="11.269388599321246">
        <ele>1511.819999999999936</ele>
        <time>2015-03-13T13:44:00Z</time>
      </trkpt>
      <trkpt lat="47.329036770388484" lon="11.269213249906898">
        <ele>1508.269999999999982</ele>
        <time>2015-03-13T13:44:04Z</time>
      </trkpt>
      <trkpt lat="47.329158391803503" lon="11.269091460853815">
        <ele>1504.869999999999891</ele>
        <time>2015-03-13T13:44:06Z</time>
      </trkpt>
      <trkpt lat="47.329202312976122" lon="11.269023651257157">
        <ele>1504.160000000000082</ele>
        <time>2015-03-13T13:44:07Z</time>
      </trkpt>
      <trkpt lat="47.329243551939726" lon="11.268951231613755">
        <ele>1503.6400000000001</ele>
        <time>2015-03-13T13:44:08Z</time>
      </trkpt>
      <trkpt lat="47.329280264675617" lon="11.268875459209085">
        <ele>1501.410000000000082</ele>
        <time>2015-03-13T13:44:09Z</time>
      </trkpt>
      <trkpt lat="47.32935419306159" lon="11.268720310181379">
        <ele>1499.6099999999999</ele>
        <time>2015-03-13T13:44:11Z</time>
      </trkpt>
      <trkpt lat="47.329448908567429" lon="11.268598940223455">
        <ele>1497.690000000000055</ele>
        <time>2015-03-13T13:44:13Z</time>
      </trkpt>
      <trkpt lat="47.329507414251566" lon="11.268558455631137">
        <ele>1495.769999999999982</ele>
        <time>2015-03-13T13:44:14Z</time>
      </trkpt>
      <trkpt lat="47.329570949077606" lon="11.268514785915613">
        <ele>1494.6400000000001</ele>
        <time>2015-03-13T13:44:15Z</time>
      </trkpt>
      <trkpt lat="47.329636747017503" lon="11.268457034602761">
        <ele>1493.440000000000055</ele>
        <time>2015-03-13T13:44:16Z</time>
      </trkpt>
      <trkpt lat="47.329695001244545" lon="11.268380172550678">
        <ele>1492.25</ele>
        <time>2015-03-13T13:44:17Z</time>
      </trkpt>
      <trkpt lat="47.329752082005143" lon="11.268301634117961">
        <ele>1490.289999999999964</ele>
        <time>2015-03-13T13:44:18Z</time>
      </trkpt>
      <trkpt lat="47.329813186079264" lon="11.268251342698932">
        <ele>1489.509999999999991</ele>
        <time>2015-03-13T13:44:19Z</time>
      </trkpt>
      <trkpt lat="47.329872949048877" lon="11.268231142312288">
        <ele>1487.440000000000055</ele>
        <time>2015-03-13T13:44:20Z</time>
      </trkpt>
      <trkpt lat="47.329927096143365" lon="11.268194513395429">
        <ele>1486.619999999999891</ele>
        <time>2015-03-13T13:44:21Z</time>
      </trkpt>
      <trkpt lat="47.329972945153713" lon="11.268136091530323">
        <ele>1486.210000000000036</ele>
        <time>2015-03-13T13:44:22Z</time>
      </trkpt>
      <trkpt lat="47.330017536878586" lon="11.268071802332997">
        <ele>1485.369999999999891</ele>
        <time>2015-03-13T13:44:23Z</time>
      </trkpt>
      <trkpt lat="47.330072103068233" lon="11.268023103475571">
        <ele>1485.119999999999891</ele>
        <time>2015-03-13T13:44:24Z</time>
      </trkpt>
      <trkpt lat="47.330136140808463" lon="11.267993431538343">
        <ele>1483.740000000000009</ele>
        <time>2015-03-13T13:44:25Z</time>
      </trkpt>
      <trkpt lat="47.330202022567391" lon="11.267963759601116">
        <ele>1483.589999999999918</ele>
        <time>2015-03-13T13:44:26Z</time>
      </trkpt>
      <trkpt lat="47.33039690181613" lon="11.267894105985761">
        <ele>1481.319999999999936</ele>
        <time>2015-03-13T13:44:29Z</time>
      </trkpt>
      <trkpt lat="47.33046337030828" lon="11.267849011346698">
        <ele>1480.299999999999955</ele>
        <time>2015-03-13T13:44:30Z</time>
      </trkpt>
      <trkpt lat="47.330526234582067" lon="11.267788661643863">
        <ele>1479.170000000000073</ele>
        <time>2015-03-13T13:44:31Z</time>
      </trkpt>
      <trkpt lat="47.33071256428957" lon="11.267581041902304">
        <ele>1475.130000000000109</ele>
        <time>2015-03-13T13:44:34Z</time>
      </trkpt>
      <trkpt lat="47.330771153792739" lon="11.267505520954728">
        <ele>1473.650000000000091</ele>
        <time>2015-03-13T13:44:35Z</time>
      </trkpt>
      <trkpt lat="47.330820523202419" lon="11.267430670559406">
        <ele>1471.970000000000027</ele>
        <time>2015-03-13T13:44:36Z</time>
      </trkpt>
      <trkpt lat="47.330858157947659" lon="11.267353473231196">
        <ele>1471.450000000000045</ele>
        <time>2015-03-13T13:44:37Z</time>
      </trkpt>
      <trkpt lat="47.3308957926929" lon="11.267281137406826">
        <ele>1469.970000000000027</ele>
        <time>2015-03-13T13:44:38Z</time>
      </trkpt>
      <trkpt lat="47.330927308648825" lon="11.267203772440553">
        <ele>1469.819999999999936</ele>
        <time>2015-03-13T13:44:39Z</time>
      </trkpt>
      <trkpt lat="47.330954298377037" lon="11.267113583162427">
        <ele>1468.450000000000045</ele>
        <time>2015-03-13T13:44:40Z</time>
      </trkpt>
      <trkpt lat="47.330984808504581" lon="11.267035715281963">
        <ele>1467.670000000000073</ele>
        <time>2015-03-13T13:44:41Z</time>
      </trkpt>
      <trkpt lat="47.3310252930969" lon="11.266976203769445">
        <ele>1466.509999999999991</ele>
        <time>2015-03-13T13:44:42Z</time>
      </trkpt>
      <trkpt lat="47.331065610051155" lon="11.266931863501668">
        <ele>1465.150000000000091</ele>
        <time>2015-03-13T13:44:43Z</time>
      </trkpt>
      <trkpt lat="47.331100646406412" lon="11.266892468556762">
        <ele>1463.660000000000082</ele>
        <time>2015-03-13T13:44:44Z</time>
      </trkpt>
      <trkpt lat="47.331123193725944" lon="11.266871932893991">
        <ele>1464.160000000000082</ele>
        <time>2015-03-13T13:44:45Z</time>
      </trkpt>
      <trkpt lat="47.331134928390384" lon="11.266864473000169">
        <ele>1464.1099999999999</ele>
        <time>2015-03-13T13:44:46Z</time>
      </trkpt>
      <trkpt lat="47.331110956147313" lon="11.266945442184806">
        <ele>1463.650000000000091</ele>
        <time>2015-03-13T13:45:00Z</time>
      </trkpt>
      <trkpt lat="47.331078518182039" lon="11.266957512125373">
        <ele>1463.410000000000082</ele>
        <time>2015-03-13T13:45:21Z</time>
      </trkpt>
      <trkpt lat="47.331067370250821" lon="11.266980729997158">
        <ele>1463.720000000000027</ele>
        <time>2015-03-13T13:45:44Z</time>
      </trkpt>
      <trkpt lat="47.331067286431789" lon="11.266999589279294">
        <ele>1463.849999999999909</ele>
        <time>2015-03-13T13:46:06Z</time>
      </trkpt>
      <trkpt lat="47.33107466250658" lon="11.266999756917357">
        <ele>1463.480000000000018</ele>
        <time>2015-03-13T13:46:27Z</time>
      </trkpt>
      <trkpt lat="47.331042643636465" lon="11.266987770795822">
        <ele>1464.150000000000091</ele>
        <time>2015-03-13T13:46:47Z</time>
      </trkpt>
      <trkpt lat="47.331040631979704" lon="11.266993805766106">
        <ele>1463.269999999999982</ele>
        <time>2015-03-13T13:46:49Z</time>
      </trkpt>
      <trkpt lat="47.331027304753661" lon="11.267000427469611">
        <ele>1464.710000000000036</ele>
        <time>2015-03-13T13:47:10Z</time>
      </trkpt>
      <trkpt lat="47.331033172085881" lon="11.2670130841434">
        <ele>1464.579999999999927</ele>
        <time>2015-03-13T13:47:27Z</time>
      </trkpt>
      <trkpt lat="47.331083882600069" lon="11.267056334763765">
        <ele>1464.559999999999945</ele>
        <time>2015-03-13T13:47:43Z</time>
      </trkpt>
      <trkpt lat="47.331123193725944" lon="11.267083156853914">
        <ele>1463.990000000000009</ele>
        <time>2015-03-13T13:47:45Z</time>
      </trkpt>
      <trkpt lat="47.331143394112587" lon="11.267092041671276">
        <ele>1464.6099999999999</ele>
        <time>2015-03-13T13:47:46Z</time>
      </trkpt>
      <trkpt lat="47.331158649176359" lon="11.267090700566769">
        <ele>1464.539999999999964</ele>
        <time>2015-03-13T13:47:47Z</time>
      </trkpt>
      <trkpt lat="47.331173736602068" lon="11.26708684489131">
        <ele>1464.670000000000073</ele>
        <time>2015-03-13T13:47:48Z</time>
      </trkpt>
      <trkpt lat="47.331192847341299" lon="11.267077121883631">
        <ele>1464.960000000000036</ele>
        <time>2015-03-13T13:47:49Z</time>
      </trkpt>
      <trkpt lat="47.331216484308243" lon="11.267058597877622">
        <ele>1464.349999999999909</ele>
        <time>2015-03-13T13:47:50Z</time>
      </trkpt>
      <trkpt lat="47.331280270591378" lon="11.267013335600495">
        <ele>1463.569999999999936</ele>
        <time>2015-03-13T13:47:52Z</time>
      </trkpt>
      <trkpt lat="47.331475652754307" lon="11.266874196007848">
        <ele>1460.380000000000109</ele>
        <time>2015-03-13T13:47:56Z</time>
      </trkpt>
      <trkpt lat="47.331742364913225" lon="11.266657691448927">
        <ele>1455.589999999999918</ele>
        <time>2015-03-13T13:48:00Z</time>
      </trkpt>
      <trkpt lat="47.33196540735662" lon="11.266477145254612">
        <ele>1452.309999999999945</ele>
        <time>2015-03-13T13:48:03Z</time>
      </trkpt>
      <trkpt lat="47.332271933555603" lon="11.266260724514723">
        <ele>1447.839999999999918</ele>
        <time>2015-03-13T13:48:07Z</time>
      </trkpt>
      <trkpt lat="47.332345945760608" lon="11.266220575198531">
        <ele>1446.380000000000109</ele>
        <time>2015-03-13T13:48:08Z</time>
      </trkpt>
      <trkpt lat="47.332406295463443" lon="11.266160141676664">
        <ele>1444.3599999999999</ele>
        <time>2015-03-13T13:48:09Z</time>
      </trkpt>
      <trkpt lat="47.332460191100836" lon="11.266094092279673">
        <ele>1443.029999999999973</ele>
        <time>2015-03-13T13:48:10Z</time>
      </trkpt>
      <trkpt lat="47.332520456984639" lon="11.266047488898039">
        <ele>1442.519999999999982</ele>
        <time>2015-03-13T13:48:11Z</time>
      </trkpt>
      <trkpt lat="47.33257376588881" lon="11.265995604917407">
        <ele>1441.569999999999936</ele>
        <time>2015-03-13T13:48:12Z</time>
      </trkpt>
      <trkpt lat="47.332622967660427" lon="11.265941457822919">
        <ele>1440.25</ele>
        <time>2015-03-13T13:48:13Z</time>
      </trkpt>
      <trkpt lat="47.332677869126201" lon="11.265899715945125">
        <ele>1439.690000000000055</ele>
        <time>2015-03-13T13:48:14Z</time>
      </trkpt>
      <trkpt lat="47.332737632095814" lon="11.26586233265698">
        <ele>1439.049999999999955</ele>
        <time>2015-03-13T13:48:15Z</time>
      </trkpt>
      <trkpt lat="47.332797981798649" lon="11.265822686254978">
        <ele>1437.829999999999927</ele>
        <time>2015-03-13T13:48:16Z</time>
      </trkpt>
      <trkpt lat="47.33286352828145" lon="11.265779100358486">
        <ele>1436.460000000000036</ele>
        <time>2015-03-13T13:48:17Z</time>
      </trkpt>
      <trkpt lat="47.332933349534869" lon="11.26573727466166">
        <ele>1435.569999999999936</ele>
        <time>2015-03-13T13:48:18Z</time>
      </trkpt>
      <trkpt lat="47.33300618827343" lon="11.265699723735452">
        <ele>1433.839999999999918</ele>
        <time>2015-03-13T13:48:19Z</time>
      </trkpt>
      <trkpt lat="47.333162007853389" lon="11.265638032928109">
        <ele>1432.75</ele>
        <time>2015-03-13T13:48:21Z</time>
      </trkpt>
      <trkpt lat="47.333323359489441" lon="11.26557307317853">
        <ele>1429.430000000000064</ele>
        <time>2015-03-13T13:48:23Z</time>
      </trkpt>
      <trkpt lat="47.333398712798953" lon="11.265524039044976">
        <ele>1427.940000000000055</ele>
        <time>2015-03-13T13:48:24Z</time>
      </trkpt>
      <trkpt lat="47.333599207922816" lon="11.265383893623948">
        <ele>1425.430000000000064</ele>
        <time>2015-03-13T13:48:27Z</time>
      </trkpt>
      <trkpt lat="47.333660563454032" lon="11.265325890854001">
        <ele>1424.980000000000018</ele>
        <time>2015-03-13T13:48:28Z</time>
      </trkpt>
      <trkpt lat="47.333715381100774" lon="11.26525791361928">
        <ele>1423.349999999999909</ele>
        <time>2015-03-13T13:48:29Z</time>
      </trkpt>
      <trkpt lat="47.333755530416965" lon="11.265181554481387">
        <ele>1422.819999999999936</ele>
        <time>2015-03-13T13:48:30Z</time>
      </trkpt>
      <trkpt lat="47.333762235939503" lon="11.265118690207601">
        <ele>1423.1099999999999</ele>
        <time>2015-03-13T13:48:31Z</time>
      </trkpt>
      <trkpt lat="47.333759386092424" lon="11.26499212346971">
        <ele>1421</ele>
        <time>2015-03-13T13:48:33Z</time>
      </trkpt>
      <trkpt lat="47.333765001967549" lon="11.264858348295093">
        <ele>1420.309999999999945</ele>
        <time>2015-03-13T13:48:35Z</time>
      </trkpt>
      <trkpt lat="47.333815293386579" lon="11.264588870108128">
        <ele>1417.910000000000082</ele>
        <time>2015-03-13T13:48:39Z</time>
      </trkpt>
      <trkpt lat="47.333840522915125" lon="11.264410419389606">
        <ele>1416.6099999999999</ele>
        <time>2015-03-13T13:48:41Z</time>
      </trkpt>
      <trkpt lat="47.333864495158195" lon="11.2643226608634">
        <ele>1415.1400000000001</ele>
        <time>2015-03-13T13:48:42Z</time>
      </trkpt>
      <trkpt lat="47.333904057741165" lon="11.264249319210649">
        <ele>1413.589999999999918</ele>
        <time>2015-03-13T13:48:43Z</time>
      </trkpt>
      <trkpt lat="47.333952002227306" lon="11.264186622574925">
        <ele>1413.319999999999936</ele>
        <time>2015-03-13T13:48:44Z</time>
      </trkpt>
      <trkpt lat="47.334001623094082" lon="11.264120237901807">
        <ele>1411.990000000000009</ele>
        <time>2015-03-13T13:48:45Z</time>
      </trkpt>
      <trkpt lat="47.334049064666033" lon="11.26403734087944">
        <ele>1410.670000000000073</ele>
        <time>2015-03-13T13:48:46Z</time>
      </trkpt>
      <trkpt lat="47.33409633859992" lon="11.263954779133201">
        <ele>1409.650000000000091</ele>
        <time>2015-03-13T13:48:47Z</time>
      </trkpt>
      <trkpt lat="47.334143361076713" lon="11.263873977586627">
        <ele>1409.509999999999991</ele>
        <time>2015-03-13T13:48:48Z</time>
      </trkpt>
      <trkpt lat="47.334299264475703" lon="11.263670632615685">
        <ele>1406.450000000000045</ele>
        <time>2015-03-13T13:48:51Z</time>
      </trkpt>
      <trkpt lat="47.334361374378204" lon="11.263608019798994">
        <ele>1406.380000000000109</ele>
        <time>2015-03-13T13:48:52Z</time>
      </trkpt>
      <trkpt lat="47.334426417946815" lon="11.263547921553254">
        <ele>1404.789999999999964</ele>
        <time>2015-03-13T13:48:53Z</time>
      </trkpt>
      <trkpt lat="47.334495568647981" lon="11.26349838450551">
        <ele>1403.690000000000055</ele>
        <time>2015-03-13T13:48:54Z</time>
      </trkpt>
      <trkpt lat="47.33456689864397" lon="11.263456726446748">
        <ele>1403.930000000000064</ele>
        <time>2015-03-13T13:48:55Z</time>
      </trkpt>
      <trkpt lat="47.334702853113413" lon="11.263366704806685">
        <ele>1401.130000000000109</ele>
        <time>2015-03-13T13:48:57Z</time>
      </trkpt>
      <trkpt lat="47.334751971065998" lon="11.263300152495503">
        <ele>1400.200000000000045</ele>
        <time>2015-03-13T13:48:58Z</time>
      </trkpt>
      <trkpt lat="47.334787426516414" lon="11.263224799185991">
        <ele>1399.490000000000009</ele>
        <time>2015-03-13T13:48:59Z</time>
      </trkpt>
      <trkpt lat="47.334852805361152" lon="11.263083061203361">
        <ele>1398.809999999999945</ele>
        <time>2015-03-13T13:49:01Z</time>
      </trkpt>
      <trkpt lat="47.334877615794539" lon="11.26300971955061">
        <ele>1398.660000000000082</ele>
        <time>2015-03-13T13:49:02Z</time>
      </trkpt>
      <trkpt lat="47.334894044324756" lon="11.262926319614053">
        <ele>1397</ele>
        <time>2015-03-13T13:49:03Z</time>
      </trkpt>
      <trkpt lat="47.334910724312067" lon="11.262828251346946">
        <ele>1395.069999999999936</ele>
        <time>2015-03-13T13:49:04Z</time>
      </trkpt>
      <trkpt lat="47.334945341572165" lon="11.262735547497869">
        <ele>1393.829999999999927</ele>
        <time>2015-03-13T13:49:05Z</time>
      </trkpt>
      <trkpt lat="47.334997812286019" lon="11.262659523636103">
        <ele>1392.700000000000045</ele>
        <time>2015-03-13T13:49:06Z</time>
      </trkpt>
      <trkpt lat="47.335066879168153" lon="11.262628510594368">
        <ele>1392.150000000000091</ele>
        <time>2015-03-13T13:49:07Z</time>
      </trkpt>
      <trkpt lat="47.335120774805546" lon="11.262603867799044">
        <ele>1390.660000000000082</ele>
        <time>2015-03-13T13:49:08Z</time>
      </trkpt>
      <trkpt lat="47.335150027647614" lon="11.262555755674839">
        <ele>1390.160000000000082</ele>
        <time>2015-03-13T13:49:09Z</time>
      </trkpt>
      <trkpt lat="47.335159247741103" lon="11.262484258040786">
        <ele>1388.569999999999936</ele>
        <time>2015-03-13T13:49:10Z</time>
      </trkpt>
      <trkpt lat="47.335152626037598" lon="11.262411335483193">
        <ele>1388.829999999999927</ele>
        <time>2015-03-13T13:49:11Z</time>
      </trkpt>
      <trkpt lat="47.335139634087682" lon="11.262347465381026">
        <ele>1388.660000000000082</ele>
        <time>2015-03-13T13:49:12Z</time>
      </trkpt>
      <trkpt lat="47.335129408165812" lon="11.262296000495553">
        <ele>1388.660000000000082</ele>
        <time>2015-03-13T13:49:13Z</time>
      </trkpt>
      <trkpt lat="47.335125301033258" lon="11.26226264052093">
        <ele>1387.819999999999936</ele>
        <time>2015-03-13T13:49:14Z</time>
      </trkpt>
      <trkpt lat="47.335155056789517" lon="11.262237075716257">
        <ele>1389.269999999999982</ele>
        <time>2015-03-13T13:49:25Z</time>
      </trkpt>
      <trkpt lat="47.335180537775159" lon="11.262223999947309">
        <ele>1388.529999999999973</ele>
        <time>2015-03-13T13:49:28Z</time>
      </trkpt>
      <trkpt lat="47.33521624468267" lon="11.262204218655825">
        <ele>1387.460000000000036</ele>
        <time>2015-03-13T13:49:30Z</time>
      </trkpt>
      <trkpt lat="47.335479771718383" lon="11.262015961110592">
        <ele>1383.559999999999945</ele>
        <time>2015-03-13T13:49:40Z</time>
      </trkpt>
      <trkpt lat="47.335519166663289" lon="11.261986456811428">
        <ele>1383.309999999999945</ele>
        <time>2015-03-13T13:49:41Z</time>
      </trkpt>
      <trkpt lat="47.335560070350766" lon="11.261955695226789">
        <ele>1383.1099999999999</ele>
        <time>2015-03-13T13:49:42Z</time>
      </trkpt>
      <trkpt lat="47.335696863010526" lon="11.261833738535643">
        <ele>1380.039999999999964</ele>
        <time>2015-03-13T13:49:45Z</time>
      </trkpt>
      <trkpt lat="47.335939686745405" lon="11.261594938114285">
        <ele>1376.490000000000009</ele>
        <time>2015-03-13T13:49:50Z</time>
      </trkpt>
      <trkpt lat="47.335991067811847" lon="11.261549759656191">
        <ele>1375.009999999999991</ele>
        <time>2015-03-13T13:49:51Z</time>
      </trkpt>
      <trkpt lat="47.336203549057245" lon="11.26132101751864">
        <ele>1371.380000000000109</ele>
        <time>2015-03-13T13:49:55Z</time>
      </trkpt>
      <trkpt lat="47.336314860731363" lon="11.261205933988094">
        <ele>1370</ele>
        <time>2015-03-13T13:49:57Z</time>
      </trkpt>
      <trkpt lat="47.33657805249095" lon="11.261002840474248">
        <ele>1365.25</ele>
        <time>2015-03-13T13:50:01Z</time>
      </trkpt>
      <trkpt lat="47.336765388026834" lon="11.260778876021504">
        <ele>1362.240000000000009</ele>
        <time>2015-03-13T13:50:04Z</time>
      </trkpt>
      <trkpt lat="47.336931936442852" lon="11.260517612099648">
        <ele>1358.190000000000055</ele>
        <time>2015-03-13T13:50:07Z</time>
      </trkpt>
      <trkpt lat="47.337196217849851" lon="11.260258695110679">
        <ele>1353.349999999999909</ele>
        <time>2015-03-13T13:50:11Z</time>
      </trkpt>
      <trkpt lat="47.337268134579062" lon="11.260213600471616">
        <ele>1352.269999999999982</ele>
        <time>2015-03-13T13:50:12Z</time>
      </trkpt>
      <trkpt lat="47.337632160633802" lon="11.260001957416534">
        <ele>1347.569999999999936</ele>
        <time>2015-03-13T13:50:17Z</time>
      </trkpt>
      <trkpt lat="47.337860567495227" lon="11.259877569973469">
        <ele>1344.5</ele>
        <time>2015-03-13T13:50:20Z</time>
      </trkpt>
      <trkpt lat="47.338085453957319" lon="11.259777992963791">
        <ele>1341.579999999999927</ele>
        <time>2015-03-13T13:50:23Z</time>
      </trkpt>
      <trkpt lat="47.338226521387696" lon="11.259738933295012">
        <ele>1340.819999999999936</ele>
        <time>2015-03-13T13:50:25Z</time>
      </trkpt>
      <trkpt lat="47.338359542191029" lon="11.259726779535413">
        <ele>1340</ele>
        <time>2015-03-13T13:50:27Z</time>
      </trkpt>
      <trkpt lat="47.338524665683508" lon="11.259732898324728">
        <ele>1339.589999999999918</ele>
        <time>2015-03-13T13:50:30Z</time>
      </trkpt>
      <trkpt lat="47.338673695921898" lon="11.259747482836246">
        <ele>1338.470000000000027</ele>
        <time>2015-03-13T13:50:33Z</time>
      </trkpt>
      <trkpt lat="47.338720131665468" lon="11.259766174480319">
        <ele>1338.309999999999945</ele>
        <time>2015-03-13T13:50:34Z</time>
      </trkpt>
      <trkpt lat="47.338842758908868" lon="11.259828954935074">
        <ele>1337.430000000000064</ele>
        <time>2015-03-13T13:50:37Z</time>
      </trkpt>
      <trkpt lat="47.339267302304506" lon="11.260162387043238">
        <ele>1334.279999999999973</ele>
        <time>2015-03-13T13:50:48Z</time>
      </trkpt>
      <trkpt lat="47.339309547096491" lon="11.260192980989814">
        <ele>1334.009999999999991</ele>
        <time>2015-03-13T13:50:49Z</time>
      </trkpt>
      <trkpt lat="47.339355647563934" lon="11.260220892727375">
        <ele>1333.589999999999918</ele>
        <time>2015-03-13T13:50:50Z</time>
      </trkpt>
      <trkpt lat="47.339562010020018" lon="11.260316446423531">
        <ele>1331.869999999999891</ele>
        <time>2015-03-13T13:50:54Z</time>
      </trkpt>
      <trkpt lat="47.339615738019347" lon="11.260323990136385">
        <ele>1331.569999999999936</ele>
        <time>2015-03-13T13:50:55Z</time>
      </trkpt>
      <trkpt lat="47.339668124914169" lon="11.260318541899323">
        <ele>1330.740000000000009</ele>
        <time>2015-03-13T13:50:56Z</time>
      </trkpt>
      <trkpt lat="47.339719925075769" lon="11.260300688445568">
        <ele>1330.25</ele>
        <time>2015-03-13T13:50:57Z</time>
      </trkpt>
      <trkpt lat="47.339770719408989" lon="11.260274536907673">
        <ele>1329.960000000000036</ele>
        <time>2015-03-13T13:50:58Z</time>
      </trkpt>
      <trkpt lat="47.34003558754921" lon="11.260124500840902">
        <ele>1326.869999999999891</ele>
        <time>2015-03-13T13:51:03Z</time>
      </trkpt>
      <trkpt lat="47.340135248377919" lon="11.260067084804177">
        <ele>1325.460000000000036</ele>
        <time>2015-03-13T13:51:05Z</time>
      </trkpt>
      <trkpt lat="47.340562138706446" lon="11.259762989357114">
        <ele>1321.3599999999999</ele>
        <time>2015-03-13T13:51:17Z</time>
      </trkpt>
      <trkpt lat="47.340782918035984" lon="11.259787548333406">
        <ele>1319.950000000000045</ele>
        <time>2015-03-13T13:51:27Z</time>
      </trkpt>
      <trkpt lat="47.3407509829849" lon="11.259789979085326">
        <ele>1320.380000000000109</ele>
        <time>2015-03-13T13:51:49Z</time>
      </trkpt>
      <trkpt lat="47.340756766498089" lon="11.259778663516045">
        <ele>1320.710000000000036</ele>
        <time>2015-03-13T13:52:18Z</time>
      </trkpt>
      <trkpt lat="47.340790377929807" lon="11.259799282997847">
        <ele>1320.630000000000109</ele>
        <time>2015-03-13T13:52:38Z</time>
      </trkpt>
      <trkpt lat="47.340831281617284" lon="11.25984244979918">
        <ele>1320.920000000000073</ele>
        <time>2015-03-13T13:52:51Z</time>
      </trkpt>
      <trkpt lat="47.341155912727118" lon="11.260048393160105">
        <ele>1320.049999999999955</ele>
        <time>2015-03-13T13:53:09Z</time>
      </trkpt>
      <trkpt lat="47.341313576325774" lon="11.260138582438231">
        <ele>1319.789999999999964</ele>
        <time>2015-03-13T13:53:18Z</time>
      </trkpt>
      <trkpt lat="47.341461852192879" lon="11.260209828615189">
        <ele>1320.25</ele>
        <time>2015-03-13T13:53:32Z</time>
      </trkpt>
      <trkpt lat="47.341770557686687" lon="11.260114274919033">
        <ele>1319.8900000000001</ele>
        <time>2015-03-13T13:53:48Z</time>
      </trkpt>
      <trkpt lat="47.34206392429769" lon="11.259938674047589">
        <ele>1318.240000000000009</ele>
        <time>2015-03-13T13:53:59Z</time>
      </trkpt>
      <trkpt lat="47.342419316992164" lon="11.259737173095345">
        <ele>1316.269999999999982</ele>
        <time>2015-03-13T13:54:13Z</time>
      </trkpt>
      <trkpt lat="47.342562396079302" lon="11.259744549170136">
        <ele>1315.170000000000073</ele>
        <time>2015-03-13T13:54:19Z</time>
      </trkpt>
      <trkpt lat="47.342579998075962" lon="11.259756786748767">
        <ele>1315.529999999999973</ele>
        <time>2015-03-13T13:54:20Z</time>
      </trkpt>
      <trkpt lat="47.342599611729383" lon="11.259769862517715">
        <ele>1315.869999999999891</ele>
        <time>2015-03-13T13:54:21Z</time>
      </trkpt>
      <trkpt lat="47.342621656134725" lon="11.259774556383491">
        <ele>1315.400000000000091</ele>
        <time>2015-03-13T13:54:22Z</time>
      </trkpt>
      <trkpt lat="47.342644706368446" lon="11.259780172258615">
        <ele>1315.920000000000073</ele>
        <time>2015-03-13T13:54:23Z</time>
      </trkpt>
      <trkpt lat="47.342671444639564" lon="11.259789727628231">
        <ele>1315.079999999999927</ele>
        <time>2015-03-13T13:54:24Z</time>
      </trkpt>
      <trkpt lat="47.343007056042552" lon="11.259923251345754">
        <ele>1313.079999999999927</ele>
        <time>2015-03-13T13:54:36Z</time>
      </trkpt>
      <trkpt lat="47.34327083453536" lon="11.260012602433562">
        <ele>1311.450000000000045</ele>
        <time>2015-03-13T13:54:44Z</time>
      </trkpt>
      <trkpt lat="47.343297572806478" lon="11.260000448673964">
        <ele>1311.690000000000055</ele>
        <time>2015-03-13T13:54:45Z</time>
      </trkpt>
      <trkpt lat="47.343542827293277" lon="11.259797606617212">
        <ele>1310.769999999999982</ele>
        <time>2015-03-13T13:54:56Z</time>
      </trkpt>
      <trkpt lat="47.343917246907949" lon="11.259452691301703">
        <ele>1308.589999999999918</ele>
        <time>2015-03-13T13:55:09Z</time>
      </trkpt>
      <trkpt lat="47.344003329053521" lon="11.259400472044945">
        <ele>1307.470000000000027</ele>
        <time>2015-03-13T13:55:11Z</time>
      </trkpt>
      <trkpt lat="47.344369199126959" lon="11.259075338020921">
        <ele>1306.910000000000082</ele>
        <time>2015-03-13T13:55:25Z</time>
      </trkpt>
      <trkpt lat="47.344509596005082" lon="11.259016748517752">
        <ele>1305.8599999999999</ele>
        <time>2015-03-13T13:55:37Z</time>
      </trkpt>
      <trkpt lat="47.344767255708575" lon="11.258953968062997">
        <ele>1306.490000000000009</ele>
        <time>2015-03-13T13:55:54Z</time>
      </trkpt>
      <trkpt lat="47.344953585416079" lon="11.258898060768843">
        <ele>1307.25</ele>
        <time>2015-03-13T13:56:06Z</time>
      </trkpt>
      <trkpt lat="47.345180315896869" lon="11.258807117119431">
        <ele>1306.299999999999955</ele>
        <time>2015-03-13T13:56:17Z</time>
      </trkpt>
      <trkpt lat="47.345535373315215" lon="11.258683651685715">
        <ele>1306.480000000000018</ele>
        <time>2015-03-13T13:56:32Z</time>
      </trkpt>
      <trkpt lat="47.345781968906522" lon="11.258603688329458">
        <ele>1305.970000000000027</ele>
        <time>2015-03-13T13:56:45Z</time>
      </trkpt>
      <trkpt lat="47.346039796248078" lon="11.25856077298522">
        <ele>1305.910000000000082</ele>
        <time>2015-03-13T13:56:57Z</time>
      </trkpt>
      <trkpt lat="47.346088662743568" lon="11.258561694994569">
        <ele>1305.730000000000018</ele>
        <time>2015-03-13T13:57:01Z</time>
      </trkpt>
      <trkpt lat="47.346104588359594" lon="11.258568903431296">
        <ele>1305.910000000000082</ele>
        <time>2015-03-13T13:57:02Z</time>
      </trkpt>
      <trkpt lat="47.346122609451413" lon="11.258572256192565">
        <ele>1305.970000000000027</ele>
        <time>2015-03-13T13:57:03Z</time>
      </trkpt>
      <trkpt lat="47.346139708533883" lon="11.258568484336138">
        <ele>1306.269999999999982</ele>
        <time>2015-03-13T13:57:04Z</time>
      </trkpt>
      <trkpt lat="47.346156388521194" lon="11.258567478507757">
        <ele>1306.009999999999991</ele>
        <time>2015-03-13T13:57:05Z</time>
      </trkpt>
      <trkpt lat="47.346172397956252" lon="11.258568484336138">
        <ele>1305.960000000000036</ele>
        <time>2015-03-13T13:57:06Z</time>
      </trkpt>
      <trkpt lat="47.346267532557249" lon="11.258539482951164">
        <ele>1306.130000000000109</ele>
        <time>2015-03-13T13:57:11Z</time>
      </trkpt>
      <trkpt lat="47.34628270380199" lon="11.258533280342817">
        <ele>1306.25</ele>
        <time>2015-03-13T13:57:12Z</time>
      </trkpt>
      <trkpt lat="47.346467776224017" lon="11.25848114490509">
        <ele>1306.940000000000055</ele>
        <time>2015-03-13T13:57:27Z</time>
      </trkpt>
      <trkpt lat="47.346529886126518" lon="11.258451137691736">
        <ele>1307.099999999999909</ele>
        <time>2015-03-13T13:57:31Z</time>
      </trkpt>
      <trkpt lat="47.346540950238705" lon="11.258445773273706">
        <ele>1306.480000000000018</ele>
        <time>2015-03-13T13:57:32Z</time>
      </trkpt>
      <trkpt lat="47.346552601084113" lon="11.258444348350167">
        <ele>1307.769999999999982</ele>
        <time>2015-03-13T13:57:33Z</time>
      </trkpt>
      <trkpt lat="47.346566179767251" lon="11.25844594091177">
        <ele>1307.700000000000045</ele>
        <time>2015-03-13T13:57:34Z</time>
      </trkpt>
      <trkpt lat="47.346726106479764" lon="11.258440157398582">
        <ele>1306.8900000000001</ele>
        <time>2015-03-13T13:57:48Z</time>
      </trkpt>
      <trkpt lat="47.346932720392942" lon="11.258462201803923">
        <ele>1307.619999999999891</ele>
        <time>2015-03-13T13:58:01Z</time>
      </trkpt>
      <trkpt lat="47.347015365958214" lon="11.25848994590342">
        <ele>1307.430000000000064</ele>
        <time>2015-03-13T13:58:06Z</time>
      </trkpt>
      <trkpt lat="47.347108572721481" lon="11.258524563163519">
        <ele>1307.6400000000001</ele>
        <time>2015-03-13T13:58:17Z</time>
      </trkpt>
      <trkpt lat="47.347120307385921" lon="11.258523389697075">
        <ele>1307.490000000000009</ele>
        <time>2015-03-13T13:58:18Z</time>
      </trkpt>
      <trkpt lat="47.347135143354535" lon="11.258524395525455">
        <ele>1308.529999999999973</ele>
        <time>2015-03-13T13:58:19Z</time>
      </trkpt>
      <trkpt lat="47.347147883847356" lon="11.25852070748806">
        <ele>1307.6099999999999</ele>
        <time>2015-03-13T13:58:20Z</time>
      </trkpt>
      <trkpt lat="47.347161127254367" lon="11.258522886782885">
        <ele>1307.420000000000073</ele>
        <time>2015-03-13T13:58:21Z</time>
      </trkpt>
      <trkpt lat="47.347179399803281" lon="11.258521042764187">
        <ele>1307.349999999999909</ele>
        <time>2015-03-13T13:58:22Z</time>
      </trkpt>
      <trkpt lat="47.347200186923146" lon="11.258526239544153">
        <ele>1307.589999999999918</ele>
        <time>2015-03-13T13:58:23Z</time>
      </trkpt>
      <trkpt lat="47.347218208014965" lon="11.258533867076039">
        <ele>1307.319999999999936</ele>
        <time>2015-03-13T13:58:24Z</time>
      </trkpt>
      <trkpt lat="47.347455751150846" lon="11.258550714701414">
        <ele>1307.6400000000001</ele>
        <time>2015-03-13T13:58:38Z</time>
      </trkpt>
      <trkpt lat="47.347586341202259" lon="11.258479636162519">
        <ele>1307.869999999999891</ele>
        <time>2015-03-13T13:58:46Z</time>
      </trkpt>
      <trkpt lat="47.347603775560856" lon="11.258450299501419">
        <ele>1307.930000000000064</ele>
        <time>2015-03-13T13:58:47Z</time>
      </trkpt>
      <trkpt lat="47.347617270424962" lon="11.258425656706095">
        <ele>1308.170000000000073</ele>
        <time>2015-03-13T13:58:48Z</time>
      </trkpt>
      <trkpt lat="47.347665634006262" lon="11.258301604539156">
        <ele>1308.519999999999982</ele>
        <time>2015-03-13T13:58:56Z</time>
      </trkpt>
      <trkpt lat="47.347691701725125" lon="11.258152239024639">
        <ele>1308.940000000000055</ele>
        <time>2015-03-13T13:59:04Z</time>
      </trkpt>
      <trkpt lat="47.347692791372538" lon="11.258130446076393">
        <ele>1308.910000000000082</ele>
        <time>2015-03-13T13:59:05Z</time>
      </trkpt>
      <trkpt lat="47.347701927646995" lon="11.258100941777229">
        <ele>1308.299999999999955</ele>
        <time>2015-03-13T13:59:06Z</time>
      </trkpt>
      <trkpt lat="47.347710728645325" lon="11.25807411968708">
        <ele>1308.410000000000082</ele>
        <time>2015-03-13T13:59:07Z</time>
      </trkpt>
      <trkpt lat="47.347715841606259" lon="11.258048471063375">
        <ele>1308.759999999999991</ele>
        <time>2015-03-13T13:59:08Z</time>
      </trkpt>
      <trkpt lat="47.347720954567194" lon="11.258020810782909">
        <ele>1308.950000000000045</ele>
        <time>2015-03-13T13:59:09Z</time>
      </trkpt>
      <trkpt lat="47.347728833556175" lon="11.257971273735166">
        <ele>1309.230000000000018</ele>
        <time>2015-03-13T13:59:11Z</time>
      </trkpt>
      <trkpt lat="47.347738640382886" lon="11.257942691445351">
        <ele>1309.369999999999891</ele>
        <time>2015-03-13T13:59:13Z</time>
      </trkpt>
      <trkpt lat="47.34783947467804" lon="11.257696179673076">
        <ele>1309.579999999999927</ele>
        <time>2015-03-13T13:59:26Z</time>
      </trkpt>
      <trkpt lat="47.347852634266019" lon="11.257681092247367">
        <ele>1309.25</ele>
        <time>2015-03-13T13:59:27Z</time>
      </trkpt>
      <trkpt lat="47.347865207120776" lon="11.25766659155488">
        <ele>1308.480000000000018</ele>
        <time>2015-03-13T13:59:28Z</time>
      </trkpt>
      <trkpt lat="47.34799143858254" lon="11.257573720067739">
        <ele>1309.039999999999964</ele>
        <time>2015-03-13T13:59:37Z</time>
      </trkpt>
      <trkpt lat="47.348202578723431" lon="11.257326956838369">
        <ele>1307.920000000000073</ele>
        <time>2015-03-13T13:59:49Z</time>
      </trkpt>
      <trkpt lat="47.348272735252976" lon="11.25723953358829">
        <ele>1308.170000000000073</ele>
        <time>2015-03-13T13:59:57Z</time>
      </trkpt>
      <trkpt lat="47.348285475745797" lon="11.257223021239042">
        <ele>1308.759999999999991</ele>
        <time>2015-03-13T13:59:58Z</time>
      </trkpt>
      <trkpt lat="47.348296791315079" lon="11.257206005975604">
        <ele>1308.230000000000018</ele>
        <time>2015-03-13T13:59:59Z</time>
      </trkpt>
      <trkpt lat="47.348308861255646" lon="11.25718236900866">
        <ele>1308.049999999999955</ele>
        <time>2015-03-13T14:00:00Z</time>
      </trkpt>
      <trkpt lat="47.348322439938784" lon="11.257159905508161">
        <ele>1308.6099999999999</ele>
        <time>2015-03-13T14:00:01Z</time>
      </trkpt>
      <trkpt lat="47.348333336412907" lon="11.257136771455407">
        <ele>1308.549999999999955</ele>
        <time>2015-03-13T14:00:02Z</time>
      </trkpt>
      <trkpt lat="47.348344568163157" lon="11.257115313783288">
        <ele>1308.329999999999927</ele>
        <time>2015-03-13T14:00:03Z</time>
      </trkpt>
      <trkpt lat="47.348357392475009" lon="11.257096454501152">
        <ele>1308.910000000000082</ele>
        <time>2015-03-13T14:00:04Z</time>
      </trkpt>
      <trkpt lat="47.348372396081686" lon="11.257079690694809">
        <ele>1308.549999999999955</ele>
        <time>2015-03-13T14:00:05Z</time>
      </trkpt>
      <trkpt lat="47.348386393859982" lon="11.257064687088132">
        <ele>1308.200000000000045</ele>
        <time>2015-03-13T14:00:06Z</time>
      </trkpt>
      <trkpt lat="47.348400224000216" lon="11.25704649835825">
        <ele>1308.579999999999927</ele>
        <time>2015-03-13T14:00:07Z</time>
      </trkpt>
      <trkpt lat="47.348476583138108" lon="11.25695320777595">
        <ele>1308.079999999999927</ele>
        <time>2015-03-13T14:00:12Z</time>
      </trkpt>
      <trkpt lat="47.348491586744785" lon="11.256929989904165">
        <ele>1308.680000000000064</ele>
        <time>2015-03-13T14:00:13Z</time>
      </trkpt>
      <trkpt lat="47.348508602008224" lon="11.256908113136888">
        <ele>1308.029999999999973</ele>
        <time>2015-03-13T14:00:14Z</time>
      </trkpt>
      <trkpt lat="47.348521593958139" lon="11.256886990740895">
        <ele>1308.460000000000036</ele>
        <time>2015-03-13T14:00:15Z</time>
      </trkpt>
      <trkpt lat="47.348532909527421" lon="11.256868131458759">
        <ele>1308.099999999999909</ele>
        <time>2015-03-13T14:00:16Z</time>
      </trkpt>
      <trkpt lat="47.348545398563147" lon="11.256853127852082">
        <ele>1308.410000000000082</ele>
        <time>2015-03-13T14:00:17Z</time>
      </trkpt>
      <trkpt lat="47.348555037751794" lon="11.256839968264103">
        <ele>1308.309999999999945</ele>
        <time>2015-03-13T14:00:18Z</time>
      </trkpt>
      <trkpt lat="47.348562916740775" lon="11.25682320445776">
        <ele>1308.819999999999936</ele>
        <time>2015-03-13T14:00:19Z</time>
      </trkpt>
      <trkpt lat="47.348572220653296" lon="11.256803590804338">
        <ele>1308.490000000000009</ele>
        <time>2015-03-13T14:00:20Z</time>
      </trkpt>
      <trkpt lat="47.348581524565816" lon="11.256778948009014">
        <ele>1308.75</ele>
        <time>2015-03-13T14:00:21Z</time>
      </trkpt>
      <trkpt lat="47.348589906468987" lon="11.256755981594324">
        <ele>1308.869999999999891</ele>
        <time>2015-03-13T14:00:22Z</time>
      </trkpt>
      <trkpt lat="47.34859979711473" lon="11.256735026836395">
        <ele>1308.210000000000036</ele>
        <time>2015-03-13T14:00:23Z</time>
      </trkpt>
      <trkpt lat="47.348720412701368" lon="11.256530843675137">
        <ele>1309.240000000000009</ele>
        <time>2015-03-13T14:00:39Z</time>
      </trkpt>
      <trkpt lat="47.348968181759119" lon="11.25640444457531">
        <ele>1308.180000000000064</ele>
        <time>2015-03-13T14:00:51Z</time>
      </trkpt>
      <trkpt lat="47.349188961088657" lon="11.256288271397352">
        <ele>1308.759999999999991</ele>
        <time>2015-03-13T14:01:03Z</time>
      </trkpt>
      <trkpt lat="47.349205054342747" lon="11.256278967484832">
        <ele>1308.910000000000082</ele>
        <time>2015-03-13T14:01:04Z</time>
      </trkpt>
      <trkpt lat="47.349220979958773" lon="11.256268909201026">
        <ele>1308.519999999999982</ele>
        <time>2015-03-13T14:01:05Z</time>
      </trkpt>
      <trkpt lat="47.349528763443232" lon="11.25609808601439">
        <ele>1308.529999999999973</ele>
        <time>2015-03-13T14:01:19Z</time>
      </trkpt>
      <trkpt lat="47.349731856957078" lon="11.256017368286848">
        <ele>1308.450000000000045</ele>
        <time>2015-03-13T14:01:31Z</time>
      </trkpt>
      <trkpt lat="47.349844928830862" lon="11.256019463762641">
        <ele>1309.279999999999973</ele>
        <time>2015-03-13T14:01:41Z</time>
      </trkpt>
      <trkpt lat="47.349854819476604" lon="11.256021643057466">
        <ele>1309.670000000000073</ele>
        <time>2015-03-13T14:01:42Z</time>
      </trkpt>
      <trkpt lat="47.350006364285946" lon="11.255991887301207">
        <ele>1310.3599999999999</ele>
        <time>2015-03-13T14:02:02Z</time>
      </trkpt>
      <trkpt lat="47.350088590756059" lon="11.255959030240774">
        <ele>1310.910000000000082</ele>
        <time>2015-03-13T14:02:08Z</time>
      </trkpt>
      <trkpt lat="47.350099487230182" lon="11.255952911451459">
        <ele>1310.380000000000109</ele>
        <time>2015-03-13T14:02:09Z</time>
      </trkpt>
      <trkpt lat="47.350121363997459" lon="11.255954504013062">
        <ele>1310.5</ele>
        <time>2015-03-13T14:02:11Z</time>
      </trkpt>
      <trkpt lat="47.350140139460564" lon="11.255958024412394">
        <ele>1309.75</ele>
        <time>2015-03-13T14:02:12Z</time>
      </trkpt>
      <trkpt lat="47.350163105875254" lon="11.255960371345282">
        <ele>1309.819999999999936</ele>
        <time>2015-03-13T14:02:13Z</time>
      </trkpt>
      <trkpt lat="47.350585302338004" lon="11.255789799615741">
        <ele>1307.930000000000064</ele>
        <time>2015-03-13T14:02:25Z</time>
      </trkpt>
      <trkpt lat="47.350703151896596" lon="11.255718721076846">
        <ele>1306.380000000000109</ele>
        <time>2015-03-13T14:02:28Z</time>
      </trkpt>
      <trkpt lat="47.350883446633816" lon="11.255698939785361">
        <ele>1304.650000000000091</ele>
        <time>2015-03-13T14:02:33Z</time>
      </trkpt>
      <trkpt lat="47.351173628121614" lon="11.255732467398047">
        <ele>1303.490000000000009</ele>
        <time>2015-03-13T14:02:44Z</time>
      </trkpt>
      <trkpt lat="47.351412177085876" lon="11.25572475604713">
        <ele>1302.369999999999891</ele>
        <time>2015-03-13T14:02:52Z</time>
      </trkpt>
      <trkpt lat="47.351458026096225" lon="11.255708914250135">
        <ele>1301.940000000000055</ele>
        <time>2015-03-13T14:02:53Z</time>
      </trkpt>
      <trkpt lat="47.35150471329689" lon="11.255695587024093">
        <ele>1301.130000000000109</ele>
        <time>2015-03-13T14:02:54Z</time>
      </trkpt>
      <trkpt lat="47.351619210094213" lon="11.255675554275513">
        <ele>1300.029999999999973</ele>
        <time>2015-03-13T14:02:56Z</time>
      </trkpt>
      <trkpt lat="47.351676961407065" lon="11.255674380809069">
        <ele>1299.119999999999891</ele>
        <time>2015-03-13T14:02:57Z</time>
      </trkpt>
      <trkpt lat="47.351741334423423" lon="11.255678320303559">
        <ele>1298.930000000000064</ele>
        <time>2015-03-13T14:02:58Z</time>
      </trkpt>
      <trkpt lat="47.351945098489523" lon="11.255689887329936">
        <ele>1297.579999999999927</ele>
        <time>2015-03-13T14:03:01Z</time>
      </trkpt>
      <trkpt lat="47.352291522547603" lon="11.255732299759984">
        <ele>1293.799999999999955</ele>
        <time>2015-03-13T14:03:06Z</time>
      </trkpt>
      <trkpt lat="47.352429069578648" lon="11.255758870393038">
        <ele>1292.089999999999918</ele>
        <time>2015-03-13T14:03:08Z</time>
      </trkpt>
      <trkpt lat="47.352499393746257" lon="11.255782172083855">
        <ele>1292.259999999999991</ele>
        <time>2015-03-13T14:03:09Z</time>
      </trkpt>
      <trkpt lat="47.352569298818707" lon="11.255820896476507">
        <ele>1291.549999999999955</ele>
        <time>2015-03-13T14:03:10Z</time>
      </trkpt>
      <trkpt lat="47.352695027366281" lon="11.255902703851461">
        <ele>1290.700000000000045</ele>
        <time>2015-03-13T14:03:12Z</time>
      </trkpt>
      <trkpt lat="47.352747498080134" lon="11.255944529548287">
        <ele>1290.299999999999955</ele>
        <time>2015-03-13T14:03:13Z</time>
      </trkpt>
      <trkpt lat="47.352843889966607" lon="11.256031282246113">
        <ele>1289.410000000000082</ele>
        <time>2015-03-13T14:03:15Z</time>
      </trkpt>
      <trkpt lat="47.352992249652743" lon="11.256154831498861">
        <ele>1288.319999999999936</ele>
        <time>2015-03-13T14:03:18Z</time>
      </trkpt>
      <trkpt lat="47.353049833327532" lon="11.256179725751281">
        <ele>1287.3900000000001</ele>
        <time>2015-03-13T14:03:19Z</time>
      </trkpt>
      <trkpt lat="47.353275055065751" lon="11.256269831210375">
        <ele>1286.1400000000001</ele>
        <time>2015-03-13T14:03:23Z</time>
      </trkpt>
      <trkpt lat="47.353489631786942" lon="11.256348369643092">
        <ele>1284.690000000000055</ele>
        <time>2015-03-13T14:03:28Z</time>
      </trkpt>
      <trkpt lat="47.353535229340196" lon="11.256368570029736">
        <ele>1283.8900000000001</ele>
        <time>2015-03-13T14:03:29Z</time>
      </trkpt>
      <trkpt lat="47.353591052815318" lon="11.256381059065461">
        <ele>1283.1400000000001</ele>
        <time>2015-03-13T14:03:30Z</time>
      </trkpt>
      <trkpt lat="47.353644445538521" lon="11.256390446797013">
        <ele>1282.660000000000082</ele>
        <time>2015-03-13T14:03:31Z</time>
      </trkpt>
      <trkpt lat="47.35369959846139" lon="11.256408719345927">
        <ele>1282.480000000000018</ele>
        <time>2015-03-13T14:03:32Z</time>
      </trkpt>
      <trkpt lat="47.353874109685421" lon="11.256446018815041">
        <ele>1279.349999999999909</ele>
        <time>2015-03-13T14:03:35Z</time>
      </trkpt>
      <trkpt lat="47.353934375569224" lon="11.256460938602686">
        <ele>1278.650000000000091</ele>
        <time>2015-03-13T14:03:36Z</time>
      </trkpt>
      <trkpt lat="47.354233358055353" lon="11.256484156474471">
        <ele>1274.8599999999999</ele>
        <time>2015-03-13T14:03:40Z</time>
      </trkpt>
      <trkpt lat="47.354452293366194" lon="11.256504859775305">
        <ele>1272.849999999999909</ele>
        <time>2015-03-13T14:03:43Z</time>
      </trkpt>
      <trkpt lat="47.354524545371532" lon="11.256485832855105">
        <ele>1272.450000000000045</ele>
        <time>2015-03-13T14:03:44Z</time>
      </trkpt>
      <trkpt lat="47.354594869539142" lon="11.256466973572969">
        <ele>1271.190000000000055</ele>
        <time>2015-03-13T14:03:45Z</time>
      </trkpt>
      <trkpt lat="47.354663098230958" lon="11.25643671490252">
        <ele>1271.259999999999991</ele>
        <time>2015-03-13T14:03:46Z</time>
      </trkpt>
      <trkpt lat="47.354715736582875" lon="11.256386507302523">
        <ele>1269.460000000000036</ele>
        <time>2015-03-13T14:03:47Z</time>
      </trkpt>
      <trkpt lat="47.35476091504097" lon="11.256351638585329">
        <ele>1268.720000000000027</ele>
        <time>2015-03-13T14:03:48Z</time>
      </trkpt>
      <trkpt lat="47.354799471795559" lon="11.256323894485831">
        <ele>1268.339999999999918</ele>
        <time>2015-03-13T14:03:49Z</time>
      </trkpt>
      <trkpt lat="47.354837525635958" lon="11.256323223933578">
        <ele>1267.730000000000018</ele>
        <time>2015-03-13T14:03:50Z</time>
      </trkpt>
      <trkpt lat="47.354877758771181" lon="11.256313836202025">
        <ele>1267.1099999999999</ele>
        <time>2015-03-13T14:03:51Z</time>
      </trkpt>
      <trkpt lat="47.354920590296388" lon="11.256295898929238">
        <ele>1266.569999999999936</ele>
        <time>2015-03-13T14:03:52Z</time>
      </trkpt>
      <trkpt lat="47.354965517297387" lon="11.256271926686168">
        <ele>1266.990000000000009</ele>
        <time>2015-03-13T14:03:53Z</time>
      </trkpt>
      <trkpt lat="47.35501010902226" lon="11.25622951425612">
        <ele>1266.299999999999955</ele>
        <time>2015-03-13T14:03:54Z</time>
      </trkpt>
      <trkpt lat="47.355058891698718" lon="11.256176456809044">
        <ele>1266.200000000000045</ele>
        <time>2015-03-13T14:03:55Z</time>
      </trkpt>
      <trkpt lat="47.355109518393874" lon="11.256122980266809">
        <ele>1264.049999999999955</ele>
        <time>2015-03-13T14:03:56Z</time>
      </trkpt>
      <trkpt lat="47.355223260819912" lon="11.256034886464477">
        <ele>1261.059999999999945</ele>
        <time>2015-03-13T14:03:58Z</time>
      </trkpt>
      <trkpt lat="47.355282185599208" lon="11.256021223962307">
        <ele>1260.880000000000109</ele>
        <time>2015-03-13T14:03:59Z</time>
      </trkpt>
      <trkpt lat="47.355338428169489" lon="11.256024576723576">
        <ele>1260.450000000000045</ele>
        <time>2015-03-13T14:04:00Z</time>
      </trkpt>
      <trkpt lat="47.355388132855296" lon="11.256049973890185">
        <ele>1259.819999999999936</ele>
        <time>2015-03-13T14:04:01Z</time>
      </trkpt>
      <trkpt lat="47.355441609397531" lon="11.256063971668482">
        <ele>1259.039999999999964</ele>
        <time>2015-03-13T14:04:02Z</time>
      </trkpt>
      <trkpt lat="47.355495253577828" lon="11.256072856485844">
        <ele>1258.3599999999999</ele>
        <time>2015-03-13T14:04:03Z</time>
      </trkpt>
      <trkpt lat="47.355684097856283" lon="11.25610395334661">
        <ele>1255.160000000000082</ele>
        <time>2015-03-13T14:04:07Z</time>
      </trkpt>
      <trkpt lat="47.355726426467299" lon="11.256103031337261">
        <ele>1254.089999999999918</ele>
        <time>2015-03-13T14:04:08Z</time>
      </trkpt>
      <trkpt lat="47.355780238285661" lon="11.256087524816394">
        <ele>1253.410000000000082</ele>
        <time>2015-03-13T14:04:09Z</time>
      </trkpt>
      <trkpt lat="47.355839414522052" lon="11.256082830950618">
        <ele>1252.25</ele>
        <time>2015-03-13T14:04:10Z</time>
      </trkpt>
      <trkpt lat="47.355899512767792" lon="11.256080903112888">
        <ele>1251.680000000000064</ele>
        <time>2015-03-13T14:04:11Z</time>
      </trkpt>
      <trkpt lat="47.35596195794642" lon="11.256077717989683">
        <ele>1250.619999999999891</ele>
        <time>2015-03-13T14:04:12Z</time>
      </trkpt>
      <trkpt lat="47.356085339561105" lon="11.256058691069484">
        <ele>1249.039999999999964</ele>
        <time>2015-03-13T14:04:14Z</time>
      </trkpt>
      <trkpt lat="47.356140576303005" lon="11.256030360236764">
        <ele>1247.75</ele>
        <time>2015-03-13T14:04:15Z</time>
      </trkpt>
      <trkpt lat="47.356273094192147" lon="11.25596615485847">
        <ele>1244.8900000000001</ele>
        <time>2015-03-13T14:04:17Z</time>
      </trkpt>
      <trkpt lat="47.356344759464264" lon="11.255968837067485">
        <ele>1244.339999999999918</ele>
        <time>2015-03-13T14:04:18Z</time>
      </trkpt>
      <trkpt lat="47.356415586546063" lon="11.255996162071824">
        <ele>1243.490000000000009</ele>
        <time>2015-03-13T14:04:19Z</time>
      </trkpt>
      <trkpt lat="47.356474427506328" lon="11.256052991375327">
        <ele>1242.900000000000091</ele>
        <time>2015-03-13T14:04:20Z</time>
      </trkpt>
      <trkpt lat="47.356530837714672" lon="11.256116945296526">
        <ele>1241.559999999999945</ele>
        <time>2015-03-13T14:04:21Z</time>
      </trkpt>
      <trkpt lat="47.35657325014472" lon="11.256189784035087">
        <ele>1240.400000000000091</ele>
        <time>2015-03-13T14:04:22Z</time>
      </trkpt>
      <trkpt lat="47.356615578755736" lon="11.256253989413381">
        <ele>1238.740000000000009</ele>
        <time>2015-03-13T14:04:23Z</time>
      </trkpt>
      <trkpt lat="47.356662852689624" lon="11.256320290267467">
        <ele>1238.75</ele>
        <time>2015-03-13T14:04:24Z</time>
      </trkpt>
      <trkpt lat="47.356715826317668" lon="11.256382483989">
        <ele>1237.579999999999927</ele>
        <time>2015-03-13T14:04:25Z</time>
      </trkpt>
      <trkpt lat="47.356770057231188" lon="11.256427075713873">
        <ele>1236.039999999999964</ele>
        <time>2015-03-13T14:04:26Z</time>
      </trkpt>
      <trkpt lat="47.356821857392788" lon="11.25645574182272">
        <ele>1235.259999999999991</ele>
        <time>2015-03-13T14:04:27Z</time>
      </trkpt>
      <trkpt lat="47.356882207095623" lon="11.256457166746259">
        <ele>1234.130000000000109</ele>
        <time>2015-03-13T14:04:28Z</time>
      </trkpt>
      <trkpt lat="47.356939958408475" lon="11.256458256393671">
        <ele>1232.420000000000073</ele>
        <time>2015-03-13T14:04:29Z</time>
      </trkpt>
      <trkpt lat="47.357006762176752" lon="11.256454903632402">
        <ele>1231.069999999999936</ele>
        <time>2015-03-13T14:04:30Z</time>
      </trkpt>
      <trkpt lat="47.35707557760179" lon="11.256466470658779">
        <ele>1230.650000000000091</ele>
        <time>2015-03-13T14:04:31Z</time>
      </trkpt>
      <trkpt lat="47.357345223426819" lon="11.256514247506857">
        <ele>1225.8900000000001</ele>
        <time>2015-03-13T14:04:35Z</time>
      </trkpt>
      <trkpt lat="47.357596764340997" lon="11.256605107337236">
        <ele>1221.119999999999891</ele>
        <time>2015-03-13T14:04:39Z</time>
      </trkpt>
      <trkpt lat="47.35784562304616" lon="11.256687920540571">
        <ele>1218.059999999999945</ele>
        <time>2015-03-13T14:04:43Z</time>
      </trkpt>
      <trkpt lat="47.358077466487885" lon="11.256750952452421">
        <ele>1213.589999999999918</ele>
        <time>2015-03-13T14:04:47Z</time>
      </trkpt>
      <trkpt lat="47.358199339359999" lon="11.256752209737897">
        <ele>1212.220000000000027</ele>
        <time>2015-03-13T14:04:49Z</time>
      </trkpt>
      <trkpt lat="47.358386507257819" lon="11.256742235273123">
        <ele>1210.079999999999927</ele>
        <time>2015-03-13T14:04:52Z</time>
      </trkpt>
      <trkpt lat="47.358440738171339" lon="11.256750533357263">
        <ele>1208.6400000000001</ele>
        <time>2015-03-13T14:04:53Z</time>
      </trkpt>
      <trkpt lat="47.358492622151971" lon="11.256766291335225">
        <ele>1207.480000000000018</ele>
        <time>2015-03-13T14:04:54Z</time>
      </trkpt>
      <trkpt lat="47.358625056222081" lon="11.256654979661107">
        <ele>1204.470000000000027</ele>
        <time>2015-03-13T14:05:01Z</time>
      </trkpt>
      <trkpt lat="47.358774002641439" lon="11.256544589996338">
        <ele>1204.700000000000045</ele>
        <time>2015-03-13T14:05:19Z</time>
      </trkpt>
      <trkpt lat="47.358962260186672" lon="11.256432607769966">
        <ele>1205.049999999999955</ele>
        <time>2015-03-13T14:05:31Z</time>
      </trkpt>
      <trkpt lat="47.35914783552289" lon="11.256420956924558">
        <ele>1203.380000000000109</ele>
        <time>2015-03-13T14:05:44Z</time>
      </trkpt>
      <trkpt lat="47.359157474711537" lon="11.25642548315227">
        <ele>1203.769999999999982</ele>
        <time>2015-03-13T14:05:45Z</time>
      </trkpt>
      <trkpt lat="47.359444554895163" lon="11.256558420136571">
        <ele>1201.099999999999909</ele>
        <time>2015-03-13T14:06:00Z</time>
      </trkpt>
      <trkpt lat="47.359787039458752" lon="11.256531262770295">
        <ele>1200.3599999999999</ele>
        <time>2015-03-13T14:06:14Z</time>
      </trkpt>
      <trkpt lat="47.360172271728516" lon="11.256292210891843">
        <ele>1199.069999999999936</ele>
        <time>2015-03-13T14:06:30Z</time>
      </trkpt>
      <trkpt lat="47.36044904217124" lon="11.255814861506224">
        <ele>1196.549999999999955</ele>
        <time>2015-03-13T14:06:46Z</time>
      </trkpt>
      <trkpt lat="47.360801501199603" lon="11.255494169890881">
        <ele>1194.769999999999982</ele>
        <time>2015-03-13T14:06:59Z</time>
      </trkpt>
      <trkpt lat="47.360969893634319" lon="11.255460055544972">
        <ele>1193.740000000000009</ele>
        <time>2015-03-13T14:07:04Z</time>
      </trkpt>
      <trkpt lat="47.361015491187572" lon="11.255436921492219">
        <ele>1193.480000000000018</ele>
        <time>2015-03-13T14:07:05Z</time>
      </trkpt>
      <trkpt lat="47.361171059310436" lon="11.255363747477531">
        <ele>1192.75</ele>
        <time>2015-03-13T14:07:08Z</time>
      </trkpt>
      <trkpt lat="47.361219171434641" lon="11.255343044176698">
        <ele>1192.130000000000109</ele>
        <time>2015-03-13T14:07:09Z</time>
      </trkpt>
      <trkpt lat="47.361265858635306" lon="11.255325609818101">
        <ele>1191.569999999999936</ele>
        <time>2015-03-13T14:07:10Z</time>
      </trkpt>
      <trkpt lat="47.361313467845321" lon="11.255312701687217">
        <ele>1191.450000000000045</ele>
        <time>2015-03-13T14:07:11Z</time>
      </trkpt>
      <trkpt lat="47.361362669616938" lon="11.255300296470523">
        <ele>1191.269999999999982</ele>
        <time>2015-03-13T14:07:12Z</time>
      </trkpt>
      <trkpt lat="47.361414553597569" lon="11.255292585119605">
        <ele>1190.970000000000027</ele>
        <time>2015-03-13T14:07:13Z</time>
      </trkpt>
      <trkpt lat="47.361467694863677" lon="11.255288477987051">
        <ele>1190.569999999999936</ele>
        <time>2015-03-13T14:07:14Z</time>
      </trkpt>
      <trkpt lat="47.361518573015928" lon="11.25529040582478">
        <ele>1190.450000000000045</ele>
        <time>2015-03-13T14:07:15Z</time>
      </trkpt>
      <trkpt lat="47.361568529158831" lon="11.255298368632793">
        <ele>1189.950000000000045</ele>
        <time>2015-03-13T14:07:16Z</time>
      </trkpt>
      <trkpt lat="47.361626448109746" lon="11.255300128832459">
        <ele>1189.980000000000018</ele>
        <time>2015-03-13T14:07:17Z</time>
      </trkpt>
      <trkpt lat="47.36168478615582" lon="11.255296943709254">
        <ele>1189.589999999999918</ele>
        <time>2015-03-13T14:07:18Z</time>
      </trkpt>
      <trkpt lat="47.361739771440625" lon="11.255284957587719">
        <ele>1189.089999999999918</ele>
        <time>2015-03-13T14:07:19Z</time>
      </trkpt>
      <trkpt lat="47.36179425381124" lon="11.255264086648822">
        <ele>1189.210000000000036</ele>
        <time>2015-03-13T14:07:20Z</time>
      </trkpt>
      <trkpt lat="47.361900201067328" lon="11.255210107192397">
        <ele>1188.630000000000109</ele>
        <time>2015-03-13T14:07:22Z</time>
      </trkpt>
      <trkpt lat="47.362295994535089" lon="11.254962673410773">
        <ele>1185.3900000000001</ele>
        <time>2015-03-13T14:07:30Z</time>
      </trkpt>
      <trkpt lat="47.362341927364469" lon="11.254934091120958">
        <ele>1185.240000000000009</ele>
        <time>2015-03-13T14:07:31Z</time>
      </trkpt>
      <trkpt lat="47.362387022003531" lon="11.254902156069875">
        <ele>1184.5</ele>
        <time>2015-03-13T14:07:32Z</time>
      </trkpt>
      <trkpt lat="47.362470421940088" lon="11.254834765568376">
        <ele>1183.329999999999927</ele>
        <time>2015-03-13T14:07:34Z</time>
      </trkpt>
      <trkpt lat="47.362508727237582" lon="11.25480517745018">
        <ele>1183.670000000000073</ele>
        <time>2015-03-13T14:07:35Z</time>
      </trkpt>
      <trkpt lat="47.36255113966763" lon="11.254780115559697">
        <ele>1182.180000000000064</ele>
        <time>2015-03-13T14:07:36Z</time>
      </trkpt>
      <trkpt lat="47.36275683157146" lon="11.254642568528652">
        <ele>1181.490000000000009</ele>
        <time>2015-03-13T14:07:41Z</time>
      </trkpt>
      <trkpt lat="47.362807290628552" lon="11.254621362313628">
        <ele>1181.029999999999973</ele>
        <time>2015-03-13T14:07:42Z</time>
      </trkpt>
      <trkpt lat="47.362903011962771" lon="11.254579201340675">
        <ele>1180</ele>
        <time>2015-03-13T14:07:44Z</time>
      </trkpt>
      <trkpt lat="47.362944753840566" lon="11.254540393128991">
        <ele>1180.380000000000109</ele>
        <time>2015-03-13T14:07:45Z</time>
      </trkpt>
      <trkpt lat="47.36314139328897" lon="11.254251888021827">
        <ele>1177.339999999999918</ele>
        <time>2015-03-13T14:07:50Z</time>
      </trkpt>
      <trkpt lat="47.363179614767432" lon="11.254183743149042">
        <ele>1177.269999999999982</ele>
        <time>2015-03-13T14:07:51Z</time>
      </trkpt>
      <trkpt lat="47.363224709406495" lon="11.254117358475924">
        <ele>1177.049999999999955</ele>
        <time>2015-03-13T14:07:52Z</time>
      </trkpt>
      <trkpt lat="47.363276928663254" lon="11.254057679325342">
        <ele>1175.700000000000045</ele>
        <time>2015-03-13T14:07:53Z</time>
      </trkpt>
      <trkpt lat="47.363333087414503" lon="11.254003616049886">
        <ele>1175.930000000000064</ele>
        <time>2015-03-13T14:07:54Z</time>
      </trkpt>
      <trkpt lat="47.363395197317004" lon="11.253954917192459">
        <ele>1174.960000000000036</ele>
        <time>2015-03-13T14:07:55Z</time>
      </trkpt>
      <trkpt lat="47.363461833447218" lon="11.253911079838872">
        <ele>1174.839999999999918</ele>
        <time>2015-03-13T14:07:56Z</time>
      </trkpt>
      <trkpt lat="47.363652605563402" lon="11.253762803971767">
        <ele>1172.589999999999918</ele>
        <time>2015-03-13T14:07:59Z</time>
      </trkpt>
      <trkpt lat="47.363712536171079" lon="11.253714021295309">
        <ele>1171.769999999999982</ele>
        <time>2015-03-13T14:08:00Z</time>
      </trkpt>
      <trkpt lat="47.363767689093947" lon="11.253655767068267">
        <ele>1171.660000000000082</ele>
        <time>2015-03-13T14:08:01Z</time>
      </trkpt>
      <trkpt lat="47.364042615517974" lon="11.253300122916698">
        <ele>1167.839999999999918</ele>
        <time>2015-03-13T14:08:06Z</time>
      </trkpt>
      <trkpt lat="47.3641069047153" lon="11.253224350512028">
        <ele>1166.869999999999891</ele>
        <time>2015-03-13T14:08:07Z</time>
      </trkpt>
      <trkpt lat="47.364472355693579" lon="11.25275001861155">
        <ele>1164.25</ele>
        <time>2015-03-13T14:08:13Z</time>
      </trkpt>
      <trkpt lat="47.364535639062524" lon="11.252685226500034">
        <ele>1163.680000000000064</ele>
        <time>2015-03-13T14:08:14Z</time>
      </trkpt>
      <trkpt lat="47.364689530804753" lon="11.252493783831596">
        <ele>1162.400000000000091</ele>
        <time>2015-03-13T14:08:17Z</time>
      </trkpt>
      <trkpt lat="47.364735128358006" lon="11.252430835738778">
        <ele>1162.059999999999945</ele>
        <time>2015-03-13T14:08:18Z</time>
      </trkpt>
      <trkpt lat="47.364783575758338" lon="11.2523761857301">
        <ele>1161.569999999999936</ele>
        <time>2015-03-13T14:08:19Z</time>
      </trkpt>
      <trkpt lat="47.365051209926605" lon="11.252118526026607">
        <ele>1159.630000000000109</ele>
        <time>2015-03-13T14:08:24Z</time>
      </trkpt>
      <trkpt lat="47.365111643448472" lon="11.252080053091049">
        <ele>1159.079999999999927</ele>
        <time>2015-03-13T14:08:25Z</time>
      </trkpt>
      <trkpt lat="47.365170903503895" lon="11.252053566277027">
        <ele>1158.599999999999909</ele>
        <time>2015-03-13T14:08:26Z</time>
      </trkpt>
      <trkpt lat="47.365227900445461" lon="11.252030180767179">
        <ele>1158.349999999999909</ele>
        <time>2015-03-13T14:08:27Z</time>
      </trkpt>
      <trkpt lat="47.365284478291869" lon="11.251999503001571">
        <ele>1157.680000000000064</ele>
        <time>2015-03-13T14:08:28Z</time>
      </trkpt>
      <trkpt lat="47.365341307595372" lon="11.251960694789886">
        <ele>1156.900000000000091</ele>
        <time>2015-03-13T14:08:29Z</time>
      </trkpt>
      <trkpt lat="47.365499474108219" lon="11.25182256102562">
        <ele>1155.440000000000055</ele>
        <time>2015-03-13T14:08:32Z</time>
      </trkpt>
      <trkpt lat="47.365543060004711" lon="11.25176539644599">
        <ele>1155.529999999999973</ele>
        <time>2015-03-13T14:08:33Z</time>
      </trkpt>
      <trkpt lat="47.365619419142604" lon="11.251641763374209">
        <ele>1155.009999999999991</ele>
        <time>2015-03-13T14:08:35Z</time>
      </trkpt>
      <trkpt lat="47.36569837667048" lon="11.251498097553849">
        <ele>1153.829999999999927</ele>
        <time>2015-03-13T14:08:37Z</time>
      </trkpt>
      <trkpt lat="47.365751601755619" lon="11.251444788649678">
        <ele>1152.849999999999909</ele>
        <time>2015-03-13T14:08:38Z</time>
      </trkpt>
      <trkpt lat="47.365812957286835" lon="11.251408662647009">
        <ele>1152.450000000000045</ele>
        <time>2015-03-13T14:08:39Z</time>
      </trkpt>
      <trkpt lat="47.366003561764956" lon="11.251322496682405">
        <ele>1150.710000000000036</ele>
        <time>2015-03-13T14:08:42Z</time>
      </trkpt>
      <trkpt lat="47.36614890396595" lon="11.251236498355865">
        <ele>1149.6400000000001</ele>
        <time>2015-03-13T14:08:45Z</time>
      </trkpt>
      <trkpt lat="47.366191651672125" lon="11.251191068440676">
        <ele>1149.660000000000082</ele>
        <time>2015-03-13T14:08:46Z</time>
      </trkpt>
      <trkpt lat="47.366238841786981" lon="11.251143207773566">
        <ele>1148.549999999999955</ele>
        <time>2015-03-13T14:08:47Z</time>
      </trkpt>
      <trkpt lat="47.366286031901836" lon="11.251094760373235">
        <ele>1147.940000000000055</ele>
        <time>2015-03-13T14:08:48Z</time>
      </trkpt>
      <trkpt lat="47.366328611969948" lon="11.251043546944857">
        <ele>1147.440000000000055</ele>
        <time>2015-03-13T14:08:49Z</time>
      </trkpt>
      <trkpt lat="47.366369683295488" lon="11.250997949391603">
        <ele>1146.990000000000009</ele>
        <time>2015-03-13T14:08:50Z</time>
      </trkpt>
      <trkpt lat="47.366410000249743" lon="11.250957883894444">
        <ele>1146.029999999999973</ele>
        <time>2015-03-13T14:08:51Z</time>
      </trkpt>
      <trkpt lat="47.366449059918523" lon="11.250923350453377">
        <ele>1146.5</ele>
        <time>2015-03-13T14:08:52Z</time>
      </trkpt>
      <trkpt lat="47.366524077951908" lon="11.250872891396284">
        <ele>1146</ele>
        <time>2015-03-13T14:08:54Z</time>
      </trkpt>
      <trkpt lat="47.366568418219686" lon="11.250859647989273">
        <ele>1145.569999999999936</ele>
        <time>2015-03-13T14:08:55Z</time>
      </trkpt>
      <trkpt lat="47.366611752659082" lon="11.250855624675751">
        <ele>1145.8900000000001</ele>
        <time>2015-03-13T14:08:56Z</time>
      </trkpt>
      <trkpt lat="47.366833537817001" lon="11.250852607190609">
        <ele>1144.490000000000009</ele>
        <time>2015-03-13T14:09:01Z</time>
      </trkpt>
      <trkpt lat="47.366918111220002" lon="11.250834167003632">
        <ele>1143.769999999999982</ele>
        <time>2015-03-13T14:09:03Z</time>
      </trkpt>
      <trkpt lat="47.366991620510817" lon="11.250787060707808">
        <ele>1143.660000000000082</ele>
        <time>2015-03-13T14:09:05Z</time>
      </trkpt>
      <trkpt lat="47.367024980485439" lon="11.250754622742534">
        <ele>1142.740000000000009</ele>
        <time>2015-03-13T14:09:06Z</time>
      </trkpt>
      <trkpt lat="47.367055658251047" lon="11.250712797045708">
        <ele>1142.730000000000018</ele>
        <time>2015-03-13T14:09:07Z</time>
      </trkpt>
      <trkpt lat="47.367076780647039" lon="11.250658733770251">
        <ele>1142.400000000000091</ele>
        <time>2015-03-13T14:09:08Z</time>
      </trkpt>
      <trkpt lat="47.367087928578258" lon="11.250603664666414">
        <ele>1142.269999999999982</ele>
        <time>2015-03-13T14:09:09Z</time>
      </trkpt>
      <trkpt lat="47.367096561938524" lon="11.250547673553228">
        <ele>1142.190000000000055</ele>
        <time>2015-03-13T14:09:10Z</time>
      </trkpt>
      <trkpt lat="47.367177782580256" lon="11.250234441831708">
        <ele>1141.1400000000001</ele>
        <time>2015-03-13T14:09:19Z</time>
      </trkpt>
      <trkpt lat="47.367199491709471" lon="11.250191442668438">
        <ele>1141.740000000000009</ele>
        <time>2015-03-13T14:09:30Z</time>
      </trkpt>
      <trkpt lat="47.36721508204937" lon="11.250165710225701">
        <ele>1141.579999999999927</ele>
        <time>2015-03-13T14:09:32Z</time>
      </trkpt>
      <trkpt lat="47.367224972695112" lon="11.250142827630043">
        <ele>1141.5</ele>
        <time>2015-03-13T14:09:33Z</time>
      </trkpt>
      <trkpt lat="47.367236204445362" lon="11.250122124329209">
        <ele>1140.8599999999999</ele>
        <time>2015-03-13T14:09:34Z</time>
      </trkpt>
      <trkpt lat="47.3672497831285" lon="11.250100079923868">
        <ele>1141.049999999999955</ele>
        <time>2015-03-13T14:09:35Z</time>
      </trkpt>
      <trkpt lat="47.367265708744526" lon="11.250076023861766">
        <ele>1140.759999999999991</ele>
        <time>2015-03-13T14:09:36Z</time>
      </trkpt>
      <trkpt lat="47.367437789216638" lon="11.249888269230723">
        <ele>1139.380000000000109</ele>
        <time>2015-03-13T14:09:42Z</time>
      </trkpt>
      <trkpt lat="47.367475675418973" lon="11.249844515696168">
        <ele>1139.240000000000009</ele>
        <time>2015-03-13T14:09:43Z</time>
      </trkpt>
      <trkpt lat="47.367773903533816" lon="11.249546790495515">
        <ele>1136.220000000000027</ele>
        <time>2015-03-13T14:09:50Z</time>
      </trkpt>
      <trkpt lat="47.367931818589568" lon="11.2494146078825">
        <ele>1134.490000000000009</ele>
        <time>2015-03-13T14:09:53Z</time>
      </trkpt>
      <trkpt lat="47.368115969002247" lon="11.2492885440588">
        <ele>1132.809999999999945</ele>
        <time>2015-03-13T14:09:56Z</time>
      </trkpt>
      <trkpt lat="47.368173217400908" lon="11.249234564602375">
        <ele>1132.309999999999945</ele>
        <time>2015-03-13T14:09:57Z</time>
      </trkpt>
      <trkpt lat="47.36837899312377" lon="11.249000709503889">
        <ele>1131</ele>
        <time>2015-03-13T14:10:01Z</time>
      </trkpt>
      <trkpt lat="47.368628354743123" lon="11.248751599341631">
        <ele>1128.779999999999973</ele>
        <time>2015-03-13T14:10:06Z</time>
      </trkpt>
      <trkpt lat="47.36895851790905" lon="11.248441049829125">
        <ele>1126.089999999999918</ele>
        <time>2015-03-13T14:10:13Z</time>
      </trkpt>
      <trkpt lat="47.368999756872654" lon="11.248405929654837">
        <ele>1124.980000000000018</ele>
        <time>2015-03-13T14:10:14Z</time>
      </trkpt>
      <trkpt lat="47.369038481265306" lon="11.24836946837604">
        <ele>1124.849999999999909</ele>
        <time>2015-03-13T14:10:15Z</time>
      </trkpt>
      <trkpt lat="47.369150714948773" lon="11.248240387067199">
        <ele>1123.579999999999927</ele>
        <time>2015-03-13T14:10:18Z</time>
      </trkpt>
      <trkpt lat="47.369295135140419" lon="11.248035952448845">
        <ele>1121.710000000000036</ele>
        <time>2015-03-13T14:10:22Z</time>
      </trkpt>
      <trkpt lat="47.369326567277312" lon="11.247977279126644">
        <ele>1121.619999999999891</ele>
        <time>2015-03-13T14:10:23Z</time>
      </trkpt>
      <trkpt lat="47.369358250871301" lon="11.247920952737331">
        <ele>1120.6099999999999</ele>
        <time>2015-03-13T14:10:24Z</time>
      </trkpt>
      <trkpt lat="47.369630830362439" lon="11.247486686334014">
        <ele>1118.130000000000109</ele>
        <time>2015-03-13T14:10:33Z</time>
      </trkpt>
      <trkpt lat="47.369878180325031" lon="11.247239084914327">
        <ele>1117.650000000000091</ele>
        <time>2015-03-13T14:10:43Z</time>
      </trkpt>
      <trkpt lat="47.370105246081948" lon="11.2468864582479">
        <ele>1115.049999999999955</ele>
        <time>2015-03-13T14:10:54Z</time>
      </trkpt>
      <trkpt lat="47.370122764259577" lon="11.24682636000216">
        <ele>1114.210000000000036</ele>
        <time>2015-03-13T14:10:55Z</time>
      </trkpt>
      <trkpt lat="47.370139192789793" lon="11.246759388595819">
        <ele>1114</ele>
        <time>2015-03-13T14:10:56Z</time>
      </trkpt>
      <trkpt lat="47.370178587734699" lon="11.246532658115029">
        <ele>1112.069999999999936</ele>
        <time>2015-03-13T14:10:59Z</time>
      </trkpt>
      <trkpt lat="47.370184035971761" lon="11.24645009636879">
        <ele>1112.150000000000091</ele>
        <time>2015-03-13T14:11:00Z</time>
      </trkpt>
      <trkpt lat="47.370187221094966" lon="11.24605187214911">
        <ele>1109.450000000000045</ele>
        <time>2015-03-13T14:11:05Z</time>
      </trkpt>
      <trkpt lat="47.370179761201143" lon="11.245815837755799">
        <ele>1107.829999999999927</ele>
        <time>2015-03-13T14:11:08Z</time>
      </trkpt>
      <trkpt lat="47.37018646672368" lon="11.245731683447957">
        <ele>1107.5</ele>
        <time>2015-03-13T14:11:09Z</time>
      </trkpt>
      <trkpt lat="47.370198620483279" lon="11.245653480291367">
        <ele>1107.3900000000001</ele>
        <time>2015-03-13T14:11:10Z</time>
      </trkpt>
      <trkpt lat="47.370225694030523" lon="11.245582569390535">
        <ele>1106.8900000000001</ele>
        <time>2015-03-13T14:11:11Z</time>
      </trkpt>
      <trkpt lat="47.370260898023844" lon="11.245523057878017">
        <ele>1106.1099999999999</ele>
        <time>2015-03-13T14:11:12Z</time>
      </trkpt>
      <trkpt lat="47.370299873873591" lon="11.245468910783529">
        <ele>1105.269999999999982</ele>
        <time>2015-03-13T14:11:13Z</time>
      </trkpt>
      <trkpt lat="47.370343627408147" lon="11.245416942983866">
        <ele>1105.180000000000064</ele>
        <time>2015-03-13T14:11:14Z</time>
      </trkpt>
      <trkpt lat="47.370386458933353" lon="11.245360616594553">
        <ele>1104.589999999999918</ele>
        <time>2015-03-13T14:11:15Z</time>
      </trkpt>
      <trkpt lat="47.37050405703485" lon="11.245176130905747">
        <ele>1102.8900000000001</ele>
        <time>2015-03-13T14:11:18Z</time>
      </trkpt>
      <trkpt lat="47.370528699830174" lon="11.245102286338806">
        <ele>1102.269999999999982</ele>
        <time>2015-03-13T14:11:19Z</time>
      </trkpt>
      <trkpt lat="47.370547978207469" lon="11.245023831725121">
        <ele>1102.869999999999891</ele>
        <time>2015-03-13T14:11:20Z</time>
      </trkpt>
      <trkpt lat="47.370567675679922" lon="11.244945963844657">
        <ele>1101.769999999999982</ele>
        <time>2015-03-13T14:11:21Z</time>
      </trkpt>
      <trkpt lat="47.370597012341022" lon="11.244869856163859">
        <ele>1101.670000000000073</ele>
        <time>2015-03-13T14:11:22Z</time>
      </trkpt>
      <trkpt lat="47.370638754218817" lon="11.24480539932847">
        <ele>1100.950000000000045</ele>
        <time>2015-03-13T14:11:23Z</time>
      </trkpt>
      <trkpt lat="47.370682507753372" lon="11.244754018262029">
        <ele>1099.829999999999927</ele>
        <time>2015-03-13T14:11:24Z</time>
      </trkpt>
      <trkpt lat="47.370723243802786" lon="11.244704313576221">
        <ele>1100.279999999999973</ele>
        <time>2015-03-13T14:11:25Z</time>
      </trkpt>
      <trkpt lat="47.370882080867887" lon="11.244531562551856">
        <ele>1099.049999999999955</ele>
        <time>2015-03-13T14:11:29Z</time>
      </trkpt>
      <trkpt lat="47.370914937928319" lon="11.244478169828653">
        <ele>1097.940000000000055</ele>
        <time>2015-03-13T14:11:30Z</time>
      </trkpt>
      <trkpt lat="47.370942179113626" lon="11.244416981935501">
        <ele>1098.329999999999927</ele>
        <time>2015-03-13T14:11:31Z</time>
      </trkpt>
      <trkpt lat="47.370964223518968" lon="11.244352944195271">
        <ele>1097.799999999999955</ele>
        <time>2015-03-13T14:11:32Z</time>
      </trkpt>
      <trkpt lat="47.370983166620135" lon="11.244294187054038">
        <ele>1097.170000000000073</ele>
        <time>2015-03-13T14:11:33Z</time>
      </trkpt>
      <trkpt lat="47.371076624840498" lon="11.244088662788272">
        <ele>1096.6400000000001</ele>
        <time>2015-03-13T14:11:37Z</time>
      </trkpt>
      <trkpt lat="47.371111242100596" lon="11.244042813777924">
        <ele>1095.579999999999927</ele>
        <time>2015-03-13T14:11:38Z</time>
      </trkpt>
      <trkpt lat="47.371222637593746" lon="11.243901159614325">
        <ele>1095.599999999999909</ele>
        <time>2015-03-13T14:11:41Z</time>
      </trkpt>
      <trkpt lat="47.371266139671206" lon="11.243851874023676">
        <ele>1095.150000000000091</ele>
        <time>2015-03-13T14:11:42Z</time>
      </trkpt>
      <trkpt lat="47.371586579829454" lon="11.243483908474445">
        <ele>1093.200000000000045</ele>
        <time>2015-03-13T14:11:50Z</time>
      </trkpt>
      <trkpt lat="47.371668722480536" lon="11.243445016443729">
        <ele>1093.049999999999955</ele>
        <time>2015-03-13T14:11:52Z</time>
      </trkpt>
      <trkpt lat="47.3718570638448" lon="11.243389947339892">
        <ele>1091.269999999999982</ele>
        <time>2015-03-13T14:11:56Z</time>
      </trkpt>
      <trkpt lat="47.371953455731273" lon="11.243338314816356">
        <ele>1090.420000000000073</ele>
        <time>2015-03-13T14:11:58Z</time>
      </trkpt>
      <trkpt lat="47.372115226462483" lon="11.24324762262404">
        <ele>1088.740000000000009</ele>
        <time>2015-03-13T14:12:01Z</time>
      </trkpt>
      <trkpt lat="47.372171469032764" lon="11.243236977607012">
        <ele>1088.029999999999973</ele>
        <time>2015-03-13T14:12:02Z</time>
      </trkpt>
      <trkpt lat="47.372352099046111" lon="11.243183333426714">
        <ele>1085.950000000000045</ele>
        <time>2015-03-13T14:12:05Z</time>
      </trkpt>
      <trkpt lat="47.372411107644439" lon="11.243152236565948">
        <ele>1085.720000000000027</ele>
        <time>2015-03-13T14:12:06Z</time>
      </trkpt>
      <trkpt lat="47.372467434033751" lon="11.243125749751925">
        <ele>1084.900000000000091</ele>
        <time>2015-03-13T14:12:07Z</time>
      </trkpt>
      <trkpt lat="47.372559551149607" lon="11.243097167462111">
        <ele>1083.930000000000064</ele>
        <time>2015-03-13T14:12:09Z</time>
      </trkpt>
      <trkpt lat="47.372841518372297" lon="11.242887787520885">
        <ele>1081.869999999999891</ele>
        <time>2015-03-13T14:12:18Z</time>
      </trkpt>
      <trkpt lat="47.372878901660442" lon="11.242855433374643">
        <ele>1081.549999999999955</ele>
        <time>2015-03-13T14:12:19Z</time>
      </trkpt>
      <trkpt lat="47.372955344617367" lon="11.242786450311542">
        <ele>1081</ele>
        <time>2015-03-13T14:12:21Z</time>
      </trkpt>
      <trkpt lat="47.373038828372955" lon="11.24274143949151">
        <ele>1080.8900000000001</ele>
        <time>2015-03-13T14:12:23Z</time>
      </trkpt>
      <trkpt lat="47.373311491683125" lon="11.242578662931919">
        <ele>1077.869999999999891</ele>
        <time>2015-03-13T14:12:31Z</time>
      </trkpt>
      <trkpt lat="47.37364249303937" lon="11.242498615756631">
        <ele>1075.299999999999955</ele>
        <time>2015-03-13T14:12:40Z</time>
      </trkpt>
      <trkpt lat="47.373990006744862" lon="11.242246069014072">
        <ele>1072.1099999999999</ele>
        <time>2015-03-13T14:12:50Z</time>
      </trkpt>
      <trkpt lat="47.374079609289765" lon="11.242189658805728">
        <ele>1071.099999999999909</ele>
        <time>2015-03-13T14:12:52Z</time>
      </trkpt>
      <trkpt lat="47.374232243746519" lon="11.242108773440123">
        <ele>1069.049999999999955</ele>
        <time>2015-03-13T14:12:56Z</time>
      </trkpt>
      <trkpt lat="47.374289827421308" lon="11.242082454264164">
        <ele>1069.599999999999909</ele>
        <time>2015-03-13T14:13:03Z</time>
      </trkpt>
      <trkpt lat="47.374325785785913" lon="11.242041550576687">
        <ele>1069.299999999999955</ele>
        <time>2015-03-13T14:13:06Z</time>
      </trkpt>
      <trkpt lat="47.374336430802941" lon="11.24202067963779">
        <ele>1068.670000000000073</ele>
        <time>2015-03-13T14:13:07Z</time>
      </trkpt>
      <trkpt lat="47.374352188780904" lon="11.241993019357324">
        <ele>1068.930000000000064</ele>
        <time>2015-03-13T14:13:08Z</time>
      </trkpt>
      <trkpt lat="47.374372221529484" lon="11.241963431239128">
        <ele>1069.039999999999964</ele>
        <time>2015-03-13T14:13:09Z</time>
      </trkpt>
      <trkpt lat="47.374403737485409" lon="11.241927305236459">
        <ele>1068.490000000000009</ele>
        <time>2015-03-13T14:13:10Z</time>
      </trkpt>
      <trkpt lat="47.374439612030983" lon="11.241884054616094">
        <ele>1068.849999999999909</ele>
        <time>2015-03-13T14:13:11Z</time>
      </trkpt>
      <trkpt lat="47.37452594563365" lon="11.241793278604746">
        <ele>1067.730000000000018</ele>
        <time>2015-03-13T14:13:13Z</time>
      </trkpt>
      <trkpt lat="47.37465837970376" lon="11.241684062406421">
        <ele>1065.950000000000045</ele>
        <time>2015-03-13T14:13:16Z</time>
      </trkpt>
      <trkpt lat="47.37469844520092" lon="11.241663945838809">
        <ele>1065.8599999999999</ele>
        <time>2015-03-13T14:13:17Z</time>
      </trkpt>
      <trkpt lat="47.374735325574875" lon="11.241653803735971">
        <ele>1065.380000000000109</ele>
        <time>2015-03-13T14:13:18Z</time>
      </trkpt>
      <trkpt lat="47.375019891187549" lon="11.241456242278218">
        <ele>1063.6400000000001</ele>
        <time>2015-03-13T14:13:27Z</time>
      </trkpt>
      <trkpt lat="47.375048892572522" lon="11.241410225629807">
        <ele>1063.460000000000036</ele>
        <time>2015-03-13T14:13:28Z</time>
      </trkpt>
      <trkpt lat="47.375195994973183" lon="11.241207718849182">
        <ele>1059.809999999999945</ele>
        <time>2015-03-13T14:13:32Z</time>
      </trkpt>
      <trkpt lat="47.375244693830609" lon="11.241152565926313">
        <ele>1059.009999999999991</ele>
        <time>2015-03-13T14:13:33Z</time>
      </trkpt>
      <trkpt lat="47.37531166523695" lon="11.241062041372061">
        <ele>1056.049999999999955</ele>
        <time>2015-03-13T14:13:35Z</time>
      </trkpt>
      <trkpt lat="47.375323567539454" lon="11.241040416061878">
        <ele>1056.25</ele>
        <time>2015-03-13T14:13:36Z</time>
      </trkpt>
      <trkpt lat="47.375342343002558" lon="11.241024741902947">
        <ele>1056.6099999999999</ele>
        <time>2015-03-13T14:13:37Z</time>
      </trkpt>
      <trkpt lat="47.37552079372108" lon="11.240845788270235">
        <ele>1053.819999999999936</ele>
        <time>2015-03-13T14:13:43Z</time>
      </trkpt>
      <trkpt lat="47.375619616359472" lon="11.240746043622494">
        <ele>1051.779999999999973</ele>
        <time>2015-03-13T14:13:46Z</time>
      </trkpt>
      <trkpt lat="47.37575682811439" lon="11.240571867674589">
        <ele>1048.539999999999964</ele>
        <time>2015-03-13T14:13:50Z</time>
      </trkpt>
      <trkpt lat="47.375787170603871" lon="11.240508835762739">
        <ele>1047.329999999999927</ele>
        <time>2015-03-13T14:13:51Z</time>
      </trkpt>
      <trkpt lat="47.375815669074655" lon="11.240456532686949">
        <ele>1046.710000000000036</ele>
        <time>2015-03-13T14:13:52Z</time>
      </trkpt>
      <trkpt lat="47.375849112868309" lon="11.240399871021509">
        <ele>1046.6400000000001</ele>
        <time>2015-03-13T14:13:53Z</time>
      </trkpt>
      <trkpt lat="47.375878281891346" lon="11.240334995090961">
        <ele>1046.009999999999991</ele>
        <time>2015-03-13T14:13:54Z</time>
      </trkpt>
      <trkpt lat="47.375903595238924" lon="11.24027187936008">
        <ele>1044.369999999999891</ele>
        <time>2015-03-13T14:13:55Z</time>
      </trkpt>
      <trkpt lat="47.375955898314714" lon="11.240137265995145">
        <ele>1043.5</ele>
        <time>2015-03-13T14:13:57Z</time>
      </trkpt>
      <trkpt lat="47.375981966033578" lon="11.240067612379789">
        <ele>1043.779999999999973</ele>
        <time>2015-03-13T14:13:58Z</time>
      </trkpt>
      <trkpt lat="47.376004764810205" lon="11.240003993734717">
        <ele>1042.690000000000055</ele>
        <time>2015-03-13T14:13:59Z</time>
      </trkpt>
      <trkpt lat="47.376013565808535" lon="11.239956468343735">
        <ele>1041.009999999999991</ele>
        <time>2015-03-13T14:14:00Z</time>
      </trkpt>
      <trkpt lat="47.376017505303025" lon="11.239936938509345">
        <ele>1041.210000000000036</ele>
        <time>2015-03-13T14:14:01Z</time>
      </trkpt>
      <trkpt lat="47.376065785065293" lon="11.23997482471168">
        <ele>1039.730000000000018</ele>
        <time>2015-03-13T14:14:11Z</time>
      </trkpt>
      <trkpt lat="47.376070898026228" lon="11.239949427545071">
        <ele>1040.259999999999991</ele>
        <time>2015-03-13T14:14:12Z</time>
      </trkpt>
      <trkpt lat="47.376077435910702" lon="11.239905506372452">
        <ele>1040.559999999999945</ele>
        <time>2015-03-13T14:14:13Z</time>
      </trkpt>
      <trkpt lat="47.376085231080651" lon="11.239852700382471">
        <ele>1039.990000000000009</ele>
        <time>2015-03-13T14:14:14Z</time>
      </trkpt>
      <trkpt lat="47.376087913289666" lon="11.239801235496998">
        <ele>1039.619999999999891</ele>
        <time>2015-03-13T14:14:15Z</time>
      </trkpt>
      <trkpt lat="47.376089422032237" lon="11.239743735641241">
        <ele>1038.700000000000045</ele>
        <time>2015-03-13T14:14:16Z</time>
      </trkpt>
      <trkpt lat="47.376087745651603" lon="11.239684894680977">
        <ele>1038.950000000000045</ele>
        <time>2015-03-13T14:14:17Z</time>
      </trkpt>
      <trkpt lat="47.376088248565793" lon="11.239621862769127">
        <ele>1038.660000000000082</ele>
        <time>2015-03-13T14:14:18Z</time>
      </trkpt>
      <trkpt lat="47.376088919118047" lon="11.239491356536746">
        <ele>1036.880000000000109</ele>
        <time>2015-03-13T14:14:20Z</time>
      </trkpt>
      <trkpt lat="47.376089422032237" lon="11.239423295482993">
        <ele>1036.380000000000109</ele>
        <time>2015-03-13T14:14:21Z</time>
      </trkpt>
      <trkpt lat="47.376079279929399" lon="11.238860953599215">
        <ele>1033.579999999999927</ele>
        <time>2015-03-13T14:14:31Z</time>
      </trkpt>
      <trkpt lat="47.376105766743422" lon="11.238681245595217">
        <ele>1032.779999999999973</ele>
        <time>2015-03-13T14:14:34Z</time>
      </trkpt>
      <trkpt lat="47.376153208315372" lon="11.238509584218264">
        <ele>1031.740000000000009</ele>
        <time>2015-03-13T14:14:37Z</time>
      </trkpt>
      <trkpt lat="47.376196626573801" lon="11.238345969468355">
        <ele>1028.900000000000091</ele>
        <time>2015-03-13T14:14:40Z</time>
      </trkpt>
      <trkpt lat="47.376271560788155" lon="11.238049501553178">
        <ele>1028.480000000000018</ele>
        <time>2015-03-13T14:14:47Z</time>
      </trkpt>
      <trkpt lat="47.376290922984481" lon="11.2380276247859">
        <ele>1028.599999999999909</ele>
        <time>2015-03-13T14:14:57Z</time>
      </trkpt>
      <trkpt lat="47.376284804195166" lon="11.238009771332145">
        <ele>1030.049999999999955</ele>
        <time>2015-03-13T14:15:21Z</time>
      </trkpt>
      <trkpt lat="47.376276087015867" lon="11.238001305609941">
        <ele>1027.849999999999909</ele>
        <time>2015-03-13T14:15:36Z</time>
      </trkpt>
      <trkpt lat="47.37626988440752" lon="11.238006083294749">
        <ele>1028.309999999999945</ele>
        <time>2015-03-13T14:16:06Z</time>
      </trkpt>
      <trkpt lat="47.376278350129724" lon="11.237976243719459">
        <ele>1028.25</ele>
        <time>2015-03-13T14:16:48Z</time>
      </trkpt>
      <trkpt lat="47.376302741467953" lon="11.238009184598923">
        <ele>1029.099999999999909</ele>
        <time>2015-03-13T14:17:09Z</time>
      </trkpt>
      <trkpt lat="47.376298131421208" lon="11.238017650321126">
        <ele>1030.220000000000027</ele>
        <time>2015-03-13T14:17:36Z</time>
      </trkpt>
      <trkpt lat="47.376285642385483" lon="11.238043969497085">
        <ele>1030.539999999999964</ele>
        <time>2015-03-13T14:17:58Z</time>
      </trkpt>
    </trkseg>
  </trk>

</gpx>
